Wetterdaten: Montag, 05.03.2018
Datum Zeit Temp. A. Pool Temp. Feuchte A. Luftdruck Regen Wind Richtung Richtung Sonnenschein ET UV Solar Taupunkt Windchill Windben Empfang
05.03.2018 00:00 -2,5 C 3,3 C 85 % 1000,7 hPa 0,0 l/m 10,2 km/h (2 Bft) O-NO 70 0 min 0,000 mm 0,0 UV-I 0 W/m -4,7 C -6,4 C 12,9 km/h (3 Bft) 100,00 %
05.03.2018 00:01 -2,5 C 3,3 C 85 % 1000,7 hPa 0,0 l/m 7,8 km/h (2 Bft) O-NO 72 0 min 0,000 mm 0,0 UV-I 0 W/m -4,7 C -4,1 C 11,3 km/h (2 Bft) 100,00 %
05.03.2018 00:02 -2,5 C 3,3 C 85 % 1000,7 hPa 0,0 l/m 9,1 km/h (2 Bft) O-NO 77 0 min 0,000 mm 0,0 UV-I 0 W/m -4,7 C -5,4 C 14,5 km/h (3 Bft) 10,53 %
05.03.2018 00:03 -2,6 C 3,3 C 85 % 1000,7 hPa 0,0 l/m 7,6 km/h (2 Bft) O 82 0 min 0,000 mm 0,0 UV-I 0 W/m -4,8 C -3,9 C 9,7 km/h (2 Bft) 57,14 %
05.03.2018 00:04 -2,6 C 3,3 C 85 % 1000,7 hPa 0,0 l/m 9,4 km/h (2 Bft) O-NO 71 0 min 0,000 mm 0,0 UV-I 0 W/m -4,8 C -5,8 C 11,3 km/h (2 Bft) 100,00 %
05.03.2018 00:05 -2,6 C 3,3 C 85 % 1000,7 hPa 0,0 l/m 8,3 km/h (2 Bft) NO 54 0 min 0,000 mm 0,0 UV-I 0 W/m -4,8 C -4,7 C 11,3 km/h (2 Bft) 95,83 %
05.03.2018 00:06 -2,6 C 3,3 C 85 % 1000,7 hPa 0,0 l/m 9,7 km/h (2 Bft) O-NO 62 0 min 0,000 mm 0,0 UV-I 0 W/m -4,8 C -6,0 C 16,1 km/h (3 Bft) 100,00 %
05.03.2018 00:07 -2,6 C 3,3 C 85 % 1000,7 hPa 0,0 l/m 7,5 km/h (2 Bft) O-NO 71 0 min 0,000 mm 0,0 UV-I 0 W/m -4,8 C -3,8 C 12,9 km/h (3 Bft) 95,83 %
05.03.2018 00:08 -2,5 C 3,3 C 85 % 1000,7 hPa 0,0 l/m 9,9 km/h (2 Bft) O-NO 63 0 min 0,000 mm 0,0 UV-I 0 W/m -4,7 C -6,1 C 16,1 km/h (3 Bft) 95,65 %
05.03.2018 00:09 -2,6 C 3,3 C 85 % 1000,7 hPa 0,0 l/m 9,7 km/h (2 Bft) O-NO 71 0 min 0,000 mm 0,0 UV-I 0 W/m -4,8 C -6,0 C 14,5 km/h (3 Bft) 95,83 %
05.03.2018 00:10 -2,5 C 3,3 C 85 % 1000,7 hPa 0,0 l/m 9,7 km/h (2 Bft) O 84 0 min 0,000 mm 0,0 UV-I 0 W/m -4,7 C -5,9 C 12,9 km/h (3 Bft) 100,00 %
05.03.2018 00:11 -2,5 C 3,3 C 85 % 1000,7 hPa 0,0 l/m 10,9 km/h (2 Bft) O-NO 65 0 min 0,000 mm 0,0 UV-I 0 W/m -4,7 C -7,0 C 14,5 km/h (3 Bft) 95,83 %
05.03.2018 00:12 -2,5 C 3,3 C 85 % 1000,7 hPa 0,0 l/m 12,3 km/h (3 Bft) O-NO 78 0 min 0,000 mm 0,0 UV-I 0 W/m -4,7 C -8,1 C 14,5 km/h (3 Bft) 95,65 %
05.03.2018 00:13 -2,5 C 3,3 C 85 % 1000,7 hPa 0,0 l/m 13,3 km/h (3 Bft) O-NO 69 0 min 0,000 mm 0,0 UV-I 0 W/m -4,7 C -8,9 C 16,1 km/h (3 Bft) 100,00 %
05.03.2018 00:14 -2,5 C 3,3 C 85 % 1000,7 hPa 0,0 l/m 12,5 km/h (3 Bft) O-NO 76 0 min 0,000 mm 0,0 UV-I 0 W/m -4,7 C -8,3 C 14,5 km/h (3 Bft) 95,83 %
05.03.2018 00:15 -2,5 C 3,3 C 85 % 1000,7 hPa 0,0 l/m 13,3 km/h (3 Bft) O-NO 61 0 min 0,000 mm 0,0 UV-I 0 W/m -4,7 C -8,9 C 17,7 km/h (3 Bft) 96,15 %
05.03.2018 00:16 -2,5 C 3,3 C 85 % 1000,7 hPa 0,0 l/m 9,6 km/h (2 Bft) O-NO 77 0 min 0,000 mm 0,0 UV-I 0 W/m -4,7 C -5,8 C 12,9 km/h (3 Bft) 95,83 %
05.03.2018 00:17 -2,5 C 3,3 C 85 % 1000,7 hPa 0,0 l/m 6,8 km/h (2 Bft) O 88 0 min 0,000 mm 0,0 UV-I 0 W/m -4,7 C -2,9 C 11,3 km/h (2 Bft) 95,65 %
05.03.2018 00:18 -2,5 C 3,3 C 85 % 1000,7 hPa 0,0 l/m 8,5 km/h (2 Bft) O-NO 77 0 min 0,000 mm 0,0 UV-I 0 W/m -4,7 C -4,8 C 14,5 km/h (3 Bft) 95,83 %
05.03.2018 00:19 -2,6 C 3,3 C 85 % 1000,7 hPa 0,0 l/m 13,3 km/h (3 Bft) O 81 0 min 0,000 mm 0,0 UV-I 0 W/m -4,8 C -9,0 C 17,7 km/h (3 Bft) 100,00 %
05.03.2018 00:20 -2,6 C 3,3 C 85 % 1000,7 hPa 0,0 l/m 10,1 km/h (2 Bft) O-NO 72 0 min 0,000 mm 0,0 UV-I 0 W/m -4,8 C -6,4 C 14,5 km/h (3 Bft) 95,83 %
05.03.2018 00:21 -2,6 C 3,3 C 85 % 1000,7 hPa 0,0 l/m 9,8 km/h (2 Bft) O 81 0 min 0,000 mm 0,0 UV-I 0 W/m -4,8 C -6,1 C 12,9 km/h (3 Bft) 95,65 %
05.03.2018 00:22 -2,6 C 3,3 C 85 % 1000,8 hPa 0,0 l/m 11,0 km/h (2 Bft) O-NO 69 0 min 0,000 mm 0,0 UV-I 0 W/m -4,8 C -7,2 C 14,5 km/h (3 Bft) 96,30 %
05.03.2018 00:23 -2,7 C 3,3 C 85 % 1000,7 hPa 0,0 l/m 10,2 km/h (2 Bft) O 97 0 min 0,000 mm 0,0 UV-I 0 W/m -4,9 C -6,6 C 12,9 km/h (3 Bft) 95,65 %
05.03.2018 00:24 -2,7 C 3,3 C 85 % 1000,7 hPa 0,0 l/m 12,7 km/h (3 Bft) O-SO 103 0 min 0,000 mm 0,0 UV-I 0 W/m -4,9 C -8,6 C 16,1 km/h (3 Bft) 96,30 %
05.03.2018 00:25 -2,7 C 3,3 C 86 % 1000,8 hPa 0,0 l/m 13,1 km/h (3 Bft) O 88 0 min 0,000 mm 0,0 UV-I 0 W/m -4,7 C -8,9 C 16,1 km/h (3 Bft) 95,65 %
05.03.2018 00:26 -2,7 C 3,3 C 86 % 1000,8 hPa 0,0 l/m 12,0 km/h (2 Bft) O 101 0 min 0,000 mm 0,0 UV-I 0 W/m -4,7 C -8,1 C 14,5 km/h (3 Bft) 100,00 %
05.03.2018 00:27 -2,7 C 3,3 C 86 % 1000,8 hPa 0,0 l/m 11,3 km/h (2 Bft) O-NO 78 0 min 0,000 mm 0,0 UV-I 0 W/m -4,7 C -7,5 C 14,5 km/h (3 Bft) 92,31 %
05.03.2018 00:28 -2,6 C 3,3 C 86 % 1000,8 hPa 0,0 l/m 10,9 km/h (2 Bft) O-NO 73 0 min 0,000 mm 0,0 UV-I 0 W/m -4,6 C -7,1 C 14,5 km/h (3 Bft) 100,00 %
05.03.2018 00:29 -2,6 C 3,3 C 86 % 1000,8 hPa 0,0 l/m 13,4 km/h (3 Bft) O 94 0 min 0,000 mm 0,0 UV-I 0 W/m -4,6 C -9,0 C 17,7 km/h (3 Bft) 96,15 %
05.03.2018 00:30 -2,6 C 3,3 C 86 % 1000,8 hPa 0,0 l/m 12,5 km/h (3 Bft) O-NO 65 0 min 0,000 mm 0,0 UV-I 0 W/m -4,6 C -8,4 C 16,1 km/h (3 Bft) 100,00 %
05.03.2018 00:31 -2,5 C 3,3 C 86 % 1000,8 hPa 0,0 l/m 12,9 km/h (3 Bft) O-NO 67 0 min 0,000 mm 0,0 UV-I 0 W/m -4,5 C -8,6 C 17,7 km/h (3 Bft) 95,65 %
05.03.2018 00:32 -2,6 C 3,3 C 86 % 1000,7 hPa 0,0 l/m 11,8 km/h (2 Bft) NO 54 0 min 0,000 mm 0,0 UV-I 0 W/m -4,6 C -7,8 C 16,1 km/h (3 Bft) 100,00 %
05.03.2018 00:33 -2,5 C 3,3 C 86 % 1000,7 hPa 0,0 l/m 13,9 km/h (3 Bft) O-NO 77 0 min 0,000 mm 0,0 UV-I 0 W/m -4,5 C -9,3 C 17,7 km/h (3 Bft) 95,65 %
05.03.2018 00:34 -2,5 C 3,3 C 86 % 1000,7 hPa 0,0 l/m 14,3 km/h (3 Bft) O 84 0 min 0,000 mm 0,0 UV-I 0 W/m -4,5 C -9,5 C 17,7 km/h (3 Bft) 100,00 %
05.03.2018 00:35 -2,5 C 3,3 C 86 % 1000,7 hPa 0,0 l/m 14,7 km/h (3 Bft) O-NO 72 0 min 0,000 mm 0,0 UV-I 0 W/m -4,5 C -9,8 C 19,3 km/h (3 Bft) 91,30 %
05.03.2018 00:36 -2,4 C 3,3 C 86 % 1000,6 hPa 0,0 l/m 14,9 km/h (3 Bft) O-NO 74 0 min 0,000 mm 0,0 UV-I 0 W/m -4,4 C -9,8 C 19,3 km/h (3 Bft) 95,83 %
05.03.2018 00:37 -2,4 C 3,3 C 86 % 1000,6 hPa 0,0 l/m 12,0 km/h (2 Bft) O-NO 76 0 min 0,000 mm 0,0 UV-I 0 W/m -4,4 C -7,8 C 16,1 km/h (3 Bft) 95,65 %
05.03.2018 00:38 -2,4 C 3,3 C 86 % 1000,7 hPa 0,0 l/m 9,0 km/h (2 Bft) O 101 0 min 0,000 mm 0,0 UV-I 0 W/m -4,4 C -5,2 C 14,5 km/h (3 Bft) 87,50 %
05.03.2018 00:39 -2,5 C 3,3 C 86 % 1000,7 hPa 0,0 l/m 11,4 km/h (2 Bft) O 84 0 min 0,000 mm 0,0 UV-I 0 W/m -4,5 C -7,4 C 16,1 km/h (3 Bft) 96,15 %
05.03.2018 00:40 -2,5 C 3,3 C 86 % 1000,6 hPa 0,0 l/m 10,7 km/h (2 Bft) O 94 0 min 0,000 mm 0,0 UV-I 0 W/m -4,5 C -6,8 C 12,9 km/h (3 Bft) 91,67 %
05.03.2018 00:41 -2,5 C 3,3 C 86 % 1000,7 hPa 0,0 l/m 9,7 km/h (2 Bft) O-NO 76 0 min 0,000 mm 0,0 UV-I 0 W/m -4,5 C -5,9 C 14,5 km/h (3 Bft) 100,00 %
05.03.2018 00:42 -2,5 C 3,3 C 86 % 1000,7 hPa 0,0 l/m 12,3 km/h (3 Bft) O 86 0 min 0,000 mm 0,0 UV-I 0 W/m -4,5 C -8,1 C 14,5 km/h (3 Bft) 91,30 %
05.03.2018 00:43 -2,5 C 3,3 C 86 % 1000,7 hPa 0,0 l/m 12,6 km/h (3 Bft) O 80 0 min 0,000 mm 0,0 UV-I 0 W/m -4,5 C -8,3 C 17,7 km/h (3 Bft) 100,00 %
05.03.2018 00:44 -2,6 C 3,3 C 86 % 1000,7 hPa 0,0 l/m 9,7 km/h (2 Bft) O-NO 67 0 min 0,000 mm 0,0 UV-I 0 W/m -4,6 C -6,0 C 14,5 km/h (3 Bft) 91,30 %
05.03.2018 00:45 -2,6 C 3,3 C 86 % 1000,6 hPa 0,0 l/m 12,1 km/h (2 Bft) O 93 0 min 0,000 mm 0,0 UV-I 0 W/m -4,6 C -8,1 C 17,7 km/h (3 Bft) 95,83 %
05.03.2018 00:46 -2,6 C 3,3 C 86 % 1000,6 hPa 0,0 l/m 11,2 km/h (2 Bft) O 88 0 min 0,000 mm 0,0 UV-I 0 W/m -4,6 C -7,4 C 16,1 km/h (3 Bft) 90,91 %
05.03.2018 00:47 -2,6 C 3,3 C 86 % 1000,6 hPa 0,0 l/m 13,4 km/h (3 Bft) O 86 0 min 0,000 mm 0,0 UV-I 0 W/m -4,6 C -9,0 C 17,7 km/h (3 Bft) 96,30 %
05.03.2018 00:48 -2,5 C 3,3 C 86 % 1000,6 hPa 0,0 l/m 14,7 km/h (3 Bft) O 85 0 min 0,000 mm 0,0 UV-I 0 W/m -4,5 C -9,8 C 16,1 km/h (3 Bft) 86,96 %
05.03.2018 00:49 -2,5 C 3,3 C 86 % 1000,6 hPa 0,0 l/m 9,8 km/h (2 Bft) O 87 0 min 0,000 mm 0,0 UV-I 0 W/m -4,5 C -6,0 C 14,5 km/h (3 Bft) 100,00 %
05.03.2018 00:50 -2,5 C 3,3 C 86 % 1000,7 hPa 0,0 l/m 8,5 km/h (2 Bft) O-NO 63 0 min 0,000 mm 0,0 UV-I 0 W/m -4,5 C -4,8 C 11,3 km/h (2 Bft) 92,31 %
05.03.2018 00:51 -2,5 C 3,3 C 86 % 1000,7 hPa 0,0 l/m 7,8 km/h (2 Bft) O 80 0 min 0,000 mm 0,0 UV-I 0 W/m -4,5 C -4,1 C 11,3 km/h (2 Bft) 91,67 %
05.03.2018 00:52 -2,5 C 3,3 C 86 % 1000,7 hPa 0,0 l/m 10,6 km/h (2 Bft) O 96 0 min 0,000 mm 0,0 UV-I 0 W/m -4,5 C -6,7 C 14,5 km/h (3 Bft) 95,45 %
05.03.2018 00:53 -2,5 C 3,3 C 86 % 1000,7 hPa 0,0 l/m 12,4 km/h (3 Bft) O-NO 74 0 min 0,000 mm 0,0 UV-I 0 W/m -4,5 C -8,2 C 17,7 km/h (3 Bft) 91,67 %
05.03.2018 00:54 -2,5 C 3,3 C 86 % 1000,7 hPa 0,0 l/m 8,4 km/h (2 Bft) O 94 0 min 0,000 mm 0,0 UV-I 0 W/m -4,5 C -4,7 C 12,9 km/h (3 Bft) 100,00 %
05.03.2018 00:55 -2,5 C 3,3 C 86 % 1000,7 hPa 0,0 l/m 8,6 km/h (2 Bft) O 84 0 min 0,000 mm 0,0 UV-I 0 W/m -4,5 C -4,9 C 12,9 km/h (3 Bft) 91,67 %
05.03.2018 00:56 -2,5 C 3,3 C 86 % 1000,7 hPa 0,0 l/m 9,4 km/h (2 Bft) O 81 0 min 0,000 mm 0,0 UV-I 0 W/m -4,5 C -5,7 C 12,9 km/h (3 Bft) 100,00 %
05.03.2018 00:57 -2,6 C 3,3 C 86 % 1000,7 hPa 0,0 l/m 8,9 km/h (2 Bft) O 100 0 min 0,000 mm 0,0 UV-I 0 W/m -4,6 C -5,3 C 11,3 km/h (2 Bft) 91,30 %
05.03.2018 00:58 -2,6 C 3,3 C 86 % 1000,8 hPa 0,0 l/m 11,2 km/h (2 Bft) O 84 0 min 0,000 mm 0,0 UV-I 0 W/m -4,6 C -7,4 C 16,1 km/h (3 Bft) 95,65 %
05.03.2018 00:59 -2,6 C 3,3 C 86 % 1000,7 hPa 0,0 l/m 7,7 km/h (2 Bft) O-SO 105 0 min 0,000 mm 0,0 UV-I 0 W/m -4,6 C -4,1 C 11,3 km/h (2 Bft) 100,00 %
05.03.2018 01:00 -2,6 C 3,3 C 86 % 1000,7 hPa 0,0 l/m 10,1 km/h (2 Bft) O 101 0 min 0,000 mm 0,0 UV-I 0 W/m -4,6 C -6,4 C 14,5 km/h (3 Bft) 91,67 %
05.03.2018 01:01 -2,6 C 3,3 C 86 % 1000,7 hPa 0,0 l/m 13,2 km/h (3 Bft) O 92 0 min 0,000 mm 0,0 UV-I 0 W/m -4,6 C -8,9 C 16,1 km/h (3 Bft) 100,00 %
05.03.2018 01:02 -2,6 C 3,3 C 86 % 1000,8 hPa 0,0 l/m 12,8 km/h (3 Bft) O-NO 73 0 min 0,000 mm 0,0 UV-I 0 W/m -4,6 C -8,6 C 16,1 km/h (3 Bft) 91,67 %
05.03.2018 01:03 -2,6 C 3,3 C 86 % 1000,8 hPa 0,0 l/m 10,3 km/h (2 Bft) O-SO 103 0 min 0,000 mm 0,0 UV-I 0 W/m -4,6 C -6,6 C 12,9 km/h (3 Bft) 86,96 %
05.03.2018 01:04 -2,6 C 3,3 C 86 % 1000,8 hPa 0,0 l/m 10,4 km/h (2 Bft) O 90 0 min 0,000 mm 0,0 UV-I 0 W/m -4,6 C -6,7 C 12,9 km/h (3 Bft) 91,67 %
05.03.2018 01:05 -2,6 C 3,3 C 86 % 1000,8 hPa 0,0 l/m 10,4 km/h (2 Bft) O-SO 103 0 min 0,000 mm 0,0 UV-I 0 W/m -4,6 C -6,7 C 14,5 km/h (3 Bft) 95,65 %
05.03.2018 01:06 -2,6 C 3,3 C 86 % 1000,8 hPa 0,0 l/m 9,1 km/h (2 Bft) O 82 0 min 0,000 mm 0,0 UV-I 0 W/m -4,6 C -5,5 C 14,5 km/h (3 Bft) 91,67 %
05.03.2018 01:07 -2,6 C 3,3 C 86 % 1000,8 hPa 0,0 l/m 11,4 km/h (2 Bft) O 79 0 min 0,000 mm 0,0 UV-I 0 W/m -4,6 C -7,5 C 14,5 km/h (3 Bft) 95,65 %
05.03.2018 01:08 -2,6 C 3,3 C 87 % 1000,7 hPa 0,0 l/m 13,8 km/h (3 Bft) O 97 0 min 0,000 mm 0,0 UV-I 0 W/m -4,5 C -9,3 C 17,7 km/h (3 Bft) 91,67 %
05.03.2018 01:09 -2,6 C 3,3 C 86 % 1000,8 hPa 0,0 l/m 14,3 km/h (3 Bft) O 101 0 min 0,000 mm 0,0 UV-I 0 W/m -4,6 C -9,7 C 20,9 km/h (4 Bft) 100,00 %
05.03.2018 01:10 -2,6 C 3,3 C 86 % 1000,7 hPa 0,0 l/m 11,8 km/h (2 Bft) O 88 0 min 0,000 mm 0,0 UV-I 0 W/m -4,6 C -7,8 C 16,1 km/h (3 Bft) 91,67 %
05.03.2018 01:11 -2,6 C 3,3 C 86 % 1000,7 hPa 0,0 l/m 11,7 km/h (2 Bft) O-NO 67 0 min 0,000 mm 0,0 UV-I 0 W/m -4,6 C -7,8 C 16,1 km/h (3 Bft) 100,00 %
05.03.2018 01:12 -2,6 C 3,3 C 86 % 1000,7 hPa 0,0 l/m 11,4 km/h (2 Bft) O-NO 69 0 min 0,000 mm 0,0 UV-I 0 W/m -4,6 C -7,5 C 14,5 km/h (3 Bft) 100,00 %
05.03.2018 01:13 -2,6 C 3,3 C 86 % 1000,7 hPa 0,0 l/m 11,5 km/h (2 Bft) O 97 0 min 0,000 mm 0,0 UV-I 0 W/m -4,6 C -7,6 C 14,5 km/h (3 Bft) 100,00 %
05.03.2018 01:14 -2,6 C 3,3 C 86 % 1000,7 hPa 0,0 l/m 12,0 km/h (2 Bft) O 88 0 min 0,000 mm 0,0 UV-I 0 W/m -4,6 C -8,0 C 14,5 km/h (3 Bft) 91,30 %
05.03.2018 01:15 -2,7 C 3,3 C 86 % 1000,6 hPa 0,0 l/m 14,0 km/h (3 Bft) O 82 0 min 0,000 mm 0,0 UV-I 0 W/m -4,7 C -9,6 C 17,7 km/h (3 Bft) 100,00 %
05.03.2018 01:16 -2,7 C 3,3 C 86 % 1000,7 hPa 0,0 l/m 13,0 km/h (3 Bft) O 80 0 min 0,000 mm 0,0 UV-I 0 W/m -4,7 C -8,9 C 17,7 km/h (3 Bft) 96,15 %
05.03.2018 01:17 -2,7 C 3,3 C 87 % 1000,7 hPa 0,0 l/m 13,4 km/h (3 Bft) O 89 0 min 0,000 mm 0,0 UV-I 0 W/m -4,6 C -9,2 C 19,3 km/h (3 Bft) 100,00 %
05.03.2018 01:18 -2,7 C 3,3 C 87 % 1000,7 hPa 0,0 l/m 15,4 km/h (3 Bft) O-NO 63 0 min 0,000 mm 0,0 UV-I 0 W/m -4,6 C -10,5 C 17,7 km/h (3 Bft) 95,65 %
05.03.2018 01:19 -2,7 C 3,3 C 87 % 1000,7 hPa 0,0 l/m 14,1 km/h (3 Bft) O 84 0 min 0,000 mm 0,0 UV-I 0 W/m -4,6 C -9,6 C 17,7 km/h (3 Bft) 100,00 %
05.03.2018 01:20 -2,7 C 3,3 C 87 % 1000,7 hPa 0,0 l/m 10,8 km/h (2 Bft) O 82 0 min 0,000 mm 0,0 UV-I 0 W/m -4,6 C -7,1 C 14,5 km/h (3 Bft) 92,31 %
05.03.2018 01:21 -2,7 C 3,3 C 87 % 1000,7 hPa 0,0 l/m 9,9 km/h (2 Bft) O 101 0 min 0,000 mm 0,0 UV-I 0 W/m -4,6 C -6,3 C 12,9 km/h (3 Bft) 100,00 %
05.03.2018 01:22 -2,7 C 3,3 C 87 % 1000,7 hPa 0,0 l/m 12,9 km/h (3 Bft) O 96 0 min 0,000 mm 0,0 UV-I 0 W/m -4,6 C -8,8 C 16,1 km/h (3 Bft) 95,65 %
05.03.2018 01:23 -2,7 C 3,3 C 87 % 1000,7 hPa 0,0 l/m 11,6 km/h (2 Bft) O 96 0 min 0,000 mm 0,0 UV-I 0 W/m -4,6 C -7,8 C 14,5 km/h (3 Bft) 91,67 %
05.03.2018 01:24 -2,7 C 3,3 C 87 % 1000,7 hPa 0,0 l/m 12,2 km/h (2 Bft) O 83 0 min 0,000 mm 0,0 UV-I 0 W/m -4,6 C -8,3 C 14,5 km/h (3 Bft) 100,00 %
05.03.2018 01:25 -2,8 C 3,3 C 87 % 1000,6 hPa 0,0 l/m 10,9 km/h (2 Bft) O-NO 72 0 min 0,000 mm 0,0 UV-I 0 W/m -4,7 C -7,3 C 14,5 km/h (3 Bft) 100,00 %
05.03.2018 01:26 -2,8 C 3,3 C 87 % 1000,7 hPa 0,0 l/m 11,3 km/h (2 Bft) O-NO 76 0 min 0,000 mm 0,0 UV-I 0 W/m -4,7 C -7,7 C 16,1 km/h (3 Bft) 100,00 %
05.03.2018 01:27 -2,7 C 3,3 C 87 % 1000,7 hPa 0,0 l/m 11,7 km/h (2 Bft) O-NO 67 0 min 0,000 mm 0,0 UV-I 0 W/m -4,6 C -7,9 C 16,1 km/h (3 Bft) 100,00 %
05.03.2018 01:28 -2,7 C 3,3 C 87 % 1000,7 hPa 0,0 l/m 10,8 km/h (2 Bft) O 94 0 min 0,000 mm 0,0 UV-I 0 W/m -4,6 C -7,1 C 14,5 km/h (3 Bft) 95,65 %
05.03.2018 01:29 -2,7 C 3,3 C 87 % 1000,7 hPa 0,0 l/m 12,7 km/h (3 Bft) O-SO 109 0 min 0,000 mm 0,0 UV-I 0 W/m -4,6 C -8,6 C 16,1 km/h (3 Bft) 100,00 %
05.03.2018 01:30 -2,7 C 3,3 C 87 % 1000,8 hPa 0,0 l/m 13,2 km/h (3 Bft) O 90 0 min 0,000 mm 0,0 UV-I 0 W/m -4,6 C -9,0 C 16,1 km/h (3 Bft) 100,00 %
05.03.2018 01:31 -2,7 C 3,3 C 87 % 1000,8 hPa 0,0 l/m 9,3 km/h (2 Bft) O-SO 112 0 min 0,000 mm 0,0 UV-I 0 W/m -4,6 C -5,8 C 12,9 km/h (3 Bft) 100,00 %
05.03.2018 01:32 -2,7 C 3,3 C 87 % 1000,8 hPa 0,0 l/m 11,2 km/h (2 Bft) O-SO 109 0 min 0,000 mm 0,0 UV-I 0 W/m -4,6 C -7,5 C 14,5 km/h (3 Bft) 100,00 %
05.03.2018 01:33 -2,7 C 3,3 C 87 % 1000,9 hPa 0,0 l/m 12,3 km/h (3 Bft) O 84 0 min 0,000 mm 0,0 UV-I 0 W/m -4,6 C -8,3 C 14,5 km/h (3 Bft) 100,00 %
05.03.2018 01:34 -2,7 C 3,3 C 87 % 1000,9 hPa 0,0 l/m 6,1 km/h (2 Bft) S-SO 148 0 min 0,000 mm 0,0 UV-I 0 W/m -4,6 C -2,7 C 9,7 km/h (2 Bft) 96,15 %
05.03.2018 01:35 -2,7 C 3,3 C 87 % 1000,9 hPa 0,0 l/m 10,4 km/h (2 Bft) O 87 0 min 0,000 mm 0,0 UV-I 0 W/m -4,6 C -6,8 C 12,9 km/h (3 Bft) 95,83 %
05.03.2018 01:36 -2,7 C 3,3 C 87 % 1000,8 hPa 0,0 l/m 11,5 km/h (2 Bft) O 91 0 min 0,000 mm 0,0 UV-I 0 W/m -4,6 C -7,7 C 14,5 km/h (3 Bft) 100,00 %
05.03.2018 01:37 -2,7 C 3,3 C 87 % 1000,8 hPa 0,0 l/m 8,9 km/h (2 Bft) O-NO 70 0 min 0,000 mm 0,0 UV-I 0 W/m -4,6 C -5,4 C 12,9 km/h (3 Bft) 100,00 %
05.03.2018 01:38 -2,7 C 3,3 C 87 % 1000,8 hPa 0,0 l/m 10,5 km/h (2 Bft) O 89 0 min 0,000 mm 0,0 UV-I 0 W/m -4,6 C -6,9 C 14,5 km/h (3 Bft) 100,00 %
05.03.2018 01:39 -2,7 C 3,3 C 87 % 1000,8 hPa 0,0 l/m 13,7 km/h (3 Bft) O-NO 74 0 min 0,000 mm 0,0 UV-I 0 W/m -4,6 C -9,4 C 16,1 km/h (3 Bft) 100,00 %
05.03.2018 01:40 -2,7 C 3,3 C 87 % 1000,8 hPa 0,0 l/m 12,4 km/h (3 Bft) O 88 0 min 0,000 mm 0,0 UV-I 0 W/m -4,6 C -8,4 C 16,1 km/h (3 Bft) 100,00 %
05.03.2018 01:41 -2,7 C 3,3 C 87 % 1000,8 hPa 0,0 l/m 10,8 km/h (2 Bft) O 100 0 min 0,000 mm 0,0 UV-I 0 W/m -4,6 C -7,1 C 12,9 km/h (3 Bft) 100,00 %
05.03.2018 01:42 -2,7 C 3,3 C 87 % 1000,8 hPa 0,0 l/m 11,5 km/h (2 Bft) O-NO 74 0 min 0,000 mm 0,0 UV-I 0 W/m -4,6 C -7,7 C 16,1 km/h (3 Bft) 100,00 %
05.03.2018 01:43 -2,7 C 3,3 C 87 % 1000,8 hPa 0,0 l/m 12,3 km/h (3 Bft) O-NO 68 0 min 0,000 mm 0,0 UV-I 0 W/m -4,6 C -8,3 C 19,3 km/h (3 Bft) 100,00 %
05.03.2018 01:44 -2,8 C 3,3 C 87 % 1000,8 hPa 0,0 l/m 11,5 km/h (2 Bft) O 93 0 min 0,000 mm 0,0 UV-I 0 W/m -4,7 C -7,8 C 16,1 km/h (3 Bft) 100,00 %
05.03.2018 01:45 -2,8 C 3,3 C 87 % 1000,8 hPa 0,0 l/m 11,7 km/h (2 Bft) O 99 0 min 0,000 mm 0,0 UV-I 0 W/m -4,7 C -8,0 C 14,5 km/h (3 Bft) 100,00 %
05.03.2018 01:46 -2,8 C 3,3 C 87 % 1000,9 hPa 0,0 l/m 9,9 km/h (2 Bft) O-NO 68 0 min 0,000 mm 0,0 UV-I 0 W/m -4,7 C -6,5 C 14,5 km/h (3 Bft) 100,00 %
05.03.2018 01:47 -2,8 C 3,3 C 88 % 1000,9 hPa 0,0 l/m 9,5 km/h (2 Bft) O 86 0 min 0,000 mm 0,0 UV-I 0 W/m -4,5 C -6,1 C 12,9 km/h (3 Bft) 95,65 %
05.03.2018 01:48 -2,8 C 3,3 C 88 % 1000,8 hPa 0,0 l/m 10,3 km/h (2 Bft) O-NO 76 0 min 0,000 mm 0,0 UV-I 0 W/m -4,5 C -6,8 C 12,9 km/h (3 Bft) 100,00 %
05.03.2018 01:49 -2,9 C 3,3 C 88 % 1000,8 hPa 0,0 l/m 11,0 km/h (2 Bft) O 90 0 min 0,000 mm 0,0 UV-I 0 W/m -4,6 C -7,5 C 14,5 km/h (3 Bft) 100,00 %
05.03.2018 01:50 -2,8 C 3,3 C 88 % 1000,8 hPa 0,0 l/m 8,7 km/h (2 Bft) O-NO 71 0 min 0,000 mm 0,0 UV-I 0 W/m -4,5 C -5,3 C 11,3 km/h (2 Bft) 100,00 %
05.03.2018 01:51 -2,8 C 3,3 C 88 % 1000,8 hPa 0,0 l/m 13,2 km/h (3 Bft) O 86 0 min 0,000 mm 0,0 UV-I 0 W/m -4,5 C -9,1 C 16,1 km/h (3 Bft) 100,00 %
05.03.2018 01:52 -2,8 C 3,3 C 88 % 1000,9 hPa 0,0 l/m 8,6 km/h (2 Bft) O-NO 71 0 min 0,000 mm 0,0 UV-I 0 W/m -4,5 C -5,2 C 12,9 km/h (3 Bft) 95,83 %
05.03.2018 01:53 -2,8 C 3,3 C 88 % 1000,9 hPa 0,0 l/m 8,9 km/h (2 Bft) O 96 0 min 0,000 mm 0,0 UV-I 0 W/m -4,5 C -5,5 C 12,9 km/h (3 Bft) 95,65 %
05.03.2018 01:54 -2,8 C 3,3 C 88 % 1000,9 hPa 0,0 l/m 10,3 km/h (2 Bft) O-SO 114 0 min 0,000 mm 0,0 UV-I 0 W/m -4,5 C -6,8 C 12,9 km/h (3 Bft) 100,00 %
05.03.2018 01:55 -2,8 C 3,3 C 88 % 1000,9 hPa 0,0 l/m 10,4 km/h (2 Bft) O-SO 104 0 min 0,000 mm 0,0 UV-I 0 W/m -4,5 C -6,9 C 12,9 km/h (3 Bft) 100,00 %
05.03.2018 01:56 -2,8 C 3,3 C 88 % 1000,8 hPa 0,0 l/m 10,3 km/h (2 Bft) O 94 0 min 0,000 mm 0,0 UV-I 0 W/m -4,5 C -6,8 C 14,5 km/h (3 Bft) 100,00 %
05.03.2018 01:57 -2,8 C 3,3 C 88 % 1000,8 hPa 0,0 l/m 7,7 km/h (2 Bft) O-NO 78 0 min 0,000 mm 0,0 UV-I 0 W/m -4,5 C -4,3 C 11,3 km/h (2 Bft) 100,00 %
05.03.2018 01:58 -2,8 C 3,3 C 88 % 1000,9 hPa 0,0 l/m 8,0 km/h (2 Bft) O-NO 57 0 min 0,000 mm 0,0 UV-I 0 W/m -4,5 C -4,6 C 11,3 km/h (2 Bft) 100,00 %
05.03.2018 01:59 -2,8 C 3,3 C 88 % 1000,9 hPa 0,0 l/m 11,5 km/h (2 Bft) O-NO 69 0 min 0,000 mm 0,0 UV-I 0 W/m -4,5 C -7,8 C 16,1 km/h (3 Bft) 100,00 %
05.03.2018 02:00 -2,8 C 3,3 C 88 % 1000,9 hPa 0,0 l/m 10,6 km/h (2 Bft) O 94 0 min 0,000 mm 0,0 UV-I 0 W/m -4,5 C -7,1 C 16,1 km/h (3 Bft) 100,00 %
05.03.2018 02:01 -2,8 C 3,3 C 88 % 1000,9 hPa 0,0 l/m 9,4 km/h (2 Bft) O 92 0 min 0,000 mm 0,0 UV-I 0 W/m -4,5 C -6,0 C 12,9 km/h (3 Bft) 100,00 %
05.03.2018 02:02 -2,8 C 3,3 C 88 % 1000,9 hPa 0,0 l/m 10,5 km/h (2 Bft) O-NO 73 0 min 0,000 mm 0,0 UV-I 0 W/m -4,5 C -7,0 C 14,5 km/h (3 Bft) 100,00 %
05.03.2018 02:03 -2,8 C 3,3 C 88 % 1000,9 hPa 0,0 l/m 11,3 km/h (2 Bft) O 95 0 min 0,000 mm 0,0 UV-I 0 W/m -4,5 C -7,7 C 16,1 km/h (3 Bft) 100,00 %
05.03.2018 02:04 -2,8 C 3,3 C 88 % 1000,9 hPa 0,0 l/m 7,8 km/h (2 Bft) O 98 0 min 0,000 mm 0,0 UV-I 0 W/m -4,5 C -4,4 C 11,3 km/h (2 Bft) 95,65 %
05.03.2018 02:05 -2,8 C 3,3 C 88 % 1000,9 hPa 0,0 l/m 12,1 km/h (2 Bft) O 95 0 min 0,000 mm 0,0 UV-I 0 W/m -4,5 C -8,3 C 16,1 km/h (3 Bft) 100,00 %
05.03.2018 02:06 -2,8 C 3,3 C 88 % 1000,9 hPa 0,0 l/m 8,6 km/h (2 Bft) O 94 0 min 0,000 mm 0,0 UV-I 0 W/m -4,5 C -5,2 C 12,9 km/h (3 Bft) 100,00 %
05.03.2018 02:07 -2,9 C 3,3 C 88 % 1000,9 hPa 0,0 l/m 10,9 km/h (2 Bft) O 98 0 min 0,000 mm 0,0 UV-I 0 W/m -4,6 C -7,4 C 14,5 km/h (3 Bft) 100,00 %
05.03.2018 02:08 -2,8 C 3,3 C 88 % 1000,9 hPa 0,0 l/m 7,8 km/h (2 Bft) O 81 0 min 0,000 mm 0,0 UV-I 0 W/m -4,5 C -4,4 C 12,9 km/h (3 Bft) 95,65 %
05.03.2018 02:09 -2,8 C 3,3 C 88 % 1000,9 hPa 0,0 l/m 14,2 km/h (3 Bft) O-NO 65 0 min 0,000 mm 0,0 UV-I 0 W/m -4,5 C -9,8 C 19,3 km/h (3 Bft) 100,00 %
05.03.2018 02:10 -2,8 C 3,3 C 88 % 1000,9 hPa 0,0 l/m 11,1 km/h (2 Bft) O 79 0 min 0,000 mm 0,0 UV-I 0 W/m -4,5 C -7,5 C 14,5 km/h (3 Bft) 100,00 %
05.03.2018 02:11 -2,8 C 3,3 C 88 % 1000,9 hPa 0,0 l/m 11,5 km/h (2 Bft) O 88 0 min 0,000 mm 0,0 UV-I 0 W/m -4,5 C -7,8 C 14,5 km/h (3 Bft) 100,00 %
05.03.2018 02:12 -2,8 C 3,3 C 88 % 1000,9 hPa 0,0 l/m 13,1 km/h (3 Bft) O 100 0 min 0,000 mm 0,0 UV-I 0 W/m -4,5 C -9,1 C 16,1 km/h (3 Bft) 100,00 %
05.03.2018 02:13 -2,8 C 3,3 C 88 % 1000,9 hPa 0,0 l/m 14,3 km/h (3 Bft) O 96 0 min 0,000 mm 0,0 UV-I 0 W/m -4,5 C -9,9 C 19,3 km/h (3 Bft) 100,00 %
05.03.2018 02:14 -2,7 C 3,3 C 88 % 1000,9 hPa 0,0 l/m 14,2 km/h (3 Bft) O 98 0 min 0,000 mm 0,0 UV-I 0 W/m -4,4 C -9,7 C 17,7 km/h (3 Bft) 100,00 %
05.03.2018 02:15 -2,7 C 3,3 C 88 % 1000,9 hPa 0,0 l/m 12,2 km/h (2 Bft) O-SO 112 0 min 0,000 mm 0,0 UV-I 0 W/m -4,4 C -8,3 C 17,7 km/h (3 Bft) 100,00 %
05.03.2018 02:16 -2,7 C 3,3 C 88 % 1000,9 hPa 0,0 l/m 12,1 km/h (2 Bft) O 93 0 min 0,000 mm 0,0 UV-I 0 W/m -4,4 C -8,2 C 16,1 km/h (3 Bft) 100,00 %
05.03.2018 02:17 -2,7 C 3,3 C 88 % 1000,9 hPa 0,0 l/m 9,5 km/h (2 Bft) O-NO 78 0 min 0,000 mm 0,0 UV-I 0 W/m -4,4 C -6,0 C 12,9 km/h (3 Bft) 100,00 %
05.03.2018 02:18 -2,7 C 3,3 C 88 % 1000,9 hPa 0,0 l/m 8,4 km/h (2 Bft) O-SO 109 0 min 0,000 mm 0,0 UV-I 0 W/m -4,4 C -4,9 C 14,5 km/h (3 Bft) 100,00 %
05.03.2018 02:19 -2,7 C 3,3 C 88 % 1000,9 hPa 0,0 l/m 11,2 km/h (2 Bft) O 95 0 min 0,000 mm 0,0 UV-I 0 W/m -4,4 C -7,5 C 14,5 km/h (3 Bft) 95,65 %
05.03.2018 02:20 -2,7 C 3,3 C 88 % 1000,9 hPa 0,0 l/m 11,5 km/h (2 Bft) O 98 0 min 0,000 mm 0,0 UV-I 0 W/m -4,4 C -7,7 C 14,5 km/h (3 Bft) 100,00 %
05.03.2018 02:21 -2,7 C 3,3 C 88 % 1000,9 hPa 0,0 l/m 8,9 km/h (2 Bft) O-SO 111 0 min 0,000 mm 0,0 UV-I 0 W/m -4,4 C -5,4 C 12,9 km/h (3 Bft) 100,00 %
05.03.2018 02:22 -2,8 C 3,3 C 88 % 1001,0 hPa 0,0 l/m 9,2 km/h (2 Bft) O 90 0 min 0,000 mm 0,0 UV-I 0 W/m -4,5 C -5,8 C 12,9 km/h (3 Bft) 100,00 %
05.03.2018 02:23 -2,8 C 3,3 C 88 % 1001,0 hPa 0,0 l/m 9,3 km/h (2 Bft) O 87 0 min 0,000 mm 0,0 UV-I 0 W/m -4,5 C -5,9 C 12,9 km/h (3 Bft) 100,00 %
05.03.2018 02:24 -2,8 C 3,3 C 88 % 1000,9 hPa 0,0 l/m 9,4 km/h (2 Bft) O 89 0 min 0,000 mm 0,0 UV-I 0 W/m -4,5 C -6,0 C 12,9 km/h (3 Bft) 100,00 %
05.03.2018 02:25 -2,8 C 3,3 C 88 % 1000,9 hPa 0,0 l/m 10,9 km/h (2 Bft) O-NO 64 0 min 0,000 mm 0,0 UV-I 0 W/m -4,5 C -7,3 C 14,5 km/h (3 Bft) 100,00 %
05.03.2018 02:26 -2,8 C 3,3 C 88 % 1000,9 hPa 0,0 l/m 11,9 km/h (2 Bft) O-NO 73 0 min 0,000 mm 0,0 UV-I 0 W/m -4,5 C -8,1 C 17,7 km/h (3 Bft) 100,00 %
05.03.2018 02:27 -2,8 C 3,3 C 88 % 1000,9 hPa 0,0 l/m 11,5 km/h (2 Bft) O 85 0 min 0,000 mm 0,0 UV-I 0 W/m -4,5 C -7,8 C 14,5 km/h (3 Bft) 100,00 %
05.03.2018 02:28 -2,8 C 3,3 C 88 % 1000,9 hPa 0,0 l/m 12,4 km/h (3 Bft) O 84 0 min 0,000 mm 0,0 UV-I 0 W/m -4,5 C -8,5 C 17,7 km/h (3 Bft) 100,00 %
05.03.2018 02:29 -2,8 C 3,3 C 89 % 1000,9 hPa 0,0 l/m 13,1 km/h (3 Bft) O-NO 69 0 min 0,000 mm 0,0 UV-I 0 W/m -4,4 C -9,1 C 16,1 km/h (3 Bft) 100,00 %
05.03.2018 02:30 -2,8 C 3,3 C 88 % 1000,9 hPa 0,0 l/m 10,3 km/h (2 Bft) O 89 0 min 0,000 mm 0,0 UV-I 0 W/m -4,5 C -6,8 C 16,1 km/h (3 Bft) 100,00 %
05.03.2018 02:31 -2,8 C 3,3 C 88 % 1000,9 hPa 0,0 l/m 12,7 km/h (3 Bft) O 98 0 min 0,000 mm 0,0 UV-I 0 W/m -4,5 C -8,8 C 16,1 km/h (3 Bft) 100,00 %
05.03.2018 02:32 -2,8 C 3,3 C 89 % 1000,9 hPa 0,0 l/m 10,8 km/h (2 Bft) O-SO 102 0 min 0,000 mm 0,0 UV-I 0 W/m -4,4 C -7,2 C 19,3 km/h (3 Bft) 100,00 %
05.03.2018 02:33 -2,8 C 3,3 C 88 % 1001,0 hPa 0,0 l/m 12,9 km/h (3 Bft) O 97 0 min 0,000 mm 0,0 UV-I 0 W/m -4,5 C -8,9 C 16,1 km/h (3 Bft) 100,00 %
05.03.2018 02:34 -2,8 C 3,3 C 88 % 1001,0 hPa 0,0 l/m 12,7 km/h (3 Bft) O-SO 108 0 min 0,000 mm 0,0 UV-I 0 W/m -4,5 C -8,8 C 16,1 km/h (3 Bft) 100,00 %
05.03.2018 02:35 -2,8 C 3,3 C 88 % 1001,0 hPa 0,0 l/m 9,6 km/h (2 Bft) O 90 0 min 0,000 mm 0,0 UV-I 0 W/m -4,5 C -6,2 C 14,5 km/h (3 Bft) 100,00 %
05.03.2018 02:36 -2,8 C 3,3 C 88 % 1001,0 hPa 0,0 l/m 12,7 km/h (3 Bft) O-NO 69 0 min 0,000 mm 0,0 UV-I 0 W/m -4,5 C -8,8 C 16,1 km/h (3 Bft) 95,83 %
05.03.2018 02:37 -2,8 C 3,3 C 89 % 1001,0 hPa 0,0 l/m 13,5 km/h (3 Bft) O 97 0 min 0,000 mm 0,0 UV-I 0 W/m -4,4 C -9,3 C 17,7 km/h (3 Bft) 100,00 %
05.03.2018 02:38 -2,8 C 3,3 C 89 % 1000,9 hPa 0,0 l/m 12,7 km/h (3 Bft) O 94 0 min 0,000 mm 0,0 UV-I 0 W/m -4,4 C -8,8 C 17,7 km/h (3 Bft) 100,00 %
05.03.2018 02:39 -2,7 C 3,3 C 88 % 1001,0 hPa 0,0 l/m 15,0 km/h (3 Bft) O-SO 115 0 min 0,000 mm 0,0 UV-I 0 W/m -4,4 C -10,3 C 20,9 km/h (4 Bft) 100,00 %
05.03.2018 02:40 -2,8 C 3,3 C 88 % 1000,9 hPa 0,0 l/m 13,2 km/h (3 Bft) O-SO 112 0 min 0,000 mm 0,0 UV-I 0 W/m -4,5 C -9,1 C 17,7 km/h (3 Bft) 100,00 %
05.03.2018 02:41 -2,8 C 3,3 C 88 % 1001,0 hPa 0,0 l/m 10,5 km/h (2 Bft) O 86 0 min 0,000 mm 0,0 UV-I 0 W/m -4,5 C -7,0 C 11,3 km/h (2 Bft) 97,05 %
05.03.2018 02:42 -2,8 C 3,3 C 88 % 1001,0 hPa 0,0 l/m 14,2 km/h (3 Bft) O 85 0 min 0,000 mm 0,0 UV-I 0 W/m -4,5 C -9,8 C 17,7 km/h (3 Bft) 100,00 %
05.03.2018 02:43 -2,8 C 3,3 C 88 % 1000,9 hPa 0,0 l/m 10,5 km/h (2 Bft) O 100 0 min 0,000 mm 0,0 UV-I 0 W/m -4,5 C -7,0 C 14,5 km/h (3 Bft) 95,83 %
05.03.2018 02:44 -2,8 C 3,3 C 88 % 1000,9 hPa 0,0 l/m 13,0 km/h (3 Bft) O 97 0 min 0,000 mm 0,0 UV-I 0 W/m -4,5 C -9,0 C 14,5 km/h (3 Bft) 91,30 %
05.03.2018 02:45 -2,8 C 3,3 C 88 % 1000,9 hPa 0,0 l/m 14,2 km/h (3 Bft) O 80 0 min 0,000 mm 0,0 UV-I 0 W/m -4,5 C -9,8 C 17,7 km/h (3 Bft) 96,30 %
05.03.2018 02:46 -2,8 C 3,3 C 88 % 1000,9 hPa 0,0 l/m 11,6 km/h (2 Bft) O 92 0 min 0,000 mm 0,0 UV-I 0 W/m -4,5 C -7,9 C 14,5 km/h (3 Bft) 88,46 %
05.03.2018 02:47 -2,8 C 3,3 C 88 % 1000,9 hPa 0,0 l/m 7,4 km/h (2 Bft) O 95 0 min 0,000 mm 0,0 UV-I 0 W/m -4,5 C -3,9 C 11,3 km/h (2 Bft) 100,00 %
05.03.2018 02:48 -2,8 C 3,3 C 89 % 1000,9 hPa 0,0 l/m 11,4 km/h (2 Bft) O-NO 74 0 min 0,000 mm 0,0 UV-I 0 W/m -4,4 C -7,7 C 14,5 km/h (3 Bft) 93,33 %
05.03.2018 02:49 -2,9 C 3,3 C 89 % 1000,8 hPa 0,0 l/m 10,5 km/h (2 Bft) O-NO 69 0 min 0,000 mm 0,0 UV-I 0 W/m -4,5 C -7,1 C 16,1 km/h (3 Bft) 100,00 %
05.03.2018 02:50 -2,9 C 3,3 C 88 % 1000,8 hPa 0,0 l/m 10,5 km/h (2 Bft) O 92 0 min 0,000 mm 0,0 UV-I 0 W/m -4,6 C -7,1 C 14,5 km/h (3 Bft) 95,83 %
05.03.2018 02:51 -2,9 C 3,3 C 89 % 1000,9 hPa 0,0 l/m 14,6 km/h (3 Bft) O 85 0 min 0,000 mm 0,0 UV-I 0 W/m -4,5 C -10,2 C 17,7 km/h (3 Bft) 95,65 %
05.03.2018 02:52 -2,9 C 3,3 C 89 % 1000,9 hPa 0,0 l/m 11,3 km/h (2 Bft) O-SO 109 0 min 0,000 mm 0,0 UV-I 0 W/m -4,5 C -7,8 C 14,5 km/h (3 Bft) 96,30 %
05.03.2018 02:53 -2,9 C 3,3 C 89 % 1000,9 hPa 0,0 l/m 10,4 km/h (2 Bft) O 100 0 min 0,000 mm 0,0 UV-I 0 W/m -4,5 C -7,0 C 12,9 km/h (3 Bft) 95,65 %
05.03.2018 02:54 -2,9 C 3,3 C 88 % 1000,9 hPa 0,0 l/m 11,4 km/h (2 Bft) O 84 0 min 0,000 mm 0,0 UV-I 0 W/m -4,6 C -7,9 C 14,5 km/h (3 Bft) 100,00 %
05.03.2018 02:55 -3,0 C 3,3 C 89 % 1000,9 hPa 0,0 l/m 8,8 km/h (2 Bft) O-NO 67 0 min 0,000 mm 0,0 UV-I 0 W/m -4,6 C -5,6 C 12,9 km/h (3 Bft) 95,65 %
05.03.2018 02:56 -3,0 C 3,3 C 89 % 1000,9 hPa 0,0 l/m 7,1 km/h (2 Bft) O-NO 77 0 min 0,000 mm 0,0 UV-I 0 W/m -4,6 C -3,8 C 11,3 km/h (2 Bft) 100,00 %
05.03.2018 02:57 -3,0 C 3,3 C 89 % 1000,9 hPa 0,0 l/m 8,0 km/h (2 Bft) O 90 0 min 0,000 mm 0,0 UV-I 0 W/m -4,6 C -4,8 C 11,3 km/h (2 Bft) 95,65 %
05.03.2018 02:58 -3,0 C 3,3 C 89 % 1001,0 hPa 0,0 l/m 9,9 km/h (2 Bft) O 92 0 min 0,000 mm 0,0 UV-I 0 W/m -4,6 C -6,7 C 12,9 km/h (3 Bft) 96,30 %
05.03.2018 02:59 -3,0 C 3,3 C 89 % 1001,0 hPa 0,0 l/m 7,4 km/h (2 Bft) O 80 0 min 0,000 mm 0,0 UV-I 0 W/m -4,6 C -4,1 C 9,7 km/h (2 Bft) 95,65 %
05.03.2018 03:00 -3,1 C 3,3 C 89 % 1001,0 hPa 0,0 l/m 8,6 km/h (2 Bft) O 90 0 min 0,000 mm 0,0 UV-I 0 W/m -4,6 C -5,5 C 11,3 km/h (2 Bft) 95,83 %
05.03.2018 03:01 -3,1 C 3,3 C 89 % 1001,0 hPa 0,0 l/m 8,4 km/h (2 Bft) O 96 0 min 0,000 mm 0,0 UV-I 0 W/m -4,6 C -5,3 C 11,3 km/h (2 Bft) 95,65 %
05.03.2018 03:02 -3,1 C 3,3 C 89 % 1001,0 hPa 0,0 l/m 7,1 km/h (2 Bft) O 86 0 min 0,000 mm 0,0 UV-I 0 W/m -4,6 C -3,9 C 11,3 km/h (2 Bft) 91,67 %
05.03.2018 03:03 -3,0 C 3,3 C 89 % 1001,0 hPa 0,0 l/m 10,0 km/h (2 Bft) NO 56 0 min 0,000 mm 0,0 UV-I 0 W/m -4,6 C -6,8 C 14,5 km/h (3 Bft) 92,86 %
05.03.2018 03:04 -2,9 C 3,3 C 89 % 1001,0 hPa 0,0 l/m 11,7 km/h (2 Bft) O 90 0 min 0,000 mm 0,0 UV-I 0 W/m -4,5 C -8,1 C 17,7 km/h (3 Bft) 96,30 %
05.03.2018 03:05 -2,9 C 3,3 C 89 % 1001,0 hPa 0,0 l/m 12,3 km/h (3 Bft) O-NO 78 0 min 0,000 mm 0,0 UV-I 0 W/m -4,5 C -8,6 C 16,1 km/h (3 Bft) 100,00 %
05.03.2018 03:06 -2,9 C 3,3 C 89 % 1001,0 hPa 0,0 l/m 10,4 km/h (2 Bft) O 81 0 min 0,000 mm 0,0 UV-I 0 W/m -4,5 C -7,0 C 12,9 km/h (3 Bft) 91,67 %
05.03.2018 03:07 -2,9 C 3,3 C 89 % 1001,0 hPa 0,0 l/m 12,1 km/h (2 Bft) O 86 0 min 0,000 mm 0,0 UV-I 0 W/m -4,5 C -8,4 C 14,5 km/h (3 Bft) 100,00 %
05.03.2018 03:08 -2,9 C 3,3 C 89 % 1001,0 hPa 0,0 l/m 10,9 km/h (2 Bft) O-NO 68 0 min 0,000 mm 0,0 UV-I 0 W/m -4,5 C -7,4 C 14,5 km/h (3 Bft) 95,83 %
05.03.2018 03:09 -2,9 C 3,3 C 89 % 1001,0 hPa 0,0 l/m 10,2 km/h (2 Bft) O-NO 70 0 min 0,000 mm 0,0 UV-I 0 W/m -4,5 C -6,8 C 14,5 km/h (3 Bft) 95,65 %
05.03.2018 03:10 -2,9 C 3,3 C 89 % 1001,0 hPa 0,0 l/m 10,0 km/h (2 Bft) O 84 0 min 0,000 mm 0,0 UV-I 0 W/m -4,5 C -6,7 C 14,5 km/h (3 Bft) 100,00 %
05.03.2018 03:11 -2,9 C 3,3 C 89 % 1001,0 hPa 0,0 l/m 12,7 km/h (3 Bft) O-NO 62 0 min 0,000 mm 0,0 UV-I 0 W/m -4,5 C -8,9 C 16,1 km/h (3 Bft) 91,30 %
05.03.2018 03:12 -2,9 C 3,3 C 89 % 1001,0 hPa 0,0 l/m 14,3 km/h (3 Bft) O-NO 61 0 min 0,000 mm 0,0 UV-I 0 W/m -4,5 C -10,0 C 17,7 km/h (3 Bft) 95,83 %
05.03.2018 03:13 -2,9 C 3,3 C 89 % 1001,0 hPa 0,0 l/m 10,3 km/h (2 Bft) O 86 0 min 0,000 mm 0,0 UV-I 0 W/m -4,5 C -6,9 C 12,9 km/h (3 Bft) 100,00 %
05.03.2018 03:14 -2,9 C 3,3 C 89 % 1001,0 hPa 0,0 l/m 9,6 km/h (2 Bft) O-NO 61 0 min 0,000 mm 0,0 UV-I 0 W/m -4,5 C -6,3 C 12,9 km/h (3 Bft) 97,37 %
05.03.2018 03:15 -2,9 C 3,3 C 89 % 1001,0 hPa 0,0 l/m 8,8 km/h (2 Bft) O 82 0 min 0,000 mm 0,0 UV-I 0 W/m -4,5 C -5,5 C 12,9 km/h (3 Bft) 95,83 %
05.03.2018 03:16 -2,9 C 3,3 C 89 % 1001,0 hPa 0,0 l/m 11,8 km/h (2 Bft) O 92 0 min 0,000 mm 0,0 UV-I 0 W/m -4,5 C -8,2 C 16,1 km/h (3 Bft) 100,00 %
05.03.2018 03:17 -2,9 C 3,3 C 89 % 1001,0 hPa 0,0 l/m 9,2 km/h (2 Bft) O-NO 76 0 min 0,000 mm 0,0 UV-I 0 W/m -4,5 C -5,9 C 14,5 km/h (3 Bft) 95,83 %
05.03.2018 03:18 -3,0 C 3,3 C 89 % 1001,0 hPa 0,0 l/m 11,1 km/h (2 Bft) O-NO 73 0 min 0,000 mm 0,0 UV-I 0 W/m -4,6 C -7,7 C 14,5 km/h (3 Bft) 95,65 %
05.03.2018 03:19 -3,0 C 3,3 C 89 % 1001,0 hPa 0,0 l/m 10,1 km/h (2 Bft) O 80 0 min 0,000 mm 0,0 UV-I 0 W/m -4,6 C -6,9 C 14,5 km/h (3 Bft) 100,00 %
05.03.2018 03:20 -3,0 C 3,3 C 89 % 1001,0 hPa 0,0 l/m 14,6 km/h (3 Bft) O 95 0 min 0,000 mm 0,0 UV-I 0 W/m -4,6 C -10,3 C 19,3 km/h (3 Bft) 95,65 %
05.03.2018 03:21 -3,0 C 3,3 C 90 % 1000,9 hPa 0,0 l/m 16,2 km/h (3 Bft) O 97 0 min 0,000 mm 0,0 UV-I 0 W/m -4,4 C -11,4 C 20,9 km/h (4 Bft) 91,67 %
05.03.2018 03:24 -2,9 C 3,3 C 90 % 1000,9 hPa 0,0 l/m 15,1 km/h (3 Bft) O-NO 66 0 min 0,000 mm 0,0 UV-I 0 W/m -4,3 C -10,6 C 17,7 km/h (3 Bft) 100,00 %
05.03.2018 03:25 -2,9 C 3,3 C 89 % 1000,9 hPa 0,0 l/m 15,7 km/h (3 Bft) O-NO 71 0 min 0,000 mm 0,0 UV-I 0 W/m -4,5 C -10,9 C 20,9 km/h (4 Bft) 100,00 %
05.03.2018 03:26 -2,9 C 3,3 C 90 % 1001,0 hPa 0,0 l/m 15,2 km/h (3 Bft) O 94 0 min 0,000 mm 0,0 UV-I 0 W/m -4,3 C -10,6 C 20,9 km/h (4 Bft) 100,00 %
05.03.2018 03:27 -2,9 C 3,3 C 89 % 1001,0 hPa 0,0 l/m 13,0 km/h (3 Bft) O 82 0 min 0,000 mm 0,0 UV-I 0 W/m -4,5 C -9,1 C 16,1 km/h (3 Bft) 96,30 %
05.03.2018 03:28 -2,9 C 3,3 C 89 % 1001,1 hPa 0,0 l/m 15,7 km/h (3 Bft) O-SO 103 0 min 0,000 mm 0,0 UV-I 0 W/m -4,5 C -10,9 C 24,1 km/h (4 Bft) 100,00 %
05.03.2018 03:29 -2,9 C 3,3 C 89 % 1001,1 hPa 0,0 l/m 17,5 km/h (3 Bft) NO 56 0 min 0,000 mm 0,0 UV-I 0 W/m -4,5 C -12,0 C 20,9 km/h (4 Bft) 100,00 %
05.03.2018 03:30 -2,9 C 3,3 C 89 % 1001,0 hPa 0,0 l/m 14,8 km/h (3 Bft) NO 56 0 min 0,000 mm 0,0 UV-I 0 W/m -4,5 C -10,4 C 19,3 km/h (3 Bft) 100,00 %
05.03.2018 03:31 -2,9 C 3,3 C 89 % 1001,0 hPa 0,0 l/m 14,2 km/h (3 Bft) O-NO 69 0 min 0,000 mm 0,0 UV-I 0 W/m -4,5 C -10,0 C 17,7 km/h (3 Bft) 100,00 %
05.03.2018 03:32 -2,9 C 3,3 C 89 % 1001,0 hPa 0,0 l/m 16,1 km/h (3 Bft) O-NO 75 0 min 0,000 mm 0,0 UV-I 0 W/m -4,5 C -11,2 C 19,3 km/h (3 Bft) 100,00 %
05.03.2018 03:33 -3,0 C 3,3 C 89 % 1001,1 hPa 0,0 l/m 15,4 km/h (3 Bft) O 84 0 min 0,000 mm 0,0 UV-I 0 W/m -4,6 C -10,9 C 20,9 km/h (4 Bft) 100,00 %
05.03.2018 03:34 -3,0 C 3,3 C 90 % 1001,1 hPa 0,0 l/m 15,0 km/h (3 Bft) O 81 0 min 0,000 mm 0,0 UV-I 0 W/m -4,4 C -10,6 C 19,3 km/h (3 Bft) 96,30 %
05.03.2018 03:35 -3,0 C 3,3 C 90 % 1001,1 hPa 0,0 l/m 15,0 km/h (3 Bft) O 90 0 min 0,000 mm 0,0 UV-I 0 W/m -4,4 C -10,6 C 19,3 km/h (3 Bft) 100,00 %
05.03.2018 03:36 -3,0 C 3,3 C 90 % 1001,2 hPa 0,0 l/m 15,7 km/h (3 Bft) O-NO 71 0 min 0,000 mm 0,0 UV-I 0 W/m -4,4 C -11,1 C 20,9 km/h (4 Bft) 100,00 %
05.03.2018 03:37 -2,9 C 3,3 C 90 % 1001,2 hPa 0,0 l/m 16,4 km/h (3 Bft) O 88 0 min 0,000 mm 0,0 UV-I 0 W/m -4,3 C -11,4 C 20,9 km/h (4 Bft) 100,00 %
05.03.2018 03:39 -2,9 C 3,3 C 90 % 1001,2 hPa 0,0 l/m 17,4 km/h (3 Bft) O 84 0 min 0,000 mm 0,0 UV-I 0 W/m -4,3 C -12,0 C 24,1 km/h (4 Bft) 100,00 %
05.03.2018 03:40 -2,9 C 3,3 C 90 % 1001,2 hPa 0,0 l/m 14,9 km/h (3 Bft) O 92 0 min 0,000 mm 0,0 UV-I 0 W/m -4,3 C -10,4 C 19,3 km/h (3 Bft) 100,00 %
05.03.2018 03:41 -2,9 C 3,3 C 90 % 1001,3 hPa 0,0 l/m 10,2 km/h (2 Bft) O-SO 109 0 min 0,000 mm 0,0 UV-I 0 W/m -4,3 C -6,8 C 14,5 km/h (3 Bft) 100,00 %
05.03.2018 03:42 -3,0 C 3,3 C 90 % 1001,3 hPa 0,0 l/m 14,5 km/h (3 Bft) O-SO 109 0 min 0,000 mm 0,0 UV-I 0 W/m -4,4 C -10,3 C 17,7 km/h (3 Bft) 96,55 %
05.03.2018 03:43 -3,0 C 3,3 C 90 % 1001,3 hPa 0,0 l/m 17,5 km/h (3 Bft) O-SO 108 0 min 0,000 mm 0,0 UV-I 0 W/m -4,4 C -12,2 C 20,9 km/h (4 Bft) 100,00 %
05.03.2018 03:44 -3,0 C 3,3 C 90 % 1001,3 hPa 0,0 l/m 16,3 km/h (3 Bft) O 79 0 min 0,000 mm 0,0 UV-I 0 W/m -4,4 C -11,4 C 20,9 km/h (4 Bft) 100,00 %
05.03.2018 03:45 -3,0 C 3,3 C 90 % 1001,3 hPa 0,0 l/m 13,4 km/h (3 Bft) O-NO 76 0 min 0,000 mm 0,0 UV-I 0 W/m -4,4 C -9,5 C 17,7 km/h (3 Bft) 100,00 %
05.03.2018 03:46 -3,0 C 3,3 C 90 % 1001,4 hPa 0,0 l/m 10,1 km/h (2 Bft) O-SO 121 0 min 0,000 mm 0,0 UV-I 0 W/m -4,4 C -6,9 C 14,5 km/h (3 Bft) 100,00 %
05.03.2018 03:47 -3,0 C 3,3 C 90 % 1001,4 hPa 0,0 l/m 13,8 km/h (3 Bft) O 101 0 min 0,000 mm 0,0 UV-I 0 W/m -4,4 C -9,8 C 17,7 km/h (3 Bft) 100,00 %
05.03.2018 03:48 -3,1 C 3,3 C 90 % 1001,4 hPa 0,0 l/m 12,7 km/h (3 Bft) O 88 0 min 0,000 mm 0,0 UV-I 0 W/m -4,5 C -9,1 C 14,5 km/h (3 Bft) 100,00 %
05.03.2018 03:49 -3,1 C 3,3 C 90 % 1001,5 hPa 0,0 l/m 9,9 km/h (2 Bft) O 98 0 min 0,000 mm 0,0 UV-I 0 W/m -4,5 C -6,8 C 12,9 km/h (3 Bft) 100,00 %
05.03.2018 03:50 -3,1 C 3,3 C 90 % 1001,5 hPa 0,0 l/m 12,4 km/h (3 Bft) O-SO 107 0 min 0,000 mm 0,0 UV-I 0 W/m -4,5 C -8,9 C 14,5 km/h (3 Bft) 100,00 %
05.03.2018 03:51 -3,1 C 3,3 C 90 % 1001,5 hPa 0,0 l/m 12,3 km/h (3 Bft) O 96 0 min 0,000 mm 0,0 UV-I 0 W/m -4,5 C -8,8 C 14,5 km/h (3 Bft) 100,00 %
05.03.2018 03:52 -3,1 C 3,3 C 90 % 1001,5 hPa 0,0 l/m 6,7 km/h (2 Bft) O 81 0 min 0,000 mm 0,0 UV-I 0 W/m -4,5 C -3,4 C 12,9 km/h (3 Bft) 99,52 %
05.03.2018 03:53 -3,1 C 3,3 C 90 % 1001,5 hPa 0,0 l/m 8,8 km/h (2 Bft) O 99 0 min 0,000 mm 0,0 UV-I 0 W/m -4,5 C -5,7 C 14,5 km/h (3 Bft) 97,87 %
05.03.2018 03:54 -3,1 C 3,3 C 90 % 1001,6 hPa 0,0 l/m 8,0 km/h (2 Bft) O-SO 103 0 min 0,000 mm 0,0 UV-I 0 W/m -4,5 C -4,9 C 11,3 km/h (2 Bft) 100,00 %
05.03.2018 03:55 -3,1 C 3,3 C 90 % 1001,6 hPa 0,0 l/m 6,9 km/h (2 Bft) O-SO 103 0 min 0,000 mm 0,0 UV-I 0 W/m -4,5 C -3,7 C 11,3 km/h (2 Bft) 96,30 %
05.03.2018 03:56 -3,1 C 3,3 C 90 % 1001,6 hPa 0,0 l/m 7,3 km/h (2 Bft) O-SO 112 0 min 0,000 mm 0,0 UV-I 0 W/m -4,5 C -4,1 C 11,3 km/h (2 Bft) 95,65 %
05.03.2018 03:57 -3,1 C 3,3 C 90 % 1001,7 hPa 0,0 l/m 4,9 km/h (1 Bft) O-SO 119 0 min 0,000 mm 0,0 UV-I 0 W/m -4,5 C -3,1 C 6,4 km/h (2 Bft) 100,00 %
05.03.2018 03:58 -3,1 C 3,3 C 90 % 1001,7 hPa 0,0 l/m 4,8 km/h (1 Bft) O-SO 121 0 min 0,000 mm 0,0 UV-I 0 W/m -4,5 C -3,1 C 6,4 km/h (2 Bft) 100,00 %
05.03.2018 03:59 -3,1 C 3,3 C 91 % 1001,8 hPa 0,0 l/m 5,8 km/h (2 Bft) O 90 0 min 0,000 mm 0,0 UV-I 0 W/m -4,4 C -3,1 C 6,4 km/h (2 Bft) 100,00 %
05.03.2018 04:00 -3,1 C 3,3 C 91 % 1001,8 hPa 0,0 l/m 6,6 km/h (2 Bft) O-SO 117 0 min 0,000 mm 0,0 UV-I 0 W/m -4,4 C -3,3 C 9,7 km/h (2 Bft) 100,00 %
05.03.2018 04:01 -3,1 C 3,3 C 91 % 1001,8 hPa 0,0 l/m 5,1 km/h (1 Bft) O-SO 123 0 min 0,000 mm 0,0 UV-I 0 W/m -4,4 C -3,1 C 6,4 km/h (2 Bft) 100,00 %
05.03.2018 04:02 -3,1 C 3,3 C 91 % 1001,8 hPa 0,0 l/m 4,0 km/h (1 Bft) S-SO 156 0 min 0,000 mm 0,0 UV-I 0 W/m -4,4 C -3,1 C 4,8 km/h (1 Bft) 100,00 %
05.03.2018 04:03 -3,2 C 3,3 C 91 % 1001,9 hPa 0,0 l/m 2,0 km/h (1 Bft) S-SO 155 0 min 0,000 mm 0,0 UV-I 0 W/m -4,5 C -3,2 C 3,2 km/h (1 Bft) 100,00 %
05.03.2018 04:04 -3,2 C 3,3 C 91 % 1001,9 hPa 0,0 l/m 2,6 km/h (1 Bft) S-SO 155 0 min 0,000 mm 0,0 UV-I 0 W/m -4,5 C -3,2 C 4,8 km/h (1 Bft) 95,83 %
05.03.2018 04:05 -3,2 C 3,3 C 91 % 1002,0 hPa 0,0 l/m 1,9 km/h (1 Bft) S-SO 155 0 min 0,000 mm 0,0 UV-I 0 W/m -4,5 C -3,2 C 4,8 km/h (1 Bft) 100,00 %
05.03.2018 04:06 -3,2 C 3,3 C 91 % 1002,0 hPa 0,0 l/m 4,2 km/h (1 Bft) S-SO 155 0 min 0,000 mm 0,0 UV-I 0 W/m -4,5 C -3,2 C 6,4 km/h (2 Bft) 100,00 %
05.03.2018 04:07 -3,2 C 3,3 C 91 % 1002,0 hPa 0,0 l/m 6,0 km/h (2 Bft) S-SO 152 0 min 0,000 mm 0,0 UV-I 0 W/m -4,5 C -3,2 C 8,0 km/h (2 Bft) 100,00 %
05.03.2018 04:08 -3,2 C 3,3 C 91 % 1002,0 hPa 0,0 l/m 8,0 km/h (2 Bft) O 101 0 min 0,000 mm 0,0 UV-I 0 W/m -4,5 C -5,0 C 11,3 km/h (2 Bft) 100,00 %
05.03.2018 04:09 -3,1 C 3,3 C 91 % 1002,0 hPa 0,0 l/m 7,8 km/h (2 Bft) O 101 0 min 0,000 mm 0,0 UV-I 0 W/m -4,4 C -4,7 C 11,3 km/h (2 Bft) 100,00 %
05.03.2018 04:10 -3,1 C 3,3 C 91 % 1001,9 hPa 0,0 l/m 4,8 km/h (1 Bft) O 97 0 min 0,000 mm 0,0 UV-I 0 W/m -4,4 C -3,1 C 6,4 km/h (2 Bft) 100,00 %
05.03.2018 04:11 -3,1 C 3,3 C 91 % 1001,9 hPa 0,0 l/m 8,1 km/h (2 Bft) O-SO 105 0 min 0,000 mm 0,0 UV-I 0 W/m -4,4 C -5,0 C 11,3 km/h (2 Bft) 100,00 %
05.03.2018 04:12 -3,1 C 3,3 C 91 % 1001,9 hPa 0,0 l/m 8,0 km/h (2 Bft) O 96 0 min 0,000 mm 0,0 UV-I 0 W/m -4,4 C -4,9 C 11,3 km/h (2 Bft) 100,00 %
05.03.2018 04:13 -3,1 C 3,3 C 91 % 1001,9 hPa 0,0 l/m 7,1 km/h (2 Bft) O 94 0 min 0,000 mm 0,0 UV-I 0 W/m -4,4 C -3,9 C 11,3 km/h (2 Bft) 100,00 %
05.03.2018 04:14 -3,1 C 3,3 C 91 % 1001,9 hPa 0,0 l/m 9,0 km/h (2 Bft) O-SO 111 0 min 0,000 mm 0,0 UV-I 0 W/m -4,4 C -5,9 C 12,9 km/h (3 Bft) 100,00 %
05.03.2018 04:15 -3,1 C 3,3 C 91 % 1001,9 hPa 0,0 l/m 7,2 km/h (2 Bft) O 87 0 min 0,000 mm 0,0 UV-I 0 W/m -4,4 C -4,0 C 11,3 km/h (2 Bft) 100,00 %
05.03.2018 04:16 -3,1 C 3,3 C 91 % 1001,8 hPa 0,0 l/m 8,0 km/h (2 Bft) O 101 0 min 0,000 mm 0,0 UV-I 0 W/m -4,4 C -4,9 C 9,7 km/h (2 Bft) 97,37 %
05.03.2018 04:17 -3,1 C 3,3 C 91 % 1001,9 hPa 0,0 l/m 8,2 km/h (2 Bft) O-SO 119 0 min 0,000 mm 0,0 UV-I 0 W/m -4,4 C -5,1 C 11,3 km/h (2 Bft) 100,00 %
05.03.2018 04:18 -3,1 C 3,3 C 91 % 1001,9 hPa 0,0 l/m 7,6 km/h (2 Bft) O 95 0 min 0,000 mm 0,0 UV-I 0 W/m -4,4 C -4,5 C 11,3 km/h (2 Bft) 100,00 %
05.03.2018 04:19 -3,1 C 3,3 C 91 % 1001,9 hPa 0,0 l/m 9,7 km/h (2 Bft) O-SO 103 0 min 0,000 mm 0,0 UV-I 0 W/m -4,4 C -6,6 C 14,5 km/h (3 Bft) 100,00 %
05.03.2018 04:20 -3,1 C 3,3 C 91 % 1002,0 hPa 0,0 l/m 9,6 km/h (2 Bft) O 101 0 min 0,000 mm 0,0 UV-I 0 W/m -4,4 C -6,5 C 12,9 km/h (3 Bft) 100,00 %
05.03.2018 04:21 -3,1 C 3,3 C 91 % 1002,0 hPa 0,0 l/m 6,7 km/h (2 Bft) SO 133 0 min 0,000 mm 0,0 UV-I 0 W/m -4,4 C -3,4 C 11,3 km/h (2 Bft) 100,00 %
05.03.2018 04:22 -3,1 C 3,3 C 91 % 1002,0 hPa 0,0 l/m 4,6 km/h (1 Bft) O-SO 109 0 min 0,000 mm 0,0 UV-I 0 W/m -4,4 C -3,1 C 6,4 km/h (2 Bft) 100,00 %
05.03.2018 04:23 -3,1 C 3,3 C 91 % 1002,0 hPa 0,0 l/m 1,8 km/h (1 Bft) O-SO 109 0 min 0,000 mm 0,0 UV-I 0 W/m -4,4 C -3,1 C 3,2 km/h (1 Bft) 100,00 %
05.03.2018 04:24 -3,1 C 3,3 C 91 % 1002,0 hPa 0,0 l/m 0,1 km/h (0 Bft) O-SO 109 0 min 0,000 mm 0,0 UV-I 0 W/m -4,4 C -3,1 C 1,6 km/h (1 Bft) 96,55 %
05.03.2018 04:25 -3,1 C 3,3 C 91 % 1002,0 hPa 0,0 l/m 0,8 km/h (0 Bft) O-SO 109 0 min 0,000 mm 0,0 UV-I 0 W/m -4,4 C -3,1 C 3,2 km/h (1 Bft) 96,30 %
05.03.2018 04:26 -3,1 C 3,3 C 91 % 1002,0 hPa 0,0 l/m 9,4 km/h (2 Bft) O-SO 121 0 min 0,000 mm 0,0 UV-I 0 W/m -4,4 C -6,3 C 14,5 km/h (3 Bft) 100,00 %
05.03.2018 04:27 -3,1 C 3,3 C 91 % 1002,0 hPa 0,0 l/m 6,3 km/h (2 Bft) O-SO 114 0 min 0,000 mm 0,0 UV-I 0 W/m -4,4 C -3,1 C 9,7 km/h (2 Bft) 95,83 %
05.03.2018 04:28 -3,1 C 3,3 C 91 % 1002,0 hPa 0,0 l/m 6,6 km/h (2 Bft) O-SO 116 0 min 0,000 mm 0,0 UV-I 0 W/m -4,4 C -3,3 C 9,7 km/h (2 Bft) 100,00 %
05.03.2018 04:29 -3,1 C 3,3 C 91 % 1002,0 hPa 0,0 l/m 7,6 km/h (2 Bft) O-SO 117 0 min 0,000 mm 0,0 UV-I 0 W/m -4,4 C -4,5 C 14,5 km/h (3 Bft) 95,83 %
05.03.2018 04:30 -3,1 C 3,3 C 91 % 1001,9 hPa 0,0 l/m 8,1 km/h (2 Bft) O-NO 60 0 min 0,000 mm 0,0 UV-I 0 W/m -4,4 C -5,0 C 16,1 km/h (3 Bft) 100,00 %
05.03.2018 04:31 -3,1 C 3,3 C 91 % 1001,9 hPa 0,0 l/m 7,7 km/h (2 Bft) O-SO 117 0 min 0,000 mm 0,0 UV-I 0 W/m -4,4 C -4,6 C 12,9 km/h (3 Bft) 96,30 %
05.03.2018 04:32 -3,1 C 3,3 C 91 % 1001,9 hPa 0,0 l/m 3,4 km/h (1 Bft) O-SO 117 0 min 0,000 mm 0,0 UV-I 0 W/m -4,4 C -3,1 C 4,8 km/h (1 Bft) 95,65 %
05.03.2018 04:33 -3,1 C 3,3 C 91 % 1001,9 hPa 0,0 l/m 7,0 km/h (2 Bft) O-SO 111 0 min 0,000 mm 0,0 UV-I 0 W/m -4,4 C -3,8 C 11,3 km/h (2 Bft) 100,00 %
05.03.2018 04:34 -3,1 C 3,3 C 91 % 1002,0 hPa 0,0 l/m 9,2 km/h (2 Bft) O-SO 115 0 min 0,000 mm 0,0 UV-I 0 W/m -4,4 C -6,1 C 12,9 km/h (3 Bft) 94,12 %
05.03.2018 04:35 -3,1 C 3,3 C 91 % 1002,0 hPa 0,0 l/m 8,2 km/h (2 Bft) SO 130 0 min 0,000 mm 0,0 UV-I 0 W/m -4,4 C -5,1 C 11,3 km/h (2 Bft) 100,00 %
05.03.2018 04:36 -3,1 C 3,3 C 91 % 1002,0 hPa 0,0 l/m 9,1 km/h (2 Bft) O 98 0 min 0,000 mm 0,0 UV-I 0 W/m -4,4 C -6,0 C 12,9 km/h (3 Bft) 96,15 %
05.03.2018 04:37 -3,1 C 3,3 C 91 % 1002,0 hPa 0,0 l/m 9,7 km/h (2 Bft) O-SO 121 0 min 0,000 mm 0,0 UV-I 0 W/m -4,4 C -6,6 C 12,9 km/h (3 Bft) 100,00 %
05.03.2018 04:38 -3,1 C 3,3 C 91 % 1002,0 hPa 0,0 l/m 3,4 km/h (1 Bft) O-SO 119 0 min 0,000 mm 0,0 UV-I 0 W/m -4,4 C -3,1 C 11,3 km/h (2 Bft) 96,15 %
05.03.2018 04:39 -3,1 C 3,3 C 91 % 1002,0 hPa 0,0 l/m 10,8 km/h (2 Bft) O 100 0 min 0,000 mm 0,0 UV-I 0 W/m -4,4 C -7,6 C 16,1 km/h (3 Bft) 100,00 %
05.03.2018 04:40 -3,1 C 3,3 C 91 % 1002,0 hPa 0,0 l/m 6,5 km/h (2 Bft) O-SO 105 0 min 0,000 mm 0,0 UV-I 0 W/m -4,4 C -3,2 C 11,3 km/h (2 Bft) 96,15 %
05.03.2018 04:41 -3,1 C 3,3 C 91 % 1002,1 hPa 0,0 l/m 6,4 km/h (2 Bft) O-SO 111 0 min 0,000 mm 0,0 UV-I 0 W/m -4,4 C -3,1 C 9,7 km/h (2 Bft) 95,83 %
05.03.2018 04:42 -3,1 C 3,3 C 91 % 1002,1 hPa 0,0 l/m 11,6 km/h (2 Bft) O-SO 119 0 min 0,000 mm 0,0 UV-I 0 W/m -4,4 C -8,3 C 17,7 km/h (3 Bft) 100,00 %
05.03.2018 04:43 -3,1 C 3,3 C 91 % 1002,1 hPa 0,0 l/m 12,5 km/h (3 Bft) O-NO 75 0 min 0,000 mm 0,0 UV-I 0 W/m -4,4 C -9,0 C 16,1 km/h (3 Bft) 100,00 %
05.03.2018 04:44 -3,1 C 3,3 C 92 % 1002,0 hPa 0,0 l/m 10,5 km/h (2 Bft) O 95 0 min 0,000 mm 0,0 UV-I 0 W/m -4,2 C -7,3 C 12,9 km/h (3 Bft) 96,30 %
05.03.2018 04:45 -3,0 C 3,3 C 91 % 1002,0 hPa 0,0 l/m 10,0 km/h (2 Bft) O 82 0 min 0,000 mm 0,0 UV-I 0 W/m -4,3 C -6,8 C 16,1 km/h (3 Bft) 95,65 %
05.03.2018 04:46 -3,0 C 3,3 C 91 % 1002,0 hPa 0,0 l/m 9,7 km/h (2 Bft) O-SO 119 0 min 0,000 mm 0,0 UV-I 0 W/m -4,3 C -6,5 C 12,9 km/h (3 Bft) 96,67 %
05.03.2018 04:47 -3,1 C 3,3 C 91 % 1002,0 hPa 0,0 l/m 7,1 km/h (2 Bft) O-SO 109 0 min 0,000 mm 0,0 UV-I 0 W/m -4,4 C -3,9 C 11,3 km/h (2 Bft) 90,91 %
05.03.2018 04:48 -3,1 C 3,3 C 91 % 1002,0 hPa 0,0 l/m 12,5 km/h (3 Bft) O 99 0 min 0,000 mm 0,0 UV-I 0 W/m -4,4 C -9,0 C 17,7 km/h (3 Bft) 95,83 %
05.03.2018 04:49 -3,0 C 3,3 C 91 % 1001,9 hPa 0,0 l/m 9,8 km/h (2 Bft) O 94 0 min 0,000 mm 0,0 UV-I 0 W/m -4,3 C -6,6 C 12,9 km/h (3 Bft) 100,00 %
05.03.2018 04:50 -3,1 C 3,3 C 91 % 1001,9 hPa 0,0 l/m 6,4 km/h (2 Bft) O 85 0 min 0,000 mm 0,0 UV-I 0 W/m -4,4 C -3,1 C 11,3 km/h (2 Bft) 95,12 %
05.03.2018 04:51 -3,1 C 3,3 C 92 % 1001,9 hPa 0,0 l/m 7,8 km/h (2 Bft) O-SO 109 0 min 0,000 mm 0,0 UV-I 0 W/m -4,2 C -4,7 C 11,3 km/h (2 Bft) 90,91 %
05.03.2018 04:52 -3,1 C 3,3 C 92 % 1001,9 hPa 0,0 l/m 12,0 km/h (2 Bft) O-SO 108 0 min 0,000 mm 0,0 UV-I 0 W/m -4,2 C -8,6 C 16,1 km/h (3 Bft) 96,97 %
05.03.2018 04:53 -3,1 C 3,3 C 92 % 1001,9 hPa 0,0 l/m 11,3 km/h (2 Bft) SO 126 0 min 0,000 mm 0,0 UV-I 0 W/m -4,2 C -8,0 C 14,5 km/h (3 Bft) 98,64 %
05.03.2018 04:54 -3,0 C 3,3 C 92 % 1002,0 hPa 0,0 l/m 7,1 km/h (2 Bft) O-SO 111 0 min 0,000 mm 0,0 UV-I 0 W/m -4,1 C -3,8 C 9,7 km/h (2 Bft) 95,45 %
05.03.2018 04:55 -3,1 C 3,3 C 92 % 1002,0 hPa 0,0 l/m 4,6 km/h (1 Bft) O 101 0 min 0,000 mm 0,0 UV-I 0 W/m -4,2 C -3,1 C 6,4 km/h (2 Bft) 91,30 %
05.03.2018 04:56 -3,0 C 3,3 C 92 % 1002,0 hPa 0,0 l/m 7,9 km/h (2 Bft) O 88 0 min 0,000 mm 0,0 UV-I 0 W/m -4,1 C -4,7 C 12,9 km/h (3 Bft) 96,30 %
05.03.2018 04:57 -3,0 C 3,3 C 92 % 1001,9 hPa 0,0 l/m 9,7 km/h (2 Bft) O 97 0 min 0,000 mm 0,0 UV-I 0 W/m -4,1 C -6,5 C 16,1 km/h (3 Bft) 98,47 %
05.03.2018 04:58 -3,0 C 3,3 C 92 % 1001,9 hPa 0,0 l/m 11,9 km/h (2 Bft) O-SO 107 0 min 0,000 mm 0,0 UV-I 0 W/m -4,1 C -8,4 C 12,9 km/h (3 Bft) 95,45 %
05.03.2018 04:59 -3,0 C 3,3 C 92 % 1001,8 hPa 0,0 l/m 8,1 km/h (2 Bft) O 88 0 min 0,000 mm 0,0 UV-I 0 W/m -4,1 C -4,9 C 11,3 km/h (2 Bft) 96,55 %
05.03.2018 05:00 -3,0 C 3,3 C 92 % 1001,9 hPa 0,0 l/m 11,1 km/h (2 Bft) O-SO 113 0 min 0,000 mm 0,0 UV-I 0 W/m -4,1 C -7,7 C 14,5 km/h (3 Bft) 86,67 %
05.03.2018 05:01 -3,0 C 3,3 C 92 % 1001,9 hPa 0,0 l/m 10,8 km/h (2 Bft) O-SO 115 0 min 0,000 mm 0,0 UV-I 0 W/m -4,1 C -7,5 C 12,9 km/h (3 Bft) 96,30 %
05.03.2018 05:02 -3,0 C 3,3 C 92 % 1001,9 hPa 0,0 l/m 7,5 km/h (2 Bft) O-SO 114 0 min 0,000 mm 0,0 UV-I 0 W/m -4,1 C -4,2 C 11,3 km/h (2 Bft) 92,31 %
05.03.2018 05:03 -3,0 C 3,3 C 92 % 1001,9 hPa 0,0 l/m 4,5 km/h (1 Bft) O 90 0 min 0,000 mm 0,0 UV-I 0 W/m -4,1 C -3,0 C 6,4 km/h (2 Bft) 100,00 %
05.03.2018 05:04 -3,0 C 3,3 C 92 % 1001,9 hPa 0,0 l/m 5,0 km/h (1 Bft) O 82 0 min 0,000 mm 0,0 UV-I 0 W/m -4,1 C -3,0 C 6,4 km/h (2 Bft) 86,67 %
05.03.2018 05:05 -3,0 C 3,3 C 92 % 1001,9 hPa 0,0 l/m 2,6 km/h (1 Bft) O-SO 121 0 min 0,000 mm 0,0 UV-I 0 W/m -4,1 C -3,0 C 4,8 km/h (1 Bft) 100,00 %
05.03.2018 05:06 -3,0 C 3,3 C 92 % 1002,0 hPa 0,0 l/m 3,9 km/h (1 Bft) O 84 0 min 0,000 mm 0,0 UV-I 0 W/m -4,1 C -3,0 C 6,4 km/h (2 Bft) 91,30 %
05.03.2018 05:07 -3,0 C 3,3 C 92 % 1002,0 hPa 0,0 l/m 14,8 km/h (3 Bft) O-SO 107 0 min 0,000 mm 0,0 UV-I 0 W/m -4,1 C -10,5 C 19,3 km/h (3 Bft) 96,67 %
05.03.2018 05:08 -3,0 C 3,3 C 92 % 1001,9 hPa 0,0 l/m 10,9 km/h (2 Bft) O 83 0 min 0,000 mm 0,0 UV-I 0 W/m -4,1 C -7,6 C 14,5 km/h (3 Bft) 92,86 %
05.03.2018 05:09 -3,0 C 3,3 C 92 % 1002,0 hPa 0,0 l/m 4,7 km/h (1 Bft) O 84 0 min 0,000 mm 0,0 UV-I 0 W/m -4,1 C -3,0 C 8,0 km/h (2 Bft) 96,30 %
05.03.2018 05:10 -3,0 C 3,3 C 92 % 1002,0 hPa 0,0 l/m 9,6 km/h (2 Bft) O 88 0 min 0,000 mm 0,0 UV-I 0 W/m -4,1 C -6,4 C 17,7 km/h (3 Bft) 95,65 %
05.03.2018 05:11 -3,0 C 3,3 C 92 % 1002,0 hPa 0,0 l/m 13,7 km/h (3 Bft) O 80 0 min 0,000 mm 0,0 UV-I 0 W/m -4,1 C -9,7 C 17,7 km/h (3 Bft) 91,67 %
05.03.2018 05:12 -3,0 C 3,3 C 92 % 1002,0 hPa 0,0 l/m 11,0 km/h (2 Bft) O-NO 64 0 min 0,000 mm 0,0 UV-I 0 W/m -4,1 C -7,6 C 17,7 km/h (3 Bft) 100,00 %
05.03.2018 05:13 -3,0 C 3,3 C 92 % 1002,0 hPa 0,0 l/m 12,2 km/h (2 Bft) O 90 0 min 0,000 mm 0,0 UV-I 0 W/m -4,1 C -8,6 C 16,1 km/h (3 Bft) 86,67 %
05.03.2018 05:14 -3,0 C 3,3 C 92 % 1002,1 hPa 0,0 l/m 11,0 km/h (2 Bft) O-SO 106 0 min 0,000 mm 0,0 UV-I 0 W/m -4,1 C -7,6 C 12,9 km/h (3 Bft) 100,00 %
05.03.2018 05:15 -3,0 C 3,3 C 92 % 1002,1 hPa 0,0 l/m 11,9 km/h (2 Bft) O-SO 107 0 min 0,000 mm 0,0 UV-I 0 W/m -4,1 C -8,4 C 16,1 km/h (3 Bft) 87,50 %
05.03.2018 05:16 -3,0 C 3,3 C 92 % 1002,1 hPa 0,0 l/m 6,9 km/h (2 Bft) O-SO 112 0 min 0,000 mm 0,0 UV-I 0 W/m -4,1 C -3,6 C 9,7 km/h (2 Bft) 100,00 %
05.03.2018 05:17 -3,0 C 3,3 C 92 % 1002,1 hPa 0,0 l/m 5,1 km/h (1 Bft) O 98 0 min 0,000 mm 0,0 UV-I 0 W/m -4,1 C -3,0 C 9,7 km/h (2 Bft) 88,89 %
05.03.2018 05:18 -2,9 C 3,3 C 92 % 1002,1 hPa 0,0 l/m 8,5 km/h (2 Bft) O 98 0 min 0,000 mm 0,0 UV-I 0 W/m -4,0 C -5,2 C 14,5 km/h (3 Bft) 91,67 %
05.03.2018 05:19 -2,9 C 3,3 C 92 % 1002,0 hPa 0,0 l/m 8,9 km/h (2 Bft) O 97 0 min 0,000 mm 0,0 UV-I 0 W/m -4,0 C -5,6 C 14,5 km/h (3 Bft) 92,31 %
05.03.2018 05:20 -2,9 C 3,3 C 92 % 1002,0 hPa 0,0 l/m 8,2 km/h (2 Bft) O 100 0 min 0,000 mm 0,0 UV-I 0 W/m -4,0 C -4,9 C 12,9 km/h (3 Bft) 100,00 %
05.03.2018 05:21 -2,9 C 3,3 C 92 % 1002,1 hPa 0,0 l/m 7,6 km/h (2 Bft) O-NO 75 0 min 0,000 mm 0,0 UV-I 0 W/m -4,0 C -4,3 C 11,3 km/h (2 Bft) 95,12 %
05.03.2018 05:22 -2,9 C 3,3 C 92 % 1002,0 hPa 0,0 l/m 7,2 km/h (2 Bft) O-NO 69 0 min 0,000 mm 0,0 UV-I 0 W/m -4,0 C -3,8 C 9,7 km/h (2 Bft) 91,67 %
05.03.2018 05:23 -2,9 C 3,3 C 92 % 1002,0 hPa 0,0 l/m 10,1 km/h (2 Bft) O-NO 70 0 min 0,000 mm 0,0 UV-I 0 W/m -4,0 C -6,7 C 12,9 km/h (3 Bft) 100,00 %
05.03.2018 05:24 -2,9 C 3,3 C 92 % 1002,0 hPa 0,0 l/m 9,3 km/h (2 Bft) O 86 0 min 0,000 mm 0,0 UV-I 0 W/m -4,0 C -6,0 C 12,9 km/h (3 Bft) 97,62 %
05.03.2018 05:25 -2,9 C 3,3 C 92 % 1002,0 hPa 0,0 l/m 10,5 km/h (2 Bft) O-SO 107 0 min 0,000 mm 0,0 UV-I 0 W/m -4,0 C -7,1 C 14,5 km/h (3 Bft) 100,00 %
05.03.2018 05:26 -2,9 C 3,3 C 92 % 1002,0 hPa 0,0 l/m 7,7 km/h (2 Bft) O-SO 111 0 min 0,000 mm 0,0 UV-I 0 W/m -4,0 C -4,4 C 14,5 km/h (3 Bft) 91,67 %
05.03.2018 05:27 -2,9 C 3,3 C 92 % 1002,0 hPa 0,0 l/m 5,6 km/h (1 Bft) O-SO 105 0 min 0,000 mm 0,0 UV-I 0 W/m -4,0 C -2,9 C 9,7 km/h (2 Bft) 100,00 %
05.03.2018 05:28 -2,9 C 3,3 C 92 % 1002,0 hPa 0,0 l/m 8,3 km/h (2 Bft) O-SO 103 0 min 0,000 mm 0,0 UV-I 0 W/m -4,0 C -5,0 C 11,3 km/h (2 Bft) 96,30 %
05.03.2018 05:29 -2,9 C 3,3 C 92 % 1001,9 hPa 0,0 l/m 9,3 km/h (2 Bft) O-NO 74 0 min 0,000 mm 0,0 UV-I 0 W/m -4,0 C -6,0 C 14,5 km/h (3 Bft) 100,00 %
05.03.2018 05:30 -2,9 C 3,3 C 92 % 1001,9 hPa 0,0 l/m 9,9 km/h (2 Bft) O 92 0 min 0,000 mm 0,0 UV-I 0 W/m -4,0 C -6,6 C 14,5 km/h (3 Bft) 96,67 %
05.03.2018 05:31 -2,9 C 3,3 C 92 % 1001,9 hPa 0,0 l/m 11,0 km/h (2 Bft) O 98 0 min 0,000 mm 0,0 UV-I 0 W/m -4,0 C -7,5 C 14,5 km/h (3 Bft) 96,15 %
05.03.2018 05:32 -2,9 C 3,3 C 92 % 1002,0 hPa 0,0 l/m 10,1 km/h (2 Bft) O-NO 71 0 min 0,000 mm 0,0 UV-I 0 W/m -4,0 C -6,7 C 12,9 km/h (3 Bft) 93,33 %
05.03.2018 05:33 -2,9 C 3,3 C 92 % 1001,9 hPa 0,0 l/m 10,8 km/h (2 Bft) O-SO 102 0 min 0,000 mm 0,0 UV-I 0 W/m -4,0 C -7,4 C 14,5 km/h (3 Bft) 88,46 %
05.03.2018 05:34 -2,9 C 3,3 C 92 % 1002,0 hPa 0,0 l/m 11,2 km/h (2 Bft) O 94 0 min 0,000 mm 0,0 UV-I 0 W/m -4,0 C -7,7 C 16,1 km/h (3 Bft) 100,00 %
05.03.2018 05:35 -2,9 C 3,3 C 92 % 1002,0 hPa 0,0 l/m 14,4 km/h (3 Bft) O 84 0 min 0,000 mm 0,0 UV-I 0 W/m -4,0 C -10,1 C 19,3 km/h (3 Bft) 94,12 %
05.03.2018 05:36 -2,9 C 3,3 C 92 % 1001,9 hPa 0,0 l/m 10,9 km/h (2 Bft) O 96 0 min 0,000 mm 0,0 UV-I 0 W/m -4,0 C -7,4 C 14,5 km/h (3 Bft) 100,00 %
05.03.2018 05:37 -2,9 C 3,3 C 92 % 1002,0 hPa 0,0 l/m 11,7 km/h (2 Bft) O-NO 59 0 min 0,000 mm 0,0 UV-I 0 W/m -4,0 C -8,1 C 14,5 km/h (3 Bft) 100,00 %
05.03.2018 05:38 -2,9 C 3,3 C 92 % 1002,0 hPa 0,0 l/m 10,0 km/h (2 Bft) O-NO 67 0 min 0,000 mm 0,0 UV-I 0 W/m -4,0 C -6,7 C 14,5 km/h (3 Bft) 100,00 %
05.03.2018 05:39 -2,9 C 3,3 C 92 % 1001,9 hPa 0,0 l/m 13,2 km/h (3 Bft) O 99 0 min 0,000 mm 0,0 UV-I 0 W/m -4,0 C -9,2 C 17,7 km/h (3 Bft) 95,65 %
05.03.2018 05:40 -2,8 C 3,3 C 92 % 1001,9 hPa 0,0 l/m 12,1 km/h (2 Bft) O-SO 107 0 min 0,000 mm 0,0 UV-I 0 W/m -3,9 C -8,3 C 14,5 km/h (3 Bft) 100,00 %
05.03.2018 05:41 -2,8 C 3,3 C 92 % 1001,9 hPa 0,0 l/m 14,8 km/h (3 Bft) O 97 0 min 0,000 mm 0,0 UV-I 0 W/m -3,9 C -10,2 C 19,3 km/h (3 Bft) 100,00 %
05.03.2018 05:42 -2,9 C 3,3 C 92 % 1001,9 hPa 0,0 l/m 14,0 km/h (3 Bft) O-SO 104 0 min 0,000 mm 0,0 UV-I 0 W/m -4,0 C -9,8 C 17,7 km/h (3 Bft) 100,00 %
05.03.2018 05:43 -2,9 C 3,3 C 92 % 1002,0 hPa 0,0 l/m 7,2 km/h (2 Bft) O 96 0 min 0,000 mm 0,0 UV-I 0 W/m -4,0 C -3,8 C 12,9 km/h (3 Bft) 93,33 %
05.03.2018 05:44 -2,8 C 3,3 C 92 % 1002,0 hPa 0,0 l/m 12,1 km/h (2 Bft) O-NO 76 0 min 0,000 mm 0,0 UV-I 0 W/m -3,9 C -8,3 C 14,5 km/h (3 Bft) 100,00 %
05.03.2018 05:45 -2,8 C 3,3 C 92 % 1001,9 hPa 0,0 l/m 11,4 km/h (2 Bft) O 97 0 min 0,000 mm 0,0 UV-I 0 W/m -3,9 C -7,7 C 16,1 km/h (3 Bft) 100,00 %
05.03.2018 05:46 -2,8 C 3,3 C 92 % 1001,9 hPa 0,0 l/m 11,6 km/h (2 Bft) O 96 0 min 0,000 mm 0,0 UV-I 0 W/m -3,9 C -7,9 C 16,1 km/h (3 Bft) 100,00 %
05.03.2018 05:47 -2,8 C 3,3 C 92 % 1001,9 hPa 0,0 l/m 11,4 km/h (2 Bft) O-SO 109 0 min 0,000 mm 0,0 UV-I 0 W/m -3,9 C -7,7 C 16,1 km/h (3 Bft) 100,00 %
05.03.2018 05:48 -2,8 C 3,3 C 92 % 1001,9 hPa 0,0 l/m 11,0 km/h (2 Bft) O-SO 113 0 min 0,000 mm 0,0 UV-I 0 W/m -3,9 C -7,4 C 12,9 km/h (3 Bft) 100,00 %
05.03.2018 05:49 -2,9 C 3,3 C 92 % 1001,9 hPa 0,0 l/m 10,2 km/h (2 Bft) O-SO 106 0 min 0,000 mm 0,0 UV-I 0 W/m -4,0 C -6,8 C 12,9 km/h (3 Bft) 100,00 %
05.03.2018 05:50 -2,8 C 3,3 C 92 % 1001,9 hPa 0,0 l/m 7,7 km/h (2 Bft) O 90 0 min 0,000 mm 0,0 UV-I 0 W/m -3,9 C -4,3 C 11,3 km/h (2 Bft) 100,00 %
05.03.2018 05:51 -2,8 C 3,3 C 92 % 1001,8 hPa 0,0 l/m 10,3 km/h (2 Bft) O 88 0 min 0,000 mm 0,0 UV-I 0 W/m -3,9 C -6,8 C 17,7 km/h (3 Bft) 100,00 %
05.03.2018 05:52 -2,8 C 3,3 C 92 % 1001,8 hPa 0,0 l/m 14,5 km/h (3 Bft) O 92 0 min 0,000 mm 0,0 UV-I 0 W/m -3,9 C -10,0 C 17,7 km/h (3 Bft) 100,00 %
05.03.2018 05:53 -2,9 C 3,3 C 92 % 1001,8 hPa 0,0 l/m 12,5 km/h (3 Bft) O 81 0 min 0,000 mm 0,0 UV-I 0 W/m -4,0 C -8,7 C 14,5 km/h (3 Bft) 100,00 %
05.03.2018 05:54 -2,8 C 3,3 C 92 % 1001,8 hPa 0,0 l/m 14,1 km/h (3 Bft) O-NO 67 0 min 0,000 mm 0,0 UV-I 0 W/m -3,9 C -9,8 C 17,7 km/h (3 Bft) 100,00 %
05.03.2018 05:55 -2,8 C 3,3 C 92 % 1001,8 hPa 0,0 l/m 14,2 km/h (3 Bft) O 94 0 min 0,000 mm 0,0 UV-I 0 W/m -3,9 C -9,8 C 17,7 km/h (3 Bft) 100,00 %
05.03.2018 05:56 -2,8 C 3,3 C 92 % 1001,8 hPa 0,0 l/m 15,1 km/h (3 Bft) O 95 0 min 0,000 mm 0,0 UV-I 0 W/m -3,9 C -10,4 C 19,3 km/h (3 Bft) 100,00 %
05.03.2018 05:57 -2,8 C 3,3 C 92 % 1001,8 hPa 0,0 l/m 14,2 km/h (3 Bft) O-NO 65 0 min 0,000 mm 0,0 UV-I 0 W/m -3,9 C -9,8 C 19,3 km/h (3 Bft) 100,00 %
05.03.2018 05:58 -2,8 C 3,3 C 92 % 1001,8 hPa 0,0 l/m 13,6 km/h (3 Bft) O 89 0 min 0,000 mm 0,0 UV-I 0 W/m -3,9 C -9,4 C 17,7 km/h (3 Bft) 100,00 %
05.03.2018 05:59 -2,8 C 3,3 C 92 % 1001,8 hPa 0,0 l/m 12,7 km/h (3 Bft) O-NO 76 0 min 0,000 mm 0,0 UV-I 0 W/m -3,9 C -8,8 C 17,7 km/h (3 Bft) 100,00 %
05.03.2018 06:00 -2,8 C 3,3 C 92 % 1001,8 hPa 0,0 l/m 16,7 km/h (3 Bft) O-SO 111 0 min 0,000 mm 0,0 UV-I 0 W/m -3,9 C -11,4 C 22,5 km/h (4 Bft) 100,00 %
05.03.2018 06:01 -2,8 C 3,3 C 92 % 1001,8 hPa 0,0 l/m 15,0 km/h (3 Bft) O-SO 105 0 min 0,000 mm 0,0 UV-I 0 W/m -3,9 C -10,4 C 17,7 km/h (3 Bft) 100,00 %
05.03.2018 06:02 -2,9 C 3,3 C 92 % 1001,8 hPa 0,0 l/m 15,1 km/h (3 Bft) O-SO 102 0 min 0,000 mm 0,0 UV-I 0 W/m -4,0 C -10,6 C 17,7 km/h (3 Bft) 100,00 %
05.03.2018 06:03 -2,8 C 3,3 C 92 % 1001,8 hPa 0,0 l/m 11,3 km/h (2 Bft) O-NO 60 0 min 0,000 mm 0,0 UV-I 0 W/m -3,9 C -7,7 C 14,5 km/h (3 Bft) 100,00 %
05.03.2018 06:04 -2,8 C 3,3 C 92 % 1001,9 hPa 0,0 l/m 10,5 km/h (2 Bft) O 83 0 min 0,000 mm 0,0 UV-I 0 W/m -3,9 C -7,0 C 14,5 km/h (3 Bft) 100,00 %
05.03.2018 06:05 -2,9 C 3,3 C 92 % 1001,8 hPa 0,0 l/m 10,9 km/h (2 Bft) O 94 0 min 0,000 mm 0,0 UV-I 0 W/m -4,0 C -7,4 C 14,5 km/h (3 Bft) 96,15 %
05.03.2018 06:06 -2,9 C 3,3 C 92 % 1001,8 hPa 0,0 l/m 10,2 km/h (2 Bft) O-NO 68 0 min 0,000 mm 0,0 UV-I 0 W/m -4,0 C -6,8 C 14,5 km/h (3 Bft) 100,00 %
05.03.2018 06:07 -2,9 C 3,3 C 92 % 1001,8 hPa 0,0 l/m 11,7 km/h (2 Bft) O-NO 78 0 min 0,000 mm 0,0 UV-I 0 W/m -4,0 C -8,1 C 14,5 km/h (3 Bft) 100,00 %
05.03.2018 06:08 -2,8 C 3,3 C 92 % 1001,8 hPa 0,0 l/m 11,9 km/h (2 Bft) O 95 0 min 0,000 mm 0,0 UV-I 0 W/m -3,9 C -8,1 C 16,1 km/h (3 Bft) 100,00 %
05.03.2018 06:09 -2,8 C 3,3 C 92 % 1001,8 hPa 0,0 l/m 11,1 km/h (2 Bft) O-NO 74 0 min 0,000 mm 0,0 UV-I 0 W/m -3,9 C -7,5 C 14,5 km/h (3 Bft) 100,00 %
05.03.2018 06:10 -2,9 C 3,3 C 92 % 1001,8 hPa 0,0 l/m 7,6 km/h (2 Bft) O-SO 107 0 min 0,000 mm 0,0 UV-I 0 W/m -4,0 C -4,3 C 11,3 km/h (2 Bft) 100,00 %
05.03.2018 06:11 -2,8 C 3,3 C 92 % 1001,8 hPa 0,0 l/m 9,7 km/h (2 Bft) O-NO 65 0 min 0,000 mm 0,0 UV-I 0 W/m -3,9 C -6,3 C 12,9 km/h (3 Bft) 100,00 %
05.03.2018 06:12 -2,9 C 3,3 C 92 % 1001,9 hPa 0,0 l/m 8,6 km/h (2 Bft) O 85 0 min 0,000 mm 0,0 UV-I 0 W/m -4,0 C -5,3 C 11,3 km/h (2 Bft) 100,00 %
05.03.2018 06:13 -2,9 C 3,3 C 92 % 1001,9 hPa 0,0 l/m 7,2 km/h (2 Bft) O-SO 106 0 min 0,000 mm 0,0 UV-I 0 W/m -4,0 C -3,8 C 9,7 km/h (2 Bft) 100,00 %
05.03.2018 06:14 -2,9 C 3,3 C 92 % 1001,9 hPa 0,0 l/m 9,4 km/h (2 Bft) O 87 0 min 0,000 mm 0,0 UV-I 0 W/m -4,0 C -6,1 C 12,9 km/h (3 Bft) 100,00 %
05.03.2018 06:15 -2,9 C 3,3 C 92 % 1001,9 hPa 0,0 l/m 12,2 km/h (2 Bft) O 86 0 min 0,000 mm 0,0 UV-I 0 W/m -4,0 C -8,5 C 17,7 km/h (3 Bft) 100,00 %
05.03.2018 06:16 -2,9 C 3,3 C 92 % 1001,8 hPa 0,0 l/m 14,6 km/h (3 Bft) O 82 0 min 0,000 mm 0,0 UV-I 0 W/m -4,0 C -10,2 C 17,7 km/h (3 Bft) 100,00 %
05.03.2018 06:17 -2,8 C 3,3 C 92 % 1001,8 hPa 0,0 l/m 13,8 km/h (3 Bft) O 92 0 min 0,000 mm 0,0 UV-I 0 W/m -3,9 C -9,6 C 17,7 km/h (3 Bft) 100,00 %
05.03.2018 06:18 -2,8 C 3,3 C 92 % 1001,8 hPa 0,0 l/m 10,4 km/h (2 Bft) O-NO 59 0 min 0,000 mm 0,0 UV-I 0 W/m -3,9 C -6,9 C 12,9 km/h (3 Bft) 100,00 %
05.03.2018 06:19 -2,8 C 3,3 C 92 % 1001,8 hPa 0,0 l/m 11,5 km/h (2 Bft) O-NO 63 0 min 0,000 mm 0,0 UV-I 0 W/m -3,9 C -7,8 C 14,5 km/h (3 Bft) 100,00 %
05.03.2018 06:20 -2,8 C 3,3 C 92 % 1001,8 hPa 0,0 l/m 10,8 km/h (2 Bft) O 80 0 min 0,000 mm 0,0 UV-I 0 W/m -3,9 C -7,2 C 14,5 km/h (3 Bft) 96,15 %
05.03.2018 06:21 -2,8 C 3,3 C 92 % 1001,8 hPa 0,0 l/m 11,5 km/h (2 Bft) O 99 0 min 0,000 mm 0,0 UV-I 0 W/m -3,9 C -7,8 C 14,5 km/h (3 Bft) 100,00 %
05.03.2018 06:22 -2,8 C 3,3 C 92 % 1001,9 hPa 0,0 l/m 10,8 km/h (2 Bft) O-SO 108 0 min 0,000 mm 0,0 UV-I 0 W/m -3,9 C -7,2 C 14,5 km/h (3 Bft) 100,00 %
05.03.2018 06:23 -2,9 C 3,3 C 92 % 1001,9 hPa 0,0 l/m 6,4 km/h (2 Bft) O-NO 61 0 min 0,000 mm 0,0 UV-I 0 W/m -4,0 C -2,9 C 11,3 km/h (2 Bft) 100,00 %
05.03.2018 06:24 -2,8 C 3,3 C 92 % 1001,9 hPa 0,0 l/m 7,8 km/h (2 Bft) O-SO 109 0 min 0,000 mm 0,0 UV-I 0 W/m -3,9 C -4,4 C 11,3 km/h (2 Bft) 100,00 %
05.03.2018 06:25 -2,8 C 3,3 C 92 % 1001,9 hPa 0,0 l/m 7,1 km/h (2 Bft) O 88 0 min 0,000 mm 0,0 UV-I 0 W/m -3,9 C -3,6 C 8,0 km/h (2 Bft) 100,00 %
05.03.2018 06:26 -2,8 C 3,3 C 92 % 1001,9 hPa 0,0 l/m 8,1 km/h (2 Bft) O-NO 57 0 min 0,000 mm 0,0 UV-I 1 W/m -3,9 C -4,7 C 11,3 km/h (2 Bft) 100,00 %
05.03.2018 06:27 -2,8 C 3,3 C 92 % 1001,9 hPa 0,0 l/m 7,4 km/h (2 Bft) O 91 0 min 0,000 mm 0,0 UV-I 5 W/m -3,9 C -3,9 C 12,9 km/h (3 Bft) 100,00 %
05.03.2018 06:28 -2,8 C 3,3 C 92 % 1001,9 hPa 0,0 l/m 8,4 km/h (2 Bft) O 80 0 min 0,000 mm 0,0 UV-I 5 W/m -3,9 C -5,0 C 11,3 km/h (2 Bft) 100,00 %
05.03.2018 06:29 -2,8 C 3,3 C 92 % 1001,9 hPa 0,0 l/m 9,7 km/h (2 Bft) O-NO 69 0 min 0,000 mm 0,0 UV-I 5 W/m -3,9 C -6,3 C 12,9 km/h (3 Bft) 100,00 %
05.03.2018 06:30 -2,8 C 3,3 C 92 % 1001,9 hPa 0,0 l/m 10,3 km/h (2 Bft) O 86 0 min 0,000 mm 0,0 UV-I 5 W/m -3,9 C -6,8 C 14,5 km/h (3 Bft) 100,00 %
05.03.2018 06:31 -2,8 C 3,3 C 92 % 1001,9 hPa 0,0 l/m 12,1 km/h (2 Bft) O 84 0 min 0,000 mm 0,0 UV-I 1 W/m -3,9 C -8,3 C 19,3 km/h (3 Bft) 100,00 %
05.03.2018 06:32 -2,8 C 3,3 C 92 % 1001,9 hPa 0,0 l/m 11,1 km/h (2 Bft) O 89 0 min 0,000 mm 0,0 UV-I 5 W/m -3,9 C -7,5 C 16,1 km/h (3 Bft) 100,00 %
05.03.2018 06:33 -2,8 C 3,3 C 92 % 1001,9 hPa 0,0 l/m 11,1 km/h (2 Bft) O 84 0 min 0,000 mm 0,0 UV-I 5 W/m -3,9 C -7,5 C 14,5 km/h (3 Bft) 100,00 %
05.03.2018 06:34 -2,8 C 3,3 C 92 % 1001,9 hPa 0,0 l/m 11,7 km/h (2 Bft) O 92 0 min 0,000 mm 0,0 UV-I 5 W/m -3,9 C -8,0 C 17,7 km/h (3 Bft) 100,00 %
05.03.2018 06:35 -2,8 C 3,3 C 92 % 1001,9 hPa 0,0 l/m 9,2 km/h (2 Bft) O-SO 121 0 min 0,000 mm 0,0 UV-I 5 W/m -3,9 C -5,8 C 16,1 km/h (3 Bft) 100,00 %
05.03.2018 06:36 -2,8 C 3,3 C 92 % 1002,0 hPa 0,0 l/m 11,2 km/h (2 Bft) O 92 0 min 0,000 mm 0,0 UV-I 5 W/m -3,9 C -7,6 C 12,9 km/h (3 Bft) 100,00 %
05.03.2018 06:37 -2,8 C 3,3 C 92 % 1002,0 hPa 0,0 l/m 10,9 km/h (2 Bft) O-NO 67 0 min 0,000 mm 0,0 UV-I 5 W/m -3,9 C -7,3 C 12,9 km/h (3 Bft) 100,00 %
05.03.2018 06:38 -2,8 C 3,3 C 92 % 1002,0 hPa 0,0 l/m 11,3 km/h (2 Bft) O-NO 78 0 min 0,000 mm 0,0 UV-I 5 W/m -3,9 C -7,7 C 14,5 km/h (3 Bft) 100,00 %
05.03.2018 06:39 -2,8 C 3,3 C 92 % 1002,0 hPa 0,0 l/m 8,0 km/h (2 Bft) O 98 0 min 0,000 mm 0,0 UV-I 5 W/m -3,9 C -4,6 C 11,3 km/h (2 Bft) 100,00 %
05.03.2018 06:40 -2,8 C 3,3 C 92 % 1002,0 hPa 0,0 l/m 7,4 km/h (2 Bft) O 92 0 min 0,000 mm 0,0 UV-I 5 W/m -3,9 C -3,9 C 11,3 km/h (2 Bft) 100,00 %
05.03.2018 06:41 -2,8 C 3,3 C 92 % 1002,0 hPa 0,0 l/m 12,0 km/h (2 Bft) O-NO 75 0 min 0,000 mm 0,0 UV-I 5 W/m -3,9 C -8,2 C 17,7 km/h (3 Bft) 100,00 %
05.03.2018 06:42 -2,8 C 3,3 C 92 % 1002,1 hPa 0,0 l/m 11,4 km/h (2 Bft) O 83 0 min 0,000 mm 0,0 UV-I 5 W/m -3,9 C -7,7 C 16,1 km/h (3 Bft) 100,00 %
05.03.2018 06:43 -2,8 C 3,3 C 92 % 1002,1 hPa 0,0 l/m 12,2 km/h (2 Bft) O 96 0 min 0,000 mm 0,0 UV-I 6 W/m -3,9 C -8,4 C 16,1 km/h (3 Bft) 100,00 %
05.03.2018 06:44 -2,8 C 3,3 C 92 % 1002,1 hPa 0,0 l/m 12,8 km/h (3 Bft) O-SO 110 0 min 0,000 mm 0,0 UV-I 7 W/m -3,9 C -8,8 C 16,1 km/h (3 Bft) 100,00 %
05.03.2018 06:45 -2,8 C 3,3 C 92 % 1002,1 hPa 0,0 l/m 10,5 km/h (2 Bft) O 87 0 min 0,000 mm 0,0 UV-I 7 W/m -3,9 C -7,0 C 12,9 km/h (3 Bft) 100,00 %
05.03.2018 06:46 -2,8 C 3,3 C 92 % 1002,1 hPa 0,0 l/m 11,3 km/h (2 Bft) O-SO 104 0 min 0,000 mm 0,0 UV-I 7 W/m -3,9 C -7,7 C 12,9 km/h (3 Bft) 100,00 %
05.03.2018 06:47 -2,8 C 3,3 C 92 % 1002,1 hPa 0,0 l/m 6,2 km/h (2 Bft) O-NO 75 0 min 0,000 mm 0,0 UV-I 7 W/m -3,9 C -2,8 C 9,7 km/h (2 Bft) 100,00 %
05.03.2018 06:48 -2,8 C 3,3 C 92 % 1002,1 hPa 0,0 l/m 7,7 km/h (2 Bft) O-SO 104 0 min 0,000 mm 0,0 UV-I 7 W/m -3,9 C -4,3 C 11,3 km/h (2 Bft) 100,00 %
05.03.2018 06:49 -2,8 C 3,3 C 92 % 1002,1 hPa 0,0 l/m 10,8 km/h (2 Bft) O 86 0 min 0,000 mm 0,0 UV-I 9 W/m -3,9 C -7,2 C 14,5 km/h (3 Bft) 100,00 %
05.03.2018 06:50 -2,8 C 3,3 C 92 % 1002,1 hPa 0,0 l/m 11,5 km/h (2 Bft) O-SO 109 0 min 0,000 mm 0,0 UV-I 9 W/m -3,9 C -7,8 C 16,1 km/h (3 Bft) 96,30 %
05.03.2018 06:51 -2,8 C 3,3 C 92 % 1002,1 hPa 0,0 l/m 13,2 km/h (3 Bft) O 96 0 min 0,000 mm 0,0 UV-I 9 W/m -3,9 C -9,1 C 17,7 km/h (3 Bft) 100,00 %
05.03.2018 06:52 -2,8 C 3,3 C 92 % 1002,1 hPa 0,0 l/m 8,7 km/h (2 Bft) O-SO 103 0 min 0,000 mm 0,0 UV-I 10 W/m -3,9 C -5,3 C 11,3 km/h (2 Bft) 97,37 %
05.03.2018 06:53 -2,8 C 3,3 C 92 % 1002,1 hPa 0,0 l/m 8,0 km/h (2 Bft) O 88 0 min 0,000 mm 0,0 UV-I 11 W/m -3,9 C -4,6 C 11,3 km/h (2 Bft) 91,30 %
05.03.2018 06:54 -2,8 C 3,3 C 92 % 1002,1 hPa 0,0 l/m 12,0 km/h (2 Bft) O 84 0 min 0,000 mm 0,0 UV-I 11 W/m -3,9 C -8,2 C 16,1 km/h (3 Bft) 100,00 %
05.03.2018 06:55 -2,8 C 3,3 C 92 % 1002,1 hPa 0,0 l/m 11,6 km/h (2 Bft) O 94 0 min 0,000 mm 0,0 UV-I 11 W/m -3,9 C -7,9 C 16,1 km/h (3 Bft) 95,65 %
05.03.2018 06:56 -2,8 C 3,3 C 92 % 1002,0 hPa 0,0 l/m 11,9 km/h (2 Bft) O 80 0 min 0,000 mm 0,0 UV-I 12 W/m -3,9 C -8,1 C 14,5 km/h (3 Bft) 100,00 %
05.03.2018 06:57 -2,8 C 3,3 C 92 % 1002,0 hPa 0,0 l/m 10,9 km/h (2 Bft) O-SO 111 0 min 0,000 mm 0,0 UV-I 12 W/m -3,9 C -7,3 C 16,1 km/h (3 Bft) 95,65 %
05.03.2018 06:58 -2,8 C 3,3 C 92 % 1002,0 hPa 0,0 l/m 11,2 km/h (2 Bft) O 82 0 min 0,000 mm 0,0 UV-I 12 W/m -3,9 C -7,6 C 16,1 km/h (3 Bft) 100,00 %
05.03.2018 06:59 -2,8 C 3,3 C 92 % 1002,0 hPa 0,0 l/m 13,0 km/h (3 Bft) O-SO 107 0 min 0,000 mm 0,0 UV-I 14 W/m -3,9 C -9,0 C 16,1 km/h (3 Bft) 93,33 %
05.03.2018 07:00 -2,8 C 3,3 C 92 % 1002,0 hPa 0,0 l/m 11,9 km/h (2 Bft) O 95 0 min 0,000 mm 0,0 UV-I 14 W/m -3,9 C -8,1 C 14,5 km/h (3 Bft) 100,00 %
05.03.2018 07:01 -2,8 C 3,3 C 92 % 1002,0 hPa 0,0 l/m 11,1 km/h (2 Bft) O-SO 107 0 min 0,000 mm 0,0 UV-I 14 W/m -3,9 C -7,5 C 14,5 km/h (3 Bft) 95,83 %
05.03.2018 07:02 -2,8 C 3,3 C 92 % 1002,0 hPa 0,0 l/m 13,6 km/h (3 Bft) O 90 0 min 0,000 mm 0,0 UV-I 16 W/m -3,9 C -9,4 C 16,1 km/h (3 Bft) 100,00 %
05.03.2018 07:03 -2,8 C 3,3 C 92 % 1002,0 hPa 0,0 l/m 12,2 km/h (2 Bft) O 96 0 min 0,000 mm 0,0 UV-I 16 W/m -3,9 C -8,4 C 16,1 km/h (3 Bft) 96,30 %
05.03.2018 07:04 -2,8 C 3,3 C 92 % 1002,0 hPa 0,0 l/m 11,0 km/h (2 Bft) O-SO 104 0 min 0,000 mm 0,0 UV-I 17 W/m -3,9 C -7,4 C 12,9 km/h (3 Bft) 100,00 %
05.03.2018 07:05 -2,8 C 3,3 C 92 % 1002,0 hPa 0,0 l/m 11,3 km/h (2 Bft) O-NO 76 0 min 0,000 mm 0,0 UV-I 18 W/m -3,9 C -7,7 C 14,5 km/h (3 Bft) 96,30 %
05.03.2018 07:06 -2,8 C 3,3 C 92 % 1002,0 hPa 0,0 l/m 12,2 km/h (2 Bft) O 84 0 min 0,000 mm 0,0 UV-I 18 W/m -3,9 C -8,4 C 16,1 km/h (3 Bft) 95,65 %
05.03.2018 07:07 -2,8 C 3,3 C 92 % 1002,0 hPa 0,0 l/m 11,5 km/h (2 Bft) O 91 0 min 0,000 mm 0,0 UV-I 19 W/m -3,9 C -7,8 C 14,5 km/h (3 Bft) 100,00 %
05.03.2018 07:08 -2,8 C 3,3 C 92 % 1002,0 hPa 0,0 l/m 9,9 km/h (2 Bft) SO 124 0 min 0,000 mm 0,0 UV-I 20 W/m -3,9 C -6,5 C 12,9 km/h (3 Bft) 95,65 %
05.03.2018 07:09 -2,8 C 3,3 C 92 % 1002,0 hPa 0,0 l/m 12,6 km/h (3 Bft) O-SO 113 0 min 0,000 mm 0,0 UV-I 21 W/m -3,9 C -8,7 C 17,7 km/h (3 Bft) 100,00 %
05.03.2018 07:10 -2,8 C 3,3 C 92 % 1002,0 hPa 0,0 l/m 11,9 km/h (2 Bft) O 92 0 min 0,000 mm 0,0 UV-I 21 W/m -3,9 C -8,1 C 16,1 km/h (3 Bft) 96,15 %
05.03.2018 07:11 -2,8 C 3,3 C 92 % 1002,1 hPa 0,0 l/m 8,8 km/h (2 Bft) O-SO 113 0 min 0,000 mm 0,0 UV-I 23 W/m -3,9 C -5,4 C 12,9 km/h (3 Bft) 95,83 %
05.03.2018 07:12 -2,8 C 3,3 C 92 % 1002,1 hPa 0,0 l/m 12,2 km/h (2 Bft) O-SO 103 0 min 0,000 mm 0,0 UV-I 23 W/m -3,9 C -8,4 C 16,1 km/h (3 Bft) 100,00 %
05.03.2018 07:13 -2,8 C 3,3 C 92 % 1002,1 hPa 0,0 l/m 7,0 km/h (2 Bft) O 101 0 min 0,000 mm 0,0 UV-I 25 W/m -3,9 C -3,5 C 11,3 km/h (2 Bft) 96,30 %
05.03.2018 07:14 -2,8 C 3,3 C 92 % 1002,1 hPa 0,0 l/m 8,9 km/h (2 Bft) O-SO 115 0 min 0,000 mm 0,0 UV-I 26 W/m -3,9 C -5,5 C 12,9 km/h (3 Bft) 100,00 %
05.03.2018 07:15 -2,8 C 3,3 C 92 % 1002,1 hPa 0,0 l/m 11,3 km/h (2 Bft) O-SO 104 0 min 0,000 mm 0,0 UV-I 26 W/m -3,9 C -7,7 C 14,5 km/h (3 Bft) 92,59 %
05.03.2018 07:16 -2,8 C 3,3 C 92 % 1002,1 hPa 0,0 l/m 10,9 km/h (2 Bft) O 82 0 min 0,000 mm 0,0 UV-I 26 W/m -3,9 C -7,3 C 14,5 km/h (3 Bft) 100,00 %
05.03.2018 07:17 -2,8 C 3,3 C 92 % 1002,0 hPa 0,0 l/m 8,6 km/h (2 Bft) O-SO 106 0 min 0,000 mm 0,0 UV-I 26 W/m -3,9 C -5,2 C 14,5 km/h (3 Bft) 96,30 %
05.03.2018 07:18 -2,8 C 3,3 C 92 % 1002,0 hPa 0,0 l/m 6,6 km/h (2 Bft) O-NO 65 0 min 0,000 mm 0,0 UV-I 28 W/m -3,9 C -3,0 C 11,3 km/h (2 Bft) 95,65 %
05.03.2018 07:19 -2,8 C 3,3 C 92 % 1002,1 hPa 0,0 l/m 4,1 km/h (1 Bft) O-SO 102 0 min 0,000 mm 0,0 UV-I 29 W/m -3,9 C -2,8 C 14,5 km/h (3 Bft) 100,00 %
05.03.2018 07:20 -2,8 C 3,3 C 92 % 1002,1 hPa 0,0 l/m 6,9 km/h (2 Bft) O 88 0 min 0,000 mm 0,0 UV-I 30 W/m -3,9 C -3,4 C 12,9 km/h (3 Bft) 100,00 %
05.03.2018 07:21 -2,8 C 3,3 C 92 % 1002,1 hPa 0,0 l/m 6,8 km/h (2 Bft) SO 137 0 min 0,000 mm 0,0 UV-I 30 W/m -3,9 C -3,2 C 11,3 km/h (2 Bft) 96,55 %
05.03.2018 07:22 -2,8 C 3,3 C 92 % 1002,0 hPa 0,0 l/m 8,7 km/h (2 Bft) O 82 0 min 0,000 mm 0,0 UV-I 32 W/m -3,9 C -5,3 C 11,3 km/h (2 Bft) 95,83 %
05.03.2018 07:23 -2,8 C 3,3 C 92 % 1002,0 hPa 0,0 l/m 6,7 km/h (2 Bft) O-SO 116 0 min 0,000 mm 0,0 UV-I 33 W/m -3,9 C -3,1 C 9,7 km/h (2 Bft) 100,00 %
05.03.2018 07:24 -2,8 C 3,3 C 92 % 1002,0 hPa 0,0 l/m 8,0 km/h (2 Bft) O 94 0 min 0,000 mm 0,0 UV-I 36 W/m -3,9 C -4,6 C 11,3 km/h (2 Bft) 95,83 %
05.03.2018 07:25 -2,8 C 3,3 C 92 % 1002,0 hPa 0,0 l/m 11,2 km/h (2 Bft) O 88 0 min 0,000 mm 0,0 UV-I 37 W/m -3,9 C -7,6 C 14,5 km/h (3 Bft) 100,00 %
05.03.2018 07:26 -2,8 C 3,3 C 92 % 1002,1 hPa 0,0 l/m 7,7 km/h (2 Bft) O-SO 105 0 min 0,000 mm 0,0 UV-I 38 W/m -3,9 C -4,3 C 11,3 km/h (2 Bft) 100,00 %
05.03.2018 07:27 -2,8 C 3,3 C 92 % 1002,1 hPa 0,0 l/m 8,5 km/h (2 Bft) O 100 0 min 0,000 mm 0,0 UV-I 39 W/m -3,9 C -5,1 C 11,3 km/h (2 Bft) 100,00 %
05.03.2018 07:28 -2,8 C 3,3 C 92 % 1002,0 hPa 0,0 l/m 8,8 km/h (2 Bft) O-SO 107 0 min 0,000 mm 0,0 UV-I 40 W/m -3,9 C -5,4 C 14,5 km/h (3 Bft) 100,00 %
05.03.2018 07:29 -2,8 C 3,3 C 92 % 1002,0 hPa 0,0 l/m 5,8 km/h (2 Bft) O-SO 109 0 min 0,000 mm 0,0 UV-I 40 W/m -3,9 C -2,8 C 8,0 km/h (2 Bft) 91,30 %
05.03.2018 07:30 -2,8 C 3,3 C 92 % 1002,0 hPa 0,0 l/m 6,4 km/h (2 Bft) O 84 0 min 0,000 mm 0,0 UV-I 41 W/m -3,9 C -2,8 C 9,7 km/h (2 Bft) 100,00 %
05.03.2018 07:31 -2,8 C 3,3 C 92 % 1002,0 hPa 0,0 l/m 8,4 km/h (2 Bft) O 88 0 min 0,000 mm 0,0 UV-I 42 W/m -3,9 C -5,0 C 11,3 km/h (2 Bft) 100,00 %
05.03.2018 07:32 -2,8 C 3,3 C 92 % 1002,1 hPa 0,0 l/m 5,7 km/h (1 Bft) O-SO 103 0 min 0,000 mm 0,0 UV-I 42 W/m -3,9 C -2,8 C 9,7 km/h (2 Bft) 100,00 %
05.03.2018 07:33 -2,8 C 3,3 C 92 % 1002,1 hPa 0,0 l/m 7,8 km/h (2 Bft) O 94 0 min 0,000 mm 0,0 UV-I 43 W/m -3,9 C -4,4 C 11,3 km/h (2 Bft) 100,00 %
05.03.2018 07:34 -2,8 C 3,3 C 92 % 1002,1 hPa 0,0 l/m 5,1 km/h (1 Bft) O 80 0 min 0,000 mm 0,0 UV-I 44 W/m -3,9 C -2,8 C 11,3 km/h (2 Bft) 100,00 %
05.03.2018 07:35 -2,8 C 3,3 C 92 % 1002,1 hPa 0,0 l/m 11,7 km/h (2 Bft) O-SO 102 0 min 0,000 mm 0,0 UV-I 46 W/m -3,9 C -8,0 C 17,7 km/h (3 Bft) 100,00 %
05.03.2018 07:36 -2,8 C 3,3 C 92 % 1002,1 hPa 0,0 l/m 10,5 km/h (2 Bft) O 94 0 min 0,000 mm 0,0 UV-I 47 W/m -3,9 C -7,0 C 14,5 km/h (3 Bft) 100,00 %
05.03.2018 07:37 -2,8 C 3,3 C 92 % 1002,1 hPa 0,0 l/m 7,7 km/h (2 Bft) O 99 0 min 0,000 mm 0,0 UV-I 48 W/m -3,9 C -4,3 C 12,9 km/h (3 Bft) 100,00 %
05.03.2018 07:38 -2,7 C 3,3 C 92 % 1002,1 hPa 0,0 l/m 8,5 km/h (2 Bft) O 88 0 min 0,000 mm 0,0 UV-I 49 W/m -3,8 C -5,0 C 12,9 km/h (3 Bft) 100,00 %
05.03.2018 07:39 -2,8 C 3,3 C 92 % 1002,1 hPa 0,0 l/m 9,9 km/h (2 Bft) O 100 0 min 0,000 mm 0,0 UV-I 50 W/m -3,9 C -6,5 C 14,5 km/h (3 Bft) 100,00 %
05.03.2018 07:40 -2,7 C 3,3 C 92 % 1002,1 hPa 0,0 l/m 9,6 km/h (2 Bft) O 89 0 min 0,000 mm 0,0 UV-I 53 W/m -3,8 C -6,1 C 14,5 km/h (3 Bft) 100,00 %
05.03.2018 07:41 -2,7 C 3,3 C 92 % 1002,1 hPa 0,0 l/m 8,4 km/h (2 Bft) O-NO 78 0 min 0,000 mm 0,0 UV-I 53 W/m -3,8 C -4,9 C 11,3 km/h (2 Bft) 100,00 %
05.03.2018 07:42 -2,7 C 3,3 C 92 % 1002,1 hPa 0,0 l/m 8,9 km/h (2 Bft) O-SO 107 0 min 0,000 mm 0,0 UV-I 54 W/m -3,8 C -5,4 C 12,9 km/h (3 Bft) 100,00 %
05.03.2018 07:43 -2,7 C 3,3 C 92 % 1002,1 hPa 0,0 l/m 10,2 km/h (2 Bft) O-SO 121 0 min 0,000 mm 0,0 UV-I 55 W/m -3,8 C -6,6 C 14,5 km/h (3 Bft) 96,30 %
05.03.2018 07:44 -2,7 C 3,3 C 92 % 1002,1 hPa 0,0 l/m 11,3 km/h (2 Bft) O 98 0 min 0,000 mm 0,0 UV-I 57 W/m -3,8 C -7,5 C 14,5 km/h (3 Bft) 95,65 %
05.03.2018 07:45 -2,7 C 3,3 C 92 % 1002,1 hPa 0,0 l/m 11,3 km/h (2 Bft) O 90 0 min 0,000 mm 0,0 UV-I 59 W/m -3,8 C -7,5 C 16,1 km/h (3 Bft) 100,00 %
05.03.2018 07:46 -2,6 C 3,3 C 92 % 1002,1 hPa 0,0 l/m 9,2 km/h (2 Bft) O-SO 121 0 min 0,000 mm 0,0 UV-I 60 W/m -3,7 C -5,6 C 14,5 km/h (3 Bft) 100,00 %
05.03.2018 07:47 -2,6 C 3,3 C 92 % 1002,1 hPa 0,0 l/m 8,6 km/h (2 Bft) O-SO 119 0 min 0,000 mm 0,0 UV-I 62 W/m -3,7 C -5,0 C 12,9 km/h (3 Bft) 100,00 %
05.03.2018 07:48 -2,6 C 3,3 C 92 % 1002,1 hPa 0,0 l/m 7,4 km/h (2 Bft) O-SO 108 0 min 0,000 mm 0,0 UV-I 62 W/m -3,7 C -3,7 C 11,3 km/h (2 Bft) 100,00 %
05.03.2018 07:49 -2,6 C 3,3 C 92 % 1002,1 hPa 0,0 l/m 5,6 km/h (1 Bft) O 98 0 min 0,000 mm 0,0 UV-I 63 W/m -3,7 C -2,6 C 11,3 km/h (2 Bft) 100,00 %
05.03.2018 07:50 -2,6 C 3,3 C 92 % 1002,2 hPa 0,0 l/m 8,4 km/h (2 Bft) O 92 0 min 0,000 mm 0,0 UV-I 64 W/m -3,7 C -4,8 C 12,9 km/h (3 Bft) 100,00 %
05.03.2018 07:51 -2,6 C 3,3 C 92 % 1002,1 hPa 0,0 l/m 12,0 km/h (2 Bft) O 97 0 min 0,000 mm 0,0 UV-I 65 W/m -3,7 C -8,0 C 14,5 km/h (3 Bft) 100,00 %
05.03.2018 07:52 -2,6 C 3,3 C 92 % 1002,2 hPa 0,0 l/m 8,6 km/h (2 Bft) O 95 0 min 0,000 mm 0,0 UV-I 67 W/m -3,7 C -5,0 C 11,3 km/h (2 Bft) 95,65 %
05.03.2018 07:53 -2,6 C 3,3 C 92 % 1002,2 hPa 0,0 l/m 9,3 km/h (2 Bft) O 97 0 min 0,000 mm 0,0 UV-I 67 W/m -3,7 C -5,7 C 12,9 km/h (3 Bft) 100,00 %
05.03.2018 07:54 -2,6 C 3,3 C 92 % 1002,2 hPa 0,0 l/m 7,4 km/h (2 Bft) O 98 0 min 0,000 mm 0,0 UV-I 69 W/m -3,7 C -3,7 C 11,3 km/h (2 Bft) 100,00 %
05.03.2018 07:55 -2,6 C 3,3 C 92 % 1002,2 hPa 0,0 l/m 7,2 km/h (2 Bft) O-SO 116 0 min 0,000 mm 0,0 UV-I 69 W/m -3,7 C -3,5 C 12,9 km/h (3 Bft) 100,00 %
05.03.2018 07:56 -2,6 C 3,3 C 92 % 1002,2 hPa 0,0 l/m 6,3 km/h (2 Bft) O-SO 119 0 min 0,000 mm 0,0 UV-I 70 W/m -3,7 C -2,6 C 11,3 km/h (2 Bft) 100,00 %
05.03.2018 07:57 -2,6 C 3,3 C 92 % 1002,2 hPa 0,0 l/m 6,3 km/h (2 Bft) O 81 0 min 0,000 mm 0,0 UV-I 71 W/m -3,7 C -2,6 C 11,3 km/h (2 Bft) 100,00 %
05.03.2018 07:58 -2,6 C 3,3 C 92 % 1002,2 hPa 0,0 l/m 6,2 km/h (2 Bft) O 82 0 min 0,000 mm 0,0 UV-I 72 W/m -3,7 C -2,6 C 9,7 km/h (2 Bft) 100,00 %
05.03.2018 07:59 -2,6 C 3,3 C 92 % 1002,2 hPa 0,0 l/m 9,1 km/h (2 Bft) O 93 0 min 0,000 mm 0,0 UV-I 72 W/m -3,7 C -5,5 C 12,9 km/h (3 Bft) 95,65 %
05.03.2018 08:00 -2,6 C 3,3 C 92 % 1002,2 hPa 0,0 l/m 11,1 km/h (2 Bft) O 88 0 min 0,025 mm 0,0 UV-I 74 W/m -3,7 C -7,3 C 12,9 km/h (3 Bft) 100,00 %
05.03.2018 08:01 -2,5 C 3,3 C 91 % 1002,2 hPa 0,0 l/m 9,9 km/h (2 Bft) O-SO 104 0 min 0,000 mm 0,0 UV-I 75 W/m -3,8 C -6,1 C 12,9 km/h (3 Bft) 100,00 %
05.03.2018 08:02 -2,5 C 3,3 C 91 % 1002,2 hPa 0,0 l/m 8,5 km/h (2 Bft) O-NO 78 0 min 0,000 mm 0,0 UV-I 77 W/m -3,8 C -4,8 C 12,9 km/h (3 Bft) 100,00 %
05.03.2018 08:03 -2,5 C 3,3 C 92 % 1002,2 hPa 0,0 l/m 10,3 km/h (2 Bft) O 99 0 min 0,000 mm 0,0 UV-I 79 W/m -3,6 C -6,5 C 12,9 km/h (3 Bft) 100,00 %
05.03.2018 08:04 -2,5 C 3,3 C 92 % 1002,2 hPa 0,0 l/m 11,3 km/h (2 Bft) O-SO 123 0 min 0,000 mm 0,0 UV-I 81 W/m -3,6 C -7,3 C 16,1 km/h (3 Bft) 100,00 %
05.03.2018 08:05 -2,5 C 3,3 C 92 % 1002,3 hPa 0,0 l/m 7,1 km/h (2 Bft) O 100 0 min 0,000 mm 0,0 UV-I 83 W/m -3,6 C -3,3 C 12,9 km/h (3 Bft) 95,65 %
05.03.2018 08:06 -2,5 C 3,3 C 91 % 1002,3 hPa 0,0 l/m 10,3 km/h (2 Bft) O-SO 113 0 min 0,000 mm 0,0 UV-I 84 W/m -3,8 C -6,5 C 16,1 km/h (3 Bft) 100,00 %
05.03.2018 08:07 -2,4 C 3,3 C 92 % 1002,3 hPa 0,0 l/m 11,1 km/h (2 Bft) O-SO 115 0 min 0,000 mm 0,0 UV-I 85 W/m -3,5 C -7,0 C 14,5 km/h (3 Bft) 100,00 %
05.03.2018 08:08 -2,4 C 3,3 C 91 % 1002,3 hPa 0,0 l/m 6,0 km/h (2 Bft) O 93 0 min 0,000 mm 0,0 UV-I 87 W/m -3,7 C -2,4 C 9,7 km/h (2 Bft) 100,00 %
05.03.2018 08:09 -2,4 C 3,3 C 91 % 1002,3 hPa 0,0 l/m 8,2 km/h (2 Bft) O 100 0 min 0,000 mm 0,0 UV-I 88 W/m -3,7 C -4,4 C 12,9 km/h (3 Bft) 100,00 %
05.03.2018 08:10 -2,4 C 3,3 C 91 % 1002,2 hPa 0,0 l/m 7,2 km/h (2 Bft) O-SO 107 0 min 0,000 mm 0,0 UV-I 90 W/m -3,7 C -3,3 C 9,7 km/h (2 Bft) 100,00 %
05.03.2018 08:11 -2,4 C 3,3 C 91 % 1002,3 hPa 0,0 l/m 3,7 km/h (1 Bft) O-SO 107 0 min 0,000 mm 0,0 UV-I 90 W/m -3,7 C -2,4 C 6,4 km/h (2 Bft) 100,00 %
05.03.2018 08:12 -2,4 C 3,3 C 91 % 1002,3 hPa 0,0 l/m 5,6 km/h (1 Bft) O-SO 103 0 min 0,000 mm 0,0 UV-I 90 W/m -3,7 C -2,4 C 9,7 km/h (2 Bft) 100,00 %
05.03.2018 08:13 -2,4 C 3,3 C 91 % 1002,4 hPa 0,0 l/m 7,0 km/h (2 Bft) O-SO 103 0 min 0,000 mm 0,0 UV-I 91 W/m -3,7 C -3,1 C 9,7 km/h (2 Bft) 100,00 %
05.03.2018 08:14 -2,4 C 3,3 C 91 % 1002,4 hPa 0,0 l/m 5,9 km/h (2 Bft) O 92 0 min 0,000 mm 0,0 UV-I 92 W/m -3,7 C -2,4 C 9,7 km/h (2 Bft) 95,65 %
05.03.2018 08:15 -2,3 C 3,3 C 91 % 1002,3 hPa 0,0 l/m 6,4 km/h (2 Bft) O 98 0 min 0,000 mm 0,0 UV-I 95 W/m -3,6 C -2,3 C 9,7 km/h (2 Bft) 100,00 %
05.03.2018 08:16 -2,3 C 3,3 C 91 % 1002,3 hPa 0,0 l/m 5,3 km/h (1 Bft) O-SO 109 0 min 0,000 mm 0,0 UV-I 97 W/m -3,6 C -2,3 C 11,3 km/h (2 Bft) 100,00 %
05.03.2018 08:17 -2,3 C 3,3 C 91 % 1002,4 hPa 0,0 l/m 5,7 km/h (1 Bft) O 101 0 min 0,000 mm 0,0 UV-I 97 W/m -3,6 C -2,3 C 9,7 km/h (2 Bft) 100,00 %
05.03.2018 08:18 -2,3 C 3,3 C 91 % 1002,4 hPa 0,0 l/m 5,5 km/h (1 Bft) O-SO 111 0 min 0,000 mm 0,0 UV-I 97 W/m -3,6 C -2,3 C 9,7 km/h (2 Bft) 95,83 %
05.03.2018 08:19 -2,3 C 3,3 C 91 % 1002,4 hPa 0,0 l/m 8,2 km/h (2 Bft) SO 130 0 min 0,000 mm 0,0 UV-I 97 W/m -3,6 C -4,3 C 11,3 km/h (2 Bft) 100,00 %
05.03.2018 08:20 -2,3 C 3,3 C 91 % 1002,3 hPa 0,0 l/m 5,8 km/h (2 Bft) O-SO 110 0 min 0,000 mm 0,0 UV-I 98 W/m -3,6 C -2,3 C 8,0 km/h (2 Bft) 100,00 %
05.03.2018 08:21 -2,3 C 3,3 C 91 % 1002,3 hPa 0,0 l/m 5,0 km/h (1 Bft) O-SO 111 0 min 0,000 mm 0,0 UV-I 98 W/m -3,6 C -2,3 C 6,4 km/h (2 Bft) 100,00 %
05.03.2018 08:22 -2,2 C 3,3 C 91 % 1002,4 hPa 0,0 l/m 6,2 km/h (2 Bft) O-SO 114 0 min 0,000 mm 0,0 UV-I 100 W/m -3,5 C -2,2 C 9,7 km/h (2 Bft) 100,00 %
05.03.2018 08:23 -2,2 C 3,3 C 91 % 1002,4 hPa 0,0 l/m 5,7 km/h (1 Bft) O 101 0 min 0,000 mm 0,0 UV-I 100 W/m -3,5 C -2,2 C 9,7 km/h (2 Bft) 100,00 %
05.03.2018 08:24 -2,2 C 3,3 C 91 % 1002,4 hPa 0,0 l/m 11,1 km/h (2 Bft) O 101 0 min 0,000 mm 0,0 UV-I 102 W/m -3,5 C -6,8 C 12,9 km/h (3 Bft) 100,00 %
05.03.2018 08:25 -2,2 C 3,3 C 91 % 1002,4 hPa 0,0 l/m 7,2 km/h (2 Bft) O 84 0 min 0,000 mm 0,0 UV-I 102 W/m -3,5 C -3,1 C 11,3 km/h (2 Bft) 100,00 %
05.03.2018 08:26 -2,2 C 3,3 C 91 % 1002,4 hPa 0,0 l/m 7,2 km/h (2 Bft) O-SO 111 0 min 0,000 mm 0,0 UV-I 103 W/m -3,5 C -3,1 C 11,3 km/h (2 Bft) 100,00 %
05.03.2018 08:27 -2,2 C 3,3 C 91 % 1002,4 hPa 0,0 l/m 3,9 km/h (1 Bft) O-NO 70 0 min 0,000 mm 0,0 UV-I 104 W/m -3,5 C -2,2 C 8,0 km/h (2 Bft) 100,00 %
05.03.2018 08:28 -2,2 C 3,3 C 91 % 1002,4 hPa 0,0 l/m 8,3 km/h (2 Bft) O-SO 107 0 min 0,000 mm 0,0 UV-I 105 W/m -3,5 C -4,3 C 12,9 km/h (3 Bft) 100,00 %
05.03.2018 08:29 -2,1 C 3,3 C 91 % 1002,4 hPa 0,0 l/m 8,4 km/h (2 Bft) O 92 0 min 0,000 mm 0,0 UV-I 105 W/m -3,4 C -4,3 C 11,3 km/h (2 Bft) 100,00 %
05.03.2018 08:30 -2,1 C 3,3 C 91 % 1002,4 hPa 0,0 l/m 10,0 km/h (2 Bft) O-SO 105 0 min 0,000 mm 0,0 UV-I 107 W/m -3,4 C -5,8 C 14,5 km/h (3 Bft) 100,00 %
05.03.2018 08:31 -2,1 C 3,3 C 91 % 1002,4 hPa 0,0 l/m 8,1 km/h (2 Bft) S-SO 166 0 min 0,000 mm 0,0 UV-I 108 W/m -3,4 C -4,0 C 11,3 km/h (2 Bft) 100,00 %
05.03.2018 08:32 -2,1 C 3,3 C 91 % 1002,4 hPa 0,0 l/m 9,3 km/h (2 Bft) O 101 0 min 0,000 mm 0,0 UV-I 113 W/m -3,4 C -5,1 C 12,9 km/h (3 Bft) 100,00 %
05.03.2018 08:33 -2,1 C 3,3 C 91 % 1002,4 hPa 0,0 l/m 11,6 km/h (2 Bft) O 98 0 min 0,000 mm 0,0 UV-I 114 W/m -3,4 C -7,1 C 14,5 km/h (3 Bft) 100,00 %
05.03.2018 08:34 -2,1 C 3,3 C 91 % 1002,4 hPa 0,0 l/m 8,0 km/h (2 Bft) O 101 0 min 0,000 mm 0,0 UV-I 116 W/m -3,4 C -3,9 C 12,9 km/h (3 Bft) 100,00 %
05.03.2018 08:35 -2,1 C 3,3 C 91 % 1002,4 hPa 0,0 l/m 9,1 km/h (2 Bft) O 94 0 min 0,000 mm 0,0 UV-I 116 W/m -3,4 C -4,9 C 11,3 km/h (2 Bft) 100,00 %
05.03.2018 08:36 -2,0 C 3,3 C 91 % 1002,4 hPa 0,0 l/m 7,3 km/h (2 Bft) O 89 0 min 0,000 mm 0,0 UV-I 116 W/m -3,3 C -3,0 C 11,3 km/h (2 Bft) 100,00 %
05.03.2018 08:37 -2,0 C 3,3 C 91 % 1002,4 hPa 0,0 l/m 6,0 km/h (2 Bft) O 88 0 min 0,000 mm 0,0 UV-I 116 W/m -3,3 C -2,0 C 8,0 km/h (2 Bft) 100,00 %
05.03.2018 08:38 -2,0 C 3,3 C 91 % 1002,4 hPa 0,0 l/m 6,5 km/h (2 Bft) O-SO 110 0 min 0,000 mm 0,0 UV-I 116 W/m -3,3 C -2,1 C 11,3 km/h (2 Bft) 100,00 %
05.03.2018 08:39 -2,0 C 3,3 C 91 % 1002,4 hPa 0,0 l/m 7,1 km/h (2 Bft) O-NO 78 0 min 0,000 mm 0,0 UV-I 118 W/m -3,3 C -2,8 C 11,3 km/h (2 Bft) 100,00 %
05.03.2018 08:40 -1,9 C 3,3 C 91 % 1002,3 hPa 0,0 l/m 5,9 km/h (2 Bft) O-SO 116 0 min 0,000 mm 0,0 UV-I 118 W/m -3,2 C -1,9 C 9,7 km/h (2 Bft) 100,00 %
05.03.2018 08:41 -1,9 C 3,3 C 91 % 1002,3 hPa 0,0 l/m 5,1 km/h (1 Bft) O-NO 78 0 min 0,000 mm 0,0 UV-I 118 W/m -3,2 C -1,9 C 8,0 km/h (2 Bft) 100,00 %
05.03.2018 08:42 -1,9 C 3,3 C 91 % 1002,4 hPa 0,0 l/m 5,6 km/h (1 Bft) O 79 0 min 0,000 mm 0,0 UV-I 118 W/m -3,2 C -1,9 C 9,7 km/h (2 Bft) 100,00 %
05.03.2018 08:43 -1,9 C 3,3 C 91 % 1002,4 hPa 0,0 l/m 5,6 km/h (1 Bft) O-NO 73 0 min 0,000 mm 0,0 UV-I 119 W/m -3,2 C -1,9 C 6,4 km/h (2 Bft) 100,00 %
05.03.2018 08:44 -1,9 C 3,3 C 91 % 1002,3 hPa 0,0 l/m 6,8 km/h (2 Bft) O-SO 103 0 min 0,000 mm 0,0 UV-I 118 W/m -3,2 C -2,3 C 9,7 km/h (2 Bft) 100,00 %
05.03.2018 08:45 -1,9 C 3,3 C 91 % 1002,4 hPa 0,0 l/m 6,7 km/h (2 Bft) O-NO 65 0 min 0,000 mm 0,0 UV-I 118 W/m -3,2 C -2,2 C 11,3 km/h (2 Bft) 100,00 %
05.03.2018 08:46 -1,9 C 3,3 C 91 % 1002,4 hPa 0,0 l/m 7,3 km/h (2 Bft) O-NO 74 0 min 0,000 mm 0,0 UV-I 119 W/m -3,2 C -2,9 C 11,3 km/h (2 Bft) 100,00 %
05.03.2018 08:47 -1,8 C 3,3 C 91 % 1002,4 hPa 0,0 l/m 7,3 km/h (2 Bft) O 87 0 min 0,000 mm 0,0 UV-I 119 W/m -3,1 C -2,8 C 9,7 km/h (2 Bft) 100,00 %
05.03.2018 08:48 -1,8 C 3,3 C 91 % 1002,3 hPa 0,0 l/m 6,4 km/h (2 Bft) O 85 0 min 0,000 mm 0,0 UV-I 121 W/m -3,1 C -1,8 C 9,7 km/h (2 Bft) 100,00 %
05.03.2018 08:49 -1,8 C 3,3 C 91 % 1002,3 hPa 0,0 l/m 4,4 km/h (1 Bft) O 99 0 min 0,000 mm 0,0 UV-I 121 W/m -3,1 C -1,8 C 6,4 km/h (2 Bft) 100,00 %
05.03.2018 08:50 -1,8 C 3,3 C 91 % 1002,3 hPa 0,0 l/m 4,7 km/h (1 Bft) O 94 0 min 0,000 mm 0,0 UV-I 123 W/m -3,1 C -1,8 C 6,4 km/h (2 Bft) 100,00 %
05.03.2018 08:51 -1,8 C 3,3 C 91 % 1002,2 hPa 0,0 l/m 4,9 km/h (1 Bft) O 92 0 min 0,000 mm 0,0 UV-I 125 W/m -3,1 C -1,8 C 8,0 km/h (2 Bft) 100,00 %
05.03.2018 08:52 -1,8 C 3,3 C 91 % 1002,2 hPa 0,0 l/m 6,6 km/h (2 Bft) O 81 0 min 0,000 mm 0,0 UV-I 128 W/m -3,1 C -2,0 C 11,3 km/h (2 Bft) 100,00 %
05.03.2018 08:53 -1,8 C 3,3 C 91 % 1002,3 hPa 0,0 l/m 4,8 km/h (1 Bft) O 80 0 min 0,000 mm 0,0 UV-I 131 W/m -3,1 C -1,8 C 6,4 km/h (2 Bft) 100,00 %
05.03.2018 08:54 -1,8 C 3,3 C 91 % 1002,2 hPa 0,0 l/m 6,8 km/h (2 Bft) O-NO 71 0 min 0,000 mm 0,0 UV-I 135 W/m -3,1 C -2,2 C 8,0 km/h (2 Bft) 87,50 %
05.03.2018 08:55 -1,7 C 3,3 C 91 % 1002,2 hPa 0,0 l/m 5,6 km/h (1 Bft) O-NO 70 0 min 0,000 mm 0,0 UV-I 136 W/m -3,0 C -1,7 C 8,0 km/h (2 Bft) 95,65 %
05.03.2018 08:56 -1,7 C 3,3 C 91 % 1002,2 hPa 0,0 l/m 4,7 km/h (1 Bft) O-NO 71 0 min 0,000 mm 0,0 UV-I 139 W/m -3,0 C -1,7 C 6,4 km/h (2 Bft) 91,67 %
05.03.2018 08:57 -1,7 C 3,3 C 91 % 1002,2 hPa 0,0 l/m 4,8 km/h (1 Bft) O-NO 74 0 min 0,000 mm 0,0 UV-I 142 W/m -3,0 C -1,7 C 6,4 km/h (2 Bft) 96,30 %
05.03.2018 08:58 -1,7 C 3,3 C 91 % 1002,2 hPa 0,0 l/m 3,6 km/h (1 Bft) O-NO 75 0 min 0,000 mm 0,0 UV-I 143 W/m -3,0 C -1,7 C 4,8 km/h (1 Bft) 96,55 %
05.03.2018 08:59 -1,7 C 3,3 C 91 % 1002,2 hPa 0,0 l/m 3,4 km/h (1 Bft) O-NO 75 0 min 0,000 mm 0,0 UV-I 142 W/m -3,0 C -1,7 C 4,8 km/h (1 Bft) 92,59 %
05.03.2018 09:00 -1,6 C 3,3 C 91 % 1002,2 hPa 0,0 l/m 6,6 km/h (2 Bft) O-NO 57 0 min 0,026 mm 0,0 UV-I 141 W/m -2,9 C -1,8 C 8,0 km/h (2 Bft) 91,30 %
05.03.2018 09:01 -1,6 C 3,3 C 91 % 1002,2 hPa 0,0 l/m 6,2 km/h (2 Bft) O 79 0 min 0,000 mm 0,0 UV-I 140 W/m -2,9 C -1,6 C 8,0 km/h (2 Bft) 87,50 %
05.03.2018 09:02 -1,6 C 3,3 C 91 % 1002,2 hPa 0,0 l/m 9,3 km/h (2 Bft) O-NO 67 0 min 0,000 mm 0,0 UV-I 141 W/m -2,9 C -4,6 C 14,5 km/h (3 Bft) 100,00 %
05.03.2018 09:03 -1,5 C 3,3 C 91 % 1002,2 hPa 0,0 l/m 7,8 km/h (2 Bft) NO 42 0 min 0,000 mm 0,0 UV-I 144 W/m -2,8 C -3,0 C 9,7 km/h (2 Bft) 95,83 %
05.03.2018 09:04 -1,5 C 3,3 C 91 % 1002,3 hPa 0,0 l/m 8,5 km/h (2 Bft) O-NO 57 0 min 0,000 mm 0,0 UV-I 147 W/m -2,8 C -3,7 C 12,9 km/h (3 Bft) 96,15 %
05.03.2018 09:05 -1,4 C 3,3 C 91 % 1002,3 hPa 0,0 l/m 12,0 km/h (2 Bft) O-NO 74 0 min 0,000 mm 0,0 UV-I 148 W/m -2,7 C -6,6 C 14,5 km/h (3 Bft) 93,33 %
05.03.2018 09:06 -1,4 C 3,3 C 91 % 1002,3 hPa 0,0 l/m 8,8 km/h (2 Bft) O-NO 76 0 min 0,000 mm 0,0 UV-I 148 W/m -2,7 C -3,9 C 11,3 km/h (2 Bft) 98,40 %
05.03.2018 09:07 -1,4 C 3,3 C 91 % 1002,3 hPa 0,0 l/m 9,3 km/h (2 Bft) O-NO 57 0 min 0,000 mm 0,0 UV-I 147 W/m -2,7 C -4,4 C 14,5 km/h (3 Bft) 95,45 %
05.03.2018 09:08 -1,4 C 3,3 C 90 % 1002,4 hPa 0,0 l/m 7,4 km/h (2 Bft) NO 47 0 min 0,000 mm 0,0 UV-I 146 W/m -2,8 C -2,5 C 12,9 km/h (3 Bft) 91,67 %
05.03.2018 09:09 -1,4 C 3,3 C 91 % 1002,3 hPa 0,0 l/m 8,7 km/h (2 Bft) O-NO 62 0 min 0,000 mm 0,0 UV-I 150 W/m -2,7 C -3,8 C 11,3 km/h (2 Bft) 96,55 %
05.03.2018 09:10 -1,4 C 3,3 C 91 % 1002,3 hPa 0,0 l/m 10,2 km/h (2 Bft) NO 55 0 min 0,000 mm 0,0 UV-I 154 W/m -2,7 C -5,2 C 14,5 km/h (3 Bft) 96,55 %
05.03.2018 09:11 -1,4 C 3,3 C 91 % 1002,3 hPa 0,0 l/m 10,5 km/h (2 Bft) O 83 0 min 0,000 mm 0,0 UV-I 156 W/m -2,7 C -5,4 C 14,5 km/h (3 Bft) 93,33 %
05.03.2018 09:12 -1,4 C 3,3 C 91 % 1002,4 hPa 0,0 l/m 11,9 km/h (2 Bft) O-NO 61 0 min 0,000 mm 0,0 UV-I 160 W/m -2,7 C -6,5 C 16,1 km/h (3 Bft) 96,30 %
05.03.2018 09:13 -1,4 C 3,3 C 91 % 1002,3 hPa 0,0 l/m 12,2 km/h (2 Bft) O-SO 102 0 min 0,000 mm 0,0 UV-I 167 W/m -2,7 C -6,8 C 14,5 km/h (3 Bft) 92,31 %
05.03.2018 09:14 -1,4 C 3,3 C 90 % 1002,3 hPa 0,0 l/m 10,3 km/h (2 Bft) O-SO 107 0 min 0,000 mm 0,0 UV-I 178 W/m -2,8 C -5,3 C 12,9 km/h (3 Bft) 100,00 %
05.03.2018 09:15 -1,4 C 3,3 C 91 % 1002,3 hPa 0,0 l/m 11,9 km/h (2 Bft) O 94 0 min 0,000 mm 0,4 UV-I 186 W/m -2,7 C -6,5 C 14,5 km/h (3 Bft) 92,31 %
05.03.2018 09:16 -1,4 C 3,3 C 91 % 1002,3 hPa 0,0 l/m 9,6 km/h (2 Bft) O-NO 65 0 min 0,000 mm 0,5 UV-I 190 W/m -2,7 C -4,6 C 12,9 km/h (3 Bft) 92,59 %
05.03.2018 09:17 -1,4 C 3,3 C 91 % 1002,3 hPa 0,0 l/m 11,7 km/h (2 Bft) O 90 0 min 0,000 mm 0,5 UV-I 194 W/m -2,7 C -6,4 C 14,5 km/h (3 Bft) 92,31 %
05.03.2018 09:18 -1,4 C 3,3 C 91 % 1002,4 hPa 0,0 l/m 11,7 km/h (2 Bft) O-NO 69 0 min 0,000 mm 0,5 UV-I 195 W/m -2,7 C -6,4 C 14,5 km/h (3 Bft) 91,67 %
05.03.2018 09:19 -1,4 C 3,3 C 91 % 1002,3 hPa 0,0 l/m 8,0 km/h (2 Bft) O-NO 64 0 min 0,000 mm 0,5 UV-I 194 W/m -2,7 C -3,1 C 11,3 km/h (2 Bft) 96,15 %
05.03.2018 09:20 -1,4 C 3,3 C 91 % 1002,3 hPa 0,0 l/m 10,7 km/h (2 Bft) O-NO 76 0 min 0,000 mm 0,5 UV-I 194 W/m -2,7 C -5,6 C 14,5 km/h (3 Bft) 95,83 %
05.03.2018 09:21 -1,4 C 3,3 C 91 % 1002,3 hPa 0,0 l/m 10,5 km/h (2 Bft) O 80 0 min 0,000 mm 0,5 UV-I 199 W/m -2,7 C -5,4 C 14,5 km/h (3 Bft) 92,31 %
05.03.2018 09:22 -1,4 C 3,3 C 91 % 1002,3 hPa 0,0 l/m 13,7 km/h (3 Bft) O-NO 67 0 min 0,000 mm 0,5 UV-I 200 W/m -2,7 C -7,8 C 16,1 km/h (3 Bft) 91,67 %
05.03.2018 09:23 -1,4 C 3,3 C 91 % 1002,3 hPa 0,0 l/m 12,3 km/h (3 Bft) O 89 0 min 0,000 mm 0,5 UV-I 202 W/m -2,7 C -6,8 C 16,1 km/h (3 Bft) 100,00 %
05.03.2018 09:24 -1,4 C 3,3 C 91 % 1002,3 hPa 0,0 l/m 12,5 km/h (3 Bft) O-NO 74 0 min 0,000 mm 0,5 UV-I 208 W/m -2,7 C -7,0 C 14,5 km/h (3 Bft) 92,59 %
05.03.2018 09:25 -1,4 C 3,3 C 91 % 1002,4 hPa 0,0 l/m 11,9 km/h (2 Bft) O 101 0 min 0,000 mm 0,5 UV-I 220 W/m -2,7 C -6,5 C 14,5 km/h (3 Bft) 100,00 %
05.03.2018 09:26 -1,3 C 3,3 C 91 % 1002,3 hPa 0,0 l/m 11,3 km/h (2 Bft) O 80 0 min 0,000 mm 0,5 UV-I 227 W/m -2,6 C -6,0 C 14,5 km/h (3 Bft) 92,59 %
05.03.2018 09:27 -1,3 C 3,3 C 91 % 1002,3 hPa 0,0 l/m 12,3 km/h (3 Bft) O 89 1 min 0,000 mm 0,5 UV-I 239 W/m -2,6 C -6,7 C 16,1 km/h (3 Bft) 96,55 %
05.03.2018 09:28 -1,3 C 3,3 C 91 % 1002,4 hPa 0,0 l/m 10,7 km/h (2 Bft) O 84 1 min 0,000 mm 0,6 UV-I 238 W/m -2,6 C -5,5 C 14,5 km/h (3 Bft) 100,00 %
05.03.2018 09:29 -1,2 C 3,3 C 91 % 1002,3 hPa 0,0 l/m 14,1 km/h (3 Bft) O 90 1 min 0,000 mm 0,6 UV-I 240 W/m -2,5 C -7,9 C 16,1 km/h (3 Bft) 96,15 %
05.03.2018 09:30 -1,2 C 3,3 C 90 % 1002,3 hPa 0,0 l/m 14,9 km/h (3 Bft) O 80 1 min 0,000 mm 0,6 UV-I 235 W/m -2,6 C -8,4 C 17,7 km/h (3 Bft) 91,67 %
05.03.2018 09:31 -1,2 C 3,3 C 90 % 1002,3 hPa 0,0 l/m 13,6 km/h (3 Bft) O 88 0 min 0,000 mm 0,6 UV-I 232 W/m -2,6 C -7,5 C 16,1 km/h (3 Bft) 96,55 %
05.03.2018 09:32 -1,2 C 3,3 C 90 % 1002,3 hPa 0,0 l/m 15,4 km/h (3 Bft) O-NO 72 1 min 0,000 mm 0,6 UV-I 240 W/m -2,6 C -8,7 C 19,3 km/h (3 Bft) 100,00 %
05.03.2018 09:33 -1,2 C 3,3 C 90 % 1002,3 hPa 0,0 l/m 12,0 km/h (2 Bft) O-NO 74 1 min 0,000 mm 0,6 UV-I 244 W/m -2,6 C -6,4 C 16,1 km/h (3 Bft) 96,30 %
05.03.2018 09:34 -1,2 C 3,3 C 90 % 1002,3 hPa 0,0 l/m 11,5 km/h (2 Bft) O-NO 74 1 min 0,000 mm 0,6 UV-I 240 W/m -2,6 C -6,0 C 16,1 km/h (3 Bft) 100,00 %
05.03.2018 09:35 -1,2 C 3,3 C 90 % 1002,2 hPa 0,0 l/m 12,6 km/h (3 Bft) O 90 1 min 0,000 mm 0,6 UV-I 248 W/m -2,6 C -6,8 C 17,7 km/h (3 Bft) 92,59 %
05.03.2018 09:36 -1,2 C 3,3 C 90 % 1002,2 hPa 0,0 l/m 15,0 km/h (3 Bft) O 80 1 min 0,000 mm 0,6 UV-I 256 W/m -2,6 C -8,4 C 16,1 km/h (3 Bft) 95,65 %
05.03.2018 09:37 -1,2 C 3,3 C 90 % 1002,2 hPa 0,0 l/m 15,3 km/h (3 Bft) O 86 1 min 0,000 mm 0,6 UV-I 260 W/m -2,6 C -8,6 C 17,7 km/h (3 Bft) 100,00 %
05.03.2018 09:38 -1,2 C 3,3 C 90 % 1002,2 hPa 0,0 l/m 11,1 km/h (2 Bft) O-NO 67 1 min 0,000 mm 0,6 UV-I 252 W/m -2,6 C -5,7 C 14,5 km/h (3 Bft) 100,00 %
05.03.2018 09:39 -1,1 C 3,3 C 90 % 1002,2 hPa 0,0 l/m 12,2 km/h (2 Bft) O-SO 105 1 min 0,000 mm 0,6 UV-I 249 W/m -2,5 C -6,4 C 14,5 km/h (3 Bft) 96,30 %
05.03.2018 09:40 -1,1 C 3,3 C 90 % 1002,2 hPa 0,0 l/m 14,7 km/h (3 Bft) O-NO 71 1 min 0,000 mm 0,6 UV-I 265 W/m -2,5 C -8,1 C 17,7 km/h (3 Bft) 96,15 %
05.03.2018 09:41 -1,1 C 3,3 C 90 % 1002,1 hPa 0,0 l/m 15,3 km/h (3 Bft) O-NO 66 1 min 0,000 mm 0,7 UV-I 270 W/m -2,5 C -8,5 C 19,3 km/h (3 Bft) 100,00 %
05.03.2018 09:42 -1,1 C 3,3 C 90 % 1002,2 hPa 0,0 l/m 12,4 km/h (3 Bft) O-NO 61 1 min 0,000 mm 0,7 UV-I 266 W/m -2,5 C -6,6 C 16,1 km/h (3 Bft) 94,12 %
05.03.2018 09:43 -1,1 C 3,3 C 90 % 1002,2 hPa 0,0 l/m 13,7 km/h (3 Bft) O-SO 102 1 min 0,000 mm 0,7 UV-I 259 W/m -2,5 C -7,5 C 16,1 km/h (3 Bft) 100,00 %
05.03.2018 09:44 -1,1 C 3,3 C 90 % 1002,2 hPa 0,0 l/m 13,5 km/h (3 Bft) O 91 1 min 0,000 mm 0,7 UV-I 261 W/m -2,5 C -7,3 C 17,7 km/h (3 Bft) 92,31 %
05.03.2018 09:45 -1,0 C 3,3 C 90 % 1002,2 hPa 0,0 l/m 9,7 km/h (2 Bft) O 82 1 min 0,000 mm 0,7 UV-I 277 W/m -2,4 C -4,3 C 12,9 km/h (3 Bft) 100,00 %
05.03.2018 09:46 -0,9 C 3,3 C 90 % 1002,2 hPa 0,0 l/m 10,5 km/h (2 Bft) O-NO 65 1 min 0,000 mm 0,7 UV-I 280 W/m -2,3 C -4,9 C 12,9 km/h (3 Bft) 95,83 %
05.03.2018 09:47 -0,9 C 3,3 C 90 % 1002,2 hPa 0,0 l/m 9,3 km/h (2 Bft) O-NO 70 1 min 0,000 mm 0,7 UV-I 284 W/m -2,3 C -3,8 C 12,9 km/h (3 Bft) 95,65 %
05.03.2018 09:48 -0,9 C 3,3 C 90 % 1002,2 hPa 0,0 l/m 9,6 km/h (2 Bft) NO 52 1 min 0,000 mm 0,7 UV-I 285 W/m -2,3 C -4,1 C 17,7 km/h (3 Bft) 95,83 %
05.03.2018 09:49 -0,9 C 3,3 C 90 % 1002,2 hPa 0,0 l/m 13,2 km/h (3 Bft) O-NO 76 1 min 0,000 mm 0,7 UV-I 288 W/m -2,3 C -6,9 C 17,7 km/h (3 Bft) 96,55 %
05.03.2018 09:50 -0,8 C 3,3 C 90 % 1002,2 hPa 0,0 l/m 10,2 km/h (2 Bft) O-NO 64 1 min 0,000 mm 0,7 UV-I 278 W/m -2,2 C -4,5 C 12,9 km/h (3 Bft) 100,00 %
05.03.2018 09:51 -0,8 C 3,3 C 89 % 1002,2 hPa 0,0 l/m 8,9 km/h (2 Bft) O-NO 67 1 min 0,000 mm 0,7 UV-I 276 W/m -2,4 C -3,4 C 14,5 km/h (3 Bft) 95,65 %
05.03.2018 09:53 -0,8 C 3,3 C 89 % 1002,2 hPa 0,0 l/m 12,7 km/h (3 Bft) O 90 2 min 0,000 mm 0,7 UV-I 281 W/m -2,4 C -6,4 C 16,1 km/h (3 Bft) 96,00 %
05.03.2018 09:54 -0,8 C 3,3 C 89 % 1002,1 hPa 0,0 l/m 13,3 km/h (3 Bft) O-NO 78 1 min 0,000 mm 0,8 UV-I 325 W/m -2,4 C -6,8 C 16,1 km/h (3 Bft) 100,00 %
05.03.2018 09:55 -0,8 C 3,3 C 89 % 1002,1 hPa 0,0 l/m 9,6 km/h (2 Bft) O-NO 66 1 min 0,000 mm 0,8 UV-I 327 W/m -2,4 C -4,0 C 16,1 km/h (3 Bft) 95,65 %
05.03.2018 09:57 -0,7 C 3,3 C 90 % 1002,0 hPa 0,0 l/m 12,2 km/h (2 Bft) O 82 2 min 0,000 mm 0,8 UV-I 365 W/m -2,1 C -6,0 C 14,5 km/h (3 Bft) 100,00 %
05.03.2018 09:58 -0,7 C 3,3 C 90 % 1002,0 hPa 0,0 l/m 10,1 km/h (2 Bft) O-NO 76 1 min 0,000 mm 0,9 UV-I 374 W/m -2,1 C -4,3 C 14,5 km/h (3 Bft) 95,83 %
05.03.2018 09:59 -0,7 C 3,3 C 89 % 1002,0 hPa 0,0 l/m 11,9 km/h (2 Bft) O 96 1 min 0,000 mm 0,9 UV-I 376 W/m -2,3 C -5,7 C 17,7 km/h (3 Bft) 95,65 %
05.03.2018 10:00 -0,6 C 3,3 C 89 % 1002,0 hPa 0,0 l/m 13,1 km/h (3 Bft) O 84 1 min 0,076 mm 1,0 UV-I 371 W/m -2,2 C -6,5 C 16,1 km/h (3 Bft) 100,00 %
05.03.2018 10:01 -0,6 C 3,3 C 89 % 1002,0 hPa 0,0 l/m 11,2 km/h (2 Bft) O-NO 70 1 min 0,000 mm 1,0 UV-I 443 W/m -2,2 C -5,1 C 16,1 km/h (3 Bft) 95,83 %
05.03.2018 10:02 -0,6 C 3,3 C 89 % 1001,9 hPa 0,0 l/m 15,2 km/h (3 Bft) O-NO 73 1 min 0,000 mm 0,9 UV-I 391 W/m -2,2 C -7,8 C 17,7 km/h (3 Bft) 93,10 %
05.03.2018 10:03 -0,5 C 3,3 C 89 % 1001,9 hPa 0,0 l/m 12,9 km/h (3 Bft) O-NO 63 1 min 0,000 mm 1,0 UV-I 399 W/m -2,1 C -6,2 C 17,7 km/h (3 Bft) 95,83 %
05.03.2018 10:04 -0,5 C 3,3 C 88 % 1001,9 hPa 0,0 l/m 14,8 km/h (3 Bft) O 82 1 min 0,000 mm 1,0 UV-I 395 W/m -2,2 C -7,5 C 19,3 km/h (3 Bft) 95,65 %
05.03.2018 10:05 -0,4 C 3,3 C 89 % 1001,8 hPa 0,0 l/m 11,5 km/h (2 Bft) O 86 1 min 0,000 mm 1,0 UV-I 380 W/m -2,0 C -5,1 C 14,5 km/h (3 Bft) 100,00 %
05.03.2018 10:06 -0,4 C 3,3 C 89 % 1001,8 hPa 0,0 l/m 14,0 km/h (3 Bft) O-NO 74 1 min 0,000 mm 1,0 UV-I 374 W/m -2,0 C -6,8 C 17,7 km/h (3 Bft) 92,31 %
05.03.2018 10:07 -0,4 C 3,3 C 88 % 1001,8 hPa 0,0 l/m 13,4 km/h (3 Bft) O-NO 75 1 min 0,000 mm 1,0 UV-I 406 W/m -2,1 C -6,4 C 16,1 km/h (3 Bft) 100,00 %
05.03.2018 10:08 -0,4 C 3,3 C 88 % 1001,8 hPa 0,0 l/m 14,7 km/h (3 Bft) NO 48 1 min 0,000 mm 1,0 UV-I 379 W/m -2,1 C -7,3 C 17,7 km/h (3 Bft) 93,10 %
05.03.2018 10:09 -0,3 C 3,3 C 88 % 1001,7 hPa 0,0 l/m 13,4 km/h (3 Bft) O-NO 57 1 min 0,000 mm 1,0 UV-I 400 W/m -2,0 C -6,3 C 19,3 km/h (3 Bft) 100,00 %
05.03.2018 10:10 -0,3 C 3,3 C 88 % 1001,7 hPa 0,0 l/m 14,1 km/h (3 Bft) O-NO 69 1 min 0,000 mm 1,0 UV-I 398 W/m -2,0 C -6,8 C 17,7 km/h (3 Bft) 96,15 %
05.03.2018 10:11 -0,3 C 3,3 C 88 % 1001,7 hPa 0,0 l/m 14,9 km/h (3 Bft) O-NO 69 1 min 0,000 mm 1,0 UV-I 348 W/m -2,0 C -7,3 C 19,3 km/h (3 Bft) 96,97 %
05.03.2018 10:12 -0,2 C 3,3 C 88 % 1001,7 hPa 0,0 l/m 13,5 km/h (3 Bft) O-NO 63 1 min 0,000 mm 1,0 UV-I 424 W/m -1,9 C -6,3 C 17,7 km/h (3 Bft) 100,00 %
05.03.2018 10:15 -0,2 C 3,3 C 88 % 1001,7 hPa 0,0 l/m 14,5 km/h (3 Bft) O-NO 67 3 min 0,000 mm 1,0 UV-I 406 W/m -1,9 C -6,9 C 19,3 km/h (3 Bft) 100,00 %
05.03.2018 10:17 -0,2 C 3,3 C 88 % 1001,6 hPa 0,0 l/m 11,0 km/h (2 Bft) SO 126 2 min 0,000 mm 1,1 UV-I 452 W/m -1,9 C -4,5 C 16,1 km/h (3 Bft) 97,12 %
05.03.2018 10:18 -0,2 C 3,3 C 88 % 1001,6 hPa 0,0 l/m 14,4 km/h (3 Bft) O 101 1 min 0,000 mm 1,1 UV-I 460 W/m -1,9 C -6,9 C 17,7 km/h (3 Bft) 100,00 %
05.03.2018 10:19 -0,2 C 3,3 C 88 % 1001,6 hPa 0,0 l/m 11,5 km/h (2 Bft) O-NO 69 1 min 0,000 mm 1,1 UV-I 511 W/m -1,9 C -4,9 C 16,1 km/h (3 Bft) 96,15 %
05.03.2018 10:20 -0,2 C 3,3 C 88 % 1001,6 hPa 0,0 l/m 12,9 km/h (3 Bft) O 90 1 min 0,000 mm 1,1 UV-I 449 W/m -1,9 C -5,9 C 17,7 km/h (3 Bft) 98,25 %
05.03.2018 10:25 -0,2 C 3,3 C 87 % 1001,5 hPa 0,0 l/m 11,3 km/h (2 Bft) O-NO 71 5 min 0,000 mm 1,0 UV-I 411 W/m -2,1 C -4,7 C 16,1 km/h (3 Bft) 97,14 %
05.03.2018 10:26 -0,2 C 3,3 C 87 % 1001,5 hPa 0,0 l/m 13,6 km/h (3 Bft) O-NO 69 1 min 0,000 mm 1,0 UV-I 386 W/m -2,1 C -6,3 C 19,3 km/h (3 Bft) 96,67 %
05.03.2018 10:27 -0,1 C 3,3 C 87 % 1001,6 hPa 0,0 l/m 14,7 km/h (3 Bft) O 96 1 min 0,000 mm 1,0 UV-I 397 W/m -2,0 C -6,9 C 19,3 km/h (3 Bft) 100,00 %
05.03.2018 10:28 -0,1 C 3,3 C 87 % 1001,6 hPa 0,0 l/m 11,4 km/h (2 Bft) O-NO 74 1 min 0,000 mm 0,9 UV-I 327 W/m -2,0 C -4,7 C 16,1 km/h (3 Bft) 96,55 %
05.03.2018 10:29 -0,1 C 3,3 C 88 % 1001,6 hPa 0,0 l/m 10,3 km/h (2 Bft) O 88 1 min 0,000 mm 0,9 UV-I 299 W/m -1,8 C -3,8 C 12,9 km/h (3 Bft) 100,00 %
05.03.2018 10:30 -0,1 C 3,3 C 88 % 1001,6 hPa 0,0 l/m 10,9 km/h (2 Bft) O-SO 104 1 min 0,000 mm 0,9 UV-I 316 W/m -1,8 C -4,3 C 14,5 km/h (3 Bft) 96,15 %
05.03.2018 10:31 0,0 C 3,3 C 88 % 1001,6 hPa 0,0 l/m 12,9 km/h (3 Bft) O 90 1 min 0,000 mm 1,0 UV-I 316 W/m -1,7 C -5,6 C 16,1 km/h (3 Bft) 100,00 %
05.03.2018 10:32 0,0 C 3,3 C 87 % 1001,6 hPa 0,0 l/m 12,2 km/h (2 Bft) NO 47 1 min 0,000 mm 1,0 UV-I 350 W/m -1,9 C -5,1 C 14,5 km/h (3 Bft) 96,30 %
05.03.2018 10:33 0,0 C 3,3 C 87 % 1001,6 hPa 0,0 l/m 13,7 km/h (3 Bft) O-NO 59 1 min 0,000 mm 1,1 UV-I 388 W/m -1,9 C -6,2 C 16,1 km/h (3 Bft) 100,00 %
05.03.2018 10:34 0,1 C 3,3 C 87 % 1001,6 hPa 0,0 l/m 12,3 km/h (3 Bft) O-NO 64 1 min 0,000 mm 1,1 UV-I 399 W/m -1,8 C -5,1 C 14,5 km/h (3 Bft) 100,00 %
05.03.2018 10:35 0,1 C 3,3 C 87 % 1001,6 hPa 0,0 l/m 11,7 km/h (2 Bft) O-NO 71 1 min 0,000 mm 1,1 UV-I 414 W/m -1,8 C -4,7 C 14,5 km/h (3 Bft) 95,83 %
05.03.2018 10:36 0,1 C 3,3 C 87 % 1001,6 hPa 0,0 l/m 13,8 km/h (3 Bft) O 90 1 min 0,000 mm 1,1 UV-I 413 W/m -1,8 C -6,1 C 17,7 km/h (3 Bft) 100,00 %
05.03.2018 10:37 0,1 C 3,3 C 87 % 1001,5 hPa 0,0 l/m 11,6 km/h (2 Bft) O-NO 77 1 min 0,000 mm 1,1 UV-I 406 W/m -1,8 C -4,6 C 14,5 km/h (3 Bft) 100,00 %
05.03.2018 10:38 0,1 C 3,3 C 87 % 1001,6 hPa 0,0 l/m 11,7 km/h (2 Bft) O 84 1 min 0,000 mm 1,1 UV-I 385 W/m -1,8 C -4,7 C 14,5 km/h (3 Bft) 100,00 %
05.03.2018 10:39 0,2 C 3,3 C 87 % 1001,6 hPa 0,0 l/m 11,6 km/h (2 Bft) O 86 1 min 0,000 mm 1,1 UV-I 385 W/m -1,7 C -4,5 C 14,5 km/h (3 Bft) 95,83 %
05.03.2018 10:40 0,2 C 3,3 C 87 % 1001,6 hPa 0,0 l/m 8,3 km/h (2 Bft) O-NO 67 1 min 0,000 mm 1,1 UV-I 389 W/m -1,7 C -1,7 C 11,3 km/h (2 Bft) 100,00 %
05.03.2018 10:41 0,3 C 3,3 C 87 % 1001,4 hPa 0,0 l/m 13,3 km/h (3 Bft) NO 40 1 min 0,000 mm 1,2 UV-I 452 W/m -1,6 C -5,6 C 16,1 km/h (3 Bft) 96,30 %
05.03.2018 10:42 0,3 C 3,3 C 87 % 1001,3 hPa 0,0 l/m 11,7 km/h (2 Bft) O-NO 71 1 min 0,000 mm 1,2 UV-I 457 W/m -1,6 C -4,4 C 14,5 km/h (3 Bft) 100,00 %
05.03.2018 10:43 0,4 C 3,3 C 88 % 1001,3 hPa 0,0 l/m 10,1 km/h (2 Bft) O 86 1 min 0,000 mm 1,2 UV-I 483 W/m -1,3 C -3,1 C 12,9 km/h (3 Bft) 92,59 %
05.03.2018 10:44 0,4 C 3,3 C 87 % 1001,3 hPa 0,0 l/m 10,3 km/h (2 Bft) O-NO 59 1 min 0,000 mm 1,2 UV-I 484 W/m -1,5 C -3,3 C 14,5 km/h (3 Bft) 100,00 %
05.03.2018 10:45 0,6 C 3,3 C 87 % 1001,3 hPa 0,0 l/m 12,2 km/h (2 Bft) O-NO 72 1 min 0,000 mm 1,2 UV-I 422 W/m -1,3 C -4,5 C 16,1 km/h (3 Bft) 93,33 %
05.03.2018 10:46 0,6 C 3,3 C 87 % 1001,3 hPa 0,0 l/m 10,8 km/h (2 Bft) O-NO 77 1 min 0,000 mm 1,2 UV-I 400 W/m -1,3 C -3,4 C 14,5 km/h (3 Bft) 100,00 %
05.03.2018 10:47 0,6 C 3,3 C 86 % 1001,3 hPa 0,0 l/m 9,5 km/h (2 Bft) O-NO 78 1 min 0,000 mm 1,1 UV-I 379 W/m -1,5 C -2,4 C 14,5 km/h (3 Bft) 96,15 %
05.03.2018 10:48 0,5 C 3,3 C 86 % 1001,3 hPa 0,0 l/m 13,6 km/h (3 Bft) O-NO 57 1 min 0,000 mm 1,1 UV-I 362 W/m -1,6 C -5,5 C 16,1 km/h (3 Bft) 96,55 %
05.03.2018 10:49 0,4 C 3,3 C 86 % 1001,3 hPa 0,0 l/m 11,7 km/h (2 Bft) O 80 1 min 0,000 mm 1,2 UV-I 420 W/m -1,7 C -4,3 C 16,1 km/h (3 Bft) 100,00 %
05.03.2018 10:50 0,4 C 3,3 C 86 % 1001,3 hPa 0,0 l/m 11,3 km/h (2 Bft) O 94 1 min 0,000 mm 1,1 UV-I 443 W/m -1,7 C -4,0 C 12,9 km/h (3 Bft) 100,00 %
05.03.2018 10:51 0,4 C 3,3 C 86 % 1001,3 hPa 0,0 l/m 10,9 km/h (2 Bft) O 84 1 min 0,000 mm 1,1 UV-I 432 W/m -1,7 C -3,7 C 14,5 km/h (3 Bft) 96,55 %
05.03.2018 10:52 0,4 C 3,3 C 86 % 1001,3 hPa 0,0 l/m 16,0 km/h (3 Bft) O-NO 59 1 min 0,000 mm 1,2 UV-I 417 W/m -1,7 C -7,1 C 19,3 km/h (3 Bft) 93,33 %
05.03.2018 10:53 0,4 C 3,3 C 86 % 1001,3 hPa 0,0 l/m 11,2 km/h (2 Bft) O-NO 78 1 min 0,000 mm 1,2 UV-I 449 W/m -1,7 C -4,0 C 14,5 km/h (3 Bft) 100,00 %
05.03.2018 10:54 0,5 C 3,3 C 87 % 1001,3 hPa 0,0 l/m 13,0 km/h (3 Bft) O-NO 74 1 min 0,000 mm 1,3 UV-I 536 W/m -1,4 C -5,1 C 16,1 km/h (3 Bft) 97,44 %
05.03.2018 10:55 0,6 C 3,3 C 87 % 1001,3 hPa 0,0 l/m 11,8 km/h (2 Bft) O-NO 69 1 min 0,000 mm 1,3 UV-I 547 W/m -1,3 C -4,2 C 14,5 km/h (3 Bft) 100,00 %
05.03.2018 10:56 0,7 C 3,3 C 87 % 1001,3 hPa 0,0 l/m 12,7 km/h (3 Bft) O 92 1 min 0,000 mm 1,3 UV-I 524 W/m -1,2 C -4,7 C 16,1 km/h (3 Bft) 95,83 %
05.03.2018 10:57 0,8 C 3,3 C 86 % 1001,3 hPa 0,0 l/m 13,7 km/h (3 Bft) O-NO 62 1 min 0,000 mm 1,2 UV-I 486 W/m -1,3 C -5,2 C 17,7 km/h (3 Bft) 100,00 %
05.03.2018 10:58 0,8 C 3,3 C 86 % 1001,3 hPa 0,0 l/m 13,3 km/h (3 Bft) O-NO 78 1 min 0,000 mm 1,2 UV-I 492 W/m -1,3 C -5,0 C 17,7 km/h (3 Bft) 93,33 %
05.03.2018 10:59 0,8 C 3,3 C 86 % 1001,3 hPa 0,0 l/m 10,8 km/h (2 Bft) SO 125 1 min 0,000 mm 1,2 UV-I 508 W/m -1,3 C -3,2 C 17,7 km/h (3 Bft) 97,56 %
05.03.2018 11:00 0,8 C 3,3 C 86 % 1001,3 hPa 0,0 l/m 13,8 km/h (3 Bft) O-NO 71 1 min 0,152 mm 1,2 UV-I 372 W/m -1,3 C -5,3 C 19,3 km/h (3 Bft) 100,00 %
05.03.2018 11:01 0,8 C 3,3 C 86 % 1001,3 hPa 0,0 l/m 11,0 km/h (2 Bft) O 80 1 min 0,000 mm 1,2 UV-I 406 W/m -1,3 C -3,3 C 16,1 km/h (3 Bft) 95,65 %
05.03.2018 11:02 0,7 C 3,3 C 86 % 1001,3 hPa 0,0 l/m 12,0 km/h (2 Bft) O-NO 75 1 min 0,000 mm 1,1 UV-I 388 W/m -1,4 C -4,2 C 14,5 km/h (3 Bft) 100,00 %
05.03.2018 11:03 0,7 C 3,3 C 85 % 1001,3 hPa 0,0 l/m 11,8 km/h (2 Bft) O-NO 65 1 min 0,000 mm 1,2 UV-I 386 W/m -1,5 C -4,1 C 14,5 km/h (3 Bft) 96,15 %
05.03.2018 11:04 0,7 C 3,3 C 86 % 1001,3 hPa 0,0 l/m 11,3 km/h (2 Bft) O 98 1 min 0,000 mm 1,2 UV-I 419 W/m -1,4 C -3,7 C 12,9 km/h (3 Bft) 100,00 %
05.03.2018 11:05 0,7 C 3,3 C 86 % 1001,3 hPa 0,0 l/m 13,9 km/h (3 Bft) O 98 1 min 0,000 mm 1,3 UV-I 498 W/m -1,4 C -5,5 C 16,1 km/h (3 Bft) 95,65 %
05.03.2018 11:06 0,8 C 3,3 C 86 % 1001,3 hPa 0,0 l/m 11,3 km/h (2 Bft) O-NO 69 1 min 0,000 mm 1,2 UV-I 413 W/m -1,3 C -3,6 C 14,5 km/h (3 Bft) 95,83 %
05.03.2018 11:07 0,8 C 3,3 C 86 % 1001,2 hPa 0,0 l/m 9,7 km/h (2 Bft) O-NO 58 1 min 0,000 mm 1,2 UV-I 417 W/m -1,3 C -2,3 C 12,9 km/h (3 Bft) 100,00 %
05.03.2018 11:08 0,9 C 3,3 C 86 % 1001,2 hPa 0,0 l/m 11,7 km/h (2 Bft) NO 48 1 min 0,000 mm 1,2 UV-I 442 W/m -1,2 C -3,8 C 16,1 km/h (3 Bft) 100,00 %
05.03.2018 11:09 0,9 C 3,3 C 86 % 1001,1 hPa 0,2 l/m 14,7 km/h (3 Bft) O-NO 67 1 min 0,000 mm 1,3 UV-I 439 W/m -1,2 C -5,7 C 17,7 km/h (3 Bft) 100,00 %
05.03.2018 11:10 0,9 C 3,3 C 86 % 1001,1 hPa 0,0 l/m 13,5 km/h (3 Bft) NO 50 1 min 0,000 mm 1,1 UV-I 432 W/m -1,2 C -5,0 C 17,7 km/h (3 Bft) 100,00 %
05.03.2018 11:11 0,9 C 3,3 C 86 % 1001,1 hPa 0,0 l/m 11,1 km/h (2 Bft) O 86 1 min 0,000 mm 1,1 UV-I 355 W/m -1,2 C -3,3 C 16,1 km/h (3 Bft) 100,00 %
05.03.2018 11:12 0,8 C 3,3 C 86 % 1001,1 hPa 0,0 l/m 15,6 km/h (3 Bft) O 82 1 min 0,000 mm 1,2 UV-I 383 W/m -1,3 C -6,4 C 19,3 km/h (3 Bft) 100,00 %
05.03.2018 11:13 0,8 C 3,3 C 86 % 1001,1 hPa 0,0 l/m 15,0 km/h (3 Bft) O-NO 65 1 min 0,000 mm 1,2 UV-I 381 W/m -1,3 C -6,0 C 17,7 km/h (3 Bft) 100,00 %
05.03.2018 11:14 0,8 C 3,3 C 86 % 1001,1 hPa 0,0 l/m 12,9 km/h (3 Bft) O 93 1 min 0,000 mm 1,2 UV-I 359 W/m -1,3 C -4,7 C 14,5 km/h (3 Bft) 100,00 %
05.03.2018 11:15 0,8 C 3,3 C 86 % 1001,1 hPa 0,0 l/m 9,7 km/h (2 Bft) O 90 1 min 0,000 mm 1,1 UV-I 336 W/m -1,3 C -2,3 C 14,5 km/h (3 Bft) 91,67 %
05.03.2018 11:16 0,8 C 3,3 C 86 % 1001,1 hPa 0,0 l/m 8,2 km/h (2 Bft) O-NO 65 1 min 0,000 mm 1,2 UV-I 353 W/m -1,3 C -1,0 C 12,9 km/h (3 Bft) 97,14 %
05.03.2018 11:17 0,8 C 3,3 C 86 % 1001,1 hPa 0,0 l/m 11,1 km/h (2 Bft) O-NO 76 1 min 0,000 mm 1,2 UV-I 350 W/m -1,3 C -3,4 C 14,5 km/h (3 Bft) 100,00 %
05.03.2018 11:18 0,8 C 3,3 C 86 % 1001,0 hPa 0,0 l/m 14,4 km/h (3 Bft) O-NO 70 1 min 0,000 mm 1,2 UV-I 374 W/m -1,3 C -5,7 C 16,1 km/h (3 Bft) 100,00 %
05.03.2018 11:19 0,8 C 3,3 C 86 % 1001,0 hPa 0,0 l/m 13,4 km/h (3 Bft) O-NO 74 1 min 0,000 mm 1,2 UV-I 365 W/m -1,3 C -5,0 C 16,1 km/h (3 Bft) 100,00 %
05.03.2018 11:20 0,9 C 3,3 C 86 % 1001,0 hPa 0,0 l/m 13,4 km/h (3 Bft) O 86 1 min 0,000 mm 1,2 UV-I 405 W/m -1,2 C -4,9 C 16,1 km/h (3 Bft) 100,00 %
05.03.2018 11:21 0,9 C 3,3 C 86 % 1001,1 hPa 0,0 l/m 12,1 km/h (2 Bft) O 80 1 min 0,000 mm 1,3 UV-I 476 W/m -1,2 C -4,0 C 16,1 km/h (3 Bft) 100,00 %
05.03.2018 11:22 0,9 C 3,3 C 86 % 1001,0 hPa 0,0 l/m 12,2 km/h (2 Bft) O 83 1 min 0,000 mm 1,3 UV-I 457 W/m -1,2 C -4,1 C 14,5 km/h (3 Bft) 100,00 %
05.03.2018 11:23 1,1 C 3,3 C 86 % 1001,0 hPa 0,0 l/m 12,2 km/h (2 Bft) O-NO 70 1 min 0,000 mm 1,3 UV-I 406 W/m -1,0 C -3,9 C 16,1 km/h (3 Bft) 96,15 %
05.03.2018 11:24 1,1 C 3,3 C 86 % 1001,1 hPa 0,0 l/m 13,6 km/h (3 Bft) O-NO 68 1 min 0,000 mm 1,2 UV-I 377 W/m -1,0 C -4,8 C 16,1 km/h (3 Bft) 100,00 %
05.03.2018 11:25 1,1 C 3,3 C 85 % 1001,1 hPa 0,0 l/m 12,5 km/h (3 Bft) O-NO 63 1 min 0,000 mm 1,2 UV-I 367 W/m -1,1 C -4,1 C 16,1 km/h (3 Bft) 100,00 %
05.03.2018 11:26 1,2 C 3,3 C 86 % 1001,0 hPa 0,0 l/m 11,7 km/h (2 Bft) O-NO 65 1 min 0,000 mm 1,3 UV-I 373 W/m -0,9 C -3,4 C 16,1 km/h (3 Bft) 100,00 %
05.03.2018 11:27 1,2 C 3,3 C 85 % 1001,0 hPa 0,0 l/m 12,4 km/h (3 Bft) O-NO 69 1 min 0,000 mm 1,4 UV-I 373 W/m -1,0 C -3,9 C 14,5 km/h (3 Bft) 100,00 %
05.03.2018 11:28 1,3 C 3,3 C 86 % 1001,0 hPa 0,0 l/m 7,8 km/h (2 Bft) O 82 1 min 0,000 mm 1,4 UV-I 536 W/m -0,8 C -0,1 C 11,3 km/h (2 Bft) 100,00 %
05.03.2018 11:29 1,3 C 3,3 C 86 % 1001,0 hPa 0,0 l/m 11,9 km/h (2 Bft) O-NO 70 1 min 0,000 mm 1,3 UV-I 571 W/m -0,8 C -3,4 C 17,7 km/h (3 Bft) 96,15 %
05.03.2018 11:30 1,4 C 3,3 C 85 % 1001,0 hPa 0,0 l/m 12,5 km/h (3 Bft) O 89 1 min 0,000 mm 1,2 UV-I 347 W/m -0,8 C -3,7 C 16,1 km/h (3 Bft) 100,00 %
05.03.2018 11:31 1,4 C 3,3 C 85 % 1001,0 hPa 0,0 l/m 12,4 km/h (3 Bft) O 89 1 min 0,000 mm 1,4 UV-I 366 W/m -0,8 C -3,7 C 14,5 km/h (3 Bft) 100,00 %
05.03.2018 11:32 1,4 C 3,3 C 85 % 1000,9 hPa 0,0 l/m 12,7 km/h (3 Bft) O 97 1 min 0,000 mm 1,4 UV-I 366 W/m -0,8 C -3,9 C 16,1 km/h (3 Bft) 100,00 %
05.03.2018 11:33 1,4 C 3,3 C 84 % 1000,9 hPa 0,0 l/m 11,4 km/h (2 Bft) O 87 1 min 0,000 mm 1,2 UV-I 374 W/m -1,0 C -3,0 C 16,1 km/h (3 Bft) 100,00 %
05.03.2018 11:34 1,4 C 3,3 C 84 % 1000,9 hPa 0,0 l/m 16,4 km/h (3 Bft) O 96 1 min 0,000 mm 1,3 UV-I 388 W/m -1,0 C -6,1 C 19,3 km/h (3 Bft) 100,00 %
05.03.2018 11:35 1,4 C 3,3 C 84 % 1000,9 hPa 0,0 l/m 17,2 km/h (3 Bft) O 101 1 min 0,000 mm 1,4 UV-I 450 W/m -1,0 C -6,5 C 19,3 km/h (3 Bft) 100,00 %
05.03.2018 11:36 1,4 C 3,3 C 84 % 1000,9 hPa 0,0 l/m 13,8 km/h (3 Bft) O-NO 68 1 min 0,000 mm 1,4 UV-I 480 W/m -1,0 C -4,6 C 19,3 km/h (3 Bft) 100,00 %
05.03.2018 11:37 1,4 C 3,3 C 84 % 1000,9 hPa 0,0 l/m 10,7 km/h (2 Bft) O 97 1 min 0,000 mm 1,5 UV-I 537 W/m -1,0 C -2,4 C 14,5 km/h (3 Bft) 95,65 %
05.03.2018 11:38 1,5 C 3,3 C 84 % 1000,8 hPa 0,0 l/m 14,8 km/h (3 Bft) O 98 1 min 0,000 mm 1,4 UV-I 633 W/m -0,9 C -5,0 C 19,3 km/h (3 Bft) 100,00 %
05.03.2018 11:39 1,6 C 3,3 C 84 % 1000,8 hPa 0,0 l/m 15,8 km/h (3 Bft) O 95 1 min 0,000 mm 1,3 UV-I 444 W/m -0,8 C -5,5 C 20,9 km/h (4 Bft) 100,00 %
05.03.2018 11:40 1,6 C 3,3 C 84 % 1000,6 hPa 0,0 l/m 11,8 km/h (2 Bft) O-NO 78 1 min 0,000 mm 1,4 UV-I 394 W/m -0,8 C -3,0 C 16,1 km/h (3 Bft) 96,30 %
05.03.2018 11:41 1,7 C 3,3 C 84 % 1000,6 hPa 0,0 l/m 8,4 km/h (2 Bft) O 95 1 min 0,000 mm 1,5 UV-I 529 W/m -0,7 C -0,2 C 12,9 km/h (3 Bft) 100,00 %
05.03.2018 11:42 1,7 C 3,3 C 84 % 1000,6 hPa 0,0 l/m 8,5 km/h (2 Bft) O-NO 63 1 min 0,000 mm 1,3 UV-I 492 W/m -0,7 C -0,3 C 14,5 km/h (3 Bft) 100,00 %
05.03.2018 11:43 1,7 C 3,3 C 84 % 1000,6 hPa 0,0 l/m 13,6 km/h (3 Bft) O-NO 57 1 min 0,000 mm 1,3 UV-I 392 W/m -0,7 C -4,1 C 16,1 km/h (3 Bft) 100,00 %
05.03.2018 11:44 1,8 C 3,3 C 84 % 1000,5 hPa 0,0 l/m 15,2 km/h (3 Bft) O 84 1 min 0,000 mm 1,3 UV-I 422 W/m -0,6 C -4,9 C 20,9 km/h (4 Bft) 96,30 %
05.03.2018 11:45 1,8 C 3,3 C 84 % 1000,5 hPa 0,0 l/m 16,4 km/h (3 Bft) NO 53 1 min 0,000 mm 1,3 UV-I 423 W/m -0,6 C -5,6 C 20,9 km/h (4 Bft) 100,00 %
05.03.2018 11:46 1,8 C 3,3 C 83 % 1000,5 hPa 0,0 l/m 14,5 km/h (3 Bft) O-NO 59 1 min 0,000 mm 1,3 UV-I 413 W/m -0,8 C -4,5 C 17,7 km/h (3 Bft) 95,00 %
05.03.2018 11:47 1,7 C 3,3 C 84 % 1000,5 hPa 0,0 l/m 15,3 km/h (3 Bft) O-NO 62 1 min 0,000 mm 1,3 UV-I 383 W/m -0,7 C -5,1 C 17,7 km/h (3 Bft) 100,00 %
05.03.2018 11:48 1,6 C 3,3 C 83 % 1000,5 hPa 0,0 l/m 12,3 km/h (3 Bft) O-NO 70 1 min 0,000 mm 1,3 UV-I 387 W/m -1,0 C -3,4 C 16,1 km/h (3 Bft) 100,00 %
05.03.2018 11:49 1,6 C 3,3 C 83 % 1000,5 hPa 0,0 l/m 15,1 km/h (3 Bft) O 90 1 min 0,000 mm 1,3 UV-I 394 W/m -1,0 C -5,1 C 19,3 km/h (3 Bft) 100,00 %
05.03.2018 11:50 1,5 C 3,3 C 83 % 1000,5 hPa 0,0 l/m 17,1 km/h (3 Bft) O-NO 76 1 min 0,000 mm 1,3 UV-I 410 W/m -1,1 C -6,3 C 19,3 km/h (3 Bft) 100,00 %
05.03.2018 11:51 1,5 C 3,3 C 84 % 1000,4 hPa 0,0 l/m 14,1 km/h (3 Bft) O-NO 76 1 min 0,000 mm 1,3 UV-I 431 W/m -0,9 C -4,6 C 17,7 km/h (3 Bft) 100,00 %
05.03.2018 11:52 1,5 C 3,3 C 84 % 1000,4 hPa 0,0 l/m 13,3 km/h (3 Bft) O-NO 78 1 min 0,000 mm 1,3 UV-I 399 W/m -0,9 C -4,1 C 16,1 km/h (3 Bft) 100,00 %
05.03.2018 11:53 1,5 C 3,3 C 84 % 1000,4 hPa 0,0 l/m 11,5 km/h (2 Bft) O-NO 76 1 min 0,000 mm 1,3 UV-I 395 W/m -0,9 C -2,9 C 14,5 km/h (3 Bft) 100,00 %
05.03.2018 11:54 1,5 C 3,3 C 84 % 1000,3 hPa 0,0 l/m 12,3 km/h (3 Bft) O-NO 68 1 min 0,000 mm 1,3 UV-I 396 W/m -0,9 C -3,5 C 16,1 km/h (3 Bft) 100,00 %
05.03.2018 11:55 1,6 C 3,3 C 85 % 1000,3 hPa 0,0 l/m 13,6 km/h (3 Bft) O-NO 61 1 min 0,000 mm 1,3 UV-I 393 W/m -0,6 C -4,2 C 17,7 km/h (3 Bft) 100,00 %
05.03.2018 11:56 1,7 C 3,3 C 85 % 1000,3 hPa 0,0 l/m 11,1 km/h (2 Bft) NO 47 1 min 0,000 mm 1,3 UV-I 384 W/m -0,5 C -2,4 C 16,1 km/h (3 Bft) 100,00 %
05.03.2018 11:57 1,6 C 3,3 C 84 % 1000,3 hPa 0,0 l/m 9,9 km/h (2 Bft) O-SO 107 1 min 0,000 mm 1,2 UV-I 381 W/m -0,8 C -1,6 C 14,5 km/h (3 Bft) 100,00 %
05.03.2018 11:58 1,6 C 3,3 C 84 % 1000,3 hPa 0,0 l/m 13,6 km/h (3 Bft) O 101 1 min 0,000 mm 1,2 UV-I 380 W/m -0,8 C -4,2 C 16,1 km/h (3 Bft) 98,19 %
05.03.2018 11:59 1,6 C 3,3 C 84 % 1000,2 hPa 0,0 l/m 14,6 km/h (3 Bft) O-NO 74 1 min 0,000 mm 1,2 UV-I 380 W/m -0,8 C -4,8 C 17,7 km/h (3 Bft) 100,00 %
05.03.2018 12:00 1,6 C 3,3 C 84 % 1000,2 hPa 0,2 l/m 12,9 km/h (3 Bft) NO 49 1 min 0,153 mm 1,2 UV-I 376 W/m -0,8 C -3,8 C 17,7 km/h (3 Bft) 100,00 %
05.03.2018 12:01 1,6 C 3,3 C 84 % 1000,2 hPa 0,0 l/m 14,2 km/h (3 Bft) O-NO 74 1 min 0,000 mm 1,2 UV-I 374 W/m -0,8 C -4,6 C 19,3 km/h (3 Bft) 100,00 %
05.03.2018 12:02 1,6 C 3,3 C 84 % 1000,2 hPa 0,0 l/m 16,1 km/h (3 Bft) NO 53 1 min 0,000 mm 1,2 UV-I 375 W/m -0,8 C -5,7 C 19,3 km/h (3 Bft) 100,00 %
05.03.2018 12:03 1,6 C 3,3 C 85 % 1000,1 hPa 0,0 l/m 17,0 km/h (3 Bft) O-NO 70 1 min 0,000 mm 1,2 UV-I 384 W/m -0,6 C -6,1 C 20,9 km/h (4 Bft) 100,00 %
05.03.2018 12:04 1,6 C 3,3 C 85 % 1000,0 hPa 0,0 l/m 15,7 km/h (3 Bft) O 81 1 min 0,000 mm 1,2 UV-I 374 W/m -0,6 C -5,4 C 19,3 km/h (3 Bft) 100,00 %
05.03.2018 12:05 1,7 C 3,3 C 85 % 1000,0 hPa 0,0 l/m 14,1 km/h (3 Bft) O-NO 74 1 min 0,000 mm 1,2 UV-I 375 W/m -0,5 C -4,4 C 17,7 km/h (3 Bft) 100,00 %
05.03.2018 12:06 1,7 C 3,3 C 84 % 1000,1 hPa 0,0 l/m 13,2 km/h (3 Bft) O 84 1 min 0,000 mm 1,2 UV-I 387 W/m -0,7 C -3,8 C 16,1 km/h (3 Bft) 100,00 %
05.03.2018 12:07 1,7 C 3,3 C 84 % 1000,1 hPa 0,0 l/m 14,6 km/h (3 Bft) O 84 1 min 0,000 mm 1,2 UV-I 365 W/m -0,7 C -4,7 C 20,9 km/h (4 Bft) 100,00 %
05.03.2018 12:08 1,7 C 3,3 C 84 % 1000,2 hPa 0,0 l/m 13,0 km/h (3 Bft) O-NO 72 1 min 0,000 mm 1,2 UV-I 362 W/m -0,7 C -3,7 C 17,7 km/h (3 Bft) 100,00 %
05.03.2018 12:09 1,7 C 3,3 C 85 % 1000,2 hPa 0,0 l/m 15,0 km/h (3 Bft) O 83 1 min 0,000 mm 1,2 UV-I 360 W/m -0,5 C -4,9 C 17,7 km/h (3 Bft) 100,00 %
05.03.2018 12:10 1,7 C 3,3 C 85 % 1000,2 hPa 0,0 l/m 12,4 km/h (3 Bft) O-SO 104 1 min 0,000 mm 1,2 UV-I 359 W/m -0,5 C -3,3 C 16,1 km/h (3 Bft) 100,00 %
05.03.2018 12:11 1,8 C 3,3 C 85 % 1000,2 hPa 0,0 l/m 14,1 km/h (3 Bft) O 84 1 min 0,000 mm 1,2 UV-I 359 W/m -0,4 C -4,3 C 19,3 km/h (3 Bft) 100,00 %
05.03.2018 12:13 1,9 C 3,3 C 84 % 1000,2 hPa 0,0 l/m 15,3 km/h (3 Bft) O-SO 121 2 min 0,000 mm 1,2 UV-I 359 W/m -0,5 C -4,8 C 22,5 km/h (4 Bft) 100,00 %
05.03.2018 12:14 1,8 C 3,3 C 83 % 1000,2 hPa 0,0 l/m 16,1 km/h (3 Bft) O 98 1 min 0,000 mm 1,2 UV-I 359 W/m -0,8 C -5,4 C 20,9 km/h (4 Bft) 100,00 %
05.03.2018 12:15 1,8 C 3,3 C 83 % 1000,3 hPa 0,0 l/m 17,8 km/h (3 Bft) O 101 1 min 0,000 mm 1,2 UV-I 360 W/m -0,8 C -6,3 C 20,9 km/h (4 Bft) 96,15 %
05.03.2018 12:16 1,8 C 3,3 C 83 % 1000,3 hPa 0,0 l/m 17,0 km/h (3 Bft) O 92 1 min 0,000 mm 1,2 UV-I 362 W/m -0,8 C -5,9 C 22,5 km/h (4 Bft) 100,00 %
05.03.2018 12:17 1,8 C 3,3 C 83 % 1000,3 hPa 0,0 l/m 16,9 km/h (3 Bft) O 95 1 min 0,000 mm 1,2 UV-I 366 W/m -0,8 C -5,8 C 20,9 km/h (4 Bft) 100,00 %
05.03.2018 12:18 1,7 C 3,3 C 83 % 1000,3 hPa 0,0 l/m 12,0 km/h (2 Bft) O-SO 121 1 min 0,000 mm 1,2 UV-I 367 W/m -0,9 C -3,0 C 14,5 km/h (3 Bft) 100,00 %
05.03.2018 12:19 1,7 C 3,3 C 83 % 1000,2 hPa 0,0 l/m 16,2 km/h (3 Bft) O 95 1 min 0,000 mm 1,2 UV-I 371 W/m -0,9 C -5,6 C 22,5 km/h (4 Bft) 100,00 %
05.03.2018 12:20 1,7 C 3,3 C 84 % 1000,3 hPa 0,0 l/m 13,8 km/h (3 Bft) O 88 1 min 0,000 mm 1,2 UV-I 373 W/m -0,7 C -4,2 C 17,7 km/h (3 Bft) 100,00 %
05.03.2018 12:21 1,7 C 3,3 C 84 % 1000,2 hPa 0,0 l/m 14,1 km/h (3 Bft) O-SO 112 1 min 0,000 mm 1,2 UV-I 374 W/m -0,7 C -4,4 C 20,9 km/h (4 Bft) 100,00 %
05.03.2018 12:22 1,8 C 3,3 C 84 % 1000,2 hPa 0,0 l/m 16,5 km/h (3 Bft) O 101 1 min 0,000 mm 1,2 UV-I 374 W/m -0,6 C -5,6 C 20,9 km/h (4 Bft) 96,15 %
05.03.2018 12:23 1,8 C 3,3 C 84 % 1000,1 hPa 0,0 l/m 16,6 km/h (3 Bft) O 82 1 min 0,000 mm 1,2 UV-I 372 W/m -0,6 C -5,7 C 22,5 km/h (4 Bft) 95,65 %
05.03.2018 12:24 1,8 C 3,3 C 84 % 1000,1 hPa 0,0 l/m 15,2 km/h (3 Bft) O-SO 122 1 min 0,000 mm 1,2 UV-I 371 W/m -0,6 C -4,9 C 20,9 km/h (4 Bft) 100,00 %
05.03.2018 12:25 1,9 C 3,3 C 84 % 1000,1 hPa 0,0 l/m 16,4 km/h (3 Bft) O-SO 103 1 min 0,000 mm 1,2 UV-I 370 W/m -0,5 C -5,4 C 19,3 km/h (3 Bft) 100,00 %
05.03.2018 12:26 1,9 C 3,3 C 83 % 1000,1 hPa 0,0 l/m 16,7 km/h (3 Bft) O-SO 110 1 min 0,000 mm 1,2 UV-I 368 W/m -0,7 C -5,6 C 20,9 km/h (4 Bft) 96,88 %
05.03.2018 12:27 1,8 C 3,3 C 83 % 1000,1 hPa 0,0 l/m 15,8 km/h (3 Bft) O-SO 103 1 min 0,000 mm 1,2 UV-I 366 W/m -0,8 C -5,2 C 19,3 km/h (3 Bft) 92,59 %
05.03.2018 12:28 1,8 C 3,3 C 83 % 1000,1 hPa 0,0 l/m 13,8 km/h (3 Bft) O-SO 107 1 min 0,000 mm 1,2 UV-I 362 W/m -0,8 C -4,1 C 19,3 km/h (3 Bft) 90,91 %
05.03.2018 12:29 1,8 C 3,3 C 83 % 1000,1 hPa 0,0 l/m 13,9 km/h (3 Bft) O 88 1 min 0,000 mm 1,2 UV-I 358 W/m -0,8 C -4,2 C 17,7 km/h (3 Bft) 96,30 %
05.03.2018 12:30 1,8 C 3,3 C 83 % 1000,1 hPa 0,0 l/m 16,4 km/h (3 Bft) O 88 1 min 0,000 mm 1,2 UV-I 354 W/m -0,8 C -5,6 C 22,5 km/h (4 Bft) 100,00 %
05.03.2018 12:31 1,8 C 3,3 C 83 % 1000,1 hPa 0,0 l/m 15,9 km/h (3 Bft) SO 131 1 min 0,000 mm 1,2 UV-I 350 W/m -0,8 C -5,3 C 20,9 km/h (4 Bft) 96,30 %
05.03.2018 12:32 1,8 C 3,3 C 83 % 1000,1 hPa 0,0 l/m 14,3 km/h (3 Bft) O-SO 111 1 min 0,000 mm 1,2 UV-I 345 W/m -0,8 C -4,4 C 19,3 km/h (3 Bft) 95,65 %
05.03.2018 12:33 1,8 C 3,3 C 83 % 1000,0 hPa 0,0 l/m 15,6 km/h (3 Bft) O-SO 106 1 min 0,000 mm 1,1 UV-I 338 W/m -0,8 C -5,1 C 17,7 km/h (3 Bft) 100,00 %
05.03.2018 12:34 1,8 C 3,3 C 83 % 1000,1 hPa 0,0 l/m 15,4 km/h (3 Bft) O-SO 102 1 min 0,000 mm 1,1 UV-I 332 W/m -0,8 C -5,0 C 19,3 km/h (3 Bft) 92,86 %
05.03.2018 12:35 1,8 C 3,3 C 83 % 1000,1 hPa 0,0 l/m 14,5 km/h (3 Bft) O-SO 103 1 min 0,000 mm 1,1 UV-I 329 W/m -0,8 C -4,5 C 17,7 km/h (3 Bft) 100,00 %
05.03.2018 12:36 1,8 C 3,3 C 83 % 1000,0 hPa 0,0 l/m 17,4 km/h (3 Bft) O-SO 104 1 min 0,000 mm 1,1 UV-I 330 W/m -0,8 C -6,1 C 22,5 km/h (4 Bft) 96,15 %
05.03.2018 12:37 1,8 C 3,3 C 83 % 1000,0 hPa 0,0 l/m 12,1 km/h (2 Bft) O 101 1 min 0,000 mm 1,1 UV-I 331 W/m -0,8 C -3,0 C 14,5 km/h (3 Bft) 100,00 %
05.03.2018 12:38 1,8 C 3,3 C 83 % 1000,0 hPa 0,0 l/m 15,7 km/h (3 Bft) O 90 1 min 0,000 mm 1,1 UV-I 335 W/m -0,8 C -5,2 C 19,3 km/h (3 Bft) 96,43 %
05.03.2018 12:39 1,8 C 3,3 C 83 % 1000,0 hPa 0,0 l/m 14,2 km/h (3 Bft) O 87 1 min 0,000 mm 1,1 UV-I 339 W/m -0,8 C -4,3 C 19,3 km/h (3 Bft) 100,00 %
05.03.2018 12:40 1,9 C 3,3 C 83 % 1000,0 hPa 0,0 l/m 13,7 km/h (3 Bft) O-SO 112 1 min 0,000 mm 1,1 UV-I 342 W/m -0,7 C -3,9 C 17,7 km/h (3 Bft) 93,33 %
05.03.2018 12:41 1,9 C 3,3 C 83 % 999,9 hPa 0,0 l/m 12,6 km/h (3 Bft) O 86 1 min 0,000 mm 1,1 UV-I 344 W/m -0,7 C -3,2 C 16,1 km/h (3 Bft) 96,55 %
05.03.2018 12:42 1,9 C 3,3 C 83 % 999,9 hPa 0,0 l/m 11,8 km/h (2 Bft) O-SO 119 1 min 0,000 mm 1,1 UV-I 345 W/m -0,7 C -2,7 C 14,5 km/h (3 Bft) 100,00 %
05.03.2018 12:43 1,9 C 3,3 C 83 % 999,9 hPa 0,0 l/m 15,7 km/h (3 Bft) O 86 1 min 0,000 mm 1,1 UV-I 346 W/m -0,7 C -5,1 C 19,3 km/h (3 Bft) 96,30 %
05.03.2018 12:44 1,9 C 3,3 C 83 % 999,8 hPa 0,0 l/m 14,4 km/h (3 Bft) O 93 1 min 0,000 mm 1,1 UV-I 346 W/m -0,7 C -4,3 C 17,7 km/h (3 Bft) 100,00 %
05.03.2018 12:45 2,0 C 3,3 C 83 % 999,8 hPa 0,0 l/m 14,3 km/h (3 Bft) O-SO 111 1 min 0,000 mm 1,1 UV-I 348 W/m -0,6 C -4,2 C 17,7 km/h (3 Bft) 88,46 %
05.03.2018 12:46 1,9 C 3,3 C 83 % 999,8 hPa 0,0 l/m 12,3 km/h (3 Bft) O-NO 69 1 min 0,000 mm 1,1 UV-I 351 W/m -0,7 C -3,0 C 14,5 km/h (3 Bft) 100,00 %
05.03.2018 12:47 2,0 C 3,3 C 83 % 999,7 hPa 0,0 l/m 12,1 km/h (2 Bft) O-NO 65 1 min 0,000 mm 1,1 UV-I 355 W/m -0,6 C -2,8 C 16,1 km/h (3 Bft) 81,82 %
05.03.2018 12:48 2,1 C 3,3 C 84 % 999,8 hPa 0,0 l/m 14,1 km/h (3 Bft) NO 42 1 min 0,000 mm 1,1 UV-I 358 W/m -0,3 C -3,9 C 17,7 km/h (3 Bft) 100,00 %
05.03.2018 12:49 2,2 C 3,3 C 84 % 999,7 hPa 0,0 l/m 13,1 km/h (3 Bft) NO 51 1 min 0,000 mm 1,1 UV-I 361 W/m -0,2 C -3,2 C 17,7 km/h (3 Bft) 96,15 %
05.03.2018 12:50 2,3 C 3,3 C 84 % 999,7 hPa 0,0 l/m 12,9 km/h (3 Bft) NO 49 1 min 0,000 mm 1,1 UV-I 367 W/m -0,1 C -2,9 C 16,1 km/h (3 Bft) 100,00 %
05.03.2018 12:51 2,2 C 3,3 C 83 % 999,8 hPa 0,0 l/m 9,7 km/h (2 Bft) O-NO 68 1 min 0,000 mm 1,1 UV-I 374 W/m -0,4 C -0,8 C 14,5 km/h (3 Bft) 96,55 %
05.03.2018 12:52 2,2 C 3,3 C 83 % 999,8 hPa 0,0 l/m 12,3 km/h (3 Bft) O-NO 58 1 min 0,000 mm 1,2 UV-I 382 W/m -0,4 C -2,7 C 16,1 km/h (3 Bft) 96,30 %
05.03.2018 12:53 2,2 C 3,3 C 83 % 999,8 hPa 0,0 l/m 13,6 km/h (3 Bft) O 92 1 min 0,000 mm 1,2 UV-I 390 W/m -0,4 C -3,5 C 17,7 km/h (3 Bft) 100,00 %
05.03.2018 12:54 2,2 C 3,3 C 83 % 999,8 hPa 0,0 l/m 10,9 km/h (2 Bft) O 85 1 min 0,000 mm 1,2 UV-I 401 W/m -0,4 C -1,7 C 14,5 km/h (3 Bft) 96,30 %
05.03.2018 12:55 2,2 C 3,3 C 83 % 999,7 hPa 0,0 l/m 11,5 km/h (2 Bft) O 92 1 min 0,000 mm 1,2 UV-I 405 W/m -0,4 C -2,1 C 16,1 km/h (3 Bft) 100,00 %
05.03.2018 12:56 2,2 C 3,3 C 84 % 999,7 hPa 0,0 l/m 14,3 km/h (3 Bft) NO 53 1 min 0,000 mm 1,2 UV-I 409 W/m -0,2 C -3,9 C 17,7 km/h (3 Bft) 100,00 %
05.03.2018 12:57 2,3 C 3,3 C 84 % 999,7 hPa 0,0 l/m 12,5 km/h (3 Bft) O-NO 70 1 min 0,000 mm 1,2 UV-I 415 W/m -0,1 C -2,7 C 17,7 km/h (3 Bft) 100,00 %
05.03.2018 12:58 2,4 C 3,3 C 84 % 999,6 hPa 0,0 l/m 16,1 km/h (3 Bft) O-NO 68 1 min 0,000 mm 1,2 UV-I 413 W/m -0,0 C -4,7 C 19,3 km/h (3 Bft) 96,67 %
05.03.2018 12:59 2,5 C 3,3 C 84 % 999,6 hPa 0,0 l/m 13,5 km/h (3 Bft) O 79 1 min 0,000 mm 1,2 UV-I 407 W/m 0,1 C -3,1 C 19,3 km/h (3 Bft) 96,15 %
05.03.2018 13:00 2,5 C 3,3 C 83 % 999,6 hPa 0,0 l/m 15,1 km/h (3 Bft) O 88 1 min 0,152 mm 1,2 UV-I 407 W/m -0,1 C -4,0 C 17,7 km/h (3 Bft) 98,18 %
05.03.2018 13:01 2,4 C 3,3 C 82 % 999,5 hPa 0,0 l/m 16,2 km/h (3 Bft) O 87 1 min 0,000 mm 1,2 UV-I 409 W/m -0,4 C -4,7 C 19,3 km/h (3 Bft) 100,00 %
05.03.2018 13:02 2,4 C 3,3 C 82 % 999,4 hPa 0,0 l/m 18,9 km/h (3 Bft) O 83 1 min 0,000 mm 1,2 UV-I 412 W/m -0,4 C -6,0 C 24,1 km/h (4 Bft) 100,00 %
05.03.2018 13:03 2,3 C 3,3 C 82 % 999,4 hPa 0,0 l/m 16,2 km/h (3 Bft) O-NO 71 1 min 0,000 mm 1,2 UV-I 415 W/m -0,4 C -4,8 C 22,5 km/h (4 Bft) 100,00 %
05.03.2018 13:04 2,3 C 3,3 C 82 % 999,4 hPa 0,0 l/m 16,0 km/h (3 Bft) O-NO 62 1 min 0,000 mm 1,2 UV-I 412 W/m -0,4 C -4,7 C 24,1 km/h (4 Bft) 100,00 %
05.03.2018 13:05 2,2 C 3,3 C 82 % 999,4 hPa 0,0 l/m 16,0 km/h (3 Bft) O 86 1 min 0,000 mm 1,2 UV-I 411 W/m -0,5 C -4,9 C 20,9 km/h (4 Bft) 100,00 %
05.03.2018 13:06 2,2 C 3,3 C 82 % 999,4 hPa 0,0 l/m 16,8 km/h (3 Bft) O-NO 59 1 min 0,000 mm 1,2 UV-I 407 W/m -0,5 C -5,3 C 19,3 km/h (3 Bft) 100,00 %
05.03.2018 13:07 2,2 C 3,3 C 83 % 999,3 hPa 0,0 l/m 12,9 km/h (3 Bft) O-NO 72 1 min 0,000 mm 1,2 UV-I 403 W/m -0,4 C -3,1 C 22,5 km/h (4 Bft) 100,00 %
05.03.2018 13:08 2,3 C 3,3 C 83 % 999,3 hPa 0,0 l/m 16,5 km/h (3 Bft) O 80 1 min 0,000 mm 1,2 UV-I 401 W/m -0,3 C -5,0 C 22,5 km/h (4 Bft) 100,00 %
05.03.2018 13:09 2,3 C 3,3 C 83 % 999,3 hPa 0,0 l/m 14,9 km/h (3 Bft) O 89 1 min 0,000 mm 1,2 UV-I 399 W/m -0,3 C -4,1 C 19,3 km/h (3 Bft) 100,00 %
05.03.2018 13:10 2,3 C 3,3 C 83 % 999,3 hPa 0,0 l/m 16,8 km/h (3 Bft) O-NO 68 1 min 0,000 mm 1,2 UV-I 396 W/m -0,3 C -5,2 C 20,9 km/h (4 Bft) 100,00 %
05.03.2018 13:11 2,3 C 3,3 C 82 % 999,3 hPa 0,0 l/m 16,3 km/h (3 Bft) O-NO 70 1 min 0,000 mm 1,2 UV-I 392 W/m -0,4 C -4,9 C 24,1 km/h (4 Bft) 100,00 %
05.03.2018 13:12 2,3 C 3,3 C 82 % 999,3 hPa 0,0 l/m 18,4 km/h (3 Bft) O-NO 71 1 min 0,000 mm 1,2 UV-I 385 W/m -0,4 C -5,9 C 22,5 km/h (4 Bft) 100,00 %
05.03.2018 13:13 2,3 C 3,3 C 83 % 999,3 hPa 0,0 l/m 16,7 km/h (3 Bft) O 100 1 min 0,000 mm 1,1 UV-I 380 W/m -0,3 C -5,1 C 20,9 km/h (4 Bft) 100,00 %
05.03.2018 13:14 2,3 C 3,3 C 83 % 999,4 hPa 0,0 l/m 14,2 km/h (3 Bft) O-NO 66 1 min 0,000 mm 1,1 UV-I 377 W/m -0,3 C -3,7 C 17,7 km/h (3 Bft) 100,00 %
05.03.2018 13:15 2,3 C 3,3 C 83 % 999,4 hPa 0,0 l/m 10,0 km/h (2 Bft) O-NO 62 1 min 0,000 mm 1,1 UV-I 376 W/m -0,3 C -0,9 C 16,1 km/h (3 Bft) 96,30 %
05.03.2018 13:16 2,4 C 3,3 C 83 % 999,4 hPa 0,0 l/m 13,4 km/h (3 Bft) NO 46 1 min 0,000 mm 1,1 UV-I 380 W/m -0,2 C -3,1 C 19,3 km/h (3 Bft) 100,00 %
05.03.2018 13:17 2,5 C 3,3 C 83 % 999,3 hPa 0,0 l/m 14,6 km/h (3 Bft) O 81 1 min 0,000 mm 1,1 UV-I 389 W/m -0,1 C -3,7 C 17,7 km/h (3 Bft) 100,00 %
05.03.2018 13:18 2,5 C 3,3 C 82 % 999,3 hPa 0,0 l/m 13,7 km/h (3 Bft) O-NO 67 1 min 0,000 mm 1,1 UV-I 387 W/m -0,3 C -3,2 C 17,7 km/h (3 Bft) 96,55 %
05.03.2018 13:19 2,6 C 3,3 C 82 % 999,3 hPa 0,0 l/m 13,6 km/h (3 Bft) NO 52 1 min 0,000 mm 1,1 UV-I 381 W/m -0,2 C -3,0 C 17,7 km/h (3 Bft) 100,00 %
05.03.2018 13:20 2,6 C 3,3 C 82 % 999,3 hPa 0,0 l/m 14,7 km/h (3 Bft) O-NO 67 1 min 0,000 mm 1,1 UV-I 374 W/m -0,2 C -3,7 C 19,3 km/h (3 Bft) 100,00 %
05.03.2018 13:21 2,6 C 3,3 C 82 % 999,2 hPa 0,0 l/m 13,0 km/h (3 Bft) O-NO 61 1 min 0,000 mm 1,1 UV-I 371 W/m -0,2 C -2,7 C 16,1 km/h (3 Bft) 100,00 %
05.03.2018 13:22 2,6 C 3,3 C 82 % 999,3 hPa 0,0 l/m 15,5 km/h (3 Bft) O 84 1 min 0,000 mm 1,1 UV-I 367 W/m -0,2 C -4,1 C 19,3 km/h (3 Bft) 100,00 %
05.03.2018 13:23 2,6 C 3,3 C 82 % 999,3 hPa 0,0 l/m 13,6 km/h (3 Bft) O-NO 73 1 min 0,000 mm 1,1 UV-I 365 W/m -0,2 C -3,0 C 20,9 km/h (4 Bft) 100,00 %
05.03.2018 13:24 2,6 C 3,3 C 82 % 999,3 hPa 0,0 l/m 17,9 km/h (3 Bft) O-NO 64 1 min 0,000 mm 1,1 UV-I 369 W/m -0,2 C -5,3 C 22,5 km/h (4 Bft) 100,00 %
05.03.2018 13:25 2,6 C 3,3 C 82 % 999,3 hPa 0,0 l/m 15,0 km/h (3 Bft) O-NO 67 1 min 0,000 mm 1,1 UV-I 381 W/m -0,2 C -3,8 C 19,3 km/h (3 Bft) 100,00 %
05.03.2018 13:26 2,6 C 3,3 C 82 % 999,3 hPa 0,0 l/m 17,9 km/h (3 Bft) O-NO 69 1 min 0,000 mm 1,1 UV-I 379 W/m -0,2 C -5,3 C 22,5 km/h (4 Bft) 100,00 %
05.03.2018 13:27 2,6 C 3,3 C 82 % 999,3 hPa 0,0 l/m 17,8 km/h (3 Bft) O 81 1 min 0,000 mm 1,1 UV-I 379 W/m -0,2 C -5,3 C 20,9 km/h (4 Bft) 100,00 %
05.03.2018 13:28 2,6 C 3,3 C 81 % 999,2 hPa 0,0 l/m 19,8 km/h (3 Bft) O-NO 57 1 min 0,000 mm 1,1 UV-I 386 W/m -0,3 C -6,2 C 22,5 km/h (4 Bft) 97,62 %
05.03.2018 13:29 2,6 C 3,3 C 81 % 999,2 hPa 0,0 l/m 15,0 km/h (3 Bft) O-NO 59 1 min 0,000 mm 1,1 UV-I 395 W/m -0,3 C -3,8 C 19,3 km/h (3 Bft) 100,00 %
05.03.2018 13:30 2,6 C 3,3 C 81 % 999,2 hPa 0,0 l/m 16,6 km/h (3 Bft) O-NO 78 1 min 0,000 mm 1,1 UV-I 396 W/m -0,3 C -4,7 C 20,9 km/h (4 Bft) 100,00 %
05.03.2018 13:31 2,6 C 3,3 C 81 % 999,2 hPa 0,0 l/m 14,3 km/h (3 Bft) O 94 1 min 0,000 mm 1,1 UV-I 404 W/m -0,3 C -3,4 C 17,7 km/h (3 Bft) 100,00 %
05.03.2018 13:32 2,7 C 3,3 C 82 % 999,2 hPa 0,0 l/m 13,9 km/h (3 Bft) O-NO 57 1 min 0,000 mm 1,1 UV-I 406 W/m -0,1 C -3,1 C 17,7 km/h (3 Bft) 96,30 %
05.03.2018 13:33 2,7 C 3,3 C 81 % 999,2 hPa 0,0 l/m 14,4 km/h (3 Bft) O-NO 59 1 min 0,000 mm 1,1 UV-I 406 W/m -0,2 C -3,4 C 20,9 km/h (4 Bft) 100,00 %
05.03.2018 13:34 2,7 C 3,3 C 81 % 999,1 hPa 0,0 l/m 16,2 km/h (3 Bft) O 88 1 min 0,000 mm 1,1 UV-I 401 W/m -0,2 C -4,4 C 19,3 km/h (3 Bft) 100,00 %
05.03.2018 13:35 2,7 C 3,3 C 81 % 999,1 hPa 0,0 l/m 15,0 km/h (3 Bft) O-NO 67 1 min 0,000 mm 1,1 UV-I 387 W/m -0,2 C -3,7 C 17,7 km/h (3 Bft) 100,00 %
05.03.2018 13:36 2,7 C 3,3 C 81 % 999,1 hPa 0,0 l/m 13,0 km/h (3 Bft) O 94 1 min 0,000 mm 1,1 UV-I 390 W/m -0,2 C -2,5 C 17,7 km/h (3 Bft) 96,30 %
05.03.2018 13:37 2,7 C 3,3 C 81 % 999,1 hPa 0,0 l/m 15,3 km/h (3 Bft) O 80 1 min 0,000 mm 1,1 UV-I 394 W/m -0,2 C -3,9 C 19,3 km/h (3 Bft) 100,00 %
05.03.2018 13:38 2,8 C 3,3 C 81 % 999,1 hPa 0,0 l/m 16,7 km/h (3 Bft) O-NO 65 1 min 0,000 mm 1,1 UV-I 375 W/m -0,1 C -4,5 C 20,9 km/h (4 Bft) 100,00 %
05.03.2018 13:39 2,8 C 3,3 C 81 % 999,1 hPa 0,0 l/m 17,7 km/h (3 Bft) NO 47 1 min 0,000 mm 1,1 UV-I 379 W/m -0,1 C -5,0 C 24,1 km/h (4 Bft) 100,00 %
05.03.2018 13:40 2,8 C 3,3 C 81 % 999,0 hPa 0,0 l/m 16,8 km/h (3 Bft) O 90 1 min 0,000 mm 1,1 UV-I 370 W/m -0,1 C -4,5 C 20,9 km/h (4 Bft) 96,15 %
05.03.2018 13:41 2,8 C 3,3 C 81 % 999,0 hPa 0,0 l/m 20,7 km/h (4 Bft) O-NO 69 1 min 0,000 mm 1,1 UV-I 362 W/m -0,1 C -6,3 C 24,1 km/h (4 Bft) 100,00 %
05.03.2018 13:42 2,8 C 3,3 C 81 % 999,0 hPa 0,0 l/m 17,9 km/h (3 Bft) O 80 1 min 0,000 mm 1,0 UV-I 358 W/m -0,1 C -5,1 C 22,5 km/h (4 Bft) 100,00 %
05.03.2018 13:43 2,8 C 3,3 C 81 % 998,9 hPa 0,0 l/m 14,3 km/h (3 Bft) O 81 1 min 0,000 mm 1,0 UV-I 355 W/m -0,1 C -3,2 C 19,3 km/h (3 Bft) 96,30 %
05.03.2018 13:44 2,8 C 3,3 C 81 % 998,9 hPa 0,0 l/m 14,3 km/h (3 Bft) O-NO 71 1 min 0,000 mm 1,0 UV-I 353 W/m -0,1 C -3,2 C 19,3 km/h (3 Bft) 100,00 %
05.03.2018 13:45 2,8 C 3,3 C 81 % 998,9 hPa 0,0 l/m 20,5 km/h (4 Bft) O-NO 70 1 min 0,000 mm 1,0 UV-I 353 W/m -0,1 C -6,2 C 25,7 km/h (4 Bft) 100,00 %
05.03.2018 13:46 2,7 C 3,3 C 80 % 998,8 hPa 0,0 l/m 17,2 km/h (3 Bft) NO 42 1 min 0,000 mm 1,0 UV-I 352 W/m -0,4 C -4,9 C 24,1 km/h (4 Bft) 100,00 %
05.03.2018 13:47 2,7 C 3,3 C 80 % 998,8 hPa 0,0 l/m 12,0 km/h (2 Bft) O-NO 69 1 min 0,000 mm 1,0 UV-I 356 W/m -0,4 C -1,9 C 17,7 km/h (3 Bft) 100,00 %
05.03.2018 13:48 2,7 C 3,3 C 80 % 998,8 hPa 0,0 l/m 13,9 km/h (3 Bft) O-NO 72 1 min 0,000 mm 1,0 UV-I 344 W/m -0,4 C -3,1 C 19,3 km/h (3 Bft) 100,00 %
05.03.2018 13:49 2,7 C 3,3 C 81 % 998,8 hPa 0,0 l/m 10,8 km/h (2 Bft) NO 47 1 min 0,000 mm 1,0 UV-I 333 W/m -0,2 C -1,1 C 14,5 km/h (3 Bft) 100,00 %
05.03.2018 13:50 2,8 C 3,3 C 80 % 998,8 hPa 0,0 l/m 18,0 km/h (3 Bft) O-NO 77 1 min 0,000 mm 1,0 UV-I 325 W/m -0,3 C -5,1 C 25,7 km/h (4 Bft) 100,00 %
05.03.2018 13:51 2,7 C 3,3 C 81 % 998,8 hPa 0,0 l/m 18,0 km/h (3 Bft) O-NO 60 1 min 0,000 mm 1,0 UV-I 320 W/m -0,2 C -5,2 C 22,5 km/h (4 Bft) 100,00 %
05.03.2018 13:52 2,7 C 3,3 C 80 % 998,7 hPa 0,0 l/m 19,7 km/h (3 Bft) NO 49 1 min 0,000 mm 0,9 UV-I 315 W/m -0,4 C -6,0 C 27,4 km/h (4 Bft) 100,00 %
05.03.2018 13:53 2,7 C 3,3 C 80 % 998,7 hPa 0,0 l/m 15,4 km/h (3 Bft) O-NO 71 1 min 0,000 mm 0,9 UV-I 311 W/m -0,4 C -3,9 C 22,5 km/h (4 Bft) 100,00 %
05.03.2018 13:54 2,7 C 3,3 C 80 % 998,7 hPa 0,0 l/m 15,4 km/h (3 Bft) NO 54 1 min 0,000 mm 0,9 UV-I 305 W/m -0,4 C -3,9 C 22,5 km/h (4 Bft) 100,00 %
05.03.2018 13:55 2,6 C 3,3 C 80 % 998,7 hPa 0,0 l/m 19,4 km/h (3 Bft) O-NO 63 1 min 0,000 mm 0,9 UV-I 300 W/m -0,5 C -6,0 C 25,7 km/h (4 Bft) 100,00 %
05.03.2018 13:56 2,7 C 3,3 C 81 % 998,7 hPa 0,0 l/m 22,3 km/h (4 Bft) O-NO 69 1 min 0,000 mm 0,9 UV-I 294 W/m -0,2 C -7,1 C 29,0 km/h (5 Bft) 100,00 %
05.03.2018 13:57 2,6 C 3,3 C 81 % 998,7 hPa 0,0 l/m 19,3 km/h (3 Bft) O 84 0 min 0,000 mm 0,9 UV-I 286 W/m -0,3 C -6,0 C 25,7 km/h (4 Bft) 100,00 %
05.03.2018 13:58 2,6 C 3,3 C 80 % 998,7 hPa 0,0 l/m 17,2 km/h (3 Bft) NO 39 0 min 0,000 mm 0,8 UV-I 281 W/m -0,5 C -5,0 C 24,1 km/h (4 Bft) 100,00 %
05.03.2018 13:59 2,6 C 3,3 C 81 % 998,7 hPa 0,0 l/m 15,5 km/h (3 Bft) O-NO 71 0 min 0,000 mm 0,8 UV-I 279 W/m -0,3 C -4,1 C 20,9 km/h (4 Bft) 100,00 %
05.03.2018 14:00 2,6 C 3,3 C 81 % 998,7 hPa 0,0 l/m 15,2 km/h (3 Bft) O 82 0 min 0,153 mm 0,8 UV-I 278 W/m -0,3 C -3,9 C 20,9 km/h (4 Bft) 97,37 %
05.03.2018 14:01 2,7 C 3,3 C 81 % 998,7 hPa 0,0 l/m 14,8 km/h (3 Bft) O-NO 61 0 min 0,000 mm 0,8 UV-I 276 W/m -0,2 C -3,6 C 17,7 km/h (3 Bft) 96,30 %
05.03.2018 14:02 2,7 C 3,3 C 82 % 998,7 hPa 0,0 l/m 16,8 km/h (3 Bft) O-NO 58 0 min 0,000 mm 0,8 UV-I 274 W/m -0,1 C -4,7 C 19,3 km/h (3 Bft) 100,00 %
05.03.2018 14:05 2,6 C 3,3 C 81 % 998,6 hPa 0,0 l/m 18,3 km/h (3 Bft) O-NO 77 0 min 0,000 mm 0,8 UV-I 272 W/m -0,3 C -5,5 C 20,9 km/h (4 Bft) 98,77 %
05.03.2018 14:06 2,6 C 3,3 C 82 % 998,6 hPa 0,0 l/m 14,1 km/h (3 Bft) NO 47 0 min 0,000 mm 0,8 UV-I 271 W/m -0,2 C -3,3 C 17,7 km/h (3 Bft) 93,75 %
05.03.2018 14:07 2,6 C 3,3 C 82 % 998,6 hPa 0,0 l/m 15,9 km/h (3 Bft) O-NO 57 0 min 0,000 mm 0,8 UV-I 271 W/m -0,2 C -4,3 C 22,5 km/h (4 Bft) 100,00 %
05.03.2018 14:08 2,6 C 3,3 C 82 % 998,6 hPa 0,0 l/m 16,2 km/h (3 Bft) O-NO 70 0 min 0,000 mm 0,8 UV-I 269 W/m -0,2 C -4,5 C 20,9 km/h (4 Bft) 95,83 %
05.03.2018 14:09 2,6 C 3,3 C 81 % 998,6 hPa 0,0 l/m 17,8 km/h (3 Bft) NO 46 0 min 0,000 mm 0,8 UV-I 266 W/m -0,3 C -5,3 C 24,1 km/h (4 Bft) 95,65 %
05.03.2018 14:10 2,6 C 3,3 C 81 % 998,5 hPa 0,0 l/m 19,9 km/h (4 Bft) NO 37 0 min 0,000 mm 0,8 UV-I 262 W/m -0,3 C -6,2 C 24,1 km/h (4 Bft) 100,00 %
05.03.2018 14:11 2,6 C 3,3 C 82 % 998,4 hPa 0,0 l/m 16,8 km/h (3 Bft) NO 51 0 min 0,000 mm 0,7 UV-I 260 W/m -0,2 C -4,8 C 22,5 km/h (4 Bft) 93,10 %
05.03.2018 14:12 2,6 C 3,3 C 82 % 998,4 hPa 0,0 l/m 18,2 km/h (3 Bft) NO 40 0 min 0,000 mm 0,7 UV-I 258 W/m -0,2 C -5,5 C 22,5 km/h (4 Bft) 100,00 %
05.03.2018 14:13 2,6 C 3,3 C 82 % 998,5 hPa 0,0 l/m 19,3 km/h (3 Bft) O-NO 63 0 min 0,000 mm 0,7 UV-I 253 W/m -0,2 C -6,0 C 22,5 km/h (4 Bft) 96,15 %
05.03.2018 14:14 2,7 C 3,3 C 82 % 998,4 hPa 0,0 l/m 15,3 km/h (3 Bft) NO 51 0 min 0,000 mm 0,7 UV-I 253 W/m -0,1 C -3,9 C 20,9 km/h (4 Bft) 100,00 %
05.03.2018 14:15 2,6 C 3,3 C 82 % 998,4 hPa 0,0 l/m 16,9 km/h (3 Bft) NO 44 0 min 0,000 mm 0,7 UV-I 253 W/m -0,2 C -4,8 C 20,9 km/h (4 Bft) 91,30 %
05.03.2018 14:16 2,6 C 3,3 C 81 % 998,4 hPa 0,0 l/m 13,9 km/h (3 Bft) O-NO 65 0 min 0,000 mm 0,7 UV-I 254 W/m -0,3 C -3,2 C 19,3 km/h (3 Bft) 100,00 %
05.03.2018 14:17 2,7 C 3,3 C 82 % 998,4 hPa 0,0 l/m 15,2 km/h (3 Bft) O-NO 65 0 min 0,000 mm 0,7 UV-I 255 W/m -0,1 C -3,8 C 19,3 km/h (3 Bft) 96,30 %
05.03.2018 14:18 2,7 C 3,3 C 81 % 998,4 hPa 0,0 l/m 15,6 km/h (3 Bft) O-NO 76 0 min 0,000 mm 0,7 UV-I 257 W/m -0,2 C -4,0 C 17,7 km/h (3 Bft) 95,65 %
05.03.2018 14:19 2,7 C 3,3 C 82 % 998,4 hPa 0,0 l/m 17,0 km/h (3 Bft) O-NO 76 0 min 0,000 mm 0,7 UV-I 257 W/m -0,1 C -4,8 C 22,5 km/h (4 Bft) 100,00 %
05.03.2018 14:20 2,7 C 3,3 C 81 % 998,3 hPa 0,0 l/m 17,0 km/h (3 Bft) O-NO 61 0 min 0,000 mm 0,7 UV-I 258 W/m -0,2 C -4,8 C 20,9 km/h (4 Bft) 95,65 %
05.03.2018 14:21 2,7 C 3,3 C 81 % 998,4 hPa 0,0 l/m 16,6 km/h (3 Bft) O-NO 70 0 min 0,000 mm 0,7 UV-I 258 W/m -0,2 C -4,6 C 22,5 km/h (4 Bft) 100,00 %
05.03.2018 14:22 2,7 C 3,3 C 81 % 998,4 hPa 0,0 l/m 16,0 km/h (3 Bft) O-NO 57 0 min 0,000 mm 0,7 UV-I 258 W/m -0,2 C -4,2 C 20,9 km/h (4 Bft) 95,65 %
05.03.2018 14:23 2,7 C 3,3 C 81 % 998,3 hPa 0,0 l/m 16,6 km/h (3 Bft) O-NO 60 0 min 0,000 mm 0,7 UV-I 257 W/m -0,2 C -4,6 C 20,9 km/h (4 Bft) 100,00 %
05.03.2018 14:24 2,7 C 3,3 C 81 % 998,3 hPa 0,0 l/m 18,0 km/h (3 Bft) O-NO 75 0 min 0,000 mm 0,7 UV-I 257 W/m -0,2 C -5,2 C 22,5 km/h (4 Bft) 92,86 %
05.03.2018 14:25 2,7 C 3,3 C 81 % 998,3 hPa 0,0 l/m 14,9 km/h (3 Bft) NO 46 0 min 0,000 mm 0,7 UV-I 255 W/m -0,2 C -3,7 C 20,9 km/h (4 Bft) 96,30 %
05.03.2018 14:26 2,7 C 3,3 C 81 % 998,3 hPa 0,0 l/m 13,5 km/h (3 Bft) O 85 0 min 0,000 mm 0,7 UV-I 253 W/m -0,2 C -2,8 C 16,1 km/h (3 Bft) 96,15 %
05.03.2018 14:27 2,7 C 3,3 C 81 % 998,3 hPa 0,0 l/m 16,1 km/h (3 Bft) O-NO 66 0 min 0,000 mm 0,7 UV-I 251 W/m -0,2 C -4,3 C 22,5 km/h (4 Bft) 96,67 %
05.03.2018 14:28 2,7 C 3,3 C 81 % 998,3 hPa 0,0 l/m 15,6 km/h (3 Bft) O-NO 68 0 min 0,000 mm 0,7 UV-I 248 W/m -0,2 C -4,0 C 17,7 km/h (3 Bft) 90,91 %
05.03.2018 14:29 2,7 C 3,3 C 81 % 998,2 hPa 0,0 l/m 13,4 km/h (3 Bft) O 94 0 min 0,000 mm 0,7 UV-I 246 W/m -0,2 C -2,8 C 20,9 km/h (4 Bft) 96,30 %
05.03.2018 14:30 2,7 C 3,3 C 81 % 998,2 hPa 0,0 l/m 17,7 km/h (3 Bft) O 96 0 min 0,000 mm 0,6 UV-I 242 W/m -0,2 C -5,1 C 20,9 km/h (4 Bft) 100,00 %
05.03.2018 14:31 2,7 C 3,3 C 81 % 998,2 hPa 0,0 l/m 16,6 km/h (3 Bft) O 91 0 min 0,000 mm 0,6 UV-I 238 W/m -0,2 C -4,6 C 20,9 km/h (4 Bft) 93,33 %
05.03.2018 14:32 2,8 C 3,3 C 81 % 998,2 hPa 0,0 l/m 13,9 km/h (3 Bft) NO 44 0 min 0,000 mm 0,6 UV-I 235 W/m -0,1 C -3,0 C 17,7 km/h (3 Bft) 100,00 %
05.03.2018 14:33 2,7 C 3,3 C 81 % 998,3 hPa 0,0 l/m 12,7 km/h (3 Bft) O-NO 71 0 min 0,000 mm 0,6 UV-I 231 W/m -0,2 C -2,3 C 20,9 km/h (4 Bft) 97,56 %
05.03.2018 14:34 2,7 C 3,3 C 81 % 998,3 hPa 0,0 l/m 12,9 km/h (3 Bft) O-NO 66 0 min 0,000 mm 0,6 UV-I 226 W/m -0,2 C -2,5 C 17,7 km/h (3 Bft) 100,00 %
05.03.2018 14:35 2,7 C 3,3 C 81 % 998,2 hPa 0,0 l/m 14,8 km/h (3 Bft) O-NO 60 0 min 0,000 mm 0,6 UV-I 224 W/m -0,2 C -3,6 C 17,7 km/h (3 Bft) 95,83 %
05.03.2018 14:36 2,7 C 3,3 C 81 % 998,2 hPa 0,0 l/m 14,5 km/h (3 Bft) O-NO 69 0 min 0,000 mm 0,6 UV-I 221 W/m -0,2 C -3,4 C 17,7 km/h (3 Bft) 96,15 %
05.03.2018 14:37 2,7 C 3,3 C 81 % 998,2 hPa 0,0 l/m 11,7 km/h (2 Bft) O-NO 58 0 min 0,000 mm 0,6 UV-I 220 W/m -0,2 C -1,7 C 16,1 km/h (3 Bft) 100,00 %
05.03.2018 14:38 2,8 C 3,3 C 82 % 998,2 hPa 0,0 l/m 17,6 km/h (3 Bft) NO 48 0 min 0,000 mm 0,6 UV-I 218 W/m 0,0 C -4,9 C 20,9 km/h (4 Bft) 100,00 %
05.03.2018 14:39 2,8 C 3,3 C 82 % 998,2 hPa 0,0 l/m 16,3 km/h (3 Bft) O-NO 59 0 min 0,000 mm 0,6 UV-I 218 W/m 0,0 C -4,3 C 19,3 km/h (3 Bft) 100,00 %
05.03.2018 14:40 2,8 C 3,3 C 81 % 998,2 hPa 0,0 l/m 13,5 km/h (3 Bft) N-NO 30 0 min 0,000 mm 0,6 UV-I 218 W/m -0,1 C -2,7 C 17,7 km/h (3 Bft) 91,67 %
05.03.2018 14:41 2,8 C 3,3 C 82 % 998,2 hPa 0,0 l/m 11,3 km/h (2 Bft) O-NO 76 0 min 0,000 mm 0,6 UV-I 220 W/m 0,0 C -1,3 C 16,1 km/h (3 Bft) 100,00 %
05.03.2018 14:42 2,8 C 3,3 C 82 % 998,2 hPa 0,0 l/m 12,9 km/h (3 Bft) O-NO 64 0 min 0,000 mm 0,6 UV-I 220 W/m 0,0 C -2,4 C 16,1 km/h (3 Bft) 100,00 %
05.03.2018 14:43 2,8 C 3,3 C 81 % 998,2 hPa 0,0 l/m 16,1 km/h (3 Bft) O-NO 76 0 min 0,000 mm 0,6 UV-I 220 W/m -0,1 C -4,2 C 20,9 km/h (4 Bft) 100,00 %
05.03.2018 14:44 2,8 C 3,3 C 82 % 998,2 hPa 0,0 l/m 14,2 km/h (3 Bft) O-NO 73 0 min 0,000 mm 0,6 UV-I 219 W/m 0,0 C -3,1 C 17,7 km/h (3 Bft) 100,00 %
05.03.2018 14:45 2,8 C 3,3 C 82 % 998,2 hPa 0,0 l/m 17,8 km/h (3 Bft) O 83 0 min 0,000 mm 0,6 UV-I 218 W/m 0,0 C -5,0 C 24,1 km/h (4 Bft) 100,00 %
05.03.2018 14:46 2,8 C 3,3 C 81 % 998,1 hPa 0,0 l/m 21,4 km/h (4 Bft) O-NO 65 0 min 0,000 mm 0,6 UV-I 218 W/m -0,1 C -6,6 C 25,7 km/h (4 Bft) 100,00 %
05.03.2018 14:47 2,8 C 3,3 C 81 % 998,1 hPa 0,0 l/m 17,4 km/h (3 Bft) O-NO 74 0 min 0,000 mm 0,6 UV-I 218 W/m -0,1 C -4,8 C 20,9 km/h (4 Bft) 100,00 %
05.03.2018 14:48 2,8 C 3,3 C 82 % 998,1 hPa 0,0 l/m 17,4 km/h (3 Bft) O-NO 71 0 min 0,000 mm 0,6 UV-I 218 W/m 0,0 C -4,8 C 20,9 km/h (4 Bft) 100,00 %
05.03.2018 14:49 2,8 C 3,3 C 82 % 998,1 hPa 0,0 l/m 14,1 km/h (3 Bft) O 94 0 min 0,000 mm 0,5 UV-I 220 W/m 0,0 C -3,1 C 19,3 km/h (3 Bft) 100,00 %
05.03.2018 14:50 2,8 C 3,3 C 82 % 998,1 hPa 0,0 l/m 14,4 km/h (3 Bft) O 96 0 min 0,000 mm 0,5 UV-I 220 W/m 0,0 C -3,3 C 19,3 km/h (3 Bft) 100,00 %
05.03.2018 14:51 2,8 C 3,3 C 82 % 998,1 hPa 0,0 l/m 15,0 km/h (3 Bft) O-NO 62 0 min 0,000 mm 0,5 UV-I 217 W/m 0,0 C -3,6 C 19,3 km/h (3 Bft) 100,00 %
05.03.2018 14:52 2,8 C 3,3 C 82 % 998,1 hPa 0,0 l/m 12,7 km/h (3 Bft) O 79 0 min 0,000 mm 0,5 UV-I 211 W/m 0,0 C -2,2 C 19,3 km/h (3 Bft) 100,00 %
05.03.2018 14:53 2,8 C 3,3 C 83 % 998,0 hPa 0,0 l/m 15,6 km/h (3 Bft) O-NO 66 0 min 0,000 mm 0,5 UV-I 203 W/m 0,2 C -3,9 C 17,7 km/h (3 Bft) 100,00 %
05.03.2018 14:54 2,8 C 3,3 C 83 % 998,1 hPa 0,0 l/m 15,0 km/h (3 Bft) O-NO 68 0 min 0,000 mm 0,5 UV-I 199 W/m 0,2 C -3,6 C 19,3 km/h (3 Bft) 100,00 %
05.03.2018 14:55 2,8 C 3,3 C 83 % 998,0 hPa 0,0 l/m 13,5 km/h (3 Bft) NO 42 0 min 0,000 mm 0,5 UV-I 199 W/m 0,2 C -2,7 C 17,7 km/h (3 Bft) 100,00 %
05.03.2018 14:56 2,8 C 3,3 C 83 % 998,0 hPa 0,0 l/m 13,8 km/h (3 Bft) O-NO 59 0 min 0,000 mm 0,5 UV-I 197 W/m 0,2 C -2,9 C 17,7 km/h (3 Bft) 100,00 %
05.03.2018 14:57 2,8 C 3,3 C 83 % 998,0 hPa 0,0 l/m 11,3 km/h (2 Bft) O-NO 73 0 min 0,000 mm 0,5 UV-I 197 W/m 0,2 C -1,3 C 16,1 km/h (3 Bft) 100,00 %
05.03.2018 14:58 2,8 C 3,3 C 83 % 998,0 hPa 0,0 l/m 12,4 km/h (3 Bft) O-NO 62 0 min 0,000 mm 0,5 UV-I 197 W/m 0,2 C -2,0 C 16,1 km/h (3 Bft) 92,00 %
05.03.2018 14:59 2,8 C 3,3 C 83 % 998,0 hPa 0,0 l/m 13,5 km/h (3 Bft) O-NO 72 0 min 0,000 mm 0,5 UV-I 191 W/m 0,2 C -2,7 C 17,7 km/h (3 Bft) 100,00 %
05.03.2018 15:00 2,8 C 3,3 C 84 % 998,0 hPa 0,0 l/m 17,5 km/h (3 Bft) NO 47 0 min 0,000 mm 0,5 UV-I 183 W/m 0,4 C -4,9 C 20,9 km/h (4 Bft) 100,00 %
05.03.2018 15:01 2,8 C 3,3 C 83 % 998,0 hPa 0,0 l/m 14,4 km/h (3 Bft) O-NO 69 0 min 0,101 mm 0,5 UV-I 178 W/m 0,2 C -3,3 C 24,1 km/h (4 Bft) 100,00 %
05.03.2018 15:02 2,8 C 3,3 C 83 % 998,0 hPa 0,0 l/m 18,5 km/h (3 Bft) O-NO 59 0 min 0,000 mm 0,5 UV-I 172 W/m 0,2 C -5,4 C 22,5 km/h (4 Bft) 100,00 %
05.03.2018 15:03 2,8 C 3,3 C 84 % 997,9 hPa 0,0 l/m 16,3 km/h (3 Bft) NO 42 0 min 0,000 mm 0,5 UV-I 167 W/m 0,4 C -4,3 C 19,3 km/h (3 Bft) 100,00 %
05.03.2018 15:04 2,8 C 3,3 C 83 % 997,9 hPa 0,0 l/m 16,0 km/h (3 Bft) O 93 0 min 0,000 mm 0,5 UV-I 163 W/m 0,2 C -4,1 C 22,5 km/h (4 Bft) 100,00 %
05.03.2018 15:05 2,8 C 3,3 C 83 % 997,9 hPa 0,0 l/m 19,8 km/h (3 Bft) O-NO 63 0 min 0,000 mm 0,5 UV-I 163 W/m 0,2 C -5,9 C 25,7 km/h (4 Bft) 100,00 %
05.03.2018 15:06 2,7 C 3,3 C 83 % 997,9 hPa 0,0 l/m 16,1 km/h (3 Bft) O-NO 66 0 min 0,000 mm 0,5 UV-I 170 W/m 0,1 C -4,3 C 17,7 km/h (3 Bft) 100,00 %
05.03.2018 15:07 2,7 C 3,3 C 83 % 997,8 hPa 0,0 l/m 17,0 km/h (3 Bft) O 80 0 min 0,000 mm 0,5 UV-I 176 W/m 0,1 C -4,8 C 19,3 km/h (3 Bft) 100,00 %
05.03.2018 15:08 2,6 C 3,3 C 83 % 997,8 hPa 0,0 l/m 13,4 km/h (3 Bft) O 87 0 min 0,000 mm 0,5 UV-I 180 W/m 0,0 C -2,9 C 19,3 km/h (3 Bft) 93,33 %
05.03.2018 15:09 2,6 C 3,3 C 83 % 997,8 hPa 0,0 l/m 13,3 km/h (3 Bft) NO 53 0 min 0,000 mm 0,5 UV-I 186 W/m 0,0 C -2,8 C 17,7 km/h (3 Bft) 100,00 %
05.03.2018 15:10 2,6 C 3,3 C 84 % 997,8 hPa 0,0 l/m 14,7 km/h (3 Bft) O-NO 59 0 min 0,000 mm 0,5 UV-I 187 W/m 0,2 C -3,7 C 19,3 km/h (3 Bft) 100,00 %
05.03.2018 15:11 2,6 C 3,3 C 84 % 997,8 hPa 0,0 l/m 16,8 km/h (3 Bft) O 92 0 min 0,000 mm 0,5 UV-I 182 W/m 0,2 C -4,8 C 20,9 km/h (4 Bft) 100,00 %
05.03.2018 15:12 2,5 C 3,3 C 83 % 997,7 hPa 0,0 l/m 17,5 km/h (3 Bft) O-NO 60 0 min 0,000 mm 0,5 UV-I 177 W/m -0,1 C -5,3 C 22,5 km/h (4 Bft) 96,55 %
05.03.2018 15:13 2,5 C 3,3 C 83 % 997,7 hPa 0,0 l/m 19,0 km/h (3 Bft) O-NO 76 0 min 0,000 mm 0,5 UV-I 174 W/m -0,1 C -6,0 C 25,7 km/h (4 Bft) 100,00 %
05.03.2018 15:14 2,4 C 3,3 C 83 % 997,7 hPa 0,0 l/m 18,8 km/h (3 Bft) O-NO 70 0 min 0,000 mm 0,5 UV-I 178 W/m -0,2 C -6,0 C 22,5 km/h (4 Bft) 98,45 %
05.03.2018 15:15 2,4 C 3,3 C 84 % 997,7 hPa 0,0 l/m 16,9 km/h (3 Bft) O-NO 70 0 min 0,000 mm 0,5 UV-I 197 W/m -0,0 C -5,1 C 22,5 km/h (4 Bft) 97,56 %
05.03.2018 15:16 2,4 C 3,3 C 84 % 997,6 hPa 0,0 l/m 17,6 km/h (3 Bft) O-NO 64 1 min 0,000 mm 0,5 UV-I 219 W/m -0,0 C -5,4 C 22,5 km/h (4 Bft) 100,00 %
05.03.2018 15:17 2,4 C 3,3 C 84 % 997,6 hPa 0,0 l/m 14,9 km/h (3 Bft) O 84 1 min 0,000 mm 0,5 UV-I 246 W/m -0,0 C -4,0 C 19,3 km/h (3 Bft) 100,00 %
05.03.2018 15:18 2,4 C 3,3 C 84 % 997,6 hPa 0,0 l/m 17,4 km/h (3 Bft) O-NO 74 1 min 0,000 mm 0,5 UV-I 273 W/m -0,0 C -5,3 C 20,9 km/h (4 Bft) 100,00 %
05.03.2018 15:19 2,4 C 3,3 C 84 % 997,5 hPa 0,0 l/m 17,5 km/h (3 Bft) O-NO 63 1 min 0,000 mm 0,5 UV-I 280 W/m -0,0 C -5,4 C 20,9 km/h (4 Bft) 100,00 %
05.03.2018 15:20 2,4 C 3,3 C 84 % 997,5 hPa 0,0 l/m 20,4 km/h (4 Bft) O-NO 63 1 min 0,000 mm 0,5 UV-I 293 W/m -0,0 C -6,7 C 25,7 km/h (4 Bft) 100,00 %
05.03.2018 15:21 2,4 C 3,3 C 84 % 997,5 hPa 0,0 l/m 20,8 km/h (4 Bft) O-NO 77 1 min 0,000 mm 0,5 UV-I 293 W/m -0,0 C -6,9 C 24,1 km/h (4 Bft) 100,00 %
05.03.2018 15:22 2,4 C 3,3 C 84 % 997,5 hPa 0,0 l/m 16,0 km/h (3 Bft) O-NO 62 1 min 0,000 mm 0,5 UV-I 266 W/m -0,0 C -4,6 C 20,9 km/h (4 Bft) 96,67 %
05.03.2018 15:23 2,4 C 3,3 C 84 % 997,5 hPa 0,0 l/m 18,3 km/h (3 Bft) O 82 1 min 0,000 mm 0,5 UV-I 260 W/m -0,0 C -5,8 C 24,1 km/h (4 Bft) 100,00 %
05.03.2018 15:24 2,4 C 3,3 C 84 % 997,5 hPa 0,0 l/m 20,2 km/h (4 Bft) O 85 1 min 0,000 mm 0,5 UV-I 262 W/m -0,0 C -6,6 C 24,1 km/h (4 Bft) 100,00 %
05.03.2018 15:25 2,4 C 3,3 C 84 % 997,5 hPa 0,0 l/m 19,2 km/h (3 Bft) O 86 1 min 0,000 mm 0,5 UV-I 248 W/m -0,0 C -6,2 C 24,1 km/h (4 Bft) 100,00 %
05.03.2018 15:26 2,4 C 3,3 C 84 % 997,5 hPa 0,0 l/m 20,2 km/h (4 Bft) O-NO 72 1 min 0,000 mm 0,5 UV-I 216 W/m -0,0 C -6,6 C 25,7 km/h (4 Bft) 100,00 %
05.03.2018 15:27 2,4 C 3,3 C 83 % 997,5 hPa 0,0 l/m 23,0 km/h (4 Bft) O-NO 61 0 min 0,000 mm 0,5 UV-I 193 W/m -0,2 C -7,7 C 30,6 km/h (5 Bft) 100,00 %
05.03.2018 15:28 2,4 C 3,3 C 83 % 997,5 hPa 0,0 l/m 21,7 km/h (4 Bft) O-NO 72 0 min 0,000 mm 0,2 UV-I 184 W/m -0,2 C -7,2 C 24,1 km/h (4 Bft) 100,00 %
05.03.2018 15:29 2,3 C 3,3 C 83 % 997,4 hPa 0,0 l/m 20,8 km/h (4 Bft) O 80 0 min 0,000 mm 0,0 UV-I 190 W/m -0,3 C -7,0 C 24,1 km/h (4 Bft) 100,00 %
05.03.2018 15:30 2,3 C 3,3 C 83 % 997,4 hPa 0,0 l/m 18,5 km/h (3 Bft) O-NO 76 1 min 0,000 mm 0,0 UV-I 203 W/m -0,3 C -6,0 C 24,1 km/h (4 Bft) 100,00 %
05.03.2018 15:31 2,3 C 3,3 C 83 % 997,4 hPa 0,0 l/m 19,1 km/h (3 Bft) NO 38 1 min 0,000 mm 0,0 UV-I 210 W/m -0,3 C -6,3 C 25,7 km/h (4 Bft) 100,00 %
05.03.2018 15:32 2,3 C 3,3 C 84 % 997,4 hPa 0,0 l/m 21,2 km/h (4 Bft) O-NO 68 1 min 0,000 mm 0,0 UV-I 203 W/m -0,1 C -7,2 C 25,7 km/h (4 Bft) 100,00 %
05.03.2018 15:33 2,3 C 3,3 C 83 % 997,4 hPa 0,0 l/m 22,4 km/h (4 Bft) O-NO 67 1 min 0,000 mm 0,0 UV-I 216 W/m -0,3 C -7,6 C 27,4 km/h (4 Bft) 100,00 %
05.03.2018 15:34 2,3 C 3,3 C 83 % 997,3 hPa 0,0 l/m 25,2 km/h (4 Bft) O 89 1 min 0,000 mm 0,0 UV-I 231 W/m -0,3 C -8,7 C 29,0 km/h (5 Bft) 100,00 %
05.03.2018 15:35 2,3 C 3,3 C 83 % 997,3 hPa 0,0 l/m 22,8 km/h (4 Bft) O-NO 62 1 min 0,000 mm 0,0 UV-I 241 W/m -0,3 C -7,8 C 27,4 km/h (4 Bft) 100,00 %
05.03.2018 15:36 2,3 C 3,3 C 83 % 997,3 hPa 0,0 l/m 20,9 km/h (4 Bft) O 84 1 min 0,000 mm 0,4 UV-I 248 W/m -0,3 C -7,0 C 25,7 km/h (4 Bft) 100,00 %
05.03.2018 15:37 2,3 C 3,3 C 83 % 997,3 hPa 0,0 l/m 20,9 km/h (4 Bft) O-NO 77 1 min 0,000 mm 0,5 UV-I 255 W/m -0,3 C -7,0 C 25,7 km/h (4 Bft) 93,33 %
05.03.2018 15:38 2,3 C 3,3 C 83 % 997,3 hPa 0,0 l/m 22,0 km/h (4 Bft) O-NO 77 1 min 0,000 mm 0,3 UV-I 240 W/m -0,3 C -7,5 C 30,6 km/h (5 Bft) 100,00 %
05.03.2018 15:39 2,3 C 3,3 C 83 % 997,2 hPa 0,0 l/m 25,0 km/h (4 Bft) O 99 1 min 0,000 mm 0,0 UV-I 219 W/m -0,3 C -8,6 C 33,8 km/h (5 Bft) 100,00 %
05.03.2018 15:40 2,3 C 3,3 C 83 % 997,2 hPa 0,0 l/m 27,8 km/h (4 Bft) O-NO 69 1 min 0,000 mm 0,0 UV-I 225 W/m -0,3 C -9,5 C 35,4 km/h (5 Bft) 100,00 %
05.03.2018 15:41 2,3 C 3,3 C 83 % 997,2 hPa 0,0 l/m 25,3 km/h (4 Bft) O-NO 76 1 min 0,000 mm 0,0 UV-I 231 W/m -0,3 C -8,7 C 33,8 km/h (5 Bft) 100,00 %
05.03.2018 15:42 2,2 C 3,3 C 83 % 997,2 hPa 0,0 l/m 22,1 km/h (4 Bft) O-NO 59 1 min 0,000 mm 0,0 UV-I 257 W/m -0,4 C -7,7 C 27,4 km/h (4 Bft) 100,00 %
05.03.2018 15:43 2,2 C 3,3 C 83 % 997,2 hPa 0,0 l/m 20,8 km/h (4 Bft) O 100 1 min 0,000 mm 0,5 UV-I 275 W/m -0,4 C -7,1 C 25,7 km/h (4 Bft) 100,00 %
05.03.2018 15:44 2,3 C 3,3 C 83 % 997,2 hPa 0,0 l/m 23,4 km/h (4 Bft) O 82 1 min 0,000 mm 0,2 UV-I 274 W/m -0,3 C -8,0 C 29,0 km/h (5 Bft) 100,00 %
05.03.2018 15:45 2,2 C 3,3 C 83 % 997,1 hPa 0,0 l/m 21,2 km/h (4 Bft) O 92 1 min 0,000 mm 0,0 UV-I 266 W/m -0,4 C -7,3 C 29,0 km/h (5 Bft) 100,00 %
05.03.2018 15:46 2,2 C 3,3 C 83 % 997,1 hPa 0,0 l/m 23,1 km/h (4 Bft) O 88 1 min 0,000 mm 0,0 UV-I 276 W/m -0,4 C -8,0 C 29,0 km/h (5 Bft) 100,00 %
05.03.2018 15:47 2,3 C 3,3 C 83 % 997,1 hPa 0,0 l/m 19,5 km/h (3 Bft) O-NO 68 1 min 0,000 mm 0,0 UV-I 285 W/m -0,3 C -6,4 C 24,1 km/h (4 Bft) 100,00 %
05.03.2018 15:48 2,3 C 3,3 C 84 % 997,1 hPa 0,0 l/m 14,7 km/h (3 Bft) O 89 1 min 0,000 mm 0,0 UV-I 276 W/m -0,1 C -4,0 C 19,3 km/h (3 Bft) 100,00 %
05.03.2018 15:49 2,3 C 3,3 C 84 % 997,1 hPa 0,0 l/m 12,8 km/h (3 Bft) O 84 1 min 0,000 mm 0,0 UV-I 275 W/m -0,1 C -2,9 C 20,9 km/h (4 Bft) 95,83 %
05.03.2018 15:50 2,3 C 3,3 C 84 % 997,1 hPa 0,0 l/m 13,1 km/h (3 Bft) NO 55 1 min 0,000 mm 0,0 UV-I 276 W/m -0,1 C -3,1 C 16,1 km/h (3 Bft) 100,00 %
05.03.2018 15:51 2,4 C 3,3 C 84 % 997,1 hPa 0,0 l/m 14,3 km/h (3 Bft) O-NO 69 1 min 0,000 mm 0,0 UV-I 278 W/m -0,0 C -3,7 C 19,3 km/h (3 Bft) 100,00 %
05.03.2018 15:52 2,4 C 3,3 C 84 % 997,1 hPa 0,0 l/m 14,4 km/h (3 Bft) O 82 1 min 0,000 mm 0,0 UV-I 282 W/m -0,0 C -3,7 C 19,3 km/h (3 Bft) 100,00 %
05.03.2018 15:53 2,4 C 3,3 C 84 % 997,1 hPa 0,0 l/m 16,8 km/h (3 Bft) O-NO 68 1 min 0,000 mm 0,0 UV-I 275 W/m -0,0 C -5,0 C 22,5 km/h (4 Bft) 100,00 %
05.03.2018 15:54 2,5 C 3,3 C 84 % 997,1 hPa 0,0 l/m 18,5 km/h (3 Bft) O-NO 72 1 min 0,000 mm 0,0 UV-I 267 W/m 0,1 C -5,7 C 20,9 km/h (4 Bft) 100,00 %
05.03.2018 15:55 2,4 C 3,3 C 84 % 997,2 hPa 0,0 l/m 17,9 km/h (3 Bft) O 87 1 min 0,000 mm 0,0 UV-I 257 W/m -0,0 C -5,6 C 20,9 km/h (4 Bft) 100,00 %
05.03.2018 15:56 2,4 C 3,3 C 84 % 997,1 hPa 0,0 l/m 21,4 km/h (4 Bft) O-NO 67 1 min 0,000 mm 0,0 UV-I 250 W/m -0,0 C -7,1 C 25,7 km/h (4 Bft) 100,00 %
05.03.2018 15:57 2,4 C 3,3 C 84 % 997,1 hPa 0,0 l/m 21,8 km/h (4 Bft) O-NO 70 1 min 0,000 mm 0,0 UV-I 240 W/m -0,0 C -7,3 C 27,4 km/h (4 Bft) 91,30 %
05.03.2018 15:58 2,3 C 3,3 C 83 % 997,1 hPa 0,0 l/m 20,9 km/h (4 Bft) O-NO 64 1 min 0,000 mm 0,0 UV-I 220 W/m -0,3 C -7,0 C 25,7 km/h (4 Bft) 100,00 %
05.03.2018 15:59 2,3 C 3,3 C 84 % 997,0 hPa 0,0 l/m 21,2 km/h (4 Bft) O-NO 68 1 min 0,000 mm 0,0 UV-I 241 W/m -0,1 C -7,2 C 25,7 km/h (4 Bft) 100,00 %
05.03.2018 16:00 2,3 C 3,3 C 84 % 997,0 hPa 0,0 l/m 17,8 km/h (3 Bft) O-NO 57 1 min 0,000 mm 0,0 UV-I 239 W/m -0,1 C -5,7 C 22,5 km/h (4 Bft) 100,00 %
05.03.2018 16:01 2,3 C 3,3 C 84 % 997,0 hPa 0,0 l/m 24,5 km/h (4 Bft) NO 53 1 min 0,102 mm 0,0 UV-I 221 W/m -0,1 C -8,4 C 30,6 km/h (5 Bft) 96,88 %
05.03.2018 16:02 2,3 C 3,3 C 85 % 997,0 hPa 0,0 l/m 22,5 km/h (4 Bft) O-NO 65 1 min 0,000 mm 0,0 UV-I 219 W/m 0,0 C -7,7 C 27,4 km/h (4 Bft) 95,83 %
05.03.2018 16:03 2,3 C 3,3 C 84 % 997,0 hPa 0,0 l/m 17,4 km/h (3 Bft) O-NO 77 1 min 0,000 mm 0,0 UV-I 210 W/m -0,1 C -5,5 C 24,1 km/h (4 Bft) 100,00 %
05.03.2018 16:04 2,2 C 3,3 C 84 % 997,0 hPa 0,0 l/m 17,0 km/h (3 Bft) O-NO 64 1 min 0,000 mm 0,0 UV-I 197 W/m -0,2 C -5,4 C 25,7 km/h (4 Bft) 92,59 %
05.03.2018 16:05 2,1 C 3,3 C 84 % 997,0 hPa 0,0 l/m 21,0 km/h (4 Bft) O-NO 72 1 min 0,000 mm 0,0 UV-I 194 W/m -0,3 C -7,3 C 25,7 km/h (4 Bft) 92,86 %
05.03.2018 16:06 2,1 C 3,3 C 84 % 997,0 hPa 0,0 l/m 23,1 km/h (4 Bft) O-NO 72 1 min 0,000 mm 0,0 UV-I 201 W/m -0,3 C -8,2 C 27,4 km/h (4 Bft) 95,83 %
05.03.2018 16:07 2,1 C 3,3 C 84 % 997,0 hPa 0,0 l/m 22,9 km/h (4 Bft) O-NO 65 1 min 0,000 mm 0,0 UV-I 201 W/m -0,3 C -8,1 C 29,0 km/h (5 Bft) 100,00 %
05.03.2018 16:08 2,0 C 3,3 C 84 % 997,0 hPa 0,0 l/m 16,7 km/h (3 Bft) N-NO 17 1 min 0,000 mm 0,0 UV-I 198 W/m -0,4 C -5,5 C 19,3 km/h (3 Bft) 93,33 %
05.03.2018 16:09 1,9 C 3,3 C 84 % 997,0 hPa 0,0 l/m 18,0 km/h (3 Bft) NO 51 1 min 0,000 mm 0,0 UV-I 188 W/m -0,5 C -6,3 C 22,5 km/h (4 Bft) 94,74 %
05.03.2018 16:10 1,9 C 3,3 C 85 % 997,0 hPa 0,0 l/m 20,6 km/h (4 Bft) O 81 1 min 0,000 mm 0,0 UV-I 184 W/m -0,3 C -7,4 C 25,7 km/h (4 Bft) 100,00 %
05.03.2018 16:11 1,9 C 3,3 C 84 % 996,9 hPa 0,0 l/m 24,0 km/h (4 Bft) O-NO 71 1 min 0,000 mm 0,0 UV-I 170 W/m -0,5 C -8,8 C 29,0 km/h (5 Bft) 100,00 %
05.03.2018 16:12 1,9 C 3,3 C 84 % 996,9 hPa 0,0 l/m 25,0 km/h (4 Bft) O-NO 61 1 min 0,000 mm 0,0 UV-I 160 W/m -0,5 C -9,1 C 30,6 km/h (5 Bft) 92,31 %
05.03.2018 16:13 1,8 C 3,3 C 84 % 996,9 hPa 0,0 l/m 25,5 km/h (4 Bft) O-NO 66 1 min 0,000 mm 0,0 UV-I 150 W/m -0,6 C -9,5 C 30,6 km/h (5 Bft) 95,83 %
05.03.2018 16:14 1,8 C 3,3 C 84 % 996,9 hPa 0,0 l/m 24,9 km/h (4 Bft) O-NO 75 1 min 0,000 mm 0,0 UV-I 144 W/m -0,6 C -9,2 C 33,8 km/h (5 Bft) 95,65 %
05.03.2018 16:15 1,8 C 3,3 C 84 % 996,9 hPa 0,0 l/m 22,7 km/h (4 Bft) O 85 1 min 0,000 mm 0,0 UV-I 149 W/m -0,6 C -8,4 C 32,2 km/h (5 Bft) 95,83 %
05.03.2018 16:16 1,7 C 3,3 C 84 % 996,9 hPa 0,0 l/m 20,6 km/h (4 Bft) O 88 0 min 0,000 mm 0,0 UV-I 117 W/m -0,7 C -7,7 C 27,4 km/h (4 Bft) 96,15 %
05.03.2018 16:17 1,7 C 3,3 C 85 % 996,9 hPa 0,0 l/m 21,6 km/h (4 Bft) O 87 0 min 0,000 mm 0,0 UV-I 113 W/m -0,5 C -8,1 C 25,7 km/h (4 Bft) 95,83 %
05.03.2018 16:18 1,7 C 3,3 C 85 % 996,8 hPa 0,0 l/m 22,8 km/h (4 Bft) O-NO 62 0 min 0,000 mm 0,0 UV-I 116 W/m -0,5 C -8,6 C 29,0 km/h (5 Bft) 92,31 %
05.03.2018 16:19 1,7 C 3,3 C 85 % 996,8 hPa 0,0 l/m 18,3 km/h (3 Bft) O-NO 69 0 min 0,000 mm 0,0 UV-I 130 W/m -0,5 C -6,7 C 25,7 km/h (4 Bft) 100,00 %
05.03.2018 16:20 1,6 C 3,3 C 85 % 996,8 hPa 0,0 l/m 17,9 km/h (3 Bft) O 84 0 min 0,000 mm 0,0 UV-I 123 W/m -0,6 C -6,6 C 25,7 km/h (4 Bft) 92,31 %
05.03.2018 16:21 1,6 C 3,3 C 85 % 996,7 hPa 0,0 l/m 15,7 km/h (3 Bft) NO 46 0 min 0,000 mm 0,0 UV-I 117 W/m -0,6 C -5,4 C 20,9 km/h (4 Bft) 100,00 %
05.03.2018 16:22 1,6 C 3,3 C 85 % 996,7 hPa 0,0 l/m 19,2 km/h (3 Bft) NO 55 0 min 0,000 mm 0,0 UV-I 122 W/m -0,6 C -7,2 C 25,7 km/h (4 Bft) 91,30 %
05.03.2018 16:23 1,6 C 3,3 C 85 % 996,7 hPa 0,0 l/m 20,9 km/h (4 Bft) O-NO 67 0 min 0,000 mm 0,0 UV-I 104 W/m -0,6 C -8,0 C 25,7 km/h (4 Bft) 96,30 %
05.03.2018 16:24 1,6 C 3,3 C 85 % 996,7 hPa 0,0 l/m 20,9 km/h (4 Bft) O-NO 67 0 min 0,000 mm 0,0 UV-I 96 W/m -0,6 C -8,0 C 27,4 km/h (4 Bft) 92,31 %
05.03.2018 16:25 1,6 C 3,3 C 85 % 996,7 hPa 0,0 l/m 20,0 km/h (4 Bft) O-NO 74 0 min 0,000 mm 0,0 UV-I 108 W/m -0,6 C -7,6 C 30,6 km/h (5 Bft) 92,59 %
05.03.2018 16:26 1,5 C 3,3 C 85 % 996,6 hPa 0,0 l/m 22,6 km/h (4 Bft) O 94 0 min 0,000 mm 0,0 UV-I 123 W/m -0,7 C -8,8 C 25,7 km/h (4 Bft) 100,00 %
05.03.2018 16:27 1,5 C 3,3 C 85 % 996,6 hPa 0,0 l/m 16,9 km/h (3 Bft) O 92 1 min 0,000 mm 0,0 UV-I 144 W/m -0,7 C -6,2 C 20,9 km/h (4 Bft) 100,00 %
05.03.2018 16:28 1,5 C 3,3 C 85 % 996,6 hPa 0,0 l/m 17,6 km/h (3 Bft) O 93 1 min 0,000 mm 0,0 UV-I 155 W/m -0,7 C -6,6 C 22,5 km/h (4 Bft) 95,12 %
05.03.2018 16:29 1,5 C 3,3 C 86 % 996,6 hPa 0,0 l/m 19,6 km/h (3 Bft) O-NO 74 1 min 0,000 mm 0,0 UV-I 155 W/m -0,6 C -7,5 C 24,1 km/h (4 Bft) 91,67 %
05.03.2018 16:30 1,4 C 3,3 C 86 % 996,6 hPa 0,0 l/m 19,5 km/h (3 Bft) O-NO 64 1 min 0,000 mm 0,0 UV-I 149 W/m -0,7 C -7,6 C 24,1 km/h (4 Bft) 100,00 %
05.03.2018 16:31 1,4 C 3,3 C 86 % 996,6 hPa 0,0 l/m 19,1 km/h (3 Bft) O-NO 65 1 min 0,000 mm 0,0 UV-I 146 W/m -0,7 C -7,4 C 22,5 km/h (4 Bft) 91,67 %
05.03.2018 16:32 1,4 C 3,3 C 86 % 996,6 hPa 0,0 l/m 20,2 km/h (4 Bft) O 82 1 min 0,000 mm 0,0 UV-I 145 W/m -0,7 C -7,9 C 22,5 km/h (4 Bft) 100,00 %
05.03.2018 16:33 1,4 C 3,3 C 86 % 996,6 hPa 0,0 l/m 17,3 km/h (3 Bft) O-NO 77 1 min 0,000 mm 0,0 UV-I 138 W/m -0,7 C -6,5 C 20,9 km/h (4 Bft) 92,31 %
05.03.2018 16:34 1,4 C 3,3 C 86 % 996,6 hPa 0,0 l/m 16,1 km/h (3 Bft) O-SO 103 1 min 0,000 mm 0,0 UV-I 137 W/m -0,7 C -5,9 C 20,9 km/h (4 Bft) 96,30 %
05.03.2018 16:35 1,4 C 3,3 C 86 % 996,6 hPa 0,0 l/m 22,6 km/h (4 Bft) O-NO 69 1 min 0,000 mm 0,0 UV-I 129 W/m -0,7 C -8,9 C 27,4 km/h (4 Bft) 92,86 %
05.03.2018 16:36 1,4 C 3,3 C 86 % 996,6 hPa 0,0 l/m 20,0 km/h (4 Bft) O-NO 64 1 min 0,000 mm 0,0 UV-I 133 W/m -0,7 C -7,8 C 22,5 km/h (4 Bft) 96,30 %
05.03.2018 16:37 1,3 C 3,3 C 86 % 996,6 hPa 0,0 l/m 18,2 km/h (3 Bft) O-NO 70 1 min 0,000 mm 0,0 UV-I 128 W/m -0,8 C -7,1 C 27,4 km/h (4 Bft) 100,00 %
05.03.2018 16:38 1,3 C 3,3 C 86 % 996,6 hPa 0,0 l/m 17,8 km/h (3 Bft) O-NO 71 1 min 0,000 mm 0,0 UV-I 127 W/m -0,8 C -6,9 C 22,5 km/h (4 Bft) 93,33 %
05.03.2018 16:39 1,3 C 3,3 C 86 % 996,6 hPa 0,0 l/m 19,6 km/h (3 Bft) NO 55 1 min 0,000 mm 0,0 UV-I 125 W/m -0,8 C -7,8 C 22,5 km/h (4 Bft) 95,65 %
05.03.2018 16:40 1,3 C 3,3 C 86 % 996,6 hPa 0,0 l/m 21,2 km/h (4 Bft) O 82 1 min 0,000 mm 0,0 UV-I 121 W/m -0,8 C -8,5 C 25,7 km/h (4 Bft) 95,83 %
05.03.2018 16:41 1,2 C 3,3 C 86 % 996,6 hPa 0,0 l/m 23,5 km/h (4 Bft) O-NO 77 1 min 0,000 mm 0,0 UV-I 124 W/m -0,9 C -9,5 C 30,6 km/h (5 Bft) 100,00 %
05.03.2018 16:42 1,2 C 3,3 C 86 % 996,6 hPa 0,0 l/m 22,0 km/h (4 Bft) O-NO 70 1 min 0,000 mm 0,0 UV-I 122 W/m -0,9 C -8,9 C 32,2 km/h (5 Bft) 95,83 %
05.03.2018 16:43 1,2 C 3,3 C 86 % 996,6 hPa 0,0 l/m 21,4 km/h (4 Bft) O-NO 70 1 min 0,000 mm 0,0 UV-I 120 W/m -0,9 C -8,7 C 27,4 km/h (4 Bft) 96,55 %
05.03.2018 16:44 1,2 C 3,3 C 86 % 996,6 hPa 0,0 l/m 23,5 km/h (4 Bft) O 86 1 min 0,000 mm 0,0 UV-I 110 W/m -0,9 C -9,5 C 27,4 km/h (4 Bft) 100,00 %
05.03.2018 16:45 1,2 C 3,3 C 86 % 996,6 hPa 0,0 l/m 21,2 km/h (4 Bft) O-NO 73 1 min 0,000 mm 0,0 UV-I 107 W/m -0,9 C -8,6 C 29,0 km/h (5 Bft) 91,30 %
05.03.2018 16:46 1,2 C 3,3 C 86 % 996,6 hPa 0,0 l/m 19,3 km/h (3 Bft) O 88 0 min 0,000 mm 0,0 UV-I 97 W/m -0,9 C -7,8 C 27,4 km/h (4 Bft) 96,30 %
05.03.2018 16:47 1,1 C 3,3 C 86 % 996,6 hPa 0,0 l/m 23,9 km/h (4 Bft) O-NO 70 1 min 0,000 mm 0,0 UV-I 99 W/m -1,0 C -9,8 C 32,2 km/h (5 Bft) 92,86 %
05.03.2018 16:48 1,1 C 3,3 C 86 % 996,6 hPa 0,0 l/m 22,4 km/h (4 Bft) O-NO 75 1 min 0,000 mm 0,0 UV-I 101 W/m -1,0 C -9,2 C 27,4 km/h (4 Bft) 100,00 %
05.03.2018 16:49 1,1 C 3,3 C 86 % 996,6 hPa 0,0 l/m 21,6 km/h (4 Bft) O-NO 62 1 min 0,000 mm 0,0 UV-I 101 W/m -1,0 C -8,9 C 24,1 km/h (4 Bft) 96,15 %
05.03.2018 16:50 1,0 C 3,3 C 87 % 996,5 hPa 0,0 l/m 18,3 km/h (3 Bft) O-NO 69 1 min 0,000 mm 0,0 UV-I 99 W/m -0,9 C -7,5 C 22,5 km/h (4 Bft) 100,00 %
05.03.2018 16:51 1,0 C 3,3 C 86 % 996,5 hPa 0,0 l/m 19,4 km/h (3 Bft) O 84 1 min 0,000 mm 0,0 UV-I 98 W/m -1,1 C -8,1 C 25,7 km/h (4 Bft) 95,65 %
05.03.2018 16:52 0,9 C 3,3 C 87 % 996,5 hPa 0,0 l/m 20,2 km/h (4 Bft) O 88 1 min 0,000 mm 0,0 UV-I 96 W/m -1,0 C -8,6 C 24,1 km/h (4 Bft) 100,00 %
05.03.2018 16:53 0,9 C 3,3 C 87 % 996,5 hPa 0,0 l/m 19,4 km/h (3 Bft) O-NO 62 1 min 0,000 mm 0,0 UV-I 90 W/m -1,0 C -8,2 C 20,9 km/h (4 Bft) 93,10 %
05.03.2018 16:54 0,9 C 3,3 C 87 % 996,5 hPa 0,0 l/m 18,0 km/h (3 Bft) NO 42 1 min 0,000 mm 0,0 UV-I 86 W/m -1,0 C -7,5 C 22,5 km/h (4 Bft) 100,00 %
05.03.2018 16:55 0,9 C 3,3 C 87 % 996,5 hPa 0,0 l/m 18,4 km/h (3 Bft) O-NO 74 0 min 0,000 mm 0,0 UV-I 82 W/m -1,0 C -7,7 C 22,5 km/h (4 Bft) 95,83 %
05.03.2018 16:56 0,9 C 3,3 C 87 % 996,5 hPa 0,0 l/m 19,5 km/h (3 Bft) O-NO 71 0 min 0,000 mm 0,0 UV-I 72 W/m -1,0 C -8,2 C 24,1 km/h (4 Bft) 96,15 %
05.03.2018 16:57 0,9 C 3,3 C 87 % 996,4 hPa 0,0 l/m 22,3 km/h (4 Bft) O 90 0 min 0,000 mm 0,0 UV-I 69 W/m -1,0 C -9,5 C 25,7 km/h (4 Bft) 95,83 %
05.03.2018 16:58 0,8 C 3,3 C 87 % 996,5 hPa 0,0 l/m 25,3 km/h (4 Bft) O 79 0 min 0,000 mm 0,0 UV-I 69 W/m -1,1 C -10,7 C 32,2 km/h (5 Bft) 96,15 %
05.03.2018 16:59 0,8 C 3,3 C 87 % 996,5 hPa 0,0 l/m 22,4 km/h (4 Bft) O-NO 78 0 min 0,000 mm 0,0 UV-I 67 W/m -1,1 C -9,6 C 27,4 km/h (4 Bft) 100,00 %
05.03.2018 17:00 0,7 C 3,3 C 87 % 996,4 hPa 0,0 l/m 23,7 km/h (4 Bft) NO 55 0 min 0,076 mm 0,0 UV-I 65 W/m -1,2 C -10,3 C 32,2 km/h (5 Bft) 96,15 %
05.03.2018 17:01 0,7 C 3,3 C 87 % 996,4 hPa 0,0 l/m 20,4 km/h (4 Bft) O-NO 63 0 min 0,000 mm 0,0 UV-I 62 W/m -1,2 C -8,9 C 24,1 km/h (4 Bft) 100,00 %
05.03.2018 17:02 0,7 C 3,3 C 87 % 996,3 hPa 0,0 l/m 21,6 km/h (4 Bft) O 80 0 min 0,000 mm 0,0 UV-I 58 W/m -1,2 C -9,4 C 27,4 km/h (4 Bft) 94,12 %
05.03.2018 17:03 0,6 C 3,3 C 87 % 996,4 hPa 0,0 l/m 20,6 km/h (4 Bft) O-NO 63 0 min 0,000 mm 0,0 UV-I 58 W/m -1,3 C -9,1 C 29,0 km/h (5 Bft) 100,00 %
05.03.2018 17:04 0,6 C 3,3 C 87 % 996,4 hPa 0,0 l/m 25,1 km/h (4 Bft) O 96 0 min 0,000 mm 0,0 UV-I 60 W/m -1,3 C -10,9 C 33,8 km/h (5 Bft) 96,15 %
05.03.2018 17:05 0,6 C 3,3 C 87 % 996,3 hPa 0,0 l/m 23,4 km/h (4 Bft) O-NO 63 0 min 0,000 mm 0,0 UV-I 55 W/m -1,3 C -10,3 C 30,6 km/h (5 Bft) 93,33 %
05.03.2018 17:06 0,6 C 3,3 C 87 % 996,3 hPa 0,0 l/m 18,0 km/h (3 Bft) O-NO 71 0 min 0,000 mm 0,0 UV-I 54 W/m -1,3 C -7,9 C 22,5 km/h (4 Bft) 100,00 %
05.03.2018 17:07 0,5 C 3,3 C 88 % 996,3 hPa 0,0 l/m 19,6 km/h (3 Bft) O 86 0 min 0,000 mm 0,0 UV-I 53 W/m -1,3 C -8,8 C 22,5 km/h (4 Bft) 96,30 %
05.03.2018 17:08 0,4 C 3,3 C 88 % 996,3 hPa 0,0 l/m 23,2 km/h (4 Bft) O-NO 65 0 min 0,000 mm 0,0 UV-I 53 W/m -1,3 C -10,5 C 30,6 km/h (5 Bft) 96,55 %
05.03.2018 17:09 0,4 C 3,3 C 88 % 996,3 hPa 0,0 l/m 23,9 km/h (4 Bft) O 84 0 min 0,000 mm 0,0 UV-I 51 W/m -1,3 C -10,8 C 30,6 km/h (5 Bft) 93,33 %
05.03.2018 17:10 0,4 C 3,3 C 88 % 996,3 hPa 0,0 l/m 23,4 km/h (4 Bft) NO 46 0 min 0,000 mm 0,0 UV-I 48 W/m -1,3 C -10,6 C 29,0 km/h (5 Bft) 100,00 %
05.03.2018 17:11 0,4 C 3,3 C 88 % 996,3 hPa 0,0 l/m 17,6 km/h (3 Bft) O-NO 63 0 min 0,000 mm 0,0 UV-I 47 W/m -1,3 C -7,9 C 22,5 km/h (4 Bft) 95,65 %
05.03.2018 17:12 0,3 C 3,3 C 88 % 996,3 hPa 0,0 l/m 21,7 km/h (4 Bft) O-NO 65 0 min 0,000 mm 0,0 UV-I 46 W/m -1,4 C -10,0 C 29,0 km/h (5 Bft) 100,00 %
05.03.2018 17:13 0,3 C 3,3 C 88 % 996,3 hPa 0,0 l/m 22,9 km/h (4 Bft) O 91 0 min 0,000 mm 0,0 UV-I 46 W/m -1,4 C -10,5 C 29,0 km/h (5 Bft) 95,65 %
05.03.2018 17:14 0,3 C 3,3 C 88 % 996,3 hPa 0,0 l/m 17,4 km/h (3 Bft) O 83 0 min 0,000 mm 0,0 UV-I 44 W/m -1,4 C -8,0 C 24,1 km/h (4 Bft) 100,00 %
05.03.2018 17:15 0,3 C 3,3 C 88 % 996,3 hPa 0,0 l/m 18,5 km/h (3 Bft) O 94 0 min 0,000 mm 0,0 UV-I 40 W/m -1,4 C -8,5 C 22,5 km/h (4 Bft) 92,31 %
05.03.2018 17:16 0,2 C 3,3 C 88 % 996,3 hPa 0,0 l/m 18,7 km/h (3 Bft) O 92 0 min 0,000 mm 0,0 UV-I 40 W/m -1,5 C -8,8 C 29,0 km/h (5 Bft) 100,00 %
05.03.2018 17:17 0,2 C 3,3 C 88 % 996,3 hPa 0,0 l/m 17,5 km/h (3 Bft) O 96 0 min 0,000 mm 0,0 UV-I 40 W/m -1,5 C -8,1 C 22,5 km/h (4 Bft) 96,55 %
05.03.2018 17:18 0,2 C 3,3 C 89 % 996,4 hPa 0,0 l/m 18,3 km/h (3 Bft) O 93 0 min 0,000 mm 0,0 UV-I 38 W/m -1,4 C -8,6 C 22,5 km/h (4 Bft) 96,30 %
05.03.2018 17:19 0,2 C 3,3 C 89 % 996,4 hPa 0,0 l/m 20,0 km/h (4 Bft) O-NO 78 0 min 0,000 mm 0,0 UV-I 34 W/m -1,4 C -9,4 C 27,4 km/h (4 Bft) 100,00 %
05.03.2018 17:20 0,2 C 3,3 C 89 % 996,3 hPa 0,0 l/m 15,9 km/h (3 Bft) NO 53 0 min 0,000 mm 0,0 UV-I 33 W/m -1,4 C -7,3 C 17,7 km/h (3 Bft) 93,33 %
05.03.2018 17:21 0,1 C 3,3 C 89 % 996,4 hPa 0,0 l/m 18,5 km/h (3 Bft) O-NO 73 0 min 0,000 mm 0,0 UV-I 33 W/m -1,5 C -8,8 C 25,7 km/h (4 Bft) 100,00 %
05.03.2018 17:22 0,1 C 3,3 C 89 % 996,4 hPa 0,0 l/m 20,5 km/h (4 Bft) O 88 0 min 0,000 mm 0,0 UV-I 34 W/m -1,5 C -9,7 C 27,4 km/h (4 Bft) 92,59 %
05.03.2018 17:23 0,1 C 3,3 C 89 % 996,4 hPa 0,0 l/m 16,9 km/h (3 Bft) O-NO 71 0 min 0,000 mm 0,0 UV-I 34 W/m -1,5 C -7,9 C 20,9 km/h (4 Bft) 100,00 %
05.03.2018 17:24 0,1 C 3,3 C 89 % 996,4 hPa 0,0 l/m 19,1 km/h (3 Bft) NO 48 0 min 0,000 mm 0,0 UV-I 32 W/m -1,5 C -9,1 C 22,5 km/h (4 Bft) 95,83 %
05.03.2018 17:25 0,1 C 3,3 C 89 % 996,4 hPa 0,0 l/m 20,3 km/h (4 Bft) O-NO 67 0 min 0,000 mm 0,0 UV-I 32 W/m -1,5 C -9,6 C 25,7 km/h (4 Bft) 100,00 %
05.03.2018 17:26 0,1 C 3,3 C 89 % 996,3 hPa 0,0 l/m 16,4 km/h (3 Bft) O-SO 104 0 min 0,000 mm 0,0 UV-I 32 W/m -1,5 C -7,7 C 19,3 km/h (3 Bft) 95,83 %
05.03.2018 17:27 0,1 C 3,3 C 89 % 996,3 hPa 0,0 l/m 12,4 km/h (3 Bft) O 88 0 min 0,000 mm 0,0 UV-I 30 W/m -1,5 C -5,2 C 17,7 km/h (3 Bft) 100,00 %
05.03.2018 17:28 0,1 C 3,3 C 89 % 996,3 hPa 0,0 l/m 16,6 km/h (3 Bft) O 79 0 min 0,000 mm 0,0 UV-I 28 W/m -1,5 C -7,8 C 20,9 km/h (4 Bft) 96,88 %
05.03.2018 17:29 0,0 C 3,3 C 89 % 996,3 hPa 0,0 l/m 20,1 km/h (4 Bft) O 84 0 min 0,000 mm 0,0 UV-I 26 W/m -1,6 C -9,7 C 25,7 km/h (4 Bft) 96,15 %
05.03.2018 17:30 0,0 C 3,3 C 89 % 996,3 hPa 0,0 l/m 19,6 km/h (3 Bft) O 81 0 min 0,000 mm 0,0 UV-I 25 W/m -1,6 C -9,4 C 24,1 km/h (4 Bft) 100,00 %
05.03.2018 17:31 0,0 C 3,3 C 89 % 996,2 hPa 0,0 l/m 21,1 km/h (4 Bft) O 86 0 min 0,000 mm 0,0 UV-I 23 W/m -1,6 C -10,1 C 27,4 km/h (4 Bft) 100,00 %
05.03.2018 17:32 -0,1 C 3,3 C 89 % 996,2 hPa 0,0 l/m 18,8 km/h (3 Bft) O-NO 74 0 min 0,000 mm 0,0 UV-I 21 W/m -1,7 C -9,2 C 24,1 km/h (4 Bft) 94,12 %
05.03.2018 17:33 -0,1 C 3,3 C 89 % 996,2 hPa 0,0 l/m 18,1 km/h (3 Bft) O-NO 72 0 min 0,000 mm 0,0 UV-I 21 W/m -1,7 C -8,8 C 24,1 km/h (4 Bft) 100,00 %
05.03.2018 17:34 -0,1 C 3,3 C 89 % 996,2 hPa 0,0 l/m 20,1 km/h (4 Bft) O-SO 103 0 min 0,000 mm 0,0 UV-I 19 W/m -1,7 C -9,8 C 25,7 km/h (4 Bft) 100,00 %
05.03.2018 17:35 -0,1 C 3,3 C 89 % 996,2 hPa 0,0 l/m 22,1 km/h (4 Bft) O 79 0 min 0,000 mm 0,0 UV-I 19 W/m -1,7 C -10,7 C 29,0 km/h (5 Bft) 100,00 %
05.03.2018 17:36 -0,1 C 3,3 C 89 % 996,2 hPa 0,0 l/m 20,4 km/h (4 Bft) O-NO 75 0 min 0,000 mm 0,0 UV-I 18 W/m -1,7 C -9,9 C 27,4 km/h (4 Bft) 100,00 %
05.03.2018 17:37 -0,1 C 3,3 C 89 % 996,2 hPa 0,0 l/m 20,7 km/h (4 Bft) O-NO 78 0 min 0,000 mm 0,0 UV-I 18 W/m -1,7 C -10,1 C 25,7 km/h (4 Bft) 100,00 %
05.03.2018 17:38 -0,1 C 3,3 C 89 % 996,2 hPa 0,0 l/m 18,3 km/h (3 Bft) O 82 0 min 0,000 mm 0,0 UV-I 16 W/m -1,7 C -8,9 C 27,4 km/h (4 Bft) 100,00 %
05.03.2018 17:39 -0,1 C 3,3 C 89 % 996,3 hPa 0,0 l/m 19,4 km/h (3 Bft) O 86 1 min 0,000 mm 0,0 UV-I 16 W/m -1,7 C -9,5 C 27,4 km/h (4 Bft) 100,00 %
05.03.2018 17:40 -0,2 C 3,3 C 89 % 996,2 hPa 0,0 l/m 18,8 km/h (3 Bft) O 84 1 min 0,000 mm 0,0 UV-I 15 W/m -1,8 C -9,3 C 25,7 km/h (4 Bft) 100,00 %
05.03.2018 17:41 -0,2 C 3,3 C 90 % 996,3 hPa 0,0 l/m 16,3 km/h (3 Bft) O-NO 65 1 min 0,000 mm 0,0 UV-I 14 W/m -1,6 C -8,0 C 20,9 km/h (4 Bft) 100,00 %
05.03.2018 17:42 -0,2 C 3,3 C 90 % 996,3 hPa 0,0 l/m 16,7 km/h (3 Bft) O 100 1 min 0,000 mm 0,0 UV-I 14 W/m -1,6 C -8,2 C 19,3 km/h (3 Bft) 100,00 %
05.03.2018 17:43 -0,2 C 3,3 C 89 % 996,2 hPa 0,0 l/m 19,4 km/h (3 Bft) O 84 1 min 0,000 mm 0,0 UV-I 12 W/m -1,8 C -9,6 C 22,5 km/h (4 Bft) 100,00 %
05.03.2018 17:44 -0,2 C 3,3 C 90 % 996,2 hPa 0,0 l/m 18,5 km/h (3 Bft) O 88 0 min 0,000 mm 0,0 UV-I 12 W/m -1,6 C -9,2 C 24,1 km/h (4 Bft) 100,00 %
05.03.2018 17:45 -0,2 C 3,3 C 90 % 996,3 hPa 0,0 l/m 17,1 km/h (3 Bft) O 97 0 min 0,000 mm 0,0 UV-I 11 W/m -1,6 C -8,4 C 24,1 km/h (4 Bft) 100,00 %
05.03.2018 17:46 -0,2 C 3,3 C 90 % 996,2 hPa 0,0 l/m 20,3 km/h (4 Bft) O 89 0 min 0,000 mm 0,0 UV-I 11 W/m -1,6 C -10,0 C 24,1 km/h (4 Bft) 100,00 %
05.03.2018 17:47 -0,2 C 3,3 C 90 % 996,2 hPa 0,0 l/m 20,9 km/h (4 Bft) O 79 0 min 0,000 mm 0,0 UV-I 10 W/m -1,6 C -10,3 C 25,7 km/h (4 Bft) 100,00 %
05.03.2018 17:48 -0,2 C 3,3 C 90 % 996,3 hPa 0,0 l/m 17,8 km/h (3 Bft) O-NO 60 0 min 0,000 mm 0,0 UV-I 9 W/m -1,6 C -8,8 C 22,5 km/h (4 Bft) 100,00 %
05.03.2018 17:49 -0,2 C 3,3 C 90 % 996,4 hPa 0,0 l/m 14,1 km/h (3 Bft) O 90 0 min 0,000 mm 0,0 UV-I 9 W/m -1,6 C -6,7 C 19,3 km/h (3 Bft) 100,00 %
05.03.2018 17:50 -0,2 C 3,3 C 90 % 996,4 hPa 0,0 l/m 15,2 km/h (3 Bft) O-NO 70 0 min 0,000 mm 0,0 UV-I 9 W/m -1,6 C -7,3 C 20,9 km/h (4 Bft) 100,00 %
05.03.2018 17:51 -0,3 C 3,3 C 90 % 996,3 hPa 0,0 l/m 17,1 km/h (3 Bft) O 86 0 min 0,000 mm 0,0 UV-I 7 W/m -1,7 C -8,6 C 22,5 km/h (4 Bft) 100,00 %
05.03.2018 17:52 -0,3 C 3,3 C 90 % 996,3 hPa 0,0 l/m 19,0 km/h (3 Bft) O 82 0 min 0,000 mm 0,0 UV-I 7 W/m -1,7 C -9,5 C 22,5 km/h (4 Bft) 100,00 %
05.03.2018 17:53 -0,3 C 3,3 C 90 % 996,3 hPa 0,0 l/m 17,4 km/h (3 Bft) O 79 0 min 0,000 mm 0,0 UV-I 7 W/m -1,7 C -8,7 C 20,9 km/h (4 Bft) 100,00 %
05.03.2018 17:54 -0,3 C 3,3 C 90 % 996,3 hPa 0,0 l/m 20,8 km/h (4 Bft) O 79 0 min 0,000 mm 0,0 UV-I 6 W/m -1,7 C -10,4 C 25,7 km/h (4 Bft) 100,00 %
05.03.2018 17:55 -0,3 C 3,3 C 90 % 996,2 hPa 0,0 l/m 15,9 km/h (3 Bft) O-NO 67 0 min 0,000 mm 0,0 UV-I 5 W/m -1,7 C -7,9 C 24,1 km/h (4 Bft) 100,00 %
05.03.2018 17:56 -0,3 C 3,3 C 90 % 996,2 hPa 0,0 l/m 13,4 km/h (3 Bft) O-NO 78 0 min 0,000 mm 0,0 UV-I 5 W/m -1,7 C -6,3 C 17,7 km/h (3 Bft) 100,00 %
05.03.2018 17:57 -0,3 C 3,3 C 90 % 996,2 hPa 0,0 l/m 11,9 km/h (2 Bft) O-SO 112 0 min 0,000 mm 0,0 UV-I 5 W/m -1,7 C -5,3 C 19,3 km/h (3 Bft) 100,00 %
05.03.2018 17:58 -0,3 C 3,3 C 90 % 996,3 hPa 0,0 l/m 15,8 km/h (3 Bft) O-NO 69 0 min 0,000 mm 0,0 UV-I 5 W/m -1,7 C -7,8 C 19,3 km/h (3 Bft) 100,00 %
05.03.2018 17:59 -0,3 C 3,3 C 90 % 996,3 hPa 0,0 l/m 16,7 km/h (3 Bft) O 92 0 min 0,000 mm 0,0 UV-I 5 W/m -1,7 C -8,3 C 22,5 km/h (4 Bft) 100,00 %
05.03.2018 18:00 -0,3 C 3,3 C 90 % 996,3 hPa 0,0 l/m 15,1 km/h (3 Bft) O-NO 76 0 min 0,000 mm 0,0 UV-I 5 W/m -1,7 C -7,4 C 19,3 km/h (3 Bft) 100,00 %
05.03.2018 18:01 -0,3 C 3,3 C 90 % 996,3 hPa 0,0 l/m 17,8 km/h (3 Bft) O-NO 75 0 min 0,025 mm 0,0 UV-I 5 W/m -1,7 C -8,9 C 22,5 km/h (4 Bft) 100,00 %
05.03.2018 18:02 -0,4 C 3,3 C 90 % 996,3 hPa 0,0 l/m 14,7 km/h (3 Bft) O-NO 68 0 min 0,000 mm 0,0 UV-I 5 W/m -1,8 C -7,3 C 24,1 km/h (4 Bft) 100,00 %
05.03.2018 18:03 -0,4 C 3,3 C 90 % 996,3 hPa 0,0 l/m 18,6 km/h (3 Bft) O-NO 74 0 min 0,000 mm 0,0 UV-I 3 W/m -1,8 C -9,5 C 22,5 km/h (4 Bft) 98,25 %
05.03.2018 18:04 -0,4 C 3,3 C 90 % 996,3 hPa 0,0 l/m 18,0 km/h (3 Bft) O 80 0 min 0,000 mm 0,0 UV-I 0 W/m -1,8 C -9,2 C 20,9 km/h (4 Bft) 100,00 %
05.03.2018 18:05 -0,4 C 3,3 C 90 % 996,3 hPa 0,0 l/m 16,4 km/h (3 Bft) O-NO 67 0 min 0,000 mm 0,0 UV-I 0 W/m -1,8 C -8,3 C 22,5 km/h (4 Bft) 100,00 %
05.03.2018 18:06 -0,4 C 3,3 C 90 % 996,3 hPa 0,0 l/m 13,2 km/h (3 Bft) O-NO 62 0 min 0,000 mm 0,0 UV-I 0 W/m -1,8 C -6,3 C 16,1 km/h (3 Bft) 93,33 %
05.03.2018 18:07 -0,4 C 3,3 C 90 % 996,2 hPa 0,0 l/m 15,0 km/h (3 Bft) O-SO 109 0 min 0,000 mm 0,0 UV-I 0 W/m -1,8 C -7,5 C 19,3 km/h (3 Bft) 100,00 %
05.03.2018 18:08 -0,4 C 3,3 C 90 % 996,2 hPa 0,0 l/m 17,1 km/h (3 Bft) O 96 0 min 0,000 mm 0,0 UV-I 0 W/m -1,8 C -8,7 C 22,5 km/h (4 Bft) 96,55 %
05.03.2018 18:09 -0,4 C 3,3 C 90 % 996,3 hPa 0,0 l/m 20,8 km/h (4 Bft) O 96 0 min 0,000 mm 0,0 UV-I 0 W/m -1,8 C -10,5 C 30,6 km/h (5 Bft) 100,00 %
05.03.2018 18:10 -0,4 C 3,3 C 90 % 996,3 hPa 0,0 l/m 21,5 km/h (4 Bft) O-NO 71 0 min 0,000 mm 0,0 UV-I 0 W/m -1,8 C -10,8 C 29,0 km/h (5 Bft) 96,15 %
05.03.2018 18:11 -0,4 C 3,3 C 90 % 996,2 hPa 0,0 l/m 24,0 km/h (4 Bft) O-NO 76 0 min 0,000 mm 0,0 UV-I 0 W/m -1,8 C -11,9 C 27,4 km/h (4 Bft) 96,30 %
05.03.2018 18:12 -0,4 C 3,3 C 90 % 996,3 hPa 0,0 l/m 18,1 km/h (3 Bft) O-NO 78 0 min 0,000 mm 0,0 UV-I 0 W/m -1,8 C -9,2 C 24,1 km/h (4 Bft) 100,00 %
05.03.2018 18:13 -0,4 C 3,3 C 90 % 996,2 hPa 0,0 l/m 15,2 km/h (3 Bft) O 100 0 min 0,000 mm 0,0 UV-I 0 W/m -1,8 C -7,6 C 19,3 km/h (3 Bft) 93,33 %
05.03.2018 18:14 -0,4 C 3,3 C 90 % 996,1 hPa 0,0 l/m 14,8 km/h (3 Bft) O 90 0 min 0,000 mm 0,0 UV-I 0 W/m -1,8 C -7,3 C 17,7 km/h (3 Bft) 100,00 %
05.03.2018 18:15 -0,4 C 3,3 C 90 % 996,2 hPa 0,0 l/m 18,0 km/h (3 Bft) O 94 0 min 0,000 mm 0,0 UV-I 0 W/m -1,8 C -9,2 C 22,5 km/h (4 Bft) 91,67 %
05.03.2018 18:16 -0,4 C 3,3 C 90 % 996,1 hPa 0,0 l/m 16,8 km/h (3 Bft) O-NO 68 0 min 0,000 mm 0,0 UV-I 0 W/m -1,8 C -8,5 C 22,5 km/h (4 Bft) 100,00 %
05.03.2018 18:17 -0,4 C 3,3 C 90 % 996,1 hPa 0,0 l/m 14,9 km/h (3 Bft) O-SO 105 0 min 0,000 mm 0,0 UV-I 0 W/m -1,8 C -7,4 C 17,7 km/h (3 Bft) 95,12 %
05.03.2018 18:18 -0,4 C 3,3 C 90 % 996,2 hPa 0,0 l/m 14,6 km/h (3 Bft) O-NO 69 0 min 0,000 mm 0,0 UV-I 0 W/m -1,8 C -7,2 C 17,7 km/h (3 Bft) 88,46 %
05.03.2018 18:19 -0,4 C 3,3 C 90 % 996,1 hPa 0,0 l/m 17,6 km/h (3 Bft) O 80 0 min 0,000 mm 0,0 UV-I 0 W/m -1,8 C -8,9 C 27,4 km/h (4 Bft) 98,21 %
05.03.2018 18:20 -0,4 C 3,3 C 90 % 996,1 hPa 0,0 l/m 16,7 km/h (3 Bft) O-NO 61 0 min 0,000 mm 0,0 UV-I 0 W/m -1,8 C -8,5 C 22,5 km/h (4 Bft) 97,37 %
05.03.2018 18:21 -0,5 C 3,3 C 90 % 996,1 hPa 0,0 l/m 19,8 km/h (3 Bft) O 98 0 min 0,000 mm 0,0 UV-I 0 W/m -1,9 C -10,2 C 27,4 km/h (4 Bft) 96,30 %
05.03.2018 18:22 -0,4 C 3,3 C 90 % 996,1 hPa 0,0 l/m 18,3 km/h (3 Bft) O 83 0 min 0,000 mm 0,0 UV-I 0 W/m -1,8 C -9,3 C 22,5 km/h (4 Bft) 96,15 %
05.03.2018 18:23 -0,5 C 3,3 C 90 % 996,1 hPa 0,0 l/m 18,4 km/h (3 Bft) O 81 0 min 0,000 mm 0,0 UV-I 0 W/m -1,9 C -9,5 C 22,5 km/h (4 Bft) 100,00 %
05.03.2018 18:24 -0,5 C 3,3 C 90 % 996,1 hPa 0,0 l/m 19,7 km/h (3 Bft) O 84 0 min 0,000 mm 0,0 UV-I 0 W/m -1,9 C -10,1 C 22,5 km/h (4 Bft) 92,86 %
05.03.2018 18:25 -0,5 C 3,3 C 90 % 996,1 hPa 0,0 l/m 16,9 km/h (3 Bft) O 81 0 min 0,000 mm 0,0 UV-I 0 W/m -1,9 C -8,7 C 20,9 km/h (4 Bft) 96,67 %
05.03.2018 18:26 -0,5 C 3,3 C 90 % 996,1 hPa 0,0 l/m 17,7 km/h (3 Bft) O 89 0 min 0,000 mm 0,0 UV-I 0 W/m -1,9 C -9,1 C 20,9 km/h (4 Bft) 95,65 %
05.03.2018 18:27 -0,5 C 3,3 C 90 % 996,0 hPa 0,0 l/m 17,0 km/h (3 Bft) O-SO 103 0 min 0,000 mm 0,0 UV-I 0 W/m -1,9 C -8,7 C 20,9 km/h (4 Bft) 100,00 %
05.03.2018 18:28 -0,5 C 3,3 C 90 % 996,1 hPa 0,0 l/m 19,3 km/h (3 Bft) O 101 0 min 0,000 mm 0,0 UV-I 0 W/m -1,9 C -9,9 C 24,1 km/h (4 Bft) 91,43 %
05.03.2018 18:29 -0,5 C 3,3 C 90 % 996,1 hPa 0,0 l/m 18,2 km/h (3 Bft) O 86 0 min 0,000 mm 0,0 UV-I 0 W/m -1,9 C -9,4 C 24,1 km/h (4 Bft) 100,00 %
05.03.2018 18:30 -0,5 C 3,3 C 90 % 996,0 hPa 0,0 l/m 19,7 km/h (3 Bft) O-NO 74 0 min 0,000 mm 0,0 UV-I 0 W/m -1,9 C -10,1 C 29,0 km/h (5 Bft) 96,30 %
05.03.2018 18:31 -0,5 C 3,3 C 90 % 996,0 hPa 0,0 l/m 19,9 km/h (4 Bft) O 85 0 min 0,000 mm 0,0 UV-I 0 W/m -1,9 C -10,2 C 27,4 km/h (4 Bft) 95,83 %
05.03.2018 18:32 -0,5 C 3,3 C 90 % 996,1 hPa 0,0 l/m 15,5 km/h (3 Bft) O 101 0 min 0,000 mm 0,0 UV-I 0 W/m -1,9 C -7,9 C 19,3 km/h (3 Bft) 100,00 %
05.03.2018 18:33 -0,5 C 3,3 C 90 % 996,0 hPa 0,0 l/m 16,0 km/h (3 Bft) O 86 0 min 0,000 mm 0,0 UV-I 0 W/m -1,9 C -8,2 C 19,3 km/h (3 Bft) 95,65 %
05.03.2018 18:34 -0,6 C 3,3 C 90 % 996,1 hPa 0,0 l/m 13,6 km/h (3 Bft) O-NO 75 0 min 0,000 mm 0,0 UV-I 0 W/m -2,0 C -6,8 C 17,7 km/h (3 Bft) 96,30 %
05.03.2018 18:35 -0,6 C 3,3 C 90 % 996,1 hPa 0,0 l/m 15,9 km/h (3 Bft) O-NO 73 0 min 0,000 mm 0,0 UV-I 0 W/m -2,0 C -8,2 C 19,3 km/h (3 Bft) 100,00 %
05.03.2018 18:36 -0,6 C 3,3 C 90 % 996,1 hPa 0,0 l/m 16,2 km/h (3 Bft) O 90 0 min 0,000 mm 0,0 UV-I 0 W/m -2,0 C -8,4 C 20,9 km/h (4 Bft) 100,00 %
05.03.2018 18:37 -0,6 C 3,3 C 91 % 996,1 hPa 0,0 l/m 20,2 km/h (4 Bft) O 96 0 min 0,000 mm 0,0 UV-I 0 W/m -1,9 C -10,5 C 24,1 km/h (4 Bft) 94,12 %
05.03.2018 18:38 -0,6 C 3,3 C 91 % 996,1 hPa 0,0 l/m 19,2 km/h (3 Bft) O 101 0 min 0,000 mm 0,0 UV-I 0 W/m -1,9 C -10,0 C 25,7 km/h (4 Bft) 96,30 %
05.03.2018 18:39 -0,6 C 3,3 C 91 % 996,1 hPa 0,0 l/m 18,8 km/h (3 Bft) O 83 0 min 0,000 mm 0,0 UV-I 0 W/m -1,9 C -9,8 C 25,7 km/h (4 Bft) 96,15 %
05.03.2018 18:40 -0,6 C 3,3 C 91 % 996,1 hPa 0,0 l/m 18,3 km/h (3 Bft) O-NO 72 0 min 0,000 mm 0,0 UV-I 0 W/m -1,9 C -9,6 C 22,5 km/h (4 Bft) 100,00 %
05.03.2018 18:41 -0,6 C 3,3 C 90 % 996,1 hPa 0,0 l/m 24,9 km/h (4 Bft) O-NO 72 0 min 0,000 mm 0,0 UV-I 0 W/m -2,0 C -12,5 C 35,4 km/h (5 Bft) 100,00 %
05.03.2018 18:42 -0,6 C 3,3 C 90 % 996,1 hPa 0,0 l/m 19,3 km/h (3 Bft) O 84 0 min 0,000 mm 0,0 UV-I 0 W/m -2,0 C -10,1 C 29,0 km/h (5 Bft) 100,00 %
05.03.2018 18:43 -0,6 C 3,3 C 90 % 996,1 hPa 0,0 l/m 18,2 km/h (3 Bft) SO 124 0 min 0,000 mm 0,0 UV-I 0 W/m -2,0 C -9,5 C 24,1 km/h (4 Bft) 100,00 %
05.03.2018 18:44 -0,6 C 3,3 C 90 % 996,1 hPa 0,0 l/m 20,4 km/h (4 Bft) O 80 0 min 0,000 mm 0,0 UV-I 0 W/m -2,0 C -10,6 C 29,0 km/h (5 Bft) 91,67 %
05.03.2018 18:45 -0,6 C 3,3 C 90 % 996,0 hPa 0,0 l/m 21,1 km/h (4 Bft) O 99 0 min 0,000 mm 0,0 UV-I 0 W/m -2,0 C -10,9 C 24,1 km/h (4 Bft) 92,59 %
05.03.2018 18:46 -0,6 C 3,3 C 90 % 996,0 hPa 0,0 l/m 18,6 km/h (3 Bft) O 101 0 min 0,000 mm 0,0 UV-I 0 W/m -2,0 C -9,7 C 25,7 km/h (4 Bft) 100,00 %
05.03.2018 18:47 -0,6 C 3,3 C 90 % 996,0 hPa 0,0 l/m 16,2 km/h (3 Bft) O-SO 122 0 min 0,000 mm 0,0 UV-I 0 W/m -2,0 C -8,4 C 24,1 km/h (4 Bft) 100,00 %
05.03.2018 18:48 -0,6 C 3,3 C 90 % 996,0 hPa 0,0 l/m 18,9 km/h (3 Bft) O 94 0 min 0,000 mm 0,0 UV-I 0 W/m -2,0 C -9,9 C 22,5 km/h (4 Bft) 100,00 %
05.03.2018 18:49 -0,6 C 3,3 C 90 % 996,1 hPa 0,0 l/m 16,5 km/h (3 Bft) O-SO 113 0 min 0,000 mm 0,0 UV-I 0 W/m -2,0 C -8,6 C 24,1 km/h (4 Bft) 100,00 %
05.03.2018 18:50 -0,6 C 3,3 C 90 % 996,0 hPa 0,0 l/m 19,9 km/h (4 Bft) O 80 0 min 0,000 mm 0,0 UV-I 0 W/m -2,0 C -10,4 C 25,7 km/h (4 Bft) 96,55 %
05.03.2018 18:51 -0,6 C 3,3 C 90 % 996,1 hPa 0,0 l/m 21,8 km/h (4 Bft) O 97 0 min 0,000 mm 0,0 UV-I 0 W/m -2,0 C -11,2 C 27,4 km/h (4 Bft) 100,00 %
05.03.2018 18:52 -0,6 C 3,3 C 90 % 996,0 hPa 0,0 l/m 18,9 km/h (3 Bft) O-NO 67 0 min 0,000 mm 0,0 UV-I 0 W/m -2,0 C -9,9 C 24,1 km/h (4 Bft) 100,00 %
05.03.2018 18:53 -0,6 C 3,3 C 90 % 996,0 hPa 0,0 l/m 19,4 km/h (3 Bft) O 97 0 min 0,000 mm 0,0 UV-I 0 W/m -2,0 C -10,1 C 24,1 km/h (4 Bft) 100,00 %
05.03.2018 18:54 -0,6 C 3,3 C 90 % 996,0 hPa 0,0 l/m 15,3 km/h (3 Bft) O 88 0 min 0,000 mm 0,0 UV-I 0 W/m -2,0 C -7,9 C 22,5 km/h (4 Bft) 98,17 %
05.03.2018 18:55 -0,6 C 3,3 C 90 % 996,0 hPa 0,0 l/m 14,0 km/h (3 Bft) O-NO 71 0 min 0,000 mm 0,0 UV-I 0 W/m -2,0 C -7,1 C 19,3 km/h (3 Bft) 100,00 %
05.03.2018 18:56 -0,6 C 3,3 C 90 % 996,0 hPa 0,0 l/m 17,2 km/h (3 Bft) O-NO 78 0 min 0,000 mm 0,0 UV-I 0 W/m -2,0 C -9,0 C 27,4 km/h (4 Bft) 100,00 %
05.03.2018 18:57 -0,6 C 3,3 C 90 % 996,1 hPa 0,0 l/m 17,2 km/h (3 Bft) O 80 0 min 0,000 mm 0,0 UV-I 0 W/m -2,0 C -9,0 C 22,5 km/h (4 Bft) 100,00 %
05.03.2018 18:58 -0,6 C 3,3 C 90 % 996,1 hPa 0,0 l/m 18,0 km/h (3 Bft) O 83 0 min 0,000 mm 0,0 UV-I 0 W/m -2,0 C -9,4 C 22,5 km/h (4 Bft) 95,65 %
05.03.2018 18:59 -0,6 C 3,3 C 90 % 996,0 hPa 0,0 l/m 18,0 km/h (3 Bft) O 89 0 min 0,000 mm 0,0 UV-I 0 W/m -2,0 C -9,4 C 24,1 km/h (4 Bft) 95,83 %
05.03.2018 19:00 -0,6 C 3,3 C 90 % 996,0 hPa 0,0 l/m 18,0 km/h (3 Bft) O-NO 70 0 min 0,026 mm 0,0 UV-I 0 W/m -2,0 C -9,4 C 22,5 km/h (4 Bft) 100,00 %
05.03.2018 19:01 -0,6 C 3,3 C 90 % 996,0 hPa 0,0 l/m 21,3 km/h (4 Bft) O 82 0 min 0,000 mm 0,0 UV-I 0 W/m -2,0 C -11,0 C 29,0 km/h (5 Bft) 100,00 %
05.03.2018 19:02 -0,6 C 3,3 C 90 % 996,0 hPa 0,0 l/m 19,3 km/h (3 Bft) O-SO 103 0 min 0,000 mm 0,0 UV-I 0 W/m -2,0 C -10,1 C 25,7 km/h (4 Bft) 100,00 %
05.03.2018 19:03 -0,6 C 3,3 C 90 % 996,0 hPa 0,0 l/m 19,0 km/h (3 Bft) O 96 0 min 0,000 mm 0,0 UV-I 0 W/m -2,0 C -9,9 C 24,1 km/h (4 Bft) 100,00 %
05.03.2018 19:04 -0,7 C 3,3 C 90 % 996,0 hPa 0,0 l/m 18,5 km/h (3 Bft) O 80 0 min 0,000 mm 0,0 UV-I 0 W/m -2,1 C -9,8 C 22,5 km/h (4 Bft) 100,00 %
05.03.2018 19:05 -0,6 C 3,3 C 90 % 996,0 hPa 0,0 l/m 19,2 km/h (3 Bft) O-NO 65 0 min 0,000 mm 0,0 UV-I 0 W/m -2,0 C -10,0 C 24,1 km/h (4 Bft) 100,00 %
05.03.2018 19:06 -0,6 C 3,3 C 90 % 995,9 hPa 0,0 l/m 16,2 km/h (3 Bft) O 85 0 min 0,000 mm 0,0 UV-I 0 W/m -2,0 C -8,4 C 22,5 km/h (4 Bft) 100,00 %
05.03.2018 19:07 -0,6 C 3,3 C 90 % 996,0 hPa 0,0 l/m 17,0 km/h (3 Bft) O 84 0 min 0,000 mm 0,0 UV-I 0 W/m -2,0 C -8,9 C 22,5 km/h (4 Bft) 100,00 %
05.03.2018 19:08 -0,6 C 3,3 C 90 % 996,0 hPa 0,0 l/m 21,4 km/h (4 Bft) O 91 0 min 0,000 mm 0,0 UV-I 0 W/m -2,0 C -11,1 C 27,4 km/h (4 Bft) 100,00 %
05.03.2018 19:09 -0,6 C 3,3 C 90 % 996,0 hPa 0,0 l/m 20,2 km/h (4 Bft) O-SO 121 0 min 0,000 mm 0,0 UV-I 0 W/m -2,0 C -10,5 C 27,4 km/h (4 Bft) 100,00 %
05.03.2018 19:10 -0,6 C 3,3 C 90 % 996,0 hPa 0,0 l/m 21,8 km/h (4 Bft) O-SO 111 0 min 0,000 mm 0,0 UV-I 0 W/m -2,0 C -11,2 C 25,7 km/h (4 Bft) 100,00 %
05.03.2018 19:11 -0,6 C 3,3 C 90 % 996,1 hPa 0,0 l/m 20,4 km/h (4 Bft) O-SO 109 0 min 0,000 mm 0,0 UV-I 0 W/m -2,0 C -10,6 C 27,4 km/h (4 Bft) 100,00 %
05.03.2018 19:12 -0,6 C 3,3 C 90 % 996,0 hPa 0,0 l/m 18,0 km/h (3 Bft) O 96 0 min 0,000 mm 0,0 UV-I 0 W/m -2,0 C -9,4 C 27,4 km/h (4 Bft) 95,83 %
05.03.2018 19:13 -0,6 C 3,3 C 90 % 996,0 hPa 0,0 l/m 22,2 km/h (4 Bft) O 94 0 min 0,000 mm 0,0 UV-I 0 W/m -2,0 C -11,4 C 30,6 km/h (5 Bft) 91,30 %
05.03.2018 19:14 -0,7 C 3,3 C 90 % 996,0 hPa 0,0 l/m 17,3 km/h (3 Bft) O-NO 63 0 min 0,000 mm 0,0 UV-I 0 W/m -2,1 C -9,2 C 24,1 km/h (4 Bft) 100,00 %
05.03.2018 19:15 -0,7 C 3,3 C 90 % 996,0 hPa 0,0 l/m 18,3 km/h (3 Bft) O-NO 62 0 min 0,000 mm 0,0 UV-I 0 W/m -2,1 C -9,7 C 24,1 km/h (4 Bft) 100,00 %
05.03.2018 19:16 -0,7 C 3,3 C 90 % 996,0 hPa 0,0 l/m 17,2 km/h (3 Bft) O-NO 69 0 min 0,000 mm 0,0 UV-I 0 W/m -2,1 C -9,1 C 24,1 km/h (4 Bft) 100,00 %
05.03.2018 19:17 -0,7 C 3,3 C 90 % 996,0 hPa 0,0 l/m 14,3 km/h (3 Bft) O 88 0 min 0,000 mm 0,0 UV-I 0 W/m -2,1 C -7,4 C 20,9 km/h (4 Bft) 100,00 %
05.03.2018 19:18 -0,7 C 3,3 C 90 % 996,0 hPa 0,0 l/m 15,7 km/h (3 Bft) O 88 0 min 0,000 mm 0,0 UV-I 0 W/m -2,1 C -8,3 C 27,4 km/h (4 Bft) 100,00 %
05.03.2018 19:19 -0,7 C 3,3 C 90 % 996,0 hPa 0,0 l/m 18,0 km/h (3 Bft) O-NO 71 0 min 0,000 mm 0,0 UV-I 0 W/m -2,1 C -9,5 C 24,1 km/h (4 Bft) 100,00 %
05.03.2018 19:20 -0,7 C 3,3 C 90 % 996,0 hPa 0,0 l/m 22,4 km/h (4 Bft) O-NO 65 0 min 0,000 mm 0,0 UV-I 0 W/m -2,1 C -11,6 C 30,6 km/h (5 Bft) 100,00 %
05.03.2018 19:21 -0,7 C 3,3 C 90 % 996,0 hPa 0,0 l/m 21,9 km/h (4 Bft) O 83 0 min 0,000 mm 0,0 UV-I 0 W/m -2,1 C -11,4 C 27,4 km/h (4 Bft) 100,00 %
05.03.2018 19:22 -0,7 C 3,3 C 90 % 996,0 hPa 0,0 l/m 19,0 km/h (3 Bft) O-NO 77 0 min 0,000 mm 0,0 UV-I 0 W/m -2,1 C -10,0 C 22,5 km/h (4 Bft) 100,00 %
05.03.2018 19:23 -0,6 C 3,3 C 90 % 996,0 hPa 0,0 l/m 19,5 km/h (3 Bft) O-NO 61 0 min 0,000 mm 0,0 UV-I 0 W/m -2,0 C -10,2 C 24,1 km/h (4 Bft) 100,00 %
05.03.2018 19:24 -0,7 C 3,3 C 90 % 996,0 hPa 0,0 l/m 17,6 km/h (3 Bft) O 93 0 min 0,000 mm 0,0 UV-I 0 W/m -2,1 C -9,3 C 24,1 km/h (4 Bft) 98,23 %
05.03.2018 19:25 -0,7 C 3,3 C 90 % 996,0 hPa 0,0 l/m 17,1 km/h (3 Bft) O 80 0 min 0,000 mm 0,0 UV-I 0 W/m -2,1 C -9,1 C 20,9 km/h (4 Bft) 100,00 %
05.03.2018 19:26 -0,7 C 3,3 C 90 % 995,9 hPa 0,0 l/m 19,6 km/h (3 Bft) O-NO 59 0 min 0,000 mm 0,0 UV-I 0 W/m -2,1 C -10,3 C 24,1 km/h (4 Bft) 95,65 %
05.03.2018 19:27 -0,7 C 3,3 C 90 % 995,9 hPa 0,0 l/m 20,9 km/h (4 Bft) O-NO 72 0 min 0,000 mm 0,0 UV-I 0 W/m -2,1 C -11,0 C 29,0 km/h (5 Bft) 100,00 %
05.03.2018 19:28 -0,7 C 3,3 C 90 % 995,9 hPa 0,0 l/m 20,6 km/h (4 Bft) O-NO 64 0 min 0,000 mm 0,0 UV-I 0 W/m -2,1 C -10,8 C 25,7 km/h (4 Bft) 95,65 %
05.03.2018 19:29 -0,7 C 3,3 C 90 % 995,9 hPa 0,0 l/m 17,3 km/h (3 Bft) O-NO 70 0 min 0,000 mm 0,0 UV-I 0 W/m -2,1 C -9,2 C 24,1 km/h (4 Bft) 100,00 %
05.03.2018 19:30 -0,7 C 3,3 C 90 % 995,9 hPa 0,0 l/m 16,2 km/h (3 Bft) O 93 0 min 0,000 mm 0,0 UV-I 0 W/m -2,1 C -8,5 C 19,3 km/h (3 Bft) 100,00 %
05.03.2018 19:31 -0,7 C 3,3 C 90 % 996,0 hPa 0,0 l/m 15,6 km/h (3 Bft) O 89 0 min 0,000 mm 0,0 UV-I 0 W/m -2,1 C -8,2 C 17,7 km/h (3 Bft) 100,00 %
05.03.2018 19:32 -0,7 C 3,3 C 90 % 995,9 hPa 0,0 l/m 11,6 km/h (2 Bft) O-SO 104 0 min 0,000 mm 0,0 UV-I 0 W/m -2,1 C -5,5 C 19,3 km/h (3 Bft) 91,30 %
05.03.2018 19:33 -0,7 C 3,3 C 90 % 996,0 hPa 0,0 l/m 15,4 km/h (3 Bft) O-NO 74 0 min 0,000 mm 0,0 UV-I 0 W/m -2,1 C -8,1 C 19,3 km/h (3 Bft) 100,00 %
05.03.2018 19:34 -0,7 C 3,3 C 90 % 996,0 hPa 0,0 l/m 14,1 km/h (3 Bft) O 98 0 min 0,000 mm 0,0 UV-I 0 W/m -2,1 C -7,3 C 17,7 km/h (3 Bft) 100,00 %
05.03.2018 19:35 -0,8 C 3,3 C 90 % 996,0 hPa 0,0 l/m 17,3 km/h (3 Bft) O-NO 67 0 min 0,000 mm 0,0 UV-I 0 W/m -2,2 C -9,3 C 20,9 km/h (4 Bft) 100,00 %
05.03.2018 19:36 -0,8 C 3,3 C 90 % 996,0 hPa 0,0 l/m 19,4 km/h (3 Bft) O 94 0 min 0,000 mm 0,0 UV-I 0 W/m -2,2 C -10,4 C 24,1 km/h (4 Bft) 100,00 %
05.03.2018 19:37 -0,8 C 3,3 C 90 % 995,9 hPa 0,0 l/m 18,3 km/h (3 Bft) O 84 0 min 0,000 mm 0,0 UV-I 0 W/m -2,2 C -9,8 C 24,1 km/h (4 Bft) 100,00 %
05.03.2018 19:38 -0,8 C 3,3 C 90 % 996,0 hPa 0,0 l/m 17,8 km/h (3 Bft) O 80 0 min 0,000 mm 0,0 UV-I 0 W/m -2,2 C -9,6 C 22,5 km/h (4 Bft) 100,00 %
05.03.2018 19:39 -0,7 C 3,3 C 90 % 996,0 hPa 0,0 l/m 19,3 km/h (3 Bft) O 79 0 min 0,000 mm 0,0 UV-I 0 W/m -2,1 C -10,2 C 24,1 km/h (4 Bft) 100,00 %
05.03.2018 19:40 -0,7 C 3,3 C 90 % 996,0 hPa 0,0 l/m 17,5 km/h (3 Bft) O 82 0 min 0,000 mm 0,0 UV-I 0 W/m -2,1 C -9,3 C 25,7 km/h (4 Bft) 96,15 %
05.03.2018 19:41 -0,7 C 3,3 C 90 % 995,9 hPa 0,0 l/m 17,6 km/h (3 Bft) O 83 0 min 0,000 mm 0,0 UV-I 0 W/m -2,1 C -9,3 C 22,5 km/h (4 Bft) 100,00 %
05.03.2018 19:42 -0,7 C 3,3 C 90 % 995,9 hPa 0,0 l/m 19,8 km/h (3 Bft) O-SO 103 0 min 0,000 mm 0,0 UV-I 0 W/m -2,1 C -10,4 C 29,0 km/h (5 Bft) 95,65 %
05.03.2018 19:43 -0,7 C 3,3 C 90 % 995,9 hPa 0,0 l/m 20,2 km/h (4 Bft) O 81 0 min 0,000 mm 0,0 UV-I 0 W/m -2,1 C -10,6 C 25,7 km/h (4 Bft) 100,00 %
05.03.2018 19:44 -0,7 C 3,3 C 90 % 995,9 hPa 0,0 l/m 19,1 km/h (3 Bft) O-NO 70 0 min 0,000 mm 0,0 UV-I 0 W/m -2,1 C -10,1 C 22,5 km/h (4 Bft) 100,00 %
05.03.2018 19:45 -0,7 C 3,3 C 90 % 995,9 hPa 0,0 l/m 16,6 km/h (3 Bft) O-NO 69 0 min 0,000 mm 0,0 UV-I 0 W/m -2,1 C -8,8 C 22,5 km/h (4 Bft) 100,00 %
05.03.2018 19:46 -0,7 C 3,3 C 90 % 995,9 hPa 0,0 l/m 17,4 km/h (3 Bft) O 94 0 min 0,000 mm 0,0 UV-I 0 W/m -2,1 C -9,2 C 24,1 km/h (4 Bft) 100,00 %
05.03.2018 19:47 -0,7 C 3,3 C 90 % 995,9 hPa 0,0 l/m 14,3 km/h (3 Bft) NO 49 0 min 0,000 mm 0,0 UV-I 0 W/m -2,1 C -7,4 C 22,5 km/h (4 Bft) 100,00 %
05.03.2018 19:48 -0,7 C 3,3 C 90 % 995,9 hPa 0,0 l/m 18,4 km/h (3 Bft) O-NO 71 0 min 0,000 mm 0,0 UV-I 0 W/m -2,1 C -9,7 C 22,5 km/h (4 Bft) 95,83 %
05.03.2018 19:49 -0,8 C 3,3 C 90 % 995,9 hPa 0,0 l/m 17,0 km/h (3 Bft) O 80 0 min 0,000 mm 0,0 UV-I 0 W/m -2,2 C -9,1 C 22,5 km/h (4 Bft) 100,00 %
05.03.2018 19:50 -0,8 C 3,3 C 90 % 995,9 hPa 0,0 l/m 15,9 km/h (3 Bft) O-NO 67 0 min 0,000 mm 0,0 UV-I 0 W/m -2,2 C -8,5 C 22,5 km/h (4 Bft) 100,00 %
05.03.2018 19:51 -0,8 C 3,3 C 90 % 995,9 hPa 0,0 l/m 19,8 km/h (3 Bft) O-NO 65 0 min 0,000 mm 0,0 UV-I 0 W/m -2,2 C -10,6 C 24,1 km/h (4 Bft) 100,00 %
05.03.2018 19:52 -0,8 C 3,3 C 90 % 995,9 hPa 0,0 l/m 14,8 km/h (3 Bft) O 80 0 min 0,000 mm 0,0 UV-I 0 W/m -2,2 C -7,8 C 17,7 km/h (3 Bft) 100,00 %
05.03.2018 19:53 -0,8 C 3,3 C 90 % 995,9 hPa 0,0 l/m 18,7 km/h (3 Bft) O-SO 104 0 min 0,000 mm 0,0 UV-I 0 W/m -2,2 C -10,0 C 25,7 km/h (4 Bft) 100,00 %
05.03.2018 19:54 -0,8 C 3,3 C 90 % 995,9 hPa 0,0 l/m 16,8 km/h (3 Bft) O-NO 65 0 min 0,000 mm 0,0 UV-I 0 W/m -2,2 C -9,0 C 19,3 km/h (3 Bft) 100,00 %
05.03.2018 19:55 -0,8 C 3,3 C 90 % 995,9 hPa 0,0 l/m 18,7 km/h (3 Bft) O 83 0 min 0,000 mm 0,0 UV-I 0 W/m -2,2 C -10,0 C 22,5 km/h (4 Bft) 96,15 %
05.03.2018 19:56 -0,8 C 3,3 C 90 % 996,0 hPa 0,0 l/m 15,4 km/h (3 Bft) O 95 0 min 0,000 mm 0,0 UV-I 0 W/m -2,2 C -8,2 C 20,9 km/h (4 Bft) 100,00 %
05.03.2018 19:57 -0,8 C 3,3 C 90 % 996,0 hPa 0,0 l/m 16,7 km/h (3 Bft) O-SO 104 0 min 0,000 mm 0,0 UV-I 0 W/m -2,2 C -9,0 C 20,9 km/h (4 Bft) 100,00 %
05.03.2018 19:58 -0,8 C 3,3 C 90 % 995,9 hPa 0,0 l/m 17,9 km/h (3 Bft) O-SO 113 0 min 0,000 mm 0,0 UV-I 0 W/m -2,2 C -9,6 C 22,5 km/h (4 Bft) 100,00 %
05.03.2018 19:59 -0,8 C 3,3 C 90 % 995,9 hPa 0,0 l/m 18,9 km/h (3 Bft) O-SO 111 0 min 0,000 mm 0,0 UV-I 0 W/m -2,2 C -10,1 C 22,5 km/h (4 Bft) 100,00 %
05.03.2018 20:00 -0,8 C 3,3 C 90 % 995,9 hPa 0,0 l/m 18,6 km/h (3 Bft) O-NO 78 0 min 0,025 mm 0,0 UV-I 0 W/m -2,2 C -10,0 C 24,1 km/h (4 Bft) 100,00 %
05.03.2018 20:01 -0,8 C 3,3 C 90 % 995,9 hPa 0,0 l/m 19,2 km/h (3 Bft) O 82 0 min 0,000 mm 0,0 UV-I 0 W/m -2,2 C -10,3 C 25,7 km/h (4 Bft) 100,00 %
05.03.2018 20:02 -0,8 C 3,3 C 90 % 995,9 hPa 0,0 l/m 18,6 km/h (3 Bft) O-SO 110 0 min 0,000 mm 0,0 UV-I 0 W/m -2,2 C -10,0 C 24,1 km/h (4 Bft) 100,00 %
05.03.2018 20:03 -0,8 C 3,3 C 90 % 995,9 hPa 0,0 l/m 18,8 km/h (3 Bft) O-NO 78 0 min 0,000 mm 0,0 UV-I 0 W/m -2,2 C -10,1 C 22,5 km/h (4 Bft) 100,00 %
05.03.2018 20:04 -0,8 C 3,3 C 90 % 995,9 hPa 0,0 l/m 18,1 km/h (3 Bft) O-SO 102 0 min 0,000 mm 0,0 UV-I 0 W/m -2,2 C -9,7 C 25,7 km/h (4 Bft) 100,00 %
05.03.2018 20:05 -0,8 C 3,3 C 90 % 995,9 hPa 0,0 l/m 20,4 km/h (4 Bft) O 94 0 min 0,000 mm 0,0 UV-I 0 W/m -2,2 C -10,9 C 27,4 km/h (4 Bft) 100,00 %
05.03.2018 20:06 -0,8 C 3,3 C 90 % 995,9 hPa 0,0 l/m 21,6 km/h (4 Bft) O-NO 68 0 min 0,000 mm 0,0 UV-I 0 W/m -2,2 C -11,4 C 27,4 km/h (4 Bft) 95,65 %
05.03.2018 20:07 -0,8 C 3,3 C 90 % 995,9 hPa 0,0 l/m 19,0 km/h (3 Bft) O-NO 68 0 min 0,000 mm 0,0 UV-I 0 W/m -2,2 C -10,2 C 24,1 km/h (4 Bft) 100,00 %
05.03.2018 20:08 -0,8 C 3,3 C 90 % 995,9 hPa 0,0 l/m 12,1 km/h (2 Bft) O-SO 113 0 min 0,000 mm 0,0 UV-I 0 W/m -2,2 C -6,0 C 17,7 km/h (3 Bft) 100,00 %
05.03.2018 20:09 -0,8 C 3,3 C 90 % 995,9 hPa 0,0 l/m 16,8 km/h (3 Bft) O 82 0 min 0,000 mm 0,0 UV-I 0 W/m -2,2 C -9,0 C 22,5 km/h (4 Bft) 100,00 %
05.03.2018 20:10 -0,8 C 3,3 C 90 % 995,9 hPa 0,0 l/m 17,4 km/h (3 Bft) O 86 0 min 0,000 mm 0,0 UV-I 0 W/m -2,2 C -9,3 C 20,9 km/h (4 Bft) 95,65 %
05.03.2018 20:11 -0,8 C 3,3 C 90 % 995,9 hPa 0,0 l/m 16,4 km/h (3 Bft) O-NO 71 0 min 0,000 mm 0,0 UV-I 0 W/m -2,2 C -8,8 C 19,3 km/h (3 Bft) 100,00 %
05.03.2018 20:12 -0,8 C 3,3 C 90 % 995,9 hPa 0,0 l/m 16,4 km/h (3 Bft) O-SO 103 0 min 0,000 mm 0,0 UV-I 0 W/m -2,2 C -8,8 C 22,5 km/h (4 Bft) 91,30 %
05.03.2018 20:13 -0,8 C 3,3 C 90 % 995,9 hPa 0,0 l/m 16,8 km/h (3 Bft) O 98 0 min 0,000 mm 0,0 UV-I 0 W/m -2,2 C -9,0 C 20,9 km/h (4 Bft) 100,00 %
05.03.2018 20:14 -0,8 C 3,3 C 90 % 995,9 hPa 0,0 l/m 17,6 km/h (3 Bft) O-NO 73 0 min 0,000 mm 0,0 UV-I 0 W/m -2,2 C -9,4 C 22,5 km/h (4 Bft) 95,65 %
05.03.2018 20:15 -0,8 C 3,3 C 90 % 995,9 hPa 0,0 l/m 21,2 km/h (4 Bft) O-NO 70 0 min 0,000 mm 0,0 UV-I 0 W/m -2,2 C -11,2 C 29,0 km/h (5 Bft) 91,67 %
05.03.2018 20:16 -0,8 C 3,3 C 90 % 995,9 hPa 0,0 l/m 18,0 km/h (3 Bft) O 84 0 min 0,000 mm 0,0 UV-I 0 W/m -2,2 C -9,7 C 24,1 km/h (4 Bft) 100,00 %
05.03.2018 20:17 -0,8 C 3,3 C 90 % 995,9 hPa 0,0 l/m 16,4 km/h (3 Bft) O-NO 64 0 min 0,000 mm 0,0 UV-I 0 W/m -2,2 C -8,8 C 19,3 km/h (3 Bft) 95,83 %
05.03.2018 20:18 -0,8 C 3,3 C 90 % 995,9 hPa 0,0 l/m 19,9 km/h (4 Bft) O 79 0 min 0,000 mm 0,0 UV-I 0 W/m -2,2 C -10,6 C 27,4 km/h (4 Bft) 100,00 %
05.03.2018 20:19 -0,8 C 3,3 C 90 % 995,8 hPa 0,0 l/m 17,8 km/h (3 Bft) O-NO 63 0 min 0,000 mm 0,0 UV-I 0 W/m -2,2 C -9,6 C 24,1 km/h (4 Bft) 95,83 %
05.03.2018 20:20 -0,8 C 3,3 C 90 % 995,8 hPa 0,0 l/m 17,1 km/h (3 Bft) O 81 0 min 0,000 mm 0,0 UV-I 0 W/m -2,2 C -9,2 C 20,9 km/h (4 Bft) 100,00 %
05.03.2018 20:21 -0,8 C 3,3 C 90 % 995,8 hPa 0,0 l/m 16,4 km/h (3 Bft) O 96 0 min 0,000 mm 0,0 UV-I 0 W/m -2,2 C -8,8 C 22,5 km/h (4 Bft) 92,31 %
05.03.2018 20:22 -0,8 C 3,3 C 90 % 995,8 hPa 0,0 l/m 14,8 km/h (3 Bft) O-NO 63 0 min 0,000 mm 0,0 UV-I 0 W/m -2,2 C -7,8 C 20,9 km/h (4 Bft) 87,50 %
05.03.2018 20:23 -0,8 C 3,3 C 90 % 995,7 hPa 0,0 l/m 13,5 km/h (3 Bft) O-NO 61 0 min 0,000 mm 0,0 UV-I 0 W/m -2,2 C -7,0 C 17,7 km/h (3 Bft) 100,00 %
05.03.2018 20:24 -0,8 C 3,3 C 90 % 995,7 hPa 0,0 l/m 17,6 km/h (3 Bft) O 101 0 min 0,000 mm 0,0 UV-I 0 W/m -2,2 C -9,4 C 22,5 km/h (4 Bft) 95,65 %
05.03.2018 20:25 -0,8 C 3,3 C 90 % 995,8 hPa 0,0 l/m 17,4 km/h (3 Bft) O 80 0 min 0,000 mm 0,0 UV-I 0 W/m -2,2 C -9,3 C 24,1 km/h (4 Bft) 100,00 %
05.03.2018 20:26 -0,8 C 3,3 C 90 % 995,8 hPa 0,0 l/m 19,6 km/h (3 Bft) O-SO 106 0 min 0,000 mm 0,0 UV-I 0 W/m -2,2 C -10,5 C 27,4 km/h (4 Bft) 95,83 %
05.03.2018 20:27 -0,8 C 3,3 C 90 % 995,8 hPa 0,0 l/m 18,0 km/h (3 Bft) O 100 0 min 0,000 mm 0,0 UV-I 0 W/m -2,2 C -9,7 C 24,1 km/h (4 Bft) 95,65 %
05.03.2018 20:28 -0,8 C 3,3 C 90 % 995,8 hPa 0,0 l/m 17,5 km/h (3 Bft) O 85 0 min 0,000 mm 0,0 UV-I 0 W/m -2,2 C -9,4 C 20,9 km/h (4 Bft) 91,67 %
05.03.2018 20:29 -0,8 C 3,3 C 90 % 995,8 hPa 0,0 l/m 16,8 km/h (3 Bft) O-SO 106 0 min 0,000 mm 0,0 UV-I 0 W/m -2,2 C -9,0 C 20,9 km/h (4 Bft) 95,65 %
05.03.2018 20:30 -0,8 C 3,3 C 90 % 995,8 hPa 0,0 l/m 15,4 km/h (3 Bft) O-SO 118 0 min 0,000 mm 0,0 UV-I 0 W/m -2,2 C -8,2 C 20,9 km/h (4 Bft) 95,83 %
05.03.2018 20:31 -0,8 C 3,3 C 90 % 995,8 hPa 0,0 l/m 16,6 km/h (3 Bft) O 90 0 min 0,000 mm 0,0 UV-I 0 W/m -2,2 C -8,9 C 22,5 km/h (4 Bft) 95,65 %
05.03.2018 20:32 -0,8 C 3,3 C 90 % 995,8 hPa 0,0 l/m 19,7 km/h (3 Bft) O 89 0 min 0,000 mm 0,0 UV-I 0 W/m -2,2 C -10,5 C 25,7 km/h (4 Bft) 95,83 %
05.03.2018 20:33 -0,8 C 3,3 C 90 % 995,8 hPa 0,0 l/m 16,6 km/h (3 Bft) O-NO 72 0 min 0,000 mm 0,0 UV-I 0 W/m -2,2 C -8,9 C 19,3 km/h (3 Bft) 92,86 %
05.03.2018 20:34 -0,8 C 3,3 C 90 % 995,8 hPa 0,0 l/m 15,1 km/h (3 Bft) O-SO 103 0 min 0,000 mm 0,0 UV-I 0 W/m -2,2 C -8,0 C 24,1 km/h (4 Bft) 95,83 %
05.03.2018 20:35 -0,8 C 3,3 C 90 % 995,8 hPa 0,0 l/m 20,2 km/h (4 Bft) O 98 0 min 0,000 mm 0,0 UV-I 0 W/m -2,2 C -10,8 C 25,7 km/h (4 Bft) 96,55 %
05.03.2018 20:36 -0,8 C 3,3 C 90 % 995,8 hPa 0,0 l/m 18,7 km/h (3 Bft) O-NO 61 0 min 0,000 mm 0,0 UV-I 0 W/m -2,2 C -10,0 C 25,7 km/h (4 Bft) 95,83 %
05.03.2018 20:37 -0,8 C 3,3 C 90 % 995,8 hPa 0,0 l/m 17,9 km/h (3 Bft) O-SO 105 0 min 0,000 mm 0,0 UV-I 0 W/m -2,2 C -9,6 C 22,5 km/h (4 Bft) 96,15 %
05.03.2018 20:38 -0,8 C 3,3 C 90 % 995,8 hPa 0,0 l/m 16,8 km/h (3 Bft) O 80 0 min 0,000 mm 0,0 UV-I 0 W/m -2,2 C -9,0 C 22,5 km/h (4 Bft) 91,67 %
05.03.2018 20:39 -0,8 C 3,3 C 90 % 995,8 hPa 0,0 l/m 20,4 km/h (4 Bft) O-SO 103 0 min 0,000 mm 0,0 UV-I 0 W/m -2,2 C -10,9 C 29,0 km/h (5 Bft) 95,65 %
05.03.2018 20:40 -0,7 C 3,3 C 90 % 995,7 hPa 0,0 l/m 18,8 km/h (3 Bft) O 99 0 min 0,000 mm 0,0 UV-I 0 W/m -2,1 C -9,9 C 27,4 km/h (4 Bft) 95,83 %
05.03.2018 20:41 -0,8 C 3,3 C 90 % 995,8 hPa 0,0 l/m 16,3 km/h (3 Bft) O 98 0 min 0,000 mm 0,0 UV-I 0 W/m -2,2 C -8,7 C 25,7 km/h (4 Bft) 91,30 %
05.03.2018 20:42 -0,7 C 3,3 C 90 % 995,8 hPa 0,0 l/m 18,5 km/h (3 Bft) O 80 0 min 0,000 mm 0,0 UV-I 0 W/m -2,1 C -9,8 C 24,1 km/h (4 Bft) 95,83 %
05.03.2018 20:43 -0,7 C 3,3 C 90 % 995,7 hPa 0,0 l/m 18,8 km/h (3 Bft) O-SO 106 0 min 0,000 mm 0,0 UV-I 0 W/m -2,1 C -9,9 C 24,1 km/h (4 Bft) 91,67 %
05.03.2018 20:44 -0,7 C 3,3 C 90 % 995,8 hPa 0,0 l/m 17,1 km/h (3 Bft) O 82 0 min 0,000 mm 0,0 UV-I 0 W/m -2,1 C -9,1 C 20,9 km/h (4 Bft) 100,00 %
05.03.2018 20:45 -0,7 C 3,3 C 90 % 995,7 hPa 0,0 l/m 15,8 km/h (3 Bft) O 96 0 min 0,000 mm 0,0 UV-I 0 W/m -2,1 C -8,3 C 20,9 km/h (4 Bft) 95,83 %
05.03.2018 20:46 -0,7 C 3,3 C 90 % 995,7 hPa 0,0 l/m 17,4 km/h (3 Bft) O 90 0 min 0,000 mm 0,0 UV-I 0 W/m -2,1 C -9,2 C 24,1 km/h (4 Bft) 100,00 %
05.03.2018 20:47 -0,7 C 3,3 C 90 % 995,8 hPa 0,0 l/m 15,5 km/h (3 Bft) O 80 0 min 0,000 mm 0,0 UV-I 0 W/m -2,1 C -8,1 C 24,1 km/h (4 Bft) 95,83 %
05.03.2018 20:48 -0,7 C 3,3 C 90 % 995,7 hPa 0,0 l/m 16,7 km/h (3 Bft) O-SO 113 0 min 0,000 mm 0,0 UV-I 0 W/m -2,1 C -8,8 C 24,1 km/h (4 Bft) 95,65 %
05.03.2018 20:49 -0,7 C 3,3 C 90 % 995,7 hPa 0,0 l/m 13,9 km/h (3 Bft) O-SO 109 0 min 0,000 mm 0,0 UV-I 0 W/m -2,1 C -7,1 C 17,7 km/h (3 Bft) 96,30 %
05.03.2018 20:50 -0,7 C 3,3 C 90 % 995,7 hPa 0,0 l/m 15,8 km/h (3 Bft) O 94 0 min 0,000 mm 0,0 UV-I 0 W/m -2,1 C -8,3 C 22,5 km/h (4 Bft) 95,65 %
05.03.2018 20:51 -0,7 C 3,3 C 90 % 995,7 hPa 0,0 l/m 19,0 km/h (3 Bft) O-SO 117 0 min 0,000 mm 0,0 UV-I 0 W/m -2,1 C -10,0 C 22,5 km/h (4 Bft) 100,00 %
05.03.2018 20:52 -0,7 C 3,3 C 90 % 995,7 hPa 0,0 l/m 17,0 km/h (3 Bft) O 92 0 min 0,000 mm 0,0 UV-I 0 W/m -2,1 C -9,0 C 22,5 km/h (4 Bft) 95,65 %
05.03.2018 20:53 -0,7 C 3,3 C 90 % 995,7 hPa 0,0 l/m 16,3 km/h (3 Bft) O-SO 113 0 min 0,000 mm 0,0 UV-I 0 W/m -2,1 C -8,6 C 20,9 km/h (4 Bft) 96,30 %
05.03.2018 20:54 -0,7 C 3,3 C 90 % 995,6 hPa 0,0 l/m 19,2 km/h (3 Bft) O-NO 76 0 min 0,000 mm 0,0 UV-I 0 W/m -2,1 C -10,1 C 25,7 km/h (4 Bft) 91,30 %
05.03.2018 20:55 -0,7 C 3,3 C 90 % 995,6 hPa 0,0 l/m 21,7 km/h (4 Bft) O 89 0 min 0,000 mm 0,0 UV-I 0 W/m -2,1 C -11,3 C 27,4 km/h (4 Bft) 100,00 %
05.03.2018 20:56 -0,7 C 3,3 C 90 % 995,6 hPa 0,0 l/m 18,5 km/h (3 Bft) NO 53 0 min 0,000 mm 0,0 UV-I 0 W/m -2,1 C -9,8 C 22,5 km/h (4 Bft) 95,65 %
05.03.2018 20:57 -0,7 C 3,3 C 90 % 995,6 hPa 0,0 l/m 18,2 km/h (3 Bft) O-SO 107 0 min 0,000 mm 0,0 UV-I 0 W/m -2,1 C -9,6 C 22,5 km/h (4 Bft) 100,00 %
05.03.2018 20:58 -0,7 C 3,3 C 90 % 995,6 hPa 0,0 l/m 17,6 km/h (3 Bft) O-NO 65 0 min 0,000 mm 0,0 UV-I 0 W/m -2,1 C -9,3 C 20,9 km/h (4 Bft) 95,83 %
05.03.2018 20:59 -0,7 C 3,3 C 90 % 995,6 hPa 0,0 l/m 17,8 km/h (3 Bft) O 93 0 min 0,000 mm 0,0 UV-I 0 W/m -2,1 C -9,4 C 22,5 km/h (4 Bft) 96,15 %
05.03.2018 21:00 -0,7 C 3,3 C 90 % 995,6 hPa 0,0 l/m 18,8 km/h (3 Bft) O 95 0 min 0,000 mm 0,0 UV-I 0 W/m -2,1 C -9,9 C 27,4 km/h (4 Bft) 95,83 %
05.03.2018 21:01 -0,7 C 3,3 C 90 % 995,6 hPa 0,0 l/m 17,5 km/h (3 Bft) O 96 0 min 0,026 mm 0,0 UV-I 0 W/m -2,1 C -9,3 C 22,5 km/h (4 Bft) 100,00 %
05.03.2018 21:02 -0,7 C 3,3 C 90 % 995,6 hPa 0,0 l/m 15,4 km/h (3 Bft) O-NO 65 0 min 0,000 mm 0,0 UV-I 0 W/m -2,1 C -8,1 C 20,9 km/h (4 Bft) 95,83 %
05.03.2018 21:03 -0,7 C 3,3 C 89 % 995,6 hPa 0,0 l/m 11,9 km/h (2 Bft) O 97 0 min 0,000 mm 0,0 UV-I 0 W/m -2,3 C -5,7 C 17,7 km/h (3 Bft) 96,15 %
05.03.2018 21:04 -0,7 C 3,3 C 89 % 995,6 hPa 0,0 l/m 20,4 km/h (4 Bft) O 93 0 min 0,000 mm 0,0 UV-I 0 W/m -2,3 C -10,7 C 25,7 km/h (4 Bft) 96,30 %
05.03.2018 21:05 -0,7 C 3,3 C 90 % 995,6 hPa 0,0 l/m 15,0 km/h (3 Bft) O-NO 74 0 min 0,000 mm 0,0 UV-I 0 W/m -2,1 C -7,8 C 24,1 km/h (4 Bft) 95,65 %
05.03.2018 21:06 -0,7 C 3,3 C 90 % 995,6 hPa 0,0 l/m 15,8 km/h (3 Bft) O 95 0 min 0,000 mm 0,0 UV-I 0 W/m -2,1 C -8,3 C 22,5 km/h (4 Bft) 100,00 %
05.03.2018 21:07 -0,7 C 3,3 C 90 % 995,6 hPa 0,0 l/m 15,5 km/h (3 Bft) O 88 0 min 0,000 mm 0,0 UV-I 0 W/m -2,1 C -8,1 C 19,3 km/h (3 Bft) 94,12 %
05.03.2018 21:08 -0,7 C 3,3 C 90 % 995,6 hPa 0,0 l/m 20,3 km/h (4 Bft) O 90 0 min 0,000 mm 0,0 UV-I 0 W/m -2,1 C -10,7 C 25,7 km/h (4 Bft) 100,00 %
05.03.2018 21:09 -0,7 C 3,3 C 90 % 995,6 hPa 0,0 l/m 18,1 km/h (3 Bft) O-SO 105 0 min 0,000 mm 0,0 UV-I 0 W/m -2,1 C -9,6 C 24,1 km/h (4 Bft) 95,65 %
05.03.2018 21:10 -0,7 C 3,3 C 90 % 995,6 hPa 0,0 l/m 15,3 km/h (3 Bft) O-NO 71 0 min 0,000 mm 0,0 UV-I 0 W/m -2,1 C -8,0 C 22,5 km/h (4 Bft) 100,00 %
05.03.2018 21:11 -0,7 C 3,3 C 89 % 995,6 hPa 0,0 l/m 16,2 km/h (3 Bft) O-NO 65 0 min 0,000 mm 0,0 UV-I 0 W/m -2,3 C -8,5 C 22,5 km/h (4 Bft) 91,30 %
05.03.2018 21:12 -0,7 C 3,3 C 90 % 995,6 hPa 0,0 l/m 16,0 km/h (3 Bft) O-NO 68 0 min 0,000 mm 0,0 UV-I 0 W/m -2,1 C -8,4 C 22,5 km/h (4 Bft) 100,00 %
05.03.2018 21:13 -0,7 C 3,3 C 90 % 995,5 hPa 0,0 l/m 17,7 km/h (3 Bft) O 90 0 min 0,000 mm 0,0 UV-I 0 W/m -2,1 C -9,4 C 22,5 km/h (4 Bft) 92,31 %
05.03.2018 21:14 -0,7 C 3,3 C 89 % 995,5 hPa 0,0 l/m 19,0 km/h (3 Bft) O-SO 105 0 min 0,000 mm 0,0 UV-I 0 W/m -2,3 C -10,0 C 24,1 km/h (4 Bft) 95,83 %
05.03.2018 21:15 -0,7 C 3,3 C 89 % 995,5 hPa 0,0 l/m 17,9 km/h (3 Bft) O-NO 71 0 min 0,000 mm 0,0 UV-I 0 W/m -2,3 C -9,5 C 24,1 km/h (4 Bft) 100,00 %
05.03.2018 21:16 -0,7 C 3,3 C 89 % 995,5 hPa 0,0 l/m 17,0 km/h (3 Bft) O 101 0 min 0,000 mm 0,0 UV-I 0 W/m -2,3 C -9,0 C 24,1 km/h (4 Bft) 95,83 %
05.03.2018 21:17 -0,7 C 3,3 C 89 % 995,5 hPa 0,0 l/m 21,4 km/h (4 Bft) O-NO 59 0 min 0,000 mm 0,0 UV-I 0 W/m -2,3 C -11,2 C 30,6 km/h (5 Bft) 100,00 %
05.03.2018 21:18 -0,7 C 3,3 C 89 % 995,5 hPa 0,0 l/m 17,9 km/h (3 Bft) O 89 0 min 0,000 mm 0,0 UV-I 0 W/m -2,3 C -9,5 C 24,1 km/h (4 Bft) 91,67 %
05.03.2018 21:19 -0,7 C 3,3 C 89 % 995,4 hPa 0,0 l/m 16,2 km/h (3 Bft) O-NO 74 0 min 0,000 mm 0,0 UV-I 0 W/m -2,3 C -8,5 C 22,5 km/h (4 Bft) 100,00 %
05.03.2018 21:20 -0,7 C 3,3 C 89 % 995,4 hPa 0,0 l/m 20,0 km/h (4 Bft) O 94 0 min 0,000 mm 0,0 UV-I 0 W/m -2,3 C -10,5 C 24,1 km/h (4 Bft) 96,15 %
05.03.2018 21:21 -0,7 C 3,3 C 89 % 995,4 hPa 0,0 l/m 19,4 km/h (3 Bft) O-SO 102 0 min 0,000 mm 0,0 UV-I 0 W/m -2,3 C -10,2 C 24,1 km/h (4 Bft) 100,00 %
05.03.2018 21:22 -0,7 C 3,3 C 89 % 995,4 hPa 0,0 l/m 13,7 km/h (3 Bft) O 86 0 min 0,000 mm 0,0 UV-I 0 W/m -2,3 C -7,0 C 20,9 km/h (4 Bft) 91,30 %
05.03.2018 21:23 -0,7 C 3,3 C 89 % 995,4 hPa 0,0 l/m 15,2 km/h (3 Bft) O-NO 63 0 min 0,000 mm 0,0 UV-I 0 W/m -2,3 C -8,0 C 19,3 km/h (3 Bft) 100,00 %
05.03.2018 21:24 -0,7 C 3,3 C 89 % 995,4 hPa 0,0 l/m 16,2 km/h (3 Bft) O-NO 68 0 min 0,000 mm 0,0 UV-I 0 W/m -2,3 C -8,5 C 20,9 km/h (4 Bft) 95,65 %
05.03.2018 21:25 -0,7 C 3,3 C 89 % 995,4 hPa 0,0 l/m 17,3 km/h (3 Bft) O 99 0 min 0,000 mm 0,0 UV-I 0 W/m -2,3 C -9,2 C 20,9 km/h (4 Bft) 95,83 %
05.03.2018 21:26 -0,7 C 3,3 C 90 % 995,4 hPa 0,0 l/m 18,6 km/h (3 Bft) O 84 0 min 0,000 mm 0,0 UV-I 0 W/m -2,1 C -9,8 C 24,1 km/h (4 Bft) 95,65 %
05.03.2018 21:27 -0,7 C 3,3 C 90 % 995,3 hPa 0,0 l/m 19,2 km/h (3 Bft) O 100 0 min 0,000 mm 0,0 UV-I 0 W/m -2,1 C -10,1 C 24,1 km/h (4 Bft) 95,83 %
05.03.2018 21:28 -0,7 C 3,3 C 89 % 995,4 hPa 0,0 l/m 16,0 km/h (3 Bft) O 89 0 min 0,000 mm 0,0 UV-I 0 W/m -2,3 C -8,4 C 20,9 km/h (4 Bft) 100,00 %
05.03.2018 21:29 -0,7 C 3,3 C 89 % 995,4 hPa 0,0 l/m 17,8 km/h (3 Bft) O 101 0 min 0,000 mm 0,0 UV-I 0 W/m -2,3 C -9,4 C 20,9 km/h (4 Bft) 95,83 %
05.03.2018 21:30 -0,7 C 3,3 C 89 % 995,4 hPa 0,0 l/m 22,0 km/h (4 Bft) O-NO 74 0 min 0,000 mm 0,0 UV-I 0 W/m -2,3 C -11,4 C 27,4 km/h (4 Bft) 95,65 %
05.03.2018 21:31 -0,7 C 3,3 C 89 % 995,3 hPa 0,0 l/m 18,1 km/h (3 Bft) O 80 0 min 0,000 mm 0,0 UV-I 0 W/m -2,3 C -9,6 C 24,1 km/h (4 Bft) 95,83 %
05.03.2018 21:32 -0,7 C 3,3 C 89 % 995,3 hPa 0,0 l/m 18,0 km/h (3 Bft) O 95 0 min 0,000 mm 0,0 UV-I 0 W/m -2,3 C -9,5 C 22,5 km/h (4 Bft) 100,00 %
05.03.2018 21:33 -0,7 C 3,3 C 89 % 995,3 hPa 0,0 l/m 15,6 km/h (3 Bft) O 92 0 min 0,000 mm 0,0 UV-I 0 W/m -2,3 C -8,2 C 20,9 km/h (4 Bft) 96,30 %
05.03.2018 21:34 -0,7 C 3,3 C 89 % 995,3 hPa 0,0 l/m 17,7 km/h (3 Bft) O 98 0 min 0,000 mm 0,0 UV-I 0 W/m -2,3 C -9,4 C 24,1 km/h (4 Bft) 96,15 %
05.03.2018 21:35 -0,8 C 3,3 C 89 % 995,3 hPa 0,0 l/m 15,0 km/h (3 Bft) O 84 0 min 0,000 mm 0,0 UV-I 0 W/m -2,4 C -8,0 C 20,9 km/h (4 Bft) 100,00 %
05.03.2018 21:36 -0,8 C 3,3 C 89 % 995,3 hPa 0,0 l/m 15,6 km/h (3 Bft) O 89 0 min 0,000 mm 0,0 UV-I 0 W/m -2,4 C -8,3 C 20,9 km/h (4 Bft) 100,00 %
05.03.2018 21:37 -0,8 C 3,3 C 89 % 995,3 hPa 0,0 l/m 13,7 km/h (3 Bft) O 94 0 min 0,000 mm 0,0 UV-I 0 W/m -2,4 C -7,1 C 19,3 km/h (3 Bft) 95,65 %
05.03.2018 21:38 -0,8 C 3,3 C 89 % 995,3 hPa 0,0 l/m 20,2 km/h (4 Bft) O 92 0 min 0,000 mm 0,0 UV-I 0 W/m -2,4 C -10,8 C 25,7 km/h (4 Bft) 100,00 %
05.03.2018 21:39 -0,8 C 3,3 C 89 % 995,3 hPa 0,0 l/m 11,1 km/h (2 Bft) O 88 0 min 0,000 mm 0,0 UV-I 0 W/m -2,4 C -5,2 C 17,7 km/h (3 Bft) 95,65 %
05.03.2018 21:40 -0,8 C 3,3 C 89 % 995,2 hPa 0,0 l/m 19,2 km/h (3 Bft) O-NO 76 0 min 0,000 mm 0,0 UV-I 0 W/m -2,4 C -10,3 C 24,1 km/h (4 Bft) 100,00 %
05.03.2018 21:41 -0,7 C 3,3 C 89 % 995,2 hPa 0,0 l/m 18,8 km/h (3 Bft) O-SO 115 0 min 0,000 mm 0,0 UV-I 0 W/m -2,3 C -9,9 C 24,1 km/h (4 Bft) 100,00 %
05.03.2018 21:42 -0,7 C 3,3 C 89 % 995,3 hPa 0,0 l/m 19,0 km/h (3 Bft) O 92 0 min 0,000 mm 0,0 UV-I 0 W/m -2,3 C -10,0 C 24,1 km/h (4 Bft) 100,00 %
05.03.2018 21:43 -0,7 C 3,3 C 89 % 995,3 hPa 0,0 l/m 20,4 km/h (4 Bft) O 97 0 min 0,000 mm 0,0 UV-I 0 W/m -2,3 C -10,7 C 27,4 km/h (4 Bft) 91,30 %
05.03.2018 21:44 -0,7 C 3,3 C 89 % 995,2 hPa 0,0 l/m 19,8 km/h (3 Bft) O 84 0 min 0,000 mm 0,0 UV-I 0 W/m -2,3 C -10,4 C 25,7 km/h (4 Bft) 100,00 %
05.03.2018 21:45 -0,7 C 3,3 C 89 % 995,2 hPa 0,0 l/m 16,2 km/h (3 Bft) O 93 0 min 0,000 mm 0,0 UV-I 0 W/m -2,3 C -8,5 C 19,3 km/h (3 Bft) 100,00 %
05.03.2018 21:47 -0,8 C 3,3 C 89 % 995,3 hPa 0,0 l/m 16,4 km/h (3 Bft) O 88 0 min 0,000 mm 0,0 UV-I 0 W/m -2,4 C -8,8 C 22,5 km/h (4 Bft) 100,00 %
05.03.2018 21:48 -0,8 C 3,3 C 89 % 995,3 hPa 0,0 l/m 17,8 km/h (3 Bft) O 84 0 min 0,000 mm 0,0 UV-I 0 W/m -2,4 C -9,6 C 24,1 km/h (4 Bft) 100,00 %
05.03.2018 21:49 -0,8 C 3,3 C 89 % 995,2 hPa 0,0 l/m 14,9 km/h (3 Bft) O 80 0 min 0,000 mm 0,0 UV-I 0 W/m -2,4 C -7,9 C 19,3 km/h (3 Bft) 95,65 %
05.03.2018 21:50 -0,8 C 3,3 C 89 % 995,2 hPa 0,0 l/m 13,6 km/h (3 Bft) O 96 0 min 0,000 mm 0,0 UV-I 0 W/m -2,4 C -7,0 C 17,7 km/h (3 Bft) 100,00 %
05.03.2018 21:51 -0,8 C 3,3 C 89 % 995,2 hPa 0,0 l/m 15,0 km/h (3 Bft) O 99 0 min 0,000 mm 0,0 UV-I 0 W/m -2,4 C -8,0 C 19,3 km/h (3 Bft) 100,00 %
05.03.2018 21:52 -0,8 C 3,3 C 89 % 995,2 hPa 0,0 l/m 14,5 km/h (3 Bft) O-NO 72 0 min 0,000 mm 0,0 UV-I 0 W/m -2,4 C -7,6 C 19,3 km/h (3 Bft) 100,00 %
05.03.2018 21:53 -0,8 C 3,3 C 89 % 995,2 hPa 0,0 l/m 16,2 km/h (3 Bft) O 93 0 min 0,000 mm 0,0 UV-I 0 W/m -2,4 C -8,7 C 27,4 km/h (4 Bft) 91,30 %
05.03.2018 21:54 -0,8 C 3,3 C 89 % 995,2 hPa 0,0 l/m 17,8 km/h (3 Bft) O 94 0 min 0,000 mm 0,0 UV-I 0 W/m -2,4 C -9,6 C 27,4 km/h (4 Bft) 100,00 %
05.03.2018 21:55 -0,8 C 3,3 C 89 % 995,2 hPa 0,0 l/m 17,3 km/h (3 Bft) O 93 0 min 0,000 mm 0,0 UV-I 0 W/m -2,4 C -9,3 C 22,5 km/h (4 Bft) 100,00 %
05.03.2018 21:56 -0,8 C 3,3 C 89 % 995,2 hPa 0,0 l/m 16,0 km/h (3 Bft) O-SO 113 0 min 0,000 mm 0,0 UV-I 0 W/m -2,4 C -8,6 C 22,5 km/h (4 Bft) 96,30 %
05.03.2018 21:57 -0,8 C 3,3 C 89 % 995,2 hPa 0,0 l/m 23,2 km/h (4 Bft) O 84 0 min 0,000 mm 0,0 UV-I 0 W/m -2,4 C -12,1 C 30,6 km/h (5 Bft) 95,65 %
05.03.2018 21:58 -0,8 C 3,3 C 89 % 995,1 hPa 0,0 l/m 17,3 km/h (3 Bft) O 82 0 min 0,000 mm 0,0 UV-I 0 W/m -2,4 C -9,3 C 20,9 km/h (4 Bft) 100,00 %
05.03.2018 21:59 -0,8 C 3,3 C 89 % 995,2 hPa 0,0 l/m 16,9 km/h (3 Bft) O-NO 78 0 min 0,000 mm 0,0 UV-I 0 W/m -2,4 C -9,1 C 22,5 km/h (4 Bft) 100,00 %
05.03.2018 22:00 -0,8 C 3,3 C 89 % 995,1 hPa 0,0 l/m 15,5 km/h (3 Bft) O 95 0 min 0,000 mm 0,0 UV-I 0 W/m -2,4 C -8,3 C 20,9 km/h (4 Bft) 100,00 %
05.03.2018 22:01 -0,8 C 3,3 C 89 % 995,1 hPa 0,0 l/m 16,6 km/h (3 Bft) O 92 0 min 0,025 mm 0,0 UV-I 0 W/m -2,4 C -8,9 C 20,9 km/h (4 Bft) 95,83 %
05.03.2018 22:02 -0,8 C 3,3 C 89 % 995,1 hPa 0,0 l/m 16,5 km/h (3 Bft) O 82 0 min 0,000 mm 0,0 UV-I 0 W/m -2,4 C -8,8 C 24,1 km/h (4 Bft) 100,00 %
05.03.2018 22:03 -0,8 C 3,3 C 89 % 995,1 hPa 0,0 l/m 17,4 km/h (3 Bft) O 93 0 min 0,000 mm 0,0 UV-I 0 W/m -2,4 C -9,3 C 27,4 km/h (4 Bft) 100,00 %
05.03.2018 22:04 -0,8 C 3,3 C 89 % 995,1 hPa 0,0 l/m 17,8 km/h (3 Bft) O-SO 105 0 min 0,000 mm 0,0 UV-I 0 W/m -2,4 C -9,6 C 24,1 km/h (4 Bft) 100,00 %
05.03.2018 22:05 -0,8 C 3,3 C 89 % 995,0 hPa 0,0 l/m 20,4 km/h (4 Bft) O 86 0 min 0,000 mm 0,0 UV-I 0 W/m -2,4 C -10,9 C 25,7 km/h (4 Bft) 100,00 %
05.03.2018 22:06 -0,8 C 3,3 C 89 % 995,0 hPa 0,0 l/m 16,4 km/h (3 Bft) O 85 0 min 0,000 mm 0,0 UV-I 0 W/m -2,4 C -8,8 C 22,5 km/h (4 Bft) 95,65 %
05.03.2018 22:07 -0,8 C 3,3 C 89 % 995,0 hPa 0,0 l/m 19,2 km/h (3 Bft) O-NO 71 0 min 0,000 mm 0,0 UV-I 0 W/m -2,4 C -10,3 C 25,7 km/h (4 Bft) 100,00 %
05.03.2018 22:08 -0,8 C 3,3 C 89 % 995,0 hPa 0,0 l/m 17,9 km/h (3 Bft) O 98 0 min 0,000 mm 0,0 UV-I 0 W/m -2,4 C -9,6 C 24,1 km/h (4 Bft) 95,83 %
05.03.2018 22:09 -0,8 C 3,3 C 89 % 995,0 hPa 0,0 l/m 14,9 km/h (3 Bft) O 101 0 min 0,000 mm 0,0 UV-I 0 W/m -2,4 C -7,9 C 19,3 km/h (3 Bft) 100,00 %
05.03.2018 22:10 -0,8 C 3,3 C 89 % 995,0 hPa 0,0 l/m 16,4 km/h (3 Bft) O 91 0 min 0,000 mm 0,0 UV-I 0 W/m -2,4 C -8,8 C 22,5 km/h (4 Bft) 100,00 %
05.03.2018 22:11 -0,8 C 3,3 C 89 % 995,0 hPa 0,0 l/m 17,6 km/h (3 Bft) O-NO 75 0 min 0,000 mm 0,0 UV-I 0 W/m -2,4 C -9,4 C 20,9 km/h (4 Bft) 95,83 %
05.03.2018 22:12 -0,8 C 3,3 C 89 % 995,0 hPa 0,0 l/m 16,0 km/h (3 Bft) O 88 0 min 0,000 mm 0,0 UV-I 0 W/m -2,4 C -8,6 C 24,1 km/h (4 Bft) 100,00 %
05.03.2018 22:13 -0,8 C 3,3 C 89 % 994,9 hPa 0,0 l/m 20,5 km/h (4 Bft) O 88 0 min 0,000 mm 0,0 UV-I 0 W/m -2,4 C -10,9 C 24,1 km/h (4 Bft) 95,83 %
05.03.2018 22:14 -0,8 C 3,3 C 89 % 994,9 hPa 0,0 l/m 16,8 km/h (3 Bft) O-SO 119 0 min 0,000 mm 0,0 UV-I 0 W/m -2,4 C -9,0 C 22,5 km/h (4 Bft) 100,00 %
05.03.2018 22:15 -0,8 C 3,3 C 89 % 994,9 hPa 0,0 l/m 16,1 km/h (3 Bft) O 91 0 min 0,000 mm 0,0 UV-I 0 W/m -2,4 C -8,6 C 19,3 km/h (3 Bft) 95,83 %
05.03.2018 22:16 -0,8 C 3,3 C 89 % 994,9 hPa 0,0 l/m 14,4 km/h (3 Bft) O 96 0 min 0,000 mm 0,0 UV-I 0 W/m -2,4 C -7,6 C 19,3 km/h (3 Bft) 100,00 %
05.03.2018 22:17 -0,8 C 3,3 C 89 % 994,9 hPa 0,0 l/m 16,4 km/h (3 Bft) O-NO 57 0 min 0,000 mm 0,0 UV-I 0 W/m -2,4 C -8,8 C 19,3 km/h (3 Bft) 91,67 %
05.03.2018 22:18 -0,8 C 3,3 C 89 % 994,9 hPa 0,0 l/m 13,4 km/h (3 Bft) O 88 0 min 0,000 mm 0,0 UV-I 0 W/m -2,4 C -6,9 C 17,7 km/h (3 Bft) 100,00 %
05.03.2018 22:19 -0,8 C 3,3 C 89 % 994,9 hPa 0,0 l/m 13,6 km/h (3 Bft) O 98 0 min 0,000 mm 0,0 UV-I 0 W/m -2,4 C -7,0 C 19,3 km/h (3 Bft) 83,33 %
05.03.2018 22:20 -0,8 C 3,3 C 89 % 994,9 hPa 0,0 l/m 14,2 km/h (3 Bft) O-NO 58 0 min 0,000 mm 0,0 UV-I 0 W/m -2,4 C -7,4 C 19,3 km/h (3 Bft) 95,83 %
05.03.2018 22:21 -0,9 C 3,3 C 89 % 995,0 hPa 0,0 l/m 13,7 km/h (3 Bft) O 100 0 min 0,000 mm 0,0 UV-I 0 W/m -2,5 C -7,2 C 20,9 km/h (4 Bft) 95,65 %
05.03.2018 22:22 -0,9 C 3,3 C 89 % 995,0 hPa 0,0 l/m 13,3 km/h (3 Bft) O-NO 74 0 min 0,000 mm 0,0 UV-I 0 W/m -2,5 C -7,0 C 17,7 km/h (3 Bft) 100,00 %
05.03.2018 22:23 -0,9 C 3,3 C 89 % 994,9 hPa 0,0 l/m 13,1 km/h (3 Bft) O 88 0 min 0,000 mm 0,0 UV-I 0 W/m -2,5 C -6,8 C 16,1 km/h (3 Bft) 95,65 %
05.03.2018 22:24 -0,9 C 3,3 C 89 % 994,9 hPa 0,0 l/m 17,1 km/h (3 Bft) O 91 0 min 0,000 mm 0,0 UV-I 0 W/m -2,5 C -9,3 C 19,3 km/h (3 Bft) 95,83 %
05.03.2018 22:25 -0,9 C 3,3 C 89 % 994,9 hPa 0,0 l/m 13,7 km/h (3 Bft) O-SO 102 0 min 0,000 mm 0,0 UV-I 0 W/m -2,5 C -7,2 C 17,7 km/h (3 Bft) 100,00 %
05.03.2018 22:26 -0,9 C 3,3 C 89 % 994,9 hPa 0,0 l/m 15,6 km/h (3 Bft) O 91 0 min 0,000 mm 0,0 UV-I 0 W/m -2,5 C -8,4 C 19,3 km/h (3 Bft) 95,83 %
05.03.2018 22:27 -0,9 C 3,3 C 89 % 994,9 hPa 0,0 l/m 17,2 km/h (3 Bft) O 89 0 min 0,000 mm 0,0 UV-I 0 W/m -2,5 C -9,4 C 20,9 km/h (4 Bft) 95,65 %
05.03.2018 22:28 -0,9 C 3,3 C 89 % 994,9 hPa 0,0 l/m 17,4 km/h (3 Bft) O 85 0 min 0,000 mm 0,0 UV-I 0 W/m -2,5 C -9,5 C 24,1 km/h (4 Bft) 95,83 %
05.03.2018 22:29 -0,9 C 3,3 C 89 % 994,8 hPa 0,0 l/m 16,8 km/h (3 Bft) O 96 0 min 0,000 mm 0,0 UV-I 0 W/m -2,5 C -9,1 C 20,9 km/h (4 Bft) 100,00 %
05.03.2018 22:30 -0,9 C 3,3 C 89 % 994,8 hPa 0,0 l/m 16,2 km/h (3 Bft) O 88 0 min 0,000 mm 0,0 UV-I 0 W/m -2,5 C -8,8 C 20,9 km/h (4 Bft) 95,83 %
05.03.2018 22:31 -0,9 C 3,3 C 89 % 994,9 hPa 0,0 l/m 20,3 km/h (4 Bft) O-NO 74 0 min 0,000 mm 0,0 UV-I 0 W/m -2,5 C -10,9 C 29,0 km/h (5 Bft) 95,83 %
05.03.2018 22:32 -0,8 C 3,3 C 89 % 994,9 hPa 0,0 l/m 17,2 km/h (3 Bft) O 92 0 min 0,000 mm 0,0 UV-I 0 W/m -2,4 C -9,2 C 22,5 km/h (4 Bft) 95,65 %
05.03.2018 22:33 -0,8 C 3,3 C 89 % 994,9 hPa 0,0 l/m 18,4 km/h (3 Bft) O 88 0 min 0,000 mm 0,0 UV-I 0 W/m -2,4 C -9,9 C 25,7 km/h (4 Bft) 95,83 %
05.03.2018 22:34 -0,8 C 3,3 C 89 % 994,9 hPa 0,0 l/m 15,2 km/h (3 Bft) O-SO 103 0 min 0,000 mm 0,0 UV-I 0 W/m -2,4 C -8,1 C 20,9 km/h (4 Bft) 100,00 %
05.03.2018 22:35 -0,8 C 3,3 C 89 % 994,9 hPa 0,0 l/m 14,4 km/h (3 Bft) O 94 0 min 0,000 mm 0,0 UV-I 0 W/m -2,4 C -7,6 C 24,1 km/h (4 Bft) 95,83 %
05.03.2018 22:39 -0,8 C 3,3 C 89 % 994,8 hPa 0,0 l/m 16,5 km/h (3 Bft) O 88 0 min 0,000 mm 0,0 UV-I 0 W/m -2,4 C -8,8 C 22,5 km/h (4 Bft) 100,00 %
05.03.2018 22:40 -0,8 C 3,3 C 89 % 994,8 hPa 0,0 l/m 16,6 km/h (3 Bft) O 92 0 min 0,000 mm 0,0 UV-I 0 W/m -2,4 C -8,9 C 20,9 km/h (4 Bft) 92,31 %
05.03.2018 22:41 -0,8 C 3,3 C 89 % 994,8 hPa 0,0 l/m 16,3 km/h (3 Bft) O 101 0 min 0,000 mm 0,0 UV-I 0 W/m -2,4 C -8,7 C 19,3 km/h (3 Bft) 100,00 %
05.03.2018 22:43 -0,9 C 3,3 C 89 % 994,8 hPa 0,0 l/m 17,1 km/h (3 Bft) O-NO 78 0 min 0,000 mm 0,0 UV-I 0 W/m -2,5 C -9,3 C 24,1 km/h (4 Bft) 95,74 %
05.03.2018 22:44 -0,9 C 3,3 C 89 % 994,8 hPa 0,0 l/m 19,7 km/h (3 Bft) O 96 0 min 0,000 mm 0,0 UV-I 0 W/m -2,5 C -10,6 C 24,1 km/h (4 Bft) 96,15 %
05.03.2018 22:45 -0,9 C 3,3 C 89 % 994,8 hPa 0,0 l/m 19,7 km/h (3 Bft) O-NO 78 0 min 0,000 mm 0,0 UV-I 0 W/m -2,5 C -10,6 C 25,7 km/h (4 Bft) 100,00 %
05.03.2018 22:46 -0,9 C 3,3 C 89 % 994,8 hPa 0,0 l/m 20,8 km/h (4 Bft) O-SO 106 0 min 0,000 mm 0,0 UV-I 0 W/m -2,5 C -11,2 C 25,7 km/h (4 Bft) 96,88 %
05.03.2018 22:47 -0,9 C 3,3 C 89 % 994,7 hPa 0,0 l/m 20,8 km/h (4 Bft) O-SO 117 0 min 0,000 mm 0,0 UV-I 0 W/m -2,5 C -11,2 C 27,4 km/h (4 Bft) 100,00 %
05.03.2018 22:48 -0,8 C 3,3 C 89 % 994,7 hPa 0,0 l/m 21,2 km/h (4 Bft) O 101 0 min 0,000 mm 0,0 UV-I 0 W/m -2,4 C -11,2 C 27,4 km/h (4 Bft) 100,00 %
05.03.2018 22:49 -0,9 C 3,3 C 89 % 994,7 hPa 0,0 l/m 16,9 km/h (3 Bft) O 94 0 min 0,000 mm 0,0 UV-I 0 W/m -2,5 C -9,2 C 24,1 km/h (4 Bft) 96,15 %
05.03.2018 22:50 -0,9 C 3,3 C 89 % 994,7 hPa 0,0 l/m 18,6 km/h (3 Bft) O-SO 103 0 min 0,000 mm 0,0 UV-I 0 W/m -2,5 C -10,1 C 27,4 km/h (4 Bft) 100,00 %
05.03.2018 22:51 -0,9 C 3,3 C 89 % 994,7 hPa 0,0 l/m 14,7 km/h (3 Bft) O-SO 107 0 min 0,000 mm 0,0 UV-I 0 W/m -2,5 C -7,9 C 20,9 km/h (4 Bft) 100,00 %
05.03.2018 22:52 -0,9 C 3,3 C 89 % 994,7 hPa 0,0 l/m 17,8 km/h (3 Bft) NO 49 0 min 0,000 mm 0,0 UV-I 0 W/m -2,5 C -9,7 C 24,1 km/h (4 Bft) 100,00 %
05.03.2018 22:53 -0,9 C 3,3 C 89 % 994,7 hPa 0,0 l/m 19,1 km/h (3 Bft) O 94 0 min 0,000 mm 0,0 UV-I 0 W/m -2,5 C -10,4 C 22,5 km/h (4 Bft) 100,00 %
05.03.2018 22:54 -0,9 C 3,3 C 89 % 994,7 hPa 0,0 l/m 16,0 km/h (3 Bft) O 97 0 min 0,000 mm 0,0 UV-I 0 W/m -2,5 C -8,7 C 24,1 km/h (4 Bft) 100,00 %
05.03.2018 22:55 -0,9 C 3,3 C 89 % 994,7 hPa 0,0 l/m 13,8 km/h (3 Bft) O-SO 110 0 min 0,000 mm 0,0 UV-I 0 W/m -2,5 C -7,3 C 20,9 km/h (4 Bft) 96,15 %
05.03.2018 22:56 -0,9 C 3,3 C 89 % 994,7 hPa 0,0 l/m 17,7 km/h (3 Bft) O-SO 119 0 min 0,000 mm 0,0 UV-I 0 W/m -2,5 C -9,6 C 22,5 km/h (4 Bft) 96,30 %
05.03.2018 22:57 -0,9 C 3,3 C 89 % 994,6 hPa 0,0 l/m 20,0 km/h (4 Bft) O 92 0 min 0,000 mm 0,0 UV-I 0 W/m -2,5 C -10,8 C 27,4 km/h (4 Bft) 100,00 %
05.03.2018 22:58 -0,9 C 3,3 C 89 % 994,6 hPa 0,0 l/m 17,4 km/h (3 Bft) O-NO 66 0 min 0,000 mm 0,0 UV-I 0 W/m -2,5 C -9,5 C 20,9 km/h (4 Bft) 93,33 %
05.03.2018 22:59 -0,9 C 3,3 C 89 % 994,6 hPa 0,0 l/m 16,3 km/h (3 Bft) O 82 0 min 0,000 mm 0,0 UV-I 0 W/m -2,5 C -8,8 C 22,5 km/h (4 Bft) 96,55 %
05.03.2018 23:00 -0,9 C 3,3 C 89 % 994,5 hPa 0,0 l/m 11,3 km/h (2 Bft) SO 126 0 min 0,000 mm 0,0 UV-I 0 W/m -2,5 C -5,5 C 17,7 km/h (3 Bft) 100,00 %
05.03.2018 23:01 -0,9 C 3,3 C 89 % 994,6 hPa 0,0 l/m 17,8 km/h (3 Bft) O-NO 69 0 min 0,025 mm 0,0 UV-I 0 W/m -2,5 C -9,7 C 22,5 km/h (4 Bft) 100,00 %
05.03.2018 23:02 -0,9 C 3,3 C 89 % 994,5 hPa 0,0 l/m 15,1 km/h (3 Bft) O 82 0 min 0,000 mm 0,0 UV-I 0 W/m -2,5 C -8,1 C 22,5 km/h (4 Bft) 100,00 %
05.03.2018 23:03 -0,9 C 3,3 C 89 % 994,5 hPa 0,0 l/m 15,4 km/h (3 Bft) O 80 0 min 0,000 mm 0,0 UV-I 0 W/m -2,5 C -8,3 C 22,5 km/h (4 Bft) 100,00 %
05.03.2018 23:04 -0,9 C 3,3 C 89 % 994,5 hPa 0,0 l/m 18,4 km/h (3 Bft) O-NO 69 0 min 0,000 mm 0,0 UV-I 0 W/m -2,5 C -10,0 C 24,1 km/h (4 Bft) 100,00 %
05.03.2018 23:05 -0,9 C 3,3 C 89 % 994,5 hPa 0,0 l/m 17,5 km/h (3 Bft) O 91 0 min 0,000 mm 0,0 UV-I 0 W/m -2,5 C -9,5 C 24,1 km/h (4 Bft) 96,55 %
05.03.2018 23:06 -0,9 C 3,3 C 89 % 994,6 hPa 0,0 l/m 16,2 km/h (3 Bft) O 92 0 min 0,000 mm 0,0 UV-I 0 W/m -2,5 C -8,8 C 19,3 km/h (3 Bft) 100,00 %
05.03.2018 23:07 -0,9 C 3,3 C 89 % 994,6 hPa 0,0 l/m 15,2 km/h (3 Bft) O 82 0 min 0,000 mm 0,0 UV-I 0 W/m -2,5 C -8,2 C 22,5 km/h (4 Bft) 100,00 %
05.03.2018 23:08 -0,9 C 3,3 C 89 % 994,6 hPa 0,0 l/m 17,1 km/h (3 Bft) O-SO 109 0 min 0,000 mm 0,0 UV-I 0 W/m -2,5 C -9,3 C 22,5 km/h (4 Bft) 100,00 %
05.03.2018 23:09 -0,9 C 3,3 C 89 % 994,6 hPa 0,0 l/m 15,7 km/h (3 Bft) O 89 0 min 0,000 mm 0,0 UV-I 0 W/m -2,5 C -8,5 C 22,5 km/h (4 Bft) 100,00 %
05.03.2018 23:10 -0,9 C 3,3 C 89 % 994,5 hPa 0,0 l/m 12,4 km/h (3 Bft) O-NO 59 0 min 0,000 mm 0,0 UV-I 0 W/m -2,5 C -6,3 C 16,1 km/h (3 Bft) 100,00 %
05.03.2018 23:11 -0,9 C 3,3 C 90 % 994,5 hPa 0,0 l/m 14,2 km/h (3 Bft) O 79 0 min 0,000 mm 0,0 UV-I 0 W/m -2,3 C -7,6 C 17,7 km/h (3 Bft) 100,00 %
05.03.2018 23:13 -1,0 C 3,3 C 90 % 994,5 hPa 0,0 l/m 15,2 km/h (3 Bft) O 96 0 min 0,000 mm 0,0 UV-I 0 W/m -2,4 C -8,3 C 20,9 km/h (4 Bft) 100,00 %
05.03.2018 23:14 -1,0 C 3,3 C 90 % 994,6 hPa 0,0 l/m 17,2 km/h (3 Bft) O 89 0 min 0,000 mm 0,0 UV-I 0 W/m -2,4 C -9,5 C 25,7 km/h (4 Bft) 98,57 %
05.03.2018 23:15 -1,0 C 3,3 C 90 % 994,6 hPa 0,0 l/m 17,6 km/h (3 Bft) O 84 0 min 0,000 mm 0,0 UV-I 0 W/m -2,4 C -9,7 C 20,9 km/h (4 Bft) 100,00 %
05.03.2018 23:16 -1,0 C 3,3 C 90 % 994,6 hPa 0,0 l/m 14,9 km/h (3 Bft) O-NO 68 0 min 0,000 mm 0,0 UV-I 0 W/m -2,4 C -8,1 C 19,3 km/h (3 Bft) 100,00 %
05.03.2018 23:17 -1,0 C 3,3 C 90 % 994,6 hPa 0,0 l/m 17,6 km/h (3 Bft) O-SO 102 0 min 0,000 mm 0,0 UV-I 0 W/m -2,4 C -9,7 C 22,5 km/h (4 Bft) 100,00 %
05.03.2018 23:18 -1,0 C 3,3 C 90 % 994,6 hPa 0,0 l/m 14,6 km/h (3 Bft) O 101 0 min 0,000 mm 0,0 UV-I 0 W/m -2,4 C -7,9 C 17,7 km/h (3 Bft) 98,71 %
05.03.2018 23:19 -1,0 C 3,3 C 90 % 994,5 hPa 0,0 l/m 13,8 km/h (3 Bft) O-SO 114 0 min 0,000 mm 0,0 UV-I 0 W/m -2,4 C -7,4 C 17,7 km/h (3 Bft) 100,00 %
05.03.2018 23:20 -1,0 C 3,3 C 90 % 994,5 hPa 0,0 l/m 20,0 km/h (4 Bft) O 81 0 min 0,000 mm 0,0 UV-I 0 W/m -2,4 C -10,9 C 27,4 km/h (4 Bft) 100,00 %
05.03.2018 23:21 -1,0 C 3,3 C 90 % 994,7 hPa 0,0 l/m 16,4 km/h (3 Bft) O 80 0 min 0,000 mm 0,0 UV-I 0 W/m -2,4 C -9,0 C 20,9 km/h (4 Bft) 100,00 %
05.03.2018 23:22 -1,0 C 3,3 C 90 % 994,5 hPa 0,0 l/m 18,1 km/h (3 Bft) O 87 0 min 0,000 mm 0,0 UV-I 0 W/m -2,4 C -10,0 C 24,1 km/h (4 Bft) 100,00 %
05.03.2018 23:23 -1,0 C 3,3 C 90 % 994,5 hPa 0,0 l/m 13,8 km/h (3 Bft) O-SO 105 0 min 0,000 mm 0,0 UV-I 0 W/m -2,4 C -7,4 C 20,9 km/h (4 Bft) 96,15 %
05.03.2018 23:24 -1,0 C 3,3 C 90 % 994,6 hPa 0,0 l/m 15,0 km/h (3 Bft) O 81 0 min 0,000 mm 0,0 UV-I 0 W/m -2,4 C -8,2 C 19,3 km/h (3 Bft) 100,00 %
05.03.2018 23:25 -1,0 C 3,3 C 90 % 994,6 hPa 0,0 l/m 14,3 km/h (3 Bft) O 89 0 min 0,000 mm 0,0 UV-I 0 W/m -2,4 C -7,7 C 22,5 km/h (4 Bft) 96,15 %
05.03.2018 23:26 -1,0 C 3,3 C 90 % 994,6 hPa 0,0 l/m 11,1 km/h (2 Bft) O-NO 63 0 min 0,000 mm 0,0 UV-I 0 W/m -2,4 C -5,5 C 14,5 km/h (3 Bft) 100,00 %
05.03.2018 23:27 -1,0 C 3,3 C 90 % 994,5 hPa 0,0 l/m 13,1 km/h (3 Bft) O 80 0 min 0,000 mm 0,0 UV-I 0 W/m -2,4 C -6,9 C 20,9 km/h (4 Bft) 95,65 %
05.03.2018 23:28 -1,0 C 3,3 C 90 % 994,5 hPa 0,0 l/m 11,9 km/h (2 Bft) O-NO 69 0 min 0,000 mm 0,0 UV-I 0 W/m -2,4 C -6,1 C 14,5 km/h (3 Bft) 100,00 %
05.03.2018 23:29 -1,0 C 3,3 C 90 % 994,5 hPa 0,0 l/m 12,9 km/h (3 Bft) O 101 0 min 0,000 mm 0,0 UV-I 0 W/m -2,4 C -6,8 C 16,1 km/h (3 Bft) 100,00 %
05.03.2018 23:30 -1,0 C 3,3 C 90 % 994,5 hPa 0,0 l/m 17,2 km/h (3 Bft) O 89 0 min 0,000 mm 0,0 UV-I 0 W/m -2,4 C -9,5 C 24,1 km/h (4 Bft) 100,00 %
05.03.2018 23:31 -1,0 C 3,3 C 90 % 994,5 hPa 0,0 l/m 15,8 km/h (3 Bft) O 82 0 min 0,000 mm 0,0 UV-I 0 W/m -2,4 C -8,7 C 20,9 km/h (4 Bft) 100,00 %
05.03.2018 23:32 -1,0 C 3,3 C 90 % 994,5 hPa 0,0 l/m 15,7 km/h (3 Bft) O 101 0 min 0,000 mm 0,0 UV-I 0 W/m -2,4 C -8,6 C 17,7 km/h (3 Bft) 100,00 %
05.03.2018 23:33 -1,0 C 3,3 C 90 % 994,5 hPa 0,0 l/m 14,8 km/h (3 Bft) O-NO 77 0 min 0,000 mm 0,0 UV-I 0 W/m -2,4 C -8,1 C 20,9 km/h (4 Bft) 100,00 %
05.03.2018 23:34 -1,0 C 3,3 C 90 % 994,5 hPa 0,0 l/m 18,0 km/h (3 Bft) O 83 0 min 0,000 mm 0,0 UV-I 0 W/m -2,4 C -9,9 C 25,7 km/h (4 Bft) 100,00 %
05.03.2018 23:35 -1,0 C 3,3 C 90 % 994,4 hPa 0,0 l/m 13,9 km/h (3 Bft) O-NO 78 0 min 0,000 mm 0,0 UV-I 0 W/m -2,4 C -7,5 C 17,7 km/h (3 Bft) 96,15 %
05.03.2018 23:36 -1,0 C 3,3 C 90 % 994,4 hPa 0,0 l/m 14,8 km/h (3 Bft) NO 52 0 min 0,000 mm 0,0 UV-I 0 W/m -2,4 C -8,1 C 22,5 km/h (4 Bft) 100,00 %
05.03.2018 23:37 -1,0 C 3,3 C 90 % 994,5 hPa 0,0 l/m 15,2 km/h (3 Bft) O 92 0 min 0,000 mm 0,0 UV-I 0 W/m -2,4 C -8,3 C 20,9 km/h (4 Bft) 100,00 %
05.03.2018 23:38 -1,0 C 3,3 C 90 % 994,4 hPa 0,0 l/m 14,3 km/h (3 Bft) NO 55 0 min 0,000 mm 0,0 UV-I 0 W/m -2,4 C -7,7 C 17,7 km/h (3 Bft) 100,00 %
05.03.2018 23:39 -1,0 C 3,3 C 90 % 994,4 hPa 0,0 l/m 17,4 km/h (3 Bft) O 94 0 min 0,000 mm 0,0 UV-I 0 W/m -2,4 C -9,6 C 22,5 km/h (4 Bft) 100,00 %
05.03.2018 23:40 -1,0 C 3,3 C 90 % 994,4 hPa 0,0 l/m 13,9 km/h (3 Bft) O 84 0 min 0,000 mm 0,0 UV-I 0 W/m -2,4 C -7,5 C 16,1 km/h (3 Bft) 100,00 %
05.03.2018 23:41 -1,0 C 3,3 C 90 % 994,4 hPa 0,0 l/m 10,7 km/h (2 Bft) O 96 0 min 0,000 mm 0,0 UV-I 0 W/m -2,4 C -5,1 C 17,7 km/h (3 Bft) 100,00 %
05.03.2018 23:42 -1,0 C 3,3 C 90 % 994,4 hPa 0,0 l/m 17,9 km/h (3 Bft) O 87 0 min 0,000 mm 0,0 UV-I 0 W/m -2,4 C -9,9 C 24,1 km/h (4 Bft) 97,14 %
05.03.2018 23:43 -1,0 C 3,3 C 90 % 994,4 hPa 0,0 l/m 16,2 km/h (3 Bft) O-NO 78 0 min 0,000 mm 0,0 UV-I 0 W/m -2,4 C -8,9 C 20,9 km/h (4 Bft) 100,00 %
05.03.2018 23:44 -1,1 C 3,3 C 90 % 994,4 hPa 0,0 l/m 18,3 km/h (3 Bft) O 93 0 min 0,000 mm 0,0 UV-I 0 W/m -2,5 C -10,2 C 22,5 km/h (4 Bft) 100,00 %
05.03.2018 23:45 -1,0 C 3,3 C 90 % 994,4 hPa 0,0 l/m 16,8 km/h (3 Bft) O-NO 78 0 min 0,000 mm 0,0 UV-I 0 W/m -2,4 C -9,3 C 20,9 km/h (4 Bft) 100,00 %
05.03.2018 23:46 -1,0 C 3,3 C 90 % 994,4 hPa 0,0 l/m 16,8 km/h (3 Bft) O-SO 102 0 min 0,000 mm 0,0 UV-I 0 W/m -2,4 C -9,3 C 20,9 km/h (4 Bft) 100,00 %
05.03.2018 23:47 -1,0 C 3,3 C 90 % 994,4 hPa 0,0 l/m 16,1 km/h (3 Bft) O 101 0 min 0,000 mm 0,0 UV-I 0 W/m -2,4 C -8,9 C 22,5 km/h (4 Bft) 100,00 %
05.03.2018 23:48 -1,1 C 3,3 C 90 % 994,4 hPa 0,0 l/m 16,7 km/h (3 Bft) O-SO 117 0 min 0,000 mm 0,0 UV-I 0 W/m -2,5 C -9,3 C 20,9 km/h (4 Bft) 100,00 %
05.03.2018 23:49 -1,1 C 3,3 C 90 % 994,4 hPa 0,0 l/m 16,1 km/h (3 Bft) O-SO 102 0 min 0,000 mm 0,0 UV-I 0 W/m -2,5 C -9,0 C 19,3 km/h (3 Bft) 100,00 %
05.03.2018 23:50 -1,1 C 3,3 C 90 % 994,3 hPa 0,0 l/m 13,8 km/h (3 Bft) O 90 0 min 0,000 mm 0,0 UV-I 0 W/m -2,5 C -7,5 C 16,1 km/h (3 Bft) 100,00 %
05.03.2018 23:51 -1,1 C 3,3 C 90 % 994,3 hPa 0,0 l/m 12,9 km/h (3 Bft) O-SO 104 0 min 0,000 mm 0,0 UV-I 0 W/m -2,5 C -6,9 C 19,3 km/h (3 Bft) 100,00 %
05.03.2018 23:53 -1,1 C 3,3 C 90 % 994,3 hPa 0,0 l/m 16,0 km/h (3 Bft) O-NO 76 0 min 0,000 mm 0,0 UV-I 0 W/m -2,5 C -8,9 C 24,1 km/h (4 Bft) 100,00 %
05.03.2018 23:54 -1,1 C 3,3 C 90 % 994,3 hPa 0,0 l/m 16,8 km/h (3 Bft) O-NO 69 0 min 0,000 mm 0,0 UV-I 0 W/m -2,5 C -9,4 C 20,9 km/h (4 Bft) 100,00 %
05.03.2018 23:55 -1,1 C 3,3 C 90 % 994,3 hPa 0,0 l/m 20,2 km/h (4 Bft) O 92 0 min 0,000 mm 0,0 UV-I 0 W/m -2,5 C -11,1 C 27,4 km/h (4 Bft) 100,00 %
05.03.2018 23:56 -1,1 C 3,3 C 90 % 994,3 hPa 0,0 l/m 20,3 km/h (4 Bft) O-NO 71 0 min 0,000 mm 0,0 UV-I 0 W/m -2,5 C -11,2 C 24,1 km/h (4 Bft) 100,00 %
05.03.2018 23:57 -1,1 C 3,3 C 90 % 994,3 hPa 0,0 l/m 21,2 km/h (4 Bft) O 93 0 min 0,000 mm 0,0 UV-I 0 W/m -2,5 C -11,6 C 27,4 km/h (4 Bft) 100,00 %
05.03.2018 23:58 -1,1 C 3,3 C 90 % 994,3 hPa 0,0 l/m 18,4 km/h (3 Bft) O 94 0 min 0,000 mm 0,0 UV-I 0 W/m -2,5 C -10,3 C 22,5 km/h (4 Bft) 100,00 %
05.03.2018 23:59 -1,1 C 3,3 C 90 % 994,2 hPa 0,0 l/m 14,1 km/h (3 Bft) O-NO 67 0 min 0,000 mm 0,0 UV-I 0 W/m -2,5 C -7,7 C 20,9 km/h (4 Bft) 100,00 %
_ Min-Zeit 04:03 00:00 13:46 23:59 - 04:24 - - - - - - 00:23 18:41 04:24 00:02
Minimum _ -3,2 C 3,3 C 80 % 994,2 hPa - 0,1 km/h (0 Bft) - - - - - - -4,9 C -12,5 C 1,6 km/h (1 Bft) 10,53 %
_ Max-Zeit 15:01 00:00 04:44 08:13 11:09 15:40 - - 10:25 12:00 11:37 11:38 15:00 11:28 15:40 00:00
Maximum _ 2,9 C 3,3 C 92 % 1002,4 hPa 0,2 l/m 27,8 km/h
O-NO (4 Bft)
- - 5 min 0,153 mm 1,5 UV-I 633 W/m 0,4 C -0,1 C 35,4 km/h
O (5 Bft)
100,00 %
Durchschnitt _ -0,8 C 3,3 C 88 % 999,1 hPa #0,4 l/m 13,9 km/h (3 Bft) O - #5:58 h #1,168 mm 0,9 UV-I 221 W/m -2,5 C -6,8 C 18,4 km/h (3 Bft) 97,93 %